<?xml version="1.0" encoding="UTF-8" standalone="no" ?>
<gpx xmlns="http://www.topografix.com/GPX/1/1" xmlns:xsi="http://www.w3.org/2001/XMLSchema-instance" xsi:schemaLocation="http://www.topografix.com/GPX/1/1 http://www.topografix.com/GPX/1/1/gpx.xsd" version="1.1" creator="VisuGPX - https://www.visugpx.com">
  <metadata>
    <name>Plouarzel - Belgrade</name>
    <desc><![CDATA[Arrivée à Belgrade le 11 juillet. 66 jours pédalés. 7 jours de repos.
]]></desc>
  </metadata>
  <trk>
    <name><![CDATA[Sortie à vélo]]></name>
    <extensions>
      <line xmlns="http://www.topografix.com/GPX/gpx_style/0/2">
        <color>0000FF</color>
        <width>4</width>
      </line>
    </extensions>
    <trkseg>
      <trkpt lat="48.4598" lon="-4.25853">
        <ele>108.98817</ele>
        <time>2023-05-01T12:34:45.436Z</time>
      </trkpt>
      <trkpt lat="48.45984" lon="-4.25839">
        <ele>108.98817</ele>
        <time>2023-05-01T12:35:05.279Z</time>
      </trkpt>
      <trkpt lat="48.45994" lon="-4.25832">
        <ele>108.98817</ele>
        <time>2023-05-01T12:35:10.279Z</time>
      </trkpt>
      <trkpt lat="48.46003" lon="-4.25824">
        <ele>108.98817</ele>
        <time>2023-05-01T12:35:14.279Z</time>
      </trkpt>
      <trkpt lat="48.46013" lon="-4.25818">
        <ele>108.98817</ele>
        <time>2023-05-01T12:35:17.282Z</time>
      </trkpt>
      <trkpt lat="48.46022" lon="-4.25811">
        <ele>108.98817</ele>
        <time>2023-05-01T12:35:20.274Z</time>
      </trkpt>
      <trkpt lat="48.46032" lon="-4.25805">
        <ele>108.98817</ele>
        <time>2023-05-01T12:35:23.282Z</time>
      </trkpt>
      <trkpt lat="48.46041" lon="-4.25798">
        <ele>108.98817</ele>
        <time>2023-05-01T12:35:26.285Z</time>
      </trkpt>
      <trkpt lat="48.46051" lon="-4.2579">
        <ele>108.98817</ele>
        <time>2023-05-01T12:35:30.285Z</time>
      </trkpt>
      <trkpt lat="48.46057" lon="-4.25776">
        <ele>108.495592</ele>
        <time>2023-05-01T12:35:35.283Z</time>
      </trkpt>
      <trkpt lat="48.46052" lon="-4.25765">
        <ele>107.710187</ele>
        <time>2023-05-01T12:35:38.280Z</time>
      </trkpt>
      <trkpt lat="48.46043" lon="-4.25753">
        <ele>106.710005</ele>
        <time>2023-05-01T12:35:41.270Z</time>
      </trkpt>
      <trkpt lat="48.46035" lon="-4.25744">
        <ele>105.889103</ele>
        <time>2023-05-01T12:35:44.279Z</time>
      </trkpt>
      <trkpt lat="48.46028" lon="-4.25735">
        <ele>105.116311</ele>
        <time>2023-05-01T12:35:47.283Z</time>
      </trkpt>
      <trkpt lat="48.46022" lon="-4.25724">
        <ele>104.280561</ele>
        <time>2023-05-01T12:35:50.282Z</time>
      </trkpt>
      <trkpt lat="48.46016" lon="-4.25711">
        <ele>103.425033</ele>
        <time>2023-05-01T12:35:53.282Z</time>
      </trkpt>
      <trkpt lat="48.46011" lon="-4.25696">
        <ele>102.455852</ele>
        <time>2023-05-01T12:35:56.286Z</time>
      </trkpt>
      <trkpt lat="48.46006" lon="-4.25681">
        <ele>101.532934</ele>
        <time>2023-05-01T12:35:59.284Z</time>
      </trkpt>
      <trkpt lat="48.46001" lon="-4.25665">
        <ele>100.558044</ele>
        <time>2023-05-01T12:36:02.276Z</time>
      </trkpt>
      <trkpt lat="48.45995" lon="-4.25649">
        <ele>99.501543</ele>
        <time>2023-05-01T12:36:05.285Z</time>
      </trkpt>
      <trkpt lat="48.45988" lon="-4.25634">
        <ele>98.477649</ele>
        <time>2023-05-01T12:36:08.284Z</time>
      </trkpt>
      <trkpt lat="48.4598" lon="-4.25619">
        <ele>97.356825</ele>
        <time>2023-05-01T12:36:11.281Z</time>
      </trkpt>
      <trkpt lat="48.45971" lon="-4.25606">
        <ele>96.338642</ele>
        <time>2023-05-01T12:36:14.288Z</time>
      </trkpt>
      <trkpt lat="48.45963" lon="-4.25592">
        <ele>95.312918</ele>
        <time>2023-05-01T12:36:17.286Z</time>
      </trkpt>
      <trkpt lat="48.45954" lon="-4.25578">
        <ele>94.18711</ele>
        <time>2023-05-01T12:36:20.276Z</time>
      </trkpt>
      <trkpt lat="48.45944" lon="-4.25568">
        <ele>93.38393</ele>
        <time>2023-05-01T12:36:23.284Z</time>
      </trkpt>
      <trkpt lat="48.45935" lon="-4.25563">
        <ele>92.799582</ele>
        <time>2023-05-01T12:36:26.284Z</time>
      </trkpt>
      <trkpt lat="48.45926" lon="-4.25559">
        <ele>92.249571</ele>
        <time>2023-05-01T12:36:29.288Z</time>
      </trkpt>
      <trkpt lat="48.45917" lon="-4.25554">
        <ele>91.655735</ele>
        <time>2023-05-01T12:36:32.290Z</time>
      </trkpt>
      <trkpt lat="48.45906" lon="-4.25551">
        <ele>90.983418</ele>
        <time>2023-05-01T12:36:35.293Z</time>
      </trkpt>
      <trkpt lat="48.45895" lon="-4.25548">
        <ele>90.325333</ele>
        <time>2023-05-01T12:36:38.283Z</time>
      </trkpt>
      <trkpt lat="48.45884" lon="-4.25545">
        <ele>89.64546</ele>
        <time>2023-05-01T12:36:41.275Z</time>
      </trkpt>
      <trkpt lat="48.45872" lon="-4.25542">
        <ele>88.940302</ele>
        <time>2023-05-01T12:36:44.280Z</time>
      </trkpt>
      <trkpt lat="48.4586" lon="-4.25539">
        <ele>88.184271</ele>
        <time>2023-05-01T12:36:47.283Z</time>
      </trkpt>
      <trkpt lat="48.45846" lon="-4.25535">
        <ele>87.370457</ele>
        <time>2023-05-01T12:36:50.292Z</time>
      </trkpt>
      <trkpt lat="48.45837" lon="-4.25532">
        <ele>86.815507</ele>
        <time>2023-05-01T12:36:52.281Z</time>
      </trkpt>
      <trkpt lat="48.45825" lon="-4.25528">
        <ele>86.058784</ele>
        <time>2023-05-01T12:36:55.286Z</time>
      </trkpt>
      <trkpt lat="48.45812" lon="-4.25526">
        <ele>85.286593</ele>
        <time>2023-05-01T12:36:58.286Z</time>
      </trkpt>
      <trkpt lat="48.45803" lon="-4.25524">
        <ele>84.745739</ele>
        <time>2023-05-01T12:37:00.276Z</time>
      </trkpt>
      <trkpt lat="48.45794" lon="-4.2552">
        <ele>84.212936</ele>
        <time>2023-05-01T12:37:02.278Z</time>
      </trkpt>
      <trkpt lat="48.45782" lon="-4.25516">
        <ele>83.444996</ele>
        <time>2023-05-01T12:37:05.280Z</time>
      </trkpt>
      <trkpt lat="48.45769" lon="-4.25513">
        <ele>82.831211</ele>
        <time>2023-05-01T12:37:08.278Z</time>
      </trkpt>
      <trkpt lat="48.45757" lon="-4.2551">
        <ele>82.412305</ele>
        <time>2023-05-01T12:37:11.287Z</time>
      </trkpt>
      <trkpt lat="48.45745" lon="-4.25508">
        <ele>81.994072</ele>
        <time>2023-05-01T12:37:14.285Z</time>
      </trkpt>
      <trkpt lat="48.45733" lon="-4.25503">
        <ele>81.571395</ele>
        <time>2023-05-01T12:37:17.286Z</time>
      </trkpt>
      <trkpt lat="48.45721" lon="-4.25499">
        <ele>81.13225</ele>
        <time>2023-05-01T12:37:20.275Z</time>
      </trkpt>
      <trkpt lat="48.45709" lon="-4.25495">
        <ele>80.707986</ele>
        <time>2023-05-01T12:37:23.285Z</time>
      </trkpt>
      <trkpt lat="48.45699" lon="-4.2549">
        <ele>80.314809</ele>
        <time>2023-05-01T12:37:26.281Z</time>
      </trkpt>
      <trkpt lat="48.45689" lon="-4.25487">
        <ele>79.973153</ele>
        <time>2023-05-01T12:37:29.269Z</time>
      </trkpt>
      <trkpt lat="48.4568" lon="-4.25484">
        <ele>79.627561</ele>
        <time>2023-05-01T12:37:33.284Z</time>
      </trkpt>
      <trkpt lat="48.45674" lon="-4.25472">
        <ele>79.293375</ele>
        <time>2023-05-01T12:37:43.268Z</time>
      </trkpt>
      <trkpt lat="48.45677" lon="-4.25459">
        <ele>78.957455</ele>
        <time>2023-05-01T12:37:47.289Z</time>
      </trkpt>
      <trkpt lat="48.4568" lon="-4.25445">
        <ele>78.623495</ele>
        <time>2023-05-01T12:37:51.365Z</time>
      </trkpt>
      <trkpt lat="48.45683" lon="-4.2543">
        <ele>78.260002</ele>
        <time>2023-05-01T12:37:55.281Z</time>
      </trkpt>
      <trkpt lat="48.45687" lon="-4.25413">
        <ele>77.850109</ele>
        <time>2023-05-01T12:37:59.288Z</time>
      </trkpt>
      <trkpt lat="48.45689" lon="-4.254">
        <ele>77.5273</ele>
        <time>2023-05-01T12:38:02.277Z</time>
      </trkpt>
      <trkpt lat="48.4569" lon="-4.25386">
        <ele>77.198296</ele>
        <time>2023-05-01T12:38:05.286Z</time>
      </trkpt>
      <trkpt lat="48.45694" lon="-4.25372">
        <ele>76.862161</ele>
        <time>2023-05-01T12:38:08.283Z</time>
      </trkpt>
      <trkpt lat="48.45697" lon="-4.25359">
        <ele>76.678507</ele>
        <time>2023-05-01T12:38:11.280Z</time>
      </trkpt>
      <trkpt lat="48.45699" lon="-4.25345">
        <ele>76.580864</ele>
        <time>2023-05-01T12:38:14.287Z</time>
      </trkpt>
      <trkpt lat="48.45701" lon="-4.2533">
        <ele>76.468905</ele>
        <time>2023-05-01T12:38:18.283Z</time>
      </trkpt>
      <trkpt lat="48.45698" lon="-4.25313">
        <ele>76.349013</ele>
        <time>2023-05-01T12:38:22.274Z</time>
      </trkpt>
      <trkpt lat="48.45693" lon="-4.25297">
        <ele>76.224029</ele>
        <time>2023-05-01T12:38:26.283Z</time>
      </trkpt>
      <trkpt lat="48.45689" lon="-4.25284">
        <ele>76.124139</ele>
        <time>2023-05-01T12:38:29.284Z</time>
      </trkpt>
      <trkpt lat="48.45685" lon="-4.25271">
        <ele>76.02506</ele>
        <time>2023-05-01T12:38:32.281Z</time>
      </trkpt>
      <trkpt lat="48.45681" lon="-4.25258">
        <ele>75.921298</ele>
        <time>2023-05-01T12:38:35.294Z</time>
      </trkpt>
      <trkpt lat="48.45677" lon="-4.25245">
        <ele>75.822522</ele>
        <time>2023-05-01T12:38:38.287Z</time>
      </trkpt>
      <trkpt lat="48.45672" lon="-4.25233">
        <ele>75.721118</ele>
        <time>2023-05-01T12:38:41.282Z</time>
      </trkpt>
      <trkpt lat="48.45668" lon="-4.25218">
        <ele>75.609408</ele>
        <time>2023-05-01T12:38:44.293Z</time>
      </trkpt>
      <trkpt lat="48.45664" lon="-4.25204">
        <ele>75.498085</ele>
        <time>2023-05-01T12:38:47.289Z</time>
      </trkpt>
      <trkpt lat="48.45658" lon="-4.25191">
        <ele>75.391043</ele>
        <time>2023-05-01T12:38:50.284Z</time>
      </trkpt>
      <trkpt lat="48.45654" lon="-4.25178">
        <ele>75.293507</ele>
        <time>2023-05-01T12:38:53.285Z</time>
      </trkpt>
      <trkpt lat="48.45651" lon="-4.25166">
        <ele>75.198128</ele>
        <time>2023-05-01T12:38:56.284Z</time>
      </trkpt>
      <trkpt lat="48.45646" lon="-4.25153">
        <ele>75.096808</ele>
        <time>2023-05-01T12:39:00.276Z</time>
      </trkpt>
      <trkpt lat="48.45637" lon="-4.25146">
        <ele>74.99081</ele>
        <time>2023-05-01T12:39:07.277Z</time>
      </trkpt>
      <trkpt lat="48.45628" lon="-4.25145">
        <ele>74.889116</ele>
        <time>2023-05-01T12:39:11.285Z</time>
      </trkpt>
      <trkpt lat="48.45616" lon="-4.25146">
        <ele>74.605856</ele>
        <time>2023-05-01T12:39:15.284Z</time>
      </trkpt>
      <trkpt lat="48.45607" lon="-4.25152">
        <ele>74.250156</ele>
        <time>2023-05-01T12:39:19.290Z</time>
      </trkpt>
      <trkpt lat="48.45596" lon="-4.25148">
        <ele>73.882764</ele>
        <time>2023-05-01T12:39:23.278Z</time>
      </trkpt>
      <trkpt lat="48.4559" lon="-4.25136">
        <ele>73.54265</ele>
        <time>2023-05-01T12:39:26.289Z</time>
      </trkpt>
      <trkpt lat="48.45584" lon="-4.25124">
        <ele>73.207814</ele>
        <time>2023-05-01T12:39:29.279Z</time>
      </trkpt>
      <trkpt lat="48.45576" lon="-4.25116">
        <ele>72.870035</ele>
        <time>2023-05-01T12:39:32.275Z</time>
      </trkpt>
      <trkpt lat="48.45567" lon="-4.25108">
        <ele>72.501262</ele>
        <time>2023-05-01T12:39:35.283Z</time>
      </trkpt>
      <trkpt lat="48.45558" lon="-4.25101">
        <ele>72.155118</ele>
        <time>2023-05-01T12:39:38.277Z</time>
      </trkpt>
      <trkpt lat="48.45547" lon="-4.25094">
        <ele>71.767836</ele>
        <time>2023-05-01T12:39:41.278Z</time>
      </trkpt>
      <trkpt lat="48.45535" lon="-4.25096">
        <ele>71.359857</ele>
        <time>2023-05-01T12:39:44.282Z</time>
      </trkpt>
      <trkpt lat="48.45525" lon="-4.25106">
        <ele>70.924925</ele>
        <time>2023-05-01T12:39:47.266Z</time>
      </trkpt>
      <trkpt lat="48.45519" lon="-4.25117">
        <ele>70.607111</ele>
        <time>2023-05-01T12:39:49.285Z</time>
      </trkpt>
      <trkpt lat="48.45515" lon="-4.2513">
        <ele>70.272369</ele>
        <time>2023-05-01T12:39:51.287Z</time>
      </trkpt>
      <trkpt lat="48.4551" lon="-4.25143">
        <ele>69.937215</ele>
        <time>2023-05-01T12:39:53.282Z</time>
      </trkpt>
      <trkpt lat="48.45505" lon="-4.25155">
        <ele>69.612261</ele>
        <time>2023-05-01T12:39:55.325Z</time>
      </trkpt>
      <trkpt lat="48.455" lon="-4.25167">
        <ele>69.298434</ele>
        <time>2023-05-01T12:39:57.282Z</time>
      </trkpt>
      <trkpt lat="48.45493" lon="-4.25183">
        <ele>68.869163</ele>
        <time>2023-05-01T12:40:00.278Z</time>
      </trkpt>
      <trkpt lat="48.45483" lon="-4.25192">
        <ele>68.47032</ele>
        <time>2023-05-01T12:40:03.283Z</time>
      </trkpt>
      <trkpt lat="48.45473" lon="-4.25195">
        <ele>68.148859</ele>
        <time>2023-05-01T12:40:05.285Z</time>
      </trkpt>
      <trkpt lat="48.45463" lon="-4.25197">
        <ele>67.794952</ele>
        <time>2023-05-01T12:40:07.290Z</time>
      </trkpt>
      <trkpt lat="48.45454" lon="-4.25198">
        <ele>67.484402</ele>
        <time>2023-05-01T12:40:09.284Z</time>
      </trkpt>
      <trkpt lat="48.45445" lon="-4.25198">
        <ele>67.180976</ele>
        <time>2023-05-01T12:40:11.283Z</time>
      </trkpt>
      <trkpt lat="48.45432" lon="-4.25199">
        <ele>66.735941</ele>
        <time>2023-05-01T12:40:14.283Z</time>
      </trkpt>
      <trkpt lat="48.4542" lon="-4.25196">
        <ele>66.332675</ele>
        <time>2023-05-01T12:40:17.268Z</time>
      </trkpt>
      <trkpt lat="48.45411" lon="-4.25183">
        <ele>65.91973</ele>
        <time>2023-05-01T12:40:20.274Z</time>
      </trkpt>
      <trkpt lat="48.45406" lon="-4.25168">
        <ele>65.531009</ele>
        <time>2023-05-01T12:40:23.271Z</time>
      </trkpt>
      <trkpt lat="48.45401" lon="-4.25152">
        <ele>65.154743</ele>
        <time>2023-05-01T12:40:26.270Z</time>
      </trkpt>
      <trkpt lat="48.45396" lon="-4.25137">
        <ele>64.764983</ele>
        <time>2023-05-01T12:40:29.282Z</time>
      </trkpt>
      <trkpt lat="48.45389" lon="-4.2512">
        <ele>64.327449</ele>
        <time>2023-05-01T12:40:32.279Z</time>
      </trkpt>
      <trkpt lat="48.45385" lon="-4.25107">
        <ele>64.003658</ele>
        <time>2023-05-01T12:40:34.271Z</time>
      </trkpt>
      <trkpt lat="48.4538" lon="-4.25094">
        <ele>63.669714</ele>
        <time>2023-05-01T12:40:36.284Z</time>
      </trkpt>
      <trkpt lat="48.45374" lon="-4.2508">
        <ele>63.289626</ele>
        <time>2023-05-01T12:40:38.283Z</time>
      </trkpt>
      <trkpt lat="48.45368" lon="-4.25065">
        <ele>62.916289</ele>
        <time>2023-05-01T12:40:40.274Z</time>
      </trkpt>
      <trkpt lat="48.45363" lon="-4.2505">
        <ele>62.552301</ele>
        <time>2023-05-01T12:40:42.278Z</time>
      </trkpt>
      <trkpt lat="48.45358" lon="-4.25034">
        <ele>62.186038</ele>
        <time>2023-05-01T12:40:44.271Z</time>
      </trkpt>
      <trkpt lat="48.45353" lon="-4.25017">
        <ele>61.833465</ele>
        <time>2023-05-01T12:40:46.285Z</time>
      </trkpt>
      <trkpt lat="48.45349" lon="-4.25">
        <ele>61.463211</ele>
        <time>2023-05-01T12:40:48.284Z</time>
      </trkpt>
      <trkpt lat="48.45345" lon="-4.24983">
        <ele>61.108867</ele>
        <time>2023-05-01T12:40:50.278Z</time>
      </trkpt>
      <trkpt lat="48.45342" lon="-4.24968">
        <ele>60.800545</ele>
        <time>2023-05-01T12:40:52.267Z</time>
      </trkpt>
      <trkpt lat="48.45339" lon="-4.24954">
        <ele>60.520405</ele>
        <time>2023-05-01T12:40:54.280Z</time>
      </trkpt>
      <trkpt lat="48.45336" lon="-4.24941">
        <ele>60.234674</ele>
        <time>2023-05-01T12:40:56.275Z</time>
      </trkpt>
      <trkpt lat="48.45334" lon="-4.24927">
        <ele>59.957931</ele>
        <time>2023-05-01T12:40:58.282Z</time>
      </trkpt>
      <trkpt lat="48.45329" lon="-4.2491">
        <ele>59.583653</ele>
        <time>2023-05-01T12:41:01.278Z</time>
      </trkpt>
      <trkpt lat="48.45325" lon="-4.24891">
        <ele>59.19693</ele>
        <time>2023-05-01T12:41:04.282Z</time>
      </trkpt>
      <trkpt lat="48.45322" lon="-4.24878">
        <ele>58.922516</ele>
        <time>2023-05-01T12:41:06.282Z</time>
      </trkpt>
      <trkpt lat="48.45319" lon="-4.24864">
        <ele>58.636198</ele>
        <time>2023-05-01T12:41:08.288Z</time>
      </trkpt>
      <trkpt lat="48.45316" lon="-4.24849">
        <ele>58.327874</ele>
        <time>2023-05-01T12:41:10.285Z</time>
      </trkpt>
      <trkpt lat="48.45313" lon="-4.24834">
        <ele>58.011191</ele>
        <time>2023-05-01T12:41:12.285Z</time>
      </trkpt>
      <trkpt lat="48.45309" lon="-4.2482">
        <ele>57.719698</ele>
        <time>2023-05-01T12:41:14.282Z</time>
      </trkpt>
      <trkpt lat="48.45305" lon="-4.24805">
        <ele>57.395903</ele>
        <time>2023-05-01T12:41:17.282Z</time>
      </trkpt>
      <trkpt lat="48.453" lon="-4.24791">
        <ele>57.108421</ele>
        <time>2023-05-01T12:41:20.272Z</time>
      </trkpt>
      <trkpt lat="48.45291" lon="-4.24774">
        <ele>56.790548</ele>
        <time>2023-05-01T12:41:23.285Z</time>
      </trkpt>
      <trkpt lat="48.45284" lon="-4.24762">
        <ele>56.546221</ele>
        <time>2023-05-01T12:41:25.286Z</time>
      </trkpt>
      <trkpt lat="48.45277" lon="-4.2475">
        <ele>56.311783</ele>
        <time>2023-05-01T12:41:27.284Z</time>
      </trkpt>
      <trkpt lat="48.45271" lon="-4.24739">
        <ele>56.093669</ele>
        <time>2023-05-01T12:41:29.280Z</time>
      </trkpt>
      <trkpt lat="48.45266" lon="-4.24727">
        <ele>55.869547</ele>
        <time>2023-05-01T12:41:31.273Z</time>
      </trkpt>
      <trkpt lat="48.45257" lon="-4.24713">
        <ele>55.579833</ele>
        <time>2023-05-01T12:41:34.049Z</time>
      </trkpt>
      <trkpt lat="48.45251" lon="-4.24701">
        <ele>55.346024</ele>
        <time>2023-05-01T12:41:37.061Z</time>
      </trkpt>
      <trkpt lat="48.45242" lon="-4.2469">
        <ele>55.086386</ele>
        <time>2023-05-01T12:41:41.060Z</time>
      </trkpt>
      <trkpt lat="48.45237" lon="-4.24678">
        <ele>54.865162</ele>
        <time>2023-05-01T12:41:45.071Z</time>
      </trkpt>
      <trkpt lat="48.45243" lon="-4.24666">
        <ele>54.631869</ele>
        <time>2023-05-01T12:41:49.068Z</time>
      </trkpt>
      <trkpt lat="48.45252" lon="-4.24658">
        <ele>54.403536</ele>
        <time>2023-05-01T12:41:53.061Z</time>
      </trkpt>
      <trkpt lat="48.45259" lon="-4.24647">
        <ele>54.166974</ele>
        <time>2023-05-01T12:41:57.068Z</time>
      </trkpt>
      <trkpt lat="48.45267" lon="-4.24639">
        <ele>53.947848</ele>
        <time>2023-05-01T12:42:00.043Z</time>
      </trkpt>
      <trkpt lat="48.45274" lon="-4.24631">
        <ele>53.740359</ele>
        <time>2023-05-01T12:42:03.060Z</time>
      </trkpt>
      <trkpt lat="48.45282" lon="-4.24621">
        <ele>53.516133</ele>
        <time>2023-05-01T12:42:06.069Z</time>
      </trkpt>
      <trkpt lat="48.4529" lon="-4.24611">
        <ele>53.276737</ele>
        <time>2023-05-01T12:42:09.065Z</time>
      </trkpt>
      <trkpt lat="48.45297" lon="-4.246">
        <ele>53.146527</ele>
        <time>2023-05-01T12:42:12.067Z</time>
      </trkpt>
      <trkpt lat="48.45305" lon="-4.24591">
        <ele>53.130935</ele>
        <time>2023-05-01T12:42:15.068Z</time>
      </trkpt>
      <trkpt lat="48.45314" lon="-4.24582">
        <ele>53.115353</ele>
        <time>2023-05-01T12:42:18.066Z</time>
      </trkpt>
      <trkpt lat="48.45322" lon="-4.24572">
        <ele>53.09948</ele>
        <time>2023-05-01T12:42:21.071Z</time>
      </trkpt>
      <trkpt lat="48.4533" lon="-4.24562">
        <ele>53.084072</ele>
        <time>2023-05-01T12:42:24.071Z</time>
      </trkpt>
      <trkpt lat="48.45339" lon="-4.24552">
        <ele>53.068124</ele>
        <time>2023-05-01T12:42:27.070Z</time>
      </trkpt>
      <trkpt lat="48.45348" lon="-4.24543">
        <ele>53.052179</ele>
        <time>2023-05-01T12:42:30.074Z</time>
      </trkpt>
      <trkpt lat="48.45356" lon="-4.24535">
        <ele>53.038127</ele>
        <time>2023-05-01T12:42:33.063Z</time>
      </trkpt>
      <trkpt lat="48.45362" lon="-4.24525">
        <ele>53.024612</ele>
        <time>2023-05-01T12:42:36.063Z</time>
      </trkpt>
      <trkpt lat="48.45371" lon="-4.24514">
        <ele>53.007305</ele>
        <time>2023-05-01T12:42:40.058Z</time>
      </trkpt>
      <trkpt lat="48.4538" lon="-4.24504">
        <ele>52.990837</ele>
        <time>2023-05-01T12:42:44.070Z</time>
      </trkpt>
      <trkpt lat="48.45387" lon="-4.24492">
        <ele>52.975149</ele>
        <time>2023-05-01T12:42:48.067Z</time>
      </trkpt>
      <trkpt lat="48.45387" lon="-4.24475">
        <ele>52.958677</ele>
        <time>2023-05-01T12:42:52.069Z</time>
      </trkpt>
      <trkpt lat="48.45382" lon="-4.24464">
        <ele>52.945442</ele>
        <time>2023-05-01T12:42:55.067Z</time>
      </trkpt>
      <trkpt lat="48.45376" lon="-4.24453">
        <ele>52.931851</ele>
        <time>2023-05-01T12:42:58.070Z</time>
      </trkpt>
      <trkpt lat="48.4537" lon="-4.24442">
        <ele>52.917383</ele>
        <time>2023-05-01T12:43:01.062Z</time>
      </trkpt>
      <trkpt lat="48.45363" lon="-4.2443">
        <ele>52.902184</ele>
        <time>2023-05-01T12:43:04.071Z</time>
      </trkpt>
      <trkpt lat="48.45356" lon="-4.2442">
        <ele>52.888107</ele>
        <time>2023-05-01T12:43:07.076Z</time>
      </trkpt>
      <trkpt lat="48.4535" lon="-4.24408">
        <ele>53.209555</ele>
        <time>2023-05-01T12:43:10.070Z</time>
      </trkpt>
      <trkpt lat="48.45343" lon="-4.24394">
        <ele>53.606138</ele>
        <time>2023-05-01T12:43:14.065Z</time>
      </trkpt>
      <trkpt lat="48.45335" lon="-4.24382">
        <ele>53.997039</ele>
        <time>2023-05-01T12:43:18.075Z</time>
      </trkpt>
      <trkpt lat="48.45329" lon="-4.24372">
        <ele>54.313071</ele>
        <time>2023-05-01T12:43:21.062Z</time>
      </trkpt>
      <trkpt lat="48.45322" lon="-4.24362">
        <ele>54.630249</ele>
        <time>2023-05-01T12:43:24.062Z</time>
      </trkpt>
      <trkpt lat="48.45316" lon="-4.24352">
        <ele>54.953507</ele>
        <time>2023-05-01T12:43:27.070Z</time>
      </trkpt>
      <trkpt lat="48.45309" lon="-4.24342">
        <ele>55.285724</ele>
        <time>2023-05-01T12:43:30.067Z</time>
      </trkpt>
      <trkpt lat="48.45302" lon="-4.24332">
        <ele>55.622043</ele>
        <time>2023-05-01T12:43:33.071Z</time>
      </trkpt>
      <trkpt lat="48.45294" lon="-4.24321">
        <ele>56.000767</ele>
        <time>2023-05-01T12:43:37.077Z</time>
      </trkpt>
      <trkpt lat="48.45287" lon="-4.24308">
        <ele>56.380126</ele>
        <time>2023-05-01T12:43:42.061Z</time>
      </trkpt>
      <trkpt lat="48.4528" lon="-4.24297">
        <ele>56.725728</ele>
        <time>2023-05-01T12:43:46.071Z</time>
      </trkpt>
      <trkpt lat="48.45272" lon="-4.24287">
        <ele>57.07683</ele>
        <time>2023-05-01T12:43:50.076Z</time>
      </trkpt>
      <trkpt lat="48.45266" lon="-4.24276">
        <ele>57.419717</ele>
        <time>2023-05-01T12:43:54.070Z</time>
      </trkpt>
      <trkpt lat="48.45259" lon="-4.24263">
        <ele>57.79909</ele>
        <time>2023-05-01T12:43:59.069Z</time>
      </trkpt>
      <trkpt lat="48.45252" lon="-4.2425">
        <ele>58.176334</ele>
        <time>2023-05-01T12:44:04.068Z</time>
      </trkpt>
      <trkpt lat="48.45244" lon="-4.24239">
        <ele>58.546887</ele>
        <time>2023-05-01T12:44:09.067Z</time>
      </trkpt>
      <trkpt lat="48.45241" lon="-4.24224">
        <ele>58.914453</ele>
        <time>2023-05-01T12:44:14.061Z</time>
      </trkpt>
      <trkpt lat="48.45247" lon="-4.24209">
        <ele>59.237081</ele>
        <time>2023-05-01T12:44:19.069Z</time>
      </trkpt>
      <trkpt lat="48.45254" lon="-4.24198">
        <ele>59.479696</ele>
        <time>2023-05-01T12:44:23.059Z</time>
      </trkpt>
      <trkpt lat="48.45257" lon="-4.24185">
        <ele>59.686162</ele>
        <time>2023-05-01T12:44:27.066Z</time>
      </trkpt>
      <trkpt lat="48.4526" lon="-4.24171">
        <ele>59.912942</ele>
        <time>2023-05-01T12:44:32.067Z</time>
      </trkpt>
      <trkpt lat="48.46327" lon="-4.21843">
        <ele>100.687567</ele>
        <time>2023-05-01T13:19:53.051Z</time>
      </trkpt>
      <trkpt lat="48.46335" lon="-4.21834">
        <ele>100.728121</ele>
        <time>2023-05-01T13:19:58.050Z</time>
      </trkpt>
      <trkpt lat="48.46343" lon="-4.21824">
        <ele>100.767396</ele>
        <time>2023-05-01T13:20:02.057Z</time>
      </trkpt>
      <trkpt lat="48.4635" lon="-4.21815">
        <ele>100.80543</ele>
        <time>2023-05-01T13:20:06.053Z</time>
      </trkpt>
      <trkpt lat="48.46357" lon="-4.21807">
        <ele>100.841897</ele>
        <time>2023-05-01T13:20:10.049Z</time>
      </trkpt>
      <trkpt lat="48.46366" lon="-4.21798">
        <ele>100.881261</ele>
        <time>2023-05-01T13:20:14.062Z</time>
      </trkpt>
      <trkpt lat="48.46374" lon="-4.21792">
        <ele>100.917872</ele>
        <time>2023-05-01T13:20:19.050Z</time>
      </trkpt>
      <trkpt lat="48.46382" lon="-4.21784">
        <ele>100.943816</ele>
        <time>2023-05-01T13:20:24.046Z</time>
      </trkpt>
      <trkpt lat="48.46389" lon="-4.21774">
        <ele>100.893106</ele>
        <time>2023-05-01T13:20:29.057Z</time>
      </trkpt>
      <trkpt lat="48.46398" lon="-4.21767">
        <ele>100.837588</ele>
        <time>2023-05-01T13:20:34.056Z</time>
      </trkpt>
      <trkpt lat="48.46405" lon="-4.21758">
        <ele>100.786706</ele>
        <time>2023-05-01T13:20:39.056Z</time>
      </trkpt>
      <trkpt lat="48.46413" lon="-4.2175">
        <ele>100.737286</ele>
        <time>2023-05-01T13:20:44.056Z</time>
      </trkpt>
      <trkpt lat="48.4642" lon="-4.2174">
        <ele>100.687114</ele>
        <time>2023-05-01T13:20:48.061Z</time>
      </trkpt>
      <trkpt lat="48.46424" lon="-4.21728">
        <ele>100.636546</ele>
        <time>2023-05-01T13:20:52.048Z</time>
      </trkpt>
      <trkpt lat="48.46431" lon="-4.21716">
        <ele>100.582204</ele>
        <time>2023-05-01T13:20:56.054Z</time>
      </trkpt>
      <trkpt lat="48.46436" lon="-4.21704">
        <ele>100.530497</ele>
        <time>2023-05-01T13:21:00.065Z</time>
      </trkpt>
      <trkpt lat="48.46441" lon="-4.21691">
        <ele>100.479007</ele>
        <time>2023-05-01T13:21:04.049Z</time>
      </trkpt>
      <trkpt lat="48.46446" lon="-4.21676">
        <ele>100.418478</ele>
        <time>2023-05-01T13:21:09.051Z</time>
      </trkpt>
      <trkpt lat="48.46452" lon="-4.21663">
        <ele>100.360247</ele>
        <time>2023-05-01T13:21:14.053Z</time>
      </trkpt>
      <trkpt lat="48.46459" lon="-4.2165">
        <ele>100.303137</ele>
        <time>2023-05-01T13:21:20.047Z</time>
      </trkpt>
      <trkpt lat="48.46463" lon="-4.21637">
        <ele>100.252867</ele>
        <time>2023-05-01T13:21:25.056Z</time>
      </trkpt>
      <trkpt lat="48.46466" lon="-4.21623">
        <ele>100.19856</ele>
        <time>2023-05-01T13:21:30.059Z</time>
      </trkpt>
      <trkpt lat="48.46468" lon="-4.21609">
        <ele>100.149006</ele>
        <time>2023-05-01T13:21:34.055Z</time>
      </trkpt>
      <trkpt lat="48.46473" lon="-4.21595">
        <ele>100.090609</ele>
        <time>2023-05-01T13:21:39.052Z</time>
      </trkpt>
      <trkpt lat="48.46477" lon="-4.21581">
        <ele>100.036686</ele>
        <time>2023-05-01T13:21:44.054Z</time>
      </trkpt>
      <trkpt lat="48.46481" lon="-4.21569">
        <ele>99.987531</ele>
        <time>2023-05-01T13:21:48.047Z</time>
      </trkpt>
      <trkpt lat="48.46484" lon="-4.21554">
        <ele>100.1125</ele>
        <time>2023-05-01T13:21:52.056Z</time>
      </trkpt>
      <trkpt lat="48.46487" lon="-4.21541">
        <ele>100.244355</ele>
        <time>2023-05-01T13:21:56.060Z</time>
      </trkpt>
      <trkpt lat="48.4649" lon="-4.21528">
        <ele>100.36951</ele>
        <time>2023-05-01T13:22:00.054Z</time>
      </trkpt>
      <trkpt lat="48.46493" lon="-4.21514">
        <ele>100.500766</ele>
        <time>2023-05-01T13:22:04.044Z</time>
      </trkpt>
      <trkpt lat="48.46498" lon="-4.21499">
        <ele>100.650932</ele>
        <time>2023-05-01T13:22:09.049Z</time>
      </trkpt>
      <trkpt lat="48.46501" lon="-4.21487">
        <ele>100.775701</ele>
        <time>2023-05-01T13:22:13.051Z</time>
      </trkpt>
      <trkpt lat="48.46505" lon="-4.21474">
        <ele>100.90246</ele>
        <time>2023-05-01T13:22:17.059Z</time>
      </trkpt>
      <trkpt lat="48.46509" lon="-4.21461">
        <ele>101.034499</ele>
        <time>2023-05-01T13:22:21.056Z</time>
      </trkpt>
      <trkpt lat="48.46512" lon="-4.21447">
        <ele>101.169415</ele>
        <time>2023-05-01T13:22:25.053Z</time>
      </trkpt>
      <trkpt lat="48.46515" lon="-4.21434">
        <ele>101.295008</ele>
        <time>2023-05-01T13:22:29.049Z</time>
      </trkpt>
      <trkpt lat="48.46519" lon="-4.2142">
        <ele>101.435963</ele>
        <time>2023-05-01T13:22:33.058Z</time>
      </trkpt>
      <trkpt lat="48.46523" lon="-4.21407">
        <ele>101.564417</ele>
        <time>2023-05-01T13:22:37.058Z</time>
      </trkpt>
      <trkpt lat="48.46526" lon="-4.21394">
        <ele>101.694063</ele>
        <time>2023-05-01T13:22:41.048Z</time>
      </trkpt>
      <trkpt lat="48.4653" lon="-4.21381">
        <ele>101.821623</ele>
        <time>2023-05-01T13:22:45.053Z</time>
      </trkpt>
      <trkpt lat="48.46535" lon="-4.21366">
        <ele>101.977786</ele>
        <time>2023-05-01T13:22:50.042Z</time>
      </trkpt>
      <trkpt lat="48.46539" lon="-4.21352">
        <ele>102.116326</ele>
        <time>2023-05-01T13:22:54.053Z</time>
      </trkpt>
      <trkpt lat="48.46545" lon="-4.21338">
        <ele>102.266987</ele>
        <time>2023-05-01T13:22:59.057Z</time>
      </trkpt>
      <trkpt lat="48.46549" lon="-4.21325">
        <ele>102.396552</ele>
        <time>2023-05-01T13:23:03.056Z</time>
      </trkpt>
      <trkpt lat="48.46554" lon="-4.21313">
        <ele>102.595373</ele>
        <time>2023-05-01T13:23:07.053Z</time>
      </trkpt>
      <trkpt lat="48.46559" lon="-4.21298">
        <ele>102.909282</ele>
        <time>2023-05-01T13:23:12.060Z</time>
      </trkpt>
      <trkpt lat="48.46565" lon="-4.21286">
        <ele>103.193432</ele>
        <time>2023-05-01T13:23:16.058Z</time>
      </trkpt>
      <trkpt lat="48.46571" lon="-4.21274">
        <ele>103.473587</ele>
        <time>2023-05-01T13:23:20.061Z</time>
      </trkpt>
      <trkpt lat="48.46577" lon="-4.21262">
        <ele>103.763807</ele>
        <time>2023-05-01T13:23:24.059Z</time>
      </trkpt>
      <trkpt lat="48.46584" lon="-4.2125">
        <ele>104.06204</ele>
        <time>2023-05-01T13:23:28.055Z</time>
      </trkpt>
      <trkpt lat="48.46589" lon="-4.21238">
        <ele>104.338347</ele>
        <time>2023-05-01T13:23:32.056Z</time>
      </trkpt>
      <trkpt lat="48.46596" lon="-4.21225">
        <ele>104.641808</ele>
        <time>2023-05-01T13:23:37.059Z</time>
      </trkpt>
      <trkpt lat="48.46601" lon="-4.21215">
        <ele>104.902496</ele>
        <time>2023-05-01T13:23:41.059Z</time>
      </trkpt>
      <trkpt lat="48.46607" lon="-4.21203">
        <ele>105.172932</ele>
        <time>2023-05-01T13:23:45.053Z</time>
      </trkpt>
      <trkpt lat="48.46613" lon="-4.21191">
        <ele>105.455733</ele>
        <time>2023-05-01T13:23:49.042Z</time>
      </trkpt>
      <trkpt lat="48.46619" lon="-4.2118">
        <ele>105.729186</ele>
        <time>2023-05-01T13:23:53.053Z</time>
      </trkpt>
      <trkpt lat="48.46624" lon="-4.21169">
        <ele>105.991352</ele>
        <time>2023-05-01T13:23:57.054Z</time>
      </trkpt>
      <trkpt lat="48.46631" lon="-4.21155">
        <ele>106.310429</ele>
        <time>2023-05-01T13:24:02.060Z</time>
      </trkpt>
      <trkpt lat="48.46636" lon="-4.21143">
        <ele>106.569697</ele>
        <time>2023-05-01T13:24:06.054Z</time>
      </trkpt>
      <trkpt lat="48.46641" lon="-4.21132">
        <ele>106.846391</ele>
        <time>2023-05-01T13:24:10.047Z</time>
      </trkpt>
      <trkpt lat="48.46647" lon="-4.21121">
        <ele>107.117644</ele>
        <time>2023-05-01T13:24:14.056Z</time>
      </trkpt>
      <trkpt lat="48.46654" lon="-4.2111">
        <ele>107.382539</ele>
        <time>2023-05-01T13:24:18.056Z</time>
      </trkpt>
      <trkpt lat="48.46659" lon="-4.21099">
        <ele>107.65501</ele>
        <time>2023-05-01T13:24:22.059Z</time>
      </trkpt>
      <trkpt lat="48.46665" lon="-4.21087">
        <ele>108.057104</ele>
        <time>2023-05-01T13:24:27.052Z</time>
      </trkpt>
      <trkpt lat="48.4667" lon="-4.21076">
        <ele>108.433436</ele>
        <time>2023-05-01T13:24:32.060Z</time>
      </trkpt>
      <trkpt lat="48.46676" lon="-4.21064">
        <ele>108.811224</ele>
        <time>2023-05-01T13:24:37.055Z</time>
      </trkpt>
      <trkpt lat="48.46682" lon="-4.21052">
        <ele>109.230914</ele>
        <time>2023-05-01T13:24:42.051Z</time>
      </trkpt>
      <trkpt lat="48.46688" lon="-4.21038">
        <ele>109.670826</ele>
        <time>2023-05-01T13:24:47.057Z</time>
      </trkpt>
      <trkpt lat="48.46693" lon="-4.21026">
        <ele>110.044039</ele>
        <time>2023-05-01T13:24:51.053Z</time>
      </trkpt>
      <trkpt lat="48.46698" lon="-4.21014">
        <ele>110.41581</ele>
        <time>2023-05-01T13:24:55.056Z</time>
      </trkpt>
      <trkpt lat="48.46701" lon="-4.21001">
        <ele>110.787745</ele>
        <time>2023-05-01T13:24:59.057Z</time>
      </trkpt>
      <trkpt lat="48.46705" lon="-4.20985">
        <ele>111.241927</ele>
        <time>2023-05-01T13:25:04.055Z</time>
      </trkpt>
      <trkpt lat="48.46706" lon="-4.20971">
        <ele>111.611405</ele>
        <time>2023-05-01T13:25:08.047Z</time>
      </trkpt>
      <trkpt lat="48.46707" lon="-4.20956">
        <ele>112.009288</ele>
        <time>2023-05-01T13:25:12.060Z</time>
      </trkpt>
      <trkpt lat="48.46706" lon="-4.20941">
        <ele>112.406765</ele>
        <time>2023-05-01T13:25:16.050Z</time>
      </trkpt>
      <trkpt lat="48.46704" lon="-4.20928">
        <ele>112.774617</ele>
        <time>2023-05-01T13:25:20.058Z</time>
      </trkpt>
      <trkpt lat="48.46701" lon="-4.20912">
        <ele>113.221482</ele>
        <time>2023-05-01T13:25:25.055Z</time>
      </trkpt>
      <trkpt lat="48.46698" lon="-4.20899">
        <ele>113.601015</ele>
        <time>2023-05-01T13:25:29.051Z</time>
      </trkpt>
      <trkpt lat="48.46693" lon="-4.20886">
        <ele>113.993349</ele>
        <time>2023-05-01T13:25:33.055Z</time>
      </trkpt>
      <trkpt lat="48.46688" lon="-4.20872">
        <ele>114.4045</ele>
        <time>2023-05-01T13:25:37.057Z</time>
      </trkpt>
      <trkpt lat="48.46684" lon="-4.2086">
        <ele>114.771966</ele>
        <time>2023-05-01T13:25:41.055Z</time>
      </trkpt>
      <trkpt lat="48.46679" lon="-4.20847">
        <ele>114.932448</ele>
        <time>2023-05-01T13:25:45.060Z</time>
      </trkpt>
      <trkpt lat="48.46674" lon="-4.20834">
        <ele>115.05077</ele>
        <time>2023-05-01T13:25:49.046Z</time>
      </trkpt>
      <trkpt lat="48.46668" lon="-4.20821">
        <ele>115.183344</ele>
        <time>2023-05-01T13:25:54.053Z</time>
      </trkpt>
      <trkpt lat="48.46663" lon="-4.20806">
        <ele>115.314507</ele>
        <time>2023-05-01T13:25:59.052Z</time>
      </trkpt>
      <trkpt lat="48.46658" lon="-4.20793">
        <ele>115.434538</ele>
        <time>2023-05-01T13:26:03.050Z</time>
      </trkpt>
      <trkpt lat="48.46653" lon="-4.20779">
        <ele>115.562887</ele>
        <time>2023-05-01T13:26:07.061Z</time>
      </trkpt>
      <trkpt lat="48.46649" lon="-4.20764">
        <ele>115.68941</ele>
        <time>2023-05-01T13:26:11.051Z</time>
      </trkpt>
      <trkpt lat="48.46645" lon="-4.20748">
        <ele>115.824883</ele>
        <time>2023-05-01T13:26:16.057Z</time>
      </trkpt>
      <trkpt lat="48.46643" lon="-4.20734">
        <ele>115.944801</ele>
        <time>2023-05-01T13:26:20.058Z</time>
      </trkpt>
      <trkpt lat="48.4664" lon="-4.20718">
        <ele>116.072565</ele>
        <time>2023-05-01T13:26:24.058Z</time>
      </trkpt>
      <trkpt lat="48.46637" lon="-4.20703">
        <ele>116.202292</ele>
        <time>2023-05-01T13:26:28.052Z</time>
      </trkpt>
      <trkpt lat="48.46634" lon="-4.20687">
        <ele>116.331323</ele>
        <time>2023-05-01T13:26:32.061Z</time>
      </trkpt>
      <trkpt lat="48.46632" lon="-4.20674">
        <ele>116.44116</ele>
        <time>2023-05-01T13:26:36.059Z</time>
      </trkpt>
      <trkpt lat="48.4663" lon="-4.20661">
        <ele>116.55092</ele>
        <time>2023-05-01T13:26:40.062Z</time>
      </trkpt>
      <trkpt lat="48.46626" lon="-4.20644">
        <ele>116.688645</ele>
        <time>2023-05-01T13:26:44.052Z</time>
      </trkpt>
      <trkpt lat="48.46622" lon="-4.2063">
        <ele>116.810396</ele>
        <time>2023-05-01T13:26:48.051Z</time>
      </trkpt>
      <trkpt lat="48.46619" lon="-4.20617">
        <ele>116.92207</ele>
        <time>2023-05-01T13:26:52.057Z</time>
      </trkpt>
      <trkpt lat="48.46614" lon="-4.20605">
        <ele>117.012594</ele>
        <time>2023-05-01T13:26:56.057Z</time>
      </trkpt>
      <trkpt lat="48.46608" lon="-4.20592">
        <ele>117.053346</ele>
        <time>2023-05-01T13:27:01.059Z</time>
      </trkpt>
      <trkpt lat="48.46603" lon="-4.20579">
        <ele>117.090977</ele>
        <time>2023-05-01T13:27:05.054Z</time>
      </trkpt>
      <trkpt lat="48.46598" lon="-4.20568">
        <ele>117.125446</ele>
        <time>2023-05-01T13:27:09.057Z</time>
      </trkpt>
      <trkpt lat="48.46592" lon="-4.20556">
        <ele>117.163468</ele>
        <time>2023-05-01T13:27:13.059Z</time>
      </trkpt>
      <trkpt lat="48.46587" lon="-4.20541">
        <ele>117.204533</ele>
        <time>2023-05-01T13:27:17.061Z</time>
      </trkpt>
      <trkpt lat="48.46582" lon="-4.20526">
        <ele>117.246166</ele>
        <time>2023-05-01T13:27:21.062Z</time>
      </trkpt>
      <trkpt lat="48.46578" lon="-4.20511">
        <ele>117.288219</ele>
        <time>2023-05-01T13:27:26.058Z</time>
      </trkpt>
      <trkpt lat="48.46574" lon="-4.20499">
        <ele>117.323366</ele>
        <time>2023-05-01T13:27:30.048Z</time>
      </trkpt>
      <trkpt lat="48.46566" lon="-4.20487">
        <ele>117.364297</ele>
        <time>2023-05-01T13:27:34.060Z</time>
      </trkpt>
      <trkpt lat="48.46558" lon="-4.20478">
        <ele>117.40315</ele>
        <time>2023-05-01T13:27:37.054Z</time>
      </trkpt>
      <trkpt lat="48.4655" lon="-4.20466">
        <ele>117.447646</ele>
        <time>2023-05-01T13:27:41.062Z</time>
      </trkpt>
      <trkpt lat="48.46543" lon="-4.20456">
        <ele>117.482423</ele>
        <time>2023-05-01T13:27:44.057Z</time>
      </trkpt>
      <trkpt lat="48.46536" lon="-4.20445">
        <ele>117.52132</ele>
        <time>2023-05-01T13:27:47.052Z</time>
      </trkpt>
      <trkpt lat="48.46529" lon="-4.20435">
        <ele>117.558862</ele>
        <time>2023-05-01T13:27:50.045Z</time>
      </trkpt>
      <trkpt lat="48.46522" lon="-4.20425">
        <ele>117.593087</ele>
        <time>2023-05-01T13:27:53.054Z</time>
      </trkpt>
      <trkpt lat="48.46516" lon="-4.20414">
        <ele>117.630357</ele>
        <time>2023-05-01T13:27:56.057Z</time>
      </trkpt>
      <trkpt lat="48.46508" lon="-4.20402">
        <ele>117.671515</ele>
        <time>2023-05-01T13:28:00.053Z</time>
      </trkpt>
      <trkpt lat="48.46501" lon="-4.20391">
        <ele>117.706544</ele>
        <time>2023-05-01T13:28:04.060Z</time>
      </trkpt>
      <trkpt lat="48.46494" lon="-4.20381">
        <ele>117.732379</ele>
        <time>2023-05-01T13:28:08.052Z</time>
      </trkpt>
      <trkpt lat="48.46487" lon="-4.20369">
        <ele>117.76291</ele>
        <time>2023-05-01T13:28:12.057Z</time>
      </trkpt>
      <trkpt lat="48.4648" lon="-4.20359">
        <ele>117.78908</ele>
        <time>2023-05-01T13:28:15.056Z</time>
      </trkpt>
      <trkpt lat="48.46472" lon="-4.20348">
        <ele>117.82155</ele>
        <time>2023-05-01T13:28:19.049Z</time>
      </trkpt>
      <trkpt lat="48.46466" lon="-4.20336">
        <ele>117.850644</ele>
        <time>2023-05-01T13:28:23.057Z</time>
      </trkpt>
      <trkpt lat="48.46461" lon="-4.20324">
        <ele>117.876831</ele>
        <time>2023-05-01T13:28:27.050Z</time>
      </trkpt>
      <trkpt lat="48.46456" lon="-4.20311">
        <ele>117.905992</ele>
        <time>2023-05-01T13:28:31.054Z</time>
      </trkpt>
      <trkpt lat="48.46451" lon="-4.20295">
        <ele>117.9393</ele>
        <time>2023-05-01T13:28:35.043Z</time>
      </trkpt>
      <trkpt lat="48.46448" lon="-4.2028">
        <ele>117.968497</ele>
        <time>2023-05-01T13:28:39.054Z</time>
      </trkpt>
      <trkpt lat="48.46445" lon="-4.20264">
        <ele>118.000258</ele>
        <time>2023-05-01T13:28:43.055Z</time>
      </trkpt>
      <trkpt lat="48.46441" lon="-4.20248">
        <ele>118.032446</ele>
        <time>2023-05-01T13:28:47.060Z</time>
      </trkpt>
      <trkpt lat="48.46439" lon="-4.20234">
        <ele>118.058444</ele>
        <time>2023-05-01T13:28:50.040Z</time>
      </trkpt>
      <trkpt lat="48.46438" lon="-4.20217">
        <ele>118.092184</ele>
        <time>2023-05-01T13:28:54.049Z</time>
      </trkpt>
      <trkpt lat="48.46439" lon="-4.20202">
        <ele>118.120218</ele>
        <time>2023-05-01T13:28:57.051Z</time>
      </trkpt>
      <trkpt lat="48.4644" lon="-4.20189">
        <ele>118.146127</ele>
        <time>2023-05-01T13:29:00.056Z</time>
      </trkpt>
      <trkpt lat="48.46443" lon="-4.20172">
        <ele>118.177855</ele>
        <time>2023-05-01T13:29:04.057Z</time>
      </trkpt>
      <trkpt lat="48.46445" lon="-4.20157">
        <ele>118.192831</ele>
        <time>2023-05-01T13:29:08.051Z</time>
      </trkpt>
      <trkpt lat="48.46449" lon="-4.2014">
        <ele>118.152167</ele>
        <time>2023-05-01T13:29:12.060Z</time>
      </trkpt>
      <trkpt lat="48.46452" lon="-4.20122">
        <ele>118.111178</ele>
        <time>2023-05-01T13:29:16.061Z</time>
      </trkpt>
      <trkpt lat="48.46454" lon="-4.20108">
        <ele>118.079038</ele>
        <time>2023-05-01T13:29:19.050Z</time>
      </trkpt>
      <trkpt lat="48.46456" lon="-4.20095">
        <ele>118.047272</ele>
        <time>2023-05-01T13:29:22.056Z</time>
      </trkpt>
      <trkpt lat="48.46459" lon="-4.20081">
        <ele>118.015442</ele>
        <time>2023-05-01T13:29:25.047Z</time>
      </trkpt>
      <trkpt lat="48.46462" lon="-4.20064">
        <ele>117.975229</ele>
        <time>2023-05-01T13:29:29.052Z</time>
      </trkpt>
      <trkpt lat="48.46464" lon="-4.20049">
        <ele>117.942512</ele>
        <time>2023-05-01T13:29:32.052Z</time>
      </trkpt>
      <trkpt lat="48.46466" lon="-4.20036">
        <ele>117.910596</ele>
        <time>2023-05-01T13:29:35.053Z</time>
      </trkpt>
      <trkpt lat="48.46467" lon="-4.20019">
        <ele>117.872296</ele>
        <time>2023-05-01T13:29:39.062Z</time>
      </trkpt>
      <trkpt lat="48.46468" lon="-4.20001">
        <ele>117.833355</ele>
        <time>2023-05-01T13:29:43.058Z</time>
      </trkpt>
      <trkpt lat="48.46467" lon="-4.19988">
        <ele>117.802679</ele>
        <time>2023-05-01T13:29:46.059Z</time>
      </trkpt>
      <trkpt lat="48.46466" lon="-4.19974">
        <ele>117.770488</ele>
        <time>2023-05-01T13:29:49.037Z</time>
      </trkpt>
      <trkpt lat="48.46465" lon="-4.19959">
        <ele>117.736646</ele>
        <time>2023-05-01T13:29:52.044Z</time>
      </trkpt>
      <trkpt lat="48.46463" lon="-4.19944">
        <ele>117.703644</ele>
        <time>2023-05-01T13:29:55.049Z</time>
      </trkpt>
      <trkpt lat="48.46461" lon="-4.19927">
        <ele>117.664374</ele>
        <time>2023-05-01T13:29:59.047Z</time>
      </trkpt>
      <trkpt lat="48.4646" lon="-4.1991">
        <ele>117.626207</ele>
        <time>2023-05-01T13:30:03.047Z</time>
      </trkpt>
      <trkpt lat="48.46457" lon="-4.19896">
        <ele>117.594036</ele>
        <time>2023-05-01T13:30:06.053Z</time>
      </trkpt>
      <trkpt lat="48.46455" lon="-4.19882">
        <ele>117.826989</ele>
        <time>2023-05-01T13:30:09.047Z</time>
      </trkpt>
      <trkpt lat="48.46454" lon="-4.19868">
        <ele>118.080931</ele>
        <time>2023-05-01T13:30:12.060Z</time>
      </trkpt>
      <trkpt lat="48.46454" lon="-4.19853">
        <ele>118.343311</ele>
        <time>2023-05-01T13:30:15.050Z</time>
      </trkpt>
      <trkpt lat="48.46453" lon="-4.19839">
        <ele>118.596782</ele>
        <time>2023-05-01T13:30:18.053Z</time>
      </trkpt>
      <trkpt lat="48.46453" lon="-4.19822">
        <ele>118.908877</ele>
        <time>2023-05-01T13:30:22.048Z</time>
      </trkpt>
      <trkpt lat="48.46455" lon="-4.19806">
        <ele>119.199106</ele>
        <time>2023-05-01T13:30:26.052Z</time>
      </trkpt>
      <trkpt lat="48.46456" lon="-4.1979">
        <ele>119.487038</ele>
        <time>2023-05-01T13:30:30.059Z</time>
      </trkpt>
      <trkpt lat="48.46455" lon="-4.19776">
        <ele>119.735618</ele>
        <time>2023-05-01T13:30:33.035Z</time>
      </trkpt>
      <trkpt lat="48.46453" lon="-4.19761">
        <ele>120.012516</ele>
        <time>2023-05-01T13:30:37.035Z</time>
      </trkpt>
      <trkpt lat="48.46449" lon="-4.19747">
        <ele>120.278647</ele>
        <time>2023-05-01T13:30:41.051Z</time>
      </trkpt>
      <trkpt lat="48.46446" lon="-4.19731">
        <ele>120.568975</ele>
        <time>2023-05-01T13:30:45.047Z</time>
      </trkpt>
      <trkpt lat="48.4644" lon="-4.19717">
        <ele>120.867383</ele>
        <time>2023-05-01T13:30:49.051Z</time>
      </trkpt>
      <trkpt lat="48.45089" lon="-4.18377">
        <ele>155.845694</ele>
        <time>2023-05-01T13:43:14.445Z</time>
      </trkpt>
      <trkpt lat="48.4508" lon="-4.1837">
        <ele>156.657533</ele>
        <time>2023-05-01T13:43:21.053Z</time>
      </trkpt>
      <trkpt lat="48.45071" lon="-4.18362">
        <ele>157.481792</ele>
        <time>2023-05-01T13:43:26.045Z</time>
      </trkpt>
      <trkpt lat="48.45063" lon="-4.18354">
        <ele>158.322703</ele>
        <time>2023-05-01T13:43:31.049Z</time>
      </trkpt>
      <trkpt lat="48.45055" lon="-4.18348">
        <ele>159.073083</ele>
        <time>2023-05-01T13:43:36.040Z</time>
      </trkpt>
      <trkpt lat="48.45046" lon="-4.18342">
        <ele>159.843295</ele>
        <time>2023-05-01T13:43:41.054Z</time>
      </trkpt>
      <trkpt lat="48.45037" lon="-4.18335">
        <ele>160.686541</ele>
        <time>2023-05-01T13:43:46.053Z</time>
      </trkpt>
      <trkpt lat="48.45028" lon="-4.18329">
        <ele>161.274019</ele>
        <time>2023-05-01T13:43:51.051Z</time>
      </trkpt>
      <trkpt lat="48.45019" lon="-4.18322">
        <ele>161.897294</ele>
        <time>2023-05-01T13:43:56.043Z</time>
      </trkpt>
      <trkpt lat="48.4501" lon="-4.18315">
        <ele>162.527931</ele>
        <time>2023-05-01T13:44:01.051Z</time>
      </trkpt>
      <trkpt lat="48.45002" lon="-4.1831">
        <ele>163.112964</ele>
        <time>2023-05-01T13:44:06.049Z</time>
      </trkpt>
      <trkpt lat="48.44992" lon="-4.18304">
        <ele>163.776504</ele>
        <time>2023-05-01T13:44:12.036Z</time>
      </trkpt>
      <trkpt lat="48.44983" lon="-4.18298">
        <ele>164.37995</ele>
        <time>2023-05-01T13:44:17.054Z</time>
      </trkpt>
      <trkpt lat="48.44974" lon="-4.18291">
        <ele>164.958846</ele>
        <time>2023-05-01T13:44:22.036Z</time>
      </trkpt>
      <trkpt lat="48.44966" lon="-4.18286">
        <ele>165.537069</ele>
        <time>2023-05-01T13:44:27.051Z</time>
      </trkpt>
      <trkpt lat="48.44957" lon="-4.18279">
        <ele>166.149136</ele>
        <time>2023-05-01T13:44:32.060Z</time>
      </trkpt>
      <trkpt lat="48.44948" lon="-4.18275">
        <ele>166.752454</ele>
        <time>2023-05-01T13:44:37.054Z</time>
      </trkpt>
      <trkpt lat="48.44939" lon="-4.18268">
        <ele>167.355285</ele>
        <time>2023-05-01T13:44:42.050Z</time>
      </trkpt>
      <trkpt lat="48.4493" lon="-4.18262">
        <ele>167.955427</ele>
        <time>2023-05-01T13:44:47.049Z</time>
      </trkpt>
      <trkpt lat="48.44921" lon="-4.18255">
        <ele>168.563893</ele>
        <time>2023-05-01T13:44:52.054Z</time>
      </trkpt>
      <trkpt lat="48.44913" lon="-4.1825">
        <ele>169.140194</ele>
        <time>2023-05-01T13:44:57.050Z</time>
      </trkpt>
      <trkpt lat="48.44903" lon="-4.18245">
        <ele>169.778806</ele>
        <time>2023-05-01T13:45:03.059Z</time>
      </trkpt>
      <trkpt lat="48.44893" lon="-4.18241">
        <ele>170.417655</ele>
        <time>2023-05-01T13:45:09.052Z</time>
      </trkpt>
      <trkpt lat="48.44884" lon="-4.18238">
        <ele>171.003871</ele>
        <time>2023-05-01T13:45:14.043Z</time>
      </trkpt>
      <trkpt lat="48.44874" lon="-4.18236">
        <ele>171.597595</ele>
        <time>2023-05-01T13:45:19.054Z</time>
      </trkpt>
      <trkpt lat="48.44864" lon="-4.18235">
        <ele>172.032505</ele>
        <time>2023-05-01T13:45:25.039Z</time>
      </trkpt>
      <trkpt lat="48.44854" lon="-4.18234">
        <ele>172.292324</ele>
        <time>2023-05-01T13:45:30.040Z</time>
      </trkpt>
      <trkpt lat="48.44845" lon="-4.18234">
        <ele>172.55153</ele>
        <time>2023-05-01T13:45:35.037Z</time>
      </trkpt>
      <trkpt lat="48.44836" lon="-4.18234">
        <ele>172.813553</ele>
        <time>2023-05-01T13:45:40.044Z</time>
      </trkpt>
      <trkpt lat="48.44827" lon="-4.18235">
        <ele>173.078438</ele>
        <time>2023-05-01T13:45:45.047Z</time>
      </trkpt>
      <trkpt lat="48.44817" lon="-4.18236">
        <ele>173.350113</ele>
        <time>2023-05-01T13:45:51.044Z</time>
      </trkpt>
      <trkpt lat="48.44808" lon="-4.18238">
        <ele>173.603578</ele>
        <time>2023-05-01T13:45:57.042Z</time>
      </trkpt>
      <trkpt lat="48.44816" lon="-4.18231">
        <ele>173.856853</ele>
        <time>2023-05-01T13:46:11.043Z</time>
      </trkpt>
      <trkpt lat="48.44826" lon="-4.1823">
        <ele>174.139424</ele>
        <time>2023-05-01T13:46:16.043Z</time>
      </trkpt>
      <trkpt lat="48.44835" lon="-4.18231">
        <ele>174.399887</ele>
        <time>2023-05-01T13:46:23.038Z</time>
      </trkpt>
      <trkpt lat="48.44826" lon="-4.18237">
        <ele>174.68195</ele>
        <time>2023-05-01T13:46:29.040Z</time>
      </trkpt>
      <trkpt lat="48.44816" lon="-4.18238">
        <ele>174.958306</ele>
        <time>2023-05-01T13:46:34.041Z</time>
      </trkpt>
      <trkpt lat="48.44807" lon="-4.18241">
        <ele>175.225082</ele>
        <time>2023-05-01T13:46:39.052Z</time>
      </trkpt>
      <trkpt lat="48.44797" lon="-4.18244">
        <ele>175.497391</ele>
        <time>2023-05-01T13:46:44.052Z</time>
      </trkpt>
      <trkpt lat="48.44787" lon="-4.18248">
        <ele>175.802686</ele>
        <time>2023-05-01T13:46:50.042Z</time>
      </trkpt>
      <trkpt lat="48.44777" lon="-4.18253">
        <ele>176.103316</ele>
        <time>2023-05-01T13:46:56.048Z</time>
      </trkpt>
      <trkpt lat="48.44767" lon="-4.1826">
        <ele>176.393844</ele>
        <time>2023-05-01T13:47:01.037Z</time>
      </trkpt>
      <trkpt lat="48.4476" lon="-4.18267">
        <ele>176.646059</ele>
        <time>2023-05-01T13:47:06.047Z</time>
      </trkpt>
      <trkpt lat="48.44751" lon="-4.18274">
        <ele>176.944811</ele>
        <time>2023-05-01T13:47:11.050Z</time>
      </trkpt>
      <trkpt lat="48.44742" lon="-4.1828">
        <ele>177.408604</ele>
        <time>2023-05-01T13:47:16.046Z</time>
      </trkpt>
      <trkpt lat="48.44733" lon="-4.18287">
        <ele>177.900181</ele>
        <time>2023-05-01T13:47:21.050Z</time>
      </trkpt>
      <trkpt lat="48.44725" lon="-4.18294">
        <ele>178.357811</ele>
        <time>2023-05-01T13:47:26.048Z</time>
      </trkpt>
      <trkpt lat="48.44717" lon="-4.18303">
        <ele>178.842243</ele>
        <time>2023-05-01T13:47:31.043Z</time>
      </trkpt>
      <trkpt lat="48.44708" lon="-4.18309">
        <ele>179.349018</ele>
        <time>2023-05-01T13:47:36.034Z</time>
      </trkpt>
      <trkpt lat="48.447" lon="-4.18316">
        <ele>179.797529</ele>
        <time>2023-05-01T13:47:41.049Z</time>
      </trkpt>
      <trkpt lat="48.44692" lon="-4.18323">
        <ele>180.2717</ele>
        <time>2023-05-01T13:47:46.050Z</time>
      </trkpt>
      <trkpt lat="48.44682" lon="-4.18331">
        <ele>180.79442</ele>
        <time>2023-05-01T13:47:51.053Z</time>
      </trkpt>
      <trkpt lat="48.44673" lon="-4.18337">
        <ele>181.298374</ele>
        <time>2023-05-01T13:47:56.045Z</time>
      </trkpt>
      <trkpt lat="48.44665" lon="-4.18344">
        <ele>181.76778</ele>
        <time>2023-05-01T13:48:01.049Z</time>
      </trkpt>
      <trkpt lat="48.44655" lon="-4.1835">
        <ele>182.260715</ele>
        <time>2023-05-01T13:48:06.046Z</time>
      </trkpt>
      <trkpt lat="48.44647" lon="-4.18356">
        <ele>182.70864</ele>
        <time>2023-05-01T13:48:11.051Z</time>
      </trkpt>
      <trkpt lat="48.44638" lon="-4.18363">
        <ele>183.241283</ele>
        <time>2023-05-01T13:48:17.040Z</time>
      </trkpt>
      <trkpt lat="48.44629" lon="-4.18369">
        <ele>183.725957</ele>
        <time>2023-05-01T13:48:22.054Z</time>
      </trkpt>
      <trkpt lat="48.4462" lon="-4.18376">
        <ele>184.208722</ele>
        <time>2023-05-01T13:48:27.046Z</time>
      </trkpt>
      <trkpt lat="48.4461" lon="-4.18378">
        <ele>184.689593</ele>
        <time>2023-05-01T13:48:32.052Z</time>
      </trkpt>
      <trkpt lat="48.44601" lon="-4.18383">
        <ele>185.153867</ele>
        <time>2023-05-01T13:48:37.048Z</time>
      </trkpt>
      <trkpt lat="48.44591" lon="-4.18387">
        <ele>185.664627</ele>
        <time>2023-05-01T13:48:42.053Z</time>
      </trkpt>
      <trkpt lat="48.44582" lon="-4.1839">
        <ele>185.93866</ele>
        <time>2023-05-01T13:48:47.048Z</time>
      </trkpt>
      <trkpt lat="48.44572" lon="-4.1839">
        <ele>186.15925</ele>
        <time>2023-05-01T13:48:53.043Z</time>
      </trkpt>
      <trkpt lat="48.44562" lon="-4.18391">
        <ele>186.394014</ele>
        <time>2023-05-01T13:48:59.040Z</time>
      </trkpt>
      <trkpt lat="48.44553" lon="-4.18393">
        <ele>186.609352</ele>
        <time>2023-05-01T13:49:04.041Z</time>
      </trkpt>
      <trkpt lat="48.44544" lon="-4.18393">
        <ele>186.824846</ele>
        <time>2023-05-01T13:49:09.053Z</time>
      </trkpt>
      <trkpt lat="48.44535" lon="-4.18392">
        <ele>187.052349</ele>
        <time>2023-05-01T13:49:14.037Z</time>
      </trkpt>
      <trkpt lat="48.44525" lon="-4.18391">
        <ele>187.273581</ele>
        <time>2023-05-01T13:49:19.041Z</time>
      </trkpt>
      <trkpt lat="48.44516" lon="-4.18389">
        <ele>187.491735</ele>
        <time>2023-05-01T13:49:24.047Z</time>
      </trkpt>
      <trkpt lat="48.44507" lon="-4.18386">
        <ele>187.713299</ele>
        <time>2023-05-01T13:49:29.051Z</time>
      </trkpt>
      <trkpt lat="48.44498" lon="-4.18384">
        <ele>187.936129</ele>
        <time>2023-05-01T13:49:34.039Z</time>
      </trkpt>
      <trkpt lat="48.44488" lon="-4.18382">
        <ele>188.165526</ele>
        <time>2023-05-01T13:49:39.039Z</time>
      </trkpt>
      <trkpt lat="48.44478" lon="-4.1838">
        <ele>188.400056</ele>
        <time>2023-05-01T13:49:44.048Z</time>
      </trkpt>
      <trkpt lat="48.44469" lon="-4.18378">
        <ele>188.633385</ele>
        <time>2023-05-01T13:49:49.052Z</time>
      </trkpt>
      <trkpt lat="48.44459" lon="-4.18376">
        <ele>188.871772</ele>
        <time>2023-05-01T13:49:54.043Z</time>
      </trkpt>
      <trkpt lat="48.44449" lon="-4.18374">
        <ele>189.104978</ele>
        <time>2023-05-01T13:50:00.036Z</time>
      </trkpt>
      <trkpt lat="48.44439" lon="-4.1837">
        <ele>189.350286</ele>
        <time>2023-05-01T13:50:06.053Z</time>
      </trkpt>
      <trkpt lat="48.44429" lon="-4.18368">
        <ele>189.581821</ele>
        <time>2023-05-01T13:50:11.050Z</time>
      </trkpt>
      <trkpt lat="48.44419" lon="-4.18367">
        <ele>189.812972</ele>
        <time>2023-05-01T13:50:16.041Z</time>
      </trkpt>
      <trkpt lat="48.44409" lon="-4.18364">
        <ele>190.099533</ele>
        <time>2023-05-01T13:50:21.049Z</time>
      </trkpt>
      <trkpt lat="48.44399" lon="-4.18362">
        <ele>190.537984</ele>
        <time>2023-05-01T13:50:26.047Z</time>
      </trkpt>
      <trkpt lat="48.44389" lon="-4.1836">
        <ele>190.965312</ele>
        <time>2023-05-01T13:50:31.054Z</time>
      </trkpt>
      <trkpt lat="48.44378" lon="-4.18357">
        <ele>191.41108</ele>
        <time>2023-05-01T13:50:37.040Z</time>
      </trkpt>
      <trkpt lat="48.44369" lon="-4.18356">
        <ele>191.813412</ele>
        <time>2023-05-01T13:50:42.049Z</time>
      </trkpt>
      <trkpt lat="48.44359" lon="-4.18354">
        <ele>192.223598</ele>
        <time>2023-05-01T13:50:47.050Z</time>
      </trkpt>
      <trkpt lat="48.4435" lon="-4.18352">
        <ele>192.610569</ele>
        <time>2023-05-01T13:50:52.053Z</time>
      </trkpt>
      <trkpt lat="48.4434" lon="-4.1835">
        <ele>193.037123</ele>
        <time>2023-05-01T13:50:57.051Z</time>
      </trkpt>
      <trkpt lat="48.4433" lon="-4.18347">
        <ele>193.47365</ele>
        <time>2023-05-01T13:51:02.044Z</time>
      </trkpt>
      <trkpt lat="48.44321" lon="-4.18345">
        <ele>193.872156</ele>
        <time>2023-05-01T13:51:07.047Z</time>
      </trkpt>
      <trkpt lat="48.44311" lon="-4.18343">
        <ele>194.292439</ele>
        <time>2023-05-01T13:51:12.046Z</time>
      </trkpt>
      <trkpt lat="48.44301" lon="-4.18341">
        <ele>194.717968</ele>
        <time>2023-05-01T13:51:17.048Z</time>
      </trkpt>
      <trkpt lat="48.4429" lon="-4.18339">
        <ele>195.179179</ele>
        <time>2023-05-01T13:51:22.052Z</time>
      </trkpt>
      <trkpt lat="48.4428" lon="-4.18336">
        <ele>195.634227</ele>
        <time>2023-05-01T13:51:27.047Z</time>
      </trkpt>
      <trkpt lat="48.44269" lon="-4.18333">
        <ele>196.079996</ele>
        <time>2023-05-01T13:51:32.040Z</time>
      </trkpt>
      <trkpt lat="48.44259" lon="-4.18331">
        <ele>196.53207</ele>
        <time>2023-05-01T13:51:37.047Z</time>
      </trkpt>
      <trkpt lat="48.44248" lon="-4.1833">
        <ele>196.965423</ele>
        <time>2023-05-01T13:51:42.050Z</time>
      </trkpt>
      <trkpt lat="48.44238" lon="-4.18327">
        <ele>197.415364</ele>
        <time>2023-05-01T13:51:47.054Z</time>
      </trkpt>
      <trkpt lat="48.44227" lon="-4.18325">
        <ele>197.855199</ele>
        <time>2023-05-01T13:51:52.048Z</time>
      </trkpt>
      <trkpt lat="48.44219" lon="-4.18322">
        <ele>198.225643</ele>
        <time>2023-05-01T13:51:57.046Z</time>
      </trkpt>
      <trkpt lat="48.44209" lon="-4.18319">
        <ele>198.614561</ele>
        <time>2023-05-01T13:52:02.047Z</time>
      </trkpt>
      <trkpt lat="48.44199" lon="-4.18316">
        <ele>199.027681</ele>
        <time>2023-05-01T13:52:07.049Z</time>
      </trkpt>
      <trkpt lat="48.44189" lon="-4.18313">
        <ele>199.450608</ele>
        <time>2023-05-01T13:52:12.046Z</time>
      </trkpt>
      <trkpt lat="48.4418" lon="-4.18313">
        <ele>199.821742</ele>
        <time>2023-05-01T13:52:17.055Z</time>
      </trkpt>
      <trkpt lat="48.44171" lon="-4.18312">
        <ele>200.192561</ele>
        <time>2023-05-01T13:52:22.057Z</time>
      </trkpt>
      <trkpt lat="48.44161" lon="-4.18311">
        <ele>200.610404</ele>
        <time>2023-05-01T13:52:27.048Z</time>
      </trkpt>
      <trkpt lat="48.4415" lon="-4.18308">
        <ele>201.036847</ele>
        <time>2023-05-01T13:52:32.046Z</time>
      </trkpt>
      <trkpt lat="48.4414" lon="-4.18305">
        <ele>201.448293</ele>
        <time>2023-05-01T13:52:37.051Z</time>
      </trkpt>
      <trkpt lat="48.44131" lon="-4.18302">
        <ele>201.829678</ele>
        <time>2023-05-01T13:52:42.049Z</time>
      </trkpt>
      <trkpt lat="48.44121" lon="-4.183">
        <ele>202.257578</ele>
        <time>2023-05-01T13:52:47.050Z</time>
      </trkpt>
      <trkpt lat="48.44111" lon="-4.18297">
        <ele>202.675524</ele>
        <time>2023-05-01T13:52:52.047Z</time>
      </trkpt>
      <trkpt lat="48.441" lon="-4.18296">
        <ele>203.122301</ele>
        <time>2023-05-01T13:52:57.051Z</time>
      </trkpt>
      <trkpt lat="48.44089" lon="-4.18294">
        <ele>203.5697</ele>
        <time>2023-05-01T13:53:02.041Z</time>
      </trkpt>
      <trkpt lat="48.44078" lon="-4.18291">
        <ele>204.015323</ele>
        <time>2023-05-01T13:53:07.056Z</time>
      </trkpt>
      <trkpt lat="48.44067" lon="-4.18288">
        <ele>204.469421</ele>
        <time>2023-05-01T13:53:12.053Z</time>
      </trkpt>
      <trkpt lat="48.44057" lon="-4.18285">
        <ele>204.880342</ele>
        <time>2023-05-01T13:53:17.035Z</time>
      </trkpt>
      <trkpt lat="48.44048" lon="-4.18285">
        <ele>205.332705</ele>
        <time>2023-05-01T13:53:22.046Z</time>
      </trkpt>
      <trkpt lat="48.44038" lon="-4.18282">
        <ele>205.810935</ele>
        <time>2023-05-01T13:53:27.050Z</time>
      </trkpt>
      <trkpt lat="48.44027" lon="-4.1828">
        <ele>206.321518</ele>
        <time>2023-05-01T13:53:32.044Z</time>
      </trkpt>
      <trkpt lat="48.44017" lon="-4.18277">
        <ele>206.812328</ele>
        <time>2023-05-01T13:53:37.050Z</time>
      </trkpt>
      <trkpt lat="48.44007" lon="-4.18273">
        <ele>207.313896</ele>
        <time>2023-05-01T13:53:42.038Z</time>
      </trkpt>
      <trkpt lat="48.43996" lon="-4.18272">
        <ele>207.809829</ele>
        <time>2023-05-01T13:53:47.043Z</time>
      </trkpt>
      <trkpt lat="48.43986" lon="-4.18269">
        <ele>208.299105</ele>
        <time>2023-05-01T13:53:52.047Z</time>
      </trkpt>
      <trkpt lat="48.43976" lon="-4.18265">
        <ele>208.818858</ele>
        <time>2023-05-01T13:53:57.049Z</time>
      </trkpt>
      <trkpt lat="48.43965" lon="-4.18261">
        <ele>209.330088</ele>
        <time>2023-05-01T13:54:02.042Z</time>
      </trkpt>
      <trkpt lat="48.43955" lon="-4.18255">
        <ele>209.860028</ele>
        <time>2023-05-01T13:54:07.052Z</time>
      </trkpt>
      <trkpt lat="48.43945" lon="-4.18249">
        <ele>210.374377</ele>
        <time>2023-05-01T13:54:12.046Z</time>
      </trkpt>
      <trkpt lat="48.4393" lon="-4.18228">
        <ele>211.352917</ele>
        <time>2023-05-01T13:55:27.951Z</time>
      </trkpt>
      <trkpt lat="48.43913" lon="-4.18222">
        <ele>212.173117</ele>
        <time>2023-05-01T14:00:30.031Z</time>
      </trkpt>
      <trkpt lat="48.43905" lon="-4.18214">
        <ele>212.61286</ele>
        <time>2023-05-01T14:00:35.044Z</time>
      </trkpt>
      <trkpt lat="48.43895" lon="-4.18209">
        <ele>213.128797</ele>
        <time>2023-05-01T14:00:40.044Z</time>
      </trkpt>
      <trkpt lat="48.43885" lon="-4.18207">
        <ele>213.535359</ele>
        <time>2023-05-01T14:00:45.053Z</time>
      </trkpt>
      <trkpt lat="48.43883" lon="-4.18192">
        <ele>213.701014</ele>
        <time>2023-05-01T14:00:50.040Z</time>
      </trkpt>
      <trkpt lat="48.43885" lon="-4.18177">
        <ele>213.864261</ele>
        <time>2023-05-01T14:00:54.038Z</time>
      </trkpt>
      <trkpt lat="48.43884" lon="-4.18163">
        <ele>214.021406</ele>
        <time>2023-05-01T14:00:58.041Z</time>
      </trkpt>
      <trkpt lat="48.4388" lon="-4.18149">
        <ele>214.190318</ele>
        <time>2023-05-01T14:01:02.048Z</time>
      </trkpt>
      <trkpt lat="48.43877" lon="-4.18133">
        <ele>214.372815</ele>
        <time>2023-05-01T14:01:06.052Z</time>
      </trkpt>
      <trkpt lat="48.43873" lon="-4.18118">
        <ele>214.550071</ele>
        <time>2023-05-01T14:01:10.046Z</time>
      </trkpt>
      <trkpt lat="48.4387" lon="-4.18103">
        <ele>214.727356</ele>
        <time>2023-05-01T14:01:14.047Z</time>
      </trkpt>
      <trkpt lat="48.43869" lon="-4.18086">
        <ele>214.911698</ele>
        <time>2023-05-01T14:01:18.042Z</time>
      </trkpt>
      <trkpt lat="48.43868" lon="-4.18069">
        <ele>215.104004</ele>
        <time>2023-05-01T14:01:22.049Z</time>
      </trkpt>
      <trkpt lat="48.43866" lon="-4.18054">
        <ele>215.268571</ele>
        <time>2023-05-01T14:01:26.047Z</time>
      </trkpt>
      <trkpt lat="48.43865" lon="-4.18039">
        <ele>215.444971</ele>
        <time>2023-05-01T14:01:30.047Z</time>
      </trkpt>
      <trkpt lat="48.43866" lon="-4.18021">
        <ele>215.642258</ele>
        <time>2023-05-01T14:01:34.041Z</time>
      </trkpt>
      <trkpt lat="48.43864" lon="-4.18004">
        <ele>215.829511</ele>
        <time>2023-05-01T14:01:38.035Z</time>
      </trkpt>
      <trkpt lat="48.43865" lon="-4.1799">
        <ele>215.9883</ele>
        <time>2023-05-01T14:01:42.042Z</time>
      </trkpt>
      <trkpt lat="48.43865" lon="-4.17973">
        <ele>216.175771</ele>
        <time>2023-05-01T14:01:46.048Z</time>
      </trkpt>
      <trkpt lat="48.43865" lon="-4.17956">
        <ele>216.366381</ele>
        <time>2023-05-01T14:01:50.049Z</time>
      </trkpt>
      <trkpt lat="48.43865" lon="-4.1794">
        <ele>216.493695</ele>
        <time>2023-05-01T14:01:54.046Z</time>
      </trkpt>
      <trkpt lat="48.43865" lon="-4.17925">
        <ele>216.44797</ele>
        <time>2023-05-01T14:01:58.052Z</time>
      </trkpt>
      <trkpt lat="48.43865" lon="-4.17912">
        <ele>216.405911</ele>
        <time>2023-05-01T14:02:02.052Z</time>
      </trkpt>
      <trkpt lat="48.43865" lon="-4.17897">
        <ele>216.360149</ele>
        <time>2023-05-01T14:02:06.052Z</time>
      </trkpt>
      <trkpt lat="48.43864" lon="-4.1788">
        <ele>216.309447</ele>
        <time>2023-05-01T14:02:10.046Z</time>
      </trkpt>
      <trkpt lat="48.43864" lon="-4.17863">
        <ele>216.256305</ele>
        <time>2023-05-01T14:02:14.051Z</time>
      </trkpt>
      <trkpt lat="48.43864" lon="-4.1785">
        <ele>216.214223</ele>
        <time>2023-05-01T14:02:17.048Z</time>
      </trkpt>
      <trkpt lat="48.43864" lon="-4.17835">
        <ele>216.167881</ele>
        <time>2023-05-01T14:02:20.048Z</time>
      </trkpt>
      <trkpt lat="48.43864" lon="-4.17819">
        <ele>216.1203</ele>
        <time>2023-05-01T14:02:23.031Z</time>
      </trkpt>
      <trkpt lat="48.43864" lon="-4.17804">
        <ele>216.072084</ele>
        <time>2023-05-01T14:02:26.047Z</time>
      </trkpt>
      <trkpt lat="48.43864" lon="-4.17788">
        <ele>216.023569</ele>
        <time>2023-05-01T14:02:29.040Z</time>
      </trkpt>
      <trkpt lat="48.43864" lon="-4.17773">
        <ele>215.976916</ele>
        <time>2023-05-01T14:02:32.028Z</time>
      </trkpt>
      <trkpt lat="48.43864" lon="-4.17758">
        <ele>215.931809</ele>
        <time>2023-05-01T14:02:35.046Z</time>
      </trkpt>
      <trkpt lat="48.43864" lon="-4.17744">
        <ele>215.886702</ele>
        <time>2023-05-01T14:02:38.045Z</time>
      </trkpt>
      <trkpt lat="48.43864" lon="-4.17729">
        <ele>215.842809</ele>
        <time>2023-05-01T14:02:41.056Z</time>
      </trkpt>
      <trkpt lat="48.43864" lon="-4.17715">
        <ele>215.797642</ele>
        <time>2023-05-01T14:02:44.044Z</time>
      </trkpt>
      <trkpt lat="48.43864" lon="-4.17699">
        <ele>215.748826</ele>
        <time>2023-05-01T14:02:47.040Z</time>
      </trkpt>
      <trkpt lat="48.43864" lon="-4.17683">
        <ele>215.698458</ele>
        <time>2023-05-01T14:02:50.043Z</time>
      </trkpt>
      <trkpt lat="48.43863" lon="-4.17667">
        <ele>215.608376</ele>
        <time>2023-05-01T14:02:53.043Z</time>
      </trkpt>
      <trkpt lat="48.43863" lon="-4.1765">
        <ele>215.432785</ele>
        <time>2023-05-01T14:02:56.047Z</time>
      </trkpt>
      <trkpt lat="48.43863" lon="-4.17633">
        <ele>215.246553</ele>
        <time>2023-05-01T14:02:59.048Z</time>
      </trkpt>
      <trkpt lat="48.43863" lon="-4.17614">
        <ele>215.050586</ele>
        <time>2023-05-01T14:03:02.056Z</time>
      </trkpt>
      <trkpt lat="48.43862" lon="-4.17595">
        <ele>214.841791</ele>
        <time>2023-05-01T14:03:05.047Z</time>
      </trkpt>
      <trkpt lat="48.43862" lon="-4.17575">
        <ele>214.634227</ele>
        <time>2023-05-01T14:03:08.036Z</time>
      </trkpt>
      <trkpt lat="48.43862" lon="-4.17556">
        <ele>214.427783</ele>
        <time>2023-05-01T14:03:11.051Z</time>
      </trkpt>
      <trkpt lat="48.43861" lon="-4.17537">
        <ele>214.221896</ele>
        <time>2023-05-01T14:03:14.036Z</time>
      </trkpt>
      <trkpt lat="48.4386" lon="-4.17517">
        <ele>214.016209</ele>
        <time>2023-05-01T14:03:17.049Z</time>
      </trkpt>
      <trkpt lat="48.43859" lon="-4.17497">
        <ele>213.801589</ele>
        <time>2023-05-01T14:03:20.048Z</time>
      </trkpt>
      <trkpt lat="48.43859" lon="-4.17483">
        <ele>213.652186</ele>
        <time>2023-05-01T14:03:22.049Z</time>
      </trkpt>
      <trkpt lat="48.43857" lon="-4.17463">
        <ele>213.438673</ele>
        <time>2023-05-01T14:03:25.047Z</time>
      </trkpt>
      <trkpt lat="48.43855" lon="-4.1745">
        <ele>213.293493</ele>
        <time>2023-05-01T14:03:27.037Z</time>
      </trkpt>
      <trkpt lat="48.43854" lon="-4.17435">
        <ele>213.136801</ele>
        <time>2023-05-01T14:03:29.042Z</time>
      </trkpt>
      <trkpt lat="48.43851" lon="-4.17421">
        <ele>212.98406</ele>
        <time>2023-05-01T14:03:31.044Z</time>
      </trkpt>
      <trkpt lat="48.4385" lon="-4.17407">
        <ele>212.826777</ele>
        <time>2023-05-01T14:03:33.047Z</time>
      </trkpt>
      <trkpt lat="48.43847" lon="-4.17392">
        <ele>212.454407</ele>
        <time>2023-05-01T14:03:35.049Z</time>
      </trkpt>
      <trkpt lat="48.43845" lon="-4.17378">
        <ele>211.998363</ele>
        <time>2023-05-01T14:03:37.046Z</time>
      </trkpt>
      <trkpt lat="48.43842" lon="-4.17364">
        <ele>211.515376</ele>
        <time>2023-05-01T14:03:39.049Z</time>
      </trkpt>
      <trkpt lat="48.43839" lon="-4.17349">
        <ele>211.054974</ele>
        <time>2023-05-01T14:03:41.054Z</time>
      </trkpt>
      <trkpt lat="48.43836" lon="-4.17335">
        <ele>210.583506</ele>
        <time>2023-05-01T14:03:43.049Z</time>
      </trkpt>
      <trkpt lat="48.43833" lon="-4.17321">
        <ele>210.136513</ele>
        <time>2023-05-01T14:03:45.048Z</time>
      </trkpt>
      <trkpt lat="48.4383" lon="-4.17308">
        <ele>209.692462</ele>
        <time>2023-05-01T14:03:47.041Z</time>
      </trkpt>
      <trkpt lat="48.43826" lon="-4.17295">
        <ele>209.252516</ele>
        <time>2023-05-01T14:03:49.043Z</time>
      </trkpt>
      <trkpt lat="48.43823" lon="-4.17283">
        <ele>208.828465</ele>
        <time>2023-05-01T14:03:51.042Z</time>
      </trkpt>
      <trkpt lat="48.43819" lon="-4.17269">
        <ele>208.365087</ele>
        <time>2023-05-01T14:03:53.046Z</time>
      </trkpt>
      <trkpt lat="48.43814" lon="-4.17251">
        <ele>207.773691</ele>
        <time>2023-05-01T14:03:56.058Z</time>
      </trkpt>
      <trkpt lat="48.43811" lon="-4.17238">
        <ele>207.323641</ele>
        <time>2023-05-01T14:03:58.047Z</time>
      </trkpt>
      <trkpt lat="48.43808" lon="-4.17225">
        <ele>206.894364</ele>
        <time>2023-05-01T14:04:00.040Z</time>
      </trkpt>
      <trkpt lat="48.43804" lon="-4.17212">
        <ele>206.461527</ele>
        <time>2023-05-01T14:04:02.052Z</time>
      </trkpt>
      <trkpt lat="48.43798" lon="-4.17196">
        <ele>205.889033</ele>
        <time>2023-05-01T14:04:05.042Z</time>
      </trkpt>
      <trkpt lat="48.43795" lon="-4.17183">
        <ele>205.467683</ele>
        <time>2023-05-01T14:04:07.040Z</time>
      </trkpt>
      <trkpt lat="48.4379" lon="-4.17165">
        <ele>204.832564</ele>
        <time>2023-05-01T14:04:10.039Z</time>
      </trkpt>
      <trkpt lat="48.43785" lon="-4.17151">
        <ele>204.373162</ele>
        <time>2023-05-01T14:04:12.051Z</time>
      </trkpt>
      <trkpt lat="48.43782" lon="-4.17137">
        <ele>204.075019</ele>
        <time>2023-05-01T14:04:14.044Z</time>
      </trkpt>
      <trkpt lat="48.43777" lon="-4.17121">
        <ele>203.747082</ele>
        <time>2023-05-01T14:04:16.049Z</time>
      </trkpt>
      <trkpt lat="48.43773" lon="-4.17106">
        <ele>203.443307</ele>
        <time>2023-05-01T14:04:18.049Z</time>
      </trkpt>
      <trkpt lat="48.43769" lon="-4.17089">
        <ele>203.11364</ele>
        <time>2023-05-01T14:04:20.052Z</time>
      </trkpt>
      <trkpt lat="48.43765" lon="-4.17072">
        <ele>202.780498</ele>
        <time>2023-05-01T14:04:22.052Z</time>
      </trkpt>
      <trkpt lat="48.43761" lon="-4.17053">
        <ele>202.409729</ele>
        <time>2023-05-01T14:04:24.042Z</time>
      </trkpt>
      <trkpt lat="48.43757" lon="-4.17036">
        <ele>202.065194</ele>
        <time>2023-05-01T14:04:26.042Z</time>
      </trkpt>
      <trkpt lat="48.43752" lon="-4.17016">
        <ele>201.686516</ele>
        <time>2023-05-01T14:04:28.039Z</time>
      </trkpt>
      <trkpt lat="48.43748" lon="-4.16997">
        <ele>201.313941</ele>
        <time>2023-05-01T14:04:30.050Z</time>
      </trkpt>
      <trkpt lat="48.43745" lon="-4.16976">
        <ele>200.904516</ele>
        <time>2023-05-01T14:04:32.045Z</time>
      </trkpt>
      <trkpt lat="48.43741" lon="-4.16954">
        <ele>200.482927</ele>
        <time>2023-05-01T14:04:34.038Z</time>
      </trkpt>
      <trkpt lat="48.43737" lon="-4.1693">
        <ele>200.036973</ele>
        <time>2023-05-01T14:04:36.045Z</time>
      </trkpt>
      <trkpt lat="48.43734" lon="-4.16906">
        <ele>199.579369</ele>
        <time>2023-05-01T14:04:38.041Z</time>
      </trkpt>
      <trkpt lat="48.43732" lon="-4.1688">
        <ele>199.280277</ele>
        <time>2023-05-01T14:04:40.046Z</time>
      </trkpt>
      <trkpt lat="48.4373" lon="-4.16853">
        <ele>199.216593</ele>
        <time>2023-05-01T14:04:42.048Z</time>
      </trkpt>
      <trkpt lat="48.43729" lon="-4.16838">
        <ele>199.180656</ele>
        <time>2023-05-01T14:04:43.041Z</time>
      </trkpt>
      <trkpt lat="48.43728" lon="-4.16824">
        <ele>199.146861</ele>
        <time>2023-05-01T14:04:44.026Z</time>
      </trkpt>
      <trkpt lat="48.43727" lon="-4.1681">
        <ele>199.113802</ele>
        <time>2023-05-01T14:04:45.039Z</time>
      </trkpt>
      <trkpt lat="48.43725" lon="-4.16795">
        <ele>199.077768</ele>
        <time>2023-05-01T14:04:46.041Z</time>
      </trkpt>
      <trkpt lat="48.43724" lon="-4.1678">
        <ele>199.041613</ele>
        <time>2023-05-01T14:04:47.036Z</time>
      </trkpt>
      <trkpt lat="48.43723" lon="-4.16765">
        <ele>199.006301</ele>
        <time>2023-05-01T14:04:48.037Z</time>
      </trkpt>
      <trkpt lat="48.43722" lon="-4.1675">
        <ele>198.971885</ele>
        <time>2023-05-01T14:04:49.036Z</time>
      </trkpt>
      <trkpt lat="48.43721" lon="-4.16736">
        <ele>198.93811</ele>
        <time>2023-05-01T14:04:50.044Z</time>
      </trkpt>
      <trkpt lat="48.43719" lon="-4.16722">
        <ele>198.904281</ele>
        <time>2023-05-01T14:04:51.041Z</time>
      </trkpt>
      <trkpt lat="48.43717" lon="-4.16708">
        <ele>198.871721</ele>
        <time>2023-05-01T14:04:52.042Z</time>
      </trkpt>
      <trkpt lat="48.43714" lon="-4.16683">
        <ele>198.811779</ele>
        <time>2023-05-01T14:04:54.040Z</time>
      </trkpt>
      <trkpt lat="48.43712" lon="-4.1666">
        <ele>198.756823</ele>
        <time>2023-05-01T14:04:56.042Z</time>
      </trkpt>
      <trkpt lat="48.4371" lon="-4.1664">
        <ele>198.709931</ele>
        <time>2023-05-01T14:04:58.043Z</time>
      </trkpt>
      <trkpt lat="48.43708" lon="-4.16624">
        <ele>198.670634</ele>
        <time>2023-05-01T14:05:00.042Z</time>
      </trkpt>
      <trkpt lat="48.43707" lon="-4.1661">
        <ele>198.881105</ele>
        <time>2023-05-01T14:05:02.042Z</time>
      </trkpt>
      <trkpt lat="48.43705" lon="-4.16592">
        <ele>199.16503</ele>
        <time>2023-05-01T14:05:05.043Z</time>
      </trkpt>
      <trkpt lat="48.43703" lon="-4.16576">
        <ele>199.418489</ele>
        <time>2023-05-01T14:05:08.036Z</time>
      </trkpt>
      <trkpt lat="48.43702" lon="-4.16559">
        <ele>199.68993</ele>
        <time>2023-05-01T14:05:12.040Z</time>
      </trkpt>
      <trkpt lat="48.43702" lon="-4.16545">
        <ele>199.91732</ele>
        <time>2023-05-01T14:05:15.043Z</time>
      </trkpt>
      <trkpt lat="48.43699" lon="-4.16529">
        <ele>200.179186</ele>
        <time>2023-05-01T14:05:19.047Z</time>
      </trkpt>
      <trkpt lat="48.43698" lon="-4.16513">
        <ele>200.4435</ele>
        <time>2023-05-01T14:05:23.049Z</time>
      </trkpt>
      <trkpt lat="48.43696" lon="-4.16498">
        <ele>200.674267</ele>
        <time>2023-05-01T14:05:27.039Z</time>
      </trkpt>
      <trkpt lat="48.43694" lon="-4.16483">
        <ele>200.925263</ele>
        <time>2023-05-01T14:05:31.045Z</time>
      </trkpt>
      <trkpt lat="48.43692" lon="-4.16468">
        <ele>201.166961</ele>
        <time>2023-05-01T14:05:35.052Z</time>
      </trkpt>
      <trkpt lat="48.4369" lon="-4.16453">
        <ele>201.410103</ele>
        <time>2023-05-01T14:05:39.048Z</time>
      </trkpt>
      <trkpt lat="48.43688" lon="-4.16437">
        <ele>201.672484</ele>
        <time>2023-05-01T14:05:43.049Z</time>
      </trkpt>
      <trkpt lat="48.43686" lon="-4.16419">
        <ele>201.958389</ele>
        <time>2023-05-01T14:05:47.030Z</time>
      </trkpt>
      <trkpt lat="48.43683" lon="-4.16402">
        <ele>202.235789</ele>
        <time>2023-05-01T14:05:51.047Z</time>
      </trkpt>
      <trkpt lat="48.4368" lon="-4.16389">
        <ele>202.456945</ele>
        <time>2023-05-01T14:05:54.049Z</time>
      </trkpt>
      <trkpt lat="48.43678" lon="-4.16375">
        <ele>202.688635</ele>
        <time>2023-05-01T14:05:57.048Z</time>
      </trkpt>
      <trkpt lat="48.43674" lon="-4.16358">
        <ele>202.96407</ele>
        <time>2023-05-01T14:06:01.047Z</time>
      </trkpt>
      <trkpt lat="48.4367" lon="-4.16343">
        <ele>202.841005</ele>
        <time>2023-05-01T14:06:05.050Z</time>
      </trkpt>
      <trkpt lat="48.43666" lon="-4.16327">
        <ele>202.674955</ele>
        <time>2023-05-01T14:06:09.046Z</time>
      </trkpt>
      <trkpt lat="48.43662" lon="-4.16313">
        <ele>202.538538</ele>
        <time>2023-05-01T14:06:12.044Z</time>
      </trkpt>
      <trkpt lat="48.43659" lon="-4.16299">
        <ele>202.406741</ele>
        <time>2023-05-01T14:06:15.042Z</time>
      </trkpt>
      <trkpt lat="48.43655" lon="-4.16286">
        <ele>202.274217</ele>
        <time>2023-05-01T14:06:18.039Z</time>
      </trkpt>
      <trkpt lat="48.43651" lon="-4.16272">
        <ele>202.137098</ele>
        <time>2023-05-01T14:06:21.041Z</time>
      </trkpt>
      <trkpt lat="48.43647" lon="-4.16258">
        <ele>201.993767</ele>
        <time>2023-05-01T14:06:24.041Z</time>
      </trkpt>
      <trkpt lat="48.43643" lon="-4.16243">
        <ele>201.845686</ele>
        <time>2023-05-01T14:06:27.036Z</time>
      </trkpt>
      <trkpt lat="48.43638" lon="-4.16227">
        <ele>201.684721</ele>
        <time>2023-05-01T14:06:30.041Z</time>
      </trkpt>
      <trkpt lat="48.43633" lon="-4.1621">
        <ele>201.513841</ele>
        <time>2023-05-01T14:06:33.040Z</time>
      </trkpt>
      <trkpt lat="48.43628" lon="-4.16193">
        <ele>201.342504</ele>
        <time>2023-05-01T14:06:36.043Z</time>
      </trkpt>
      <trkpt lat="48.43623" lon="-4.16176">
        <ele>201.170394</ele>
        <time>2023-05-01T14:06:39.046Z</time>
      </trkpt>
      <trkpt lat="48.43617" lon="-4.16158">
        <ele>200.987589</ele>
        <time>2023-05-01T14:06:42.048Z</time>
      </trkpt>
      <trkpt lat="48.43611" lon="-4.1614">
        <ele>200.807622</ele>
        <time>2023-05-01T14:06:45.049Z</time>
      </trkpt>
      <trkpt lat="48.43606" lon="-4.16122">
        <ele>200.626472</ele>
        <time>2023-05-01T14:06:48.039Z</time>
      </trkpt>
      <trkpt lat="48.436" lon="-4.16105">
        <ele>200.439233</ele>
        <time>2023-05-01T14:06:51.043Z</time>
      </trkpt>
      <trkpt lat="48.43595" lon="-4.16086">
        <ele>200.22785</ele>
        <time>2023-05-01T14:06:54.043Z</time>
      </trkpt>
      <trkpt lat="48.43589" lon="-4.16074">
        <ele>200.074664</ele>
        <time>2023-05-01T14:07:06.047Z</time>
      </trkpt>
      <trkpt lat="48.43585" lon="-4.16059">
        <ele>199.899844</ele>
        <time>2023-05-01T14:07:11.048Z</time>
      </trkpt>
      <trkpt lat="48.4358" lon="-4.16043">
        <ele>199.720186</ele>
        <time>2023-05-01T14:07:15.053Z</time>
      </trkpt>
      <trkpt lat="48.43576" lon="-4.1603">
        <ele>199.571942</ele>
        <time>2023-05-01T14:07:18.047Z</time>
      </trkpt>
      <trkpt lat="48.43572" lon="-4.16017">
        <ele>199.415693</ele>
        <time>2023-05-01T14:07:21.050Z</time>
      </trkpt>
      <trkpt lat="48.43568" lon="-4.16005">
        <ele>199.268309</ele>
        <time>2023-05-01T14:07:24.048Z</time>
      </trkpt>
      <trkpt lat="48.43564" lon="-4.15991">
        <ele>199.111378</ele>
        <time>2023-05-01T14:07:27.039Z</time>
      </trkpt>
      <trkpt lat="48.4356" lon="-4.15977">
        <ele>198.954793</ele>
        <time>2023-05-01T14:07:30.037Z</time>
      </trkpt>
      <trkpt lat="48.43556" lon="-4.15962">
        <ele>198.787017</ele>
        <time>2023-05-01T14:07:33.050Z</time>
      </trkpt>
      <trkpt lat="48.43551" lon="-4.15947">
        <ele>198.607066</ele>
        <time>2023-05-01T14:07:36.047Z</time>
      </trkpt>
      <trkpt lat="48.43547" lon="-4.15931">
        <ele>198.425152</ele>
        <time>2023-05-01T14:07:39.049Z</time>
      </trkpt>
      <trkpt lat="48.43542" lon="-4.15915">
        <ele>198.241457</ele>
        <time>2023-05-01T14:07:42.050Z</time>
      </trkpt>
      <trkpt lat="48.43536" lon="-4.15899">
        <ele>198.050713</ele>
        <time>2023-05-01T14:07:45.041Z</time>
      </trkpt>
      <trkpt lat="48.43531" lon="-4.15883">
        <ele>197.859883</ele>
        <time>2023-05-01T14:07:48.039Z</time>
      </trkpt>
      <trkpt lat="48.43525" lon="-4.15866">
        <ele>197.664058</ele>
        <time>2023-05-01T14:07:51.044Z</time>
      </trkpt>
      <trkpt lat="48.4352" lon="-4.15849">
        <ele>197.572552</ele>
        <time>2023-05-01T14:07:54.040Z</time>
      </trkpt>
      <trkpt lat="48.43515" lon="-4.15832">
        <ele>197.490641</ele>
        <time>2023-05-01T14:07:57.043Z</time>
      </trkpt>
      <trkpt lat="48.43511" lon="-4.15816">
        <ele>197.412985</ele>
        <time>2023-05-01T14:08:00.043Z</time>
      </trkpt>
      <trkpt lat="48.43506" lon="-4.15799">
        <ele>197.332399</ele>
        <time>2023-05-01T14:08:03.042Z</time>
      </trkpt>
      <trkpt lat="48.43501" lon="-4.15782">
        <ele>197.254229</ele>
        <time>2023-05-01T14:08:06.039Z</time>
      </trkpt>
      <trkpt lat="48.43497" lon="-4.15766">
        <ele>197.179456</ele>
        <time>2023-05-01T14:08:09.033Z</time>
      </trkpt>
      <trkpt lat="48.43493" lon="-4.15751">
        <ele>197.105685</ele>
        <time>2023-05-01T14:08:12.042Z</time>
      </trkpt>
      <trkpt lat="48.43487" lon="-4.15735">
        <ele>197.027113</ele>
        <time>2023-05-01T14:08:15.041Z</time>
      </trkpt>
      <trkpt lat="48.43482" lon="-4.15719">
        <ele>196.951015</ele>
        <time>2023-05-01T14:08:18.041Z</time>
      </trkpt>
      <trkpt lat="48.43477" lon="-4.15704">
        <ele>196.878184</ele>
        <time>2023-05-01T14:08:21.049Z</time>
      </trkpt>
      <trkpt lat="48.43473" lon="-4.15689">
        <ele>196.805707</ele>
        <time>2023-05-01T14:08:24.042Z</time>
      </trkpt>
      <trkpt lat="48.43469" lon="-4.15675">
        <ele>196.735779</ele>
        <time>2023-05-01T14:08:27.037Z</time>
      </trkpt>
      <trkpt lat="48.43464" lon="-4.15661">
        <ele>196.66867</ele>
        <time>2023-05-01T14:08:30.038Z</time>
      </trkpt>
      <trkpt lat="48.43461" lon="-4.15648">
        <ele>196.609444</ele>
        <time>2023-05-01T14:08:33.041Z</time>
      </trkpt>
      <trkpt lat="48.43456" lon="-4.15634">
        <ele>196.539398</ele>
        <time>2023-05-01T14:08:37.043Z</time>
      </trkpt>
      <trkpt lat="48.43451" lon="-4.15618">
        <ele>196.463983</ele>
        <time>2023-05-01T14:08:40.040Z</time>
      </trkpt>
      <trkpt lat="48.43447" lon="-4.15603">
        <ele>196.399394</ele>
        <time>2023-05-01T14:08:43.048Z</time>
      </trkpt>
      <trkpt lat="48.43441" lon="-4.15587">
        <ele>196.334832</ele>
        <time>2023-05-01T14:08:46.049Z</time>
      </trkpt>
      <trkpt lat="48.43436" lon="-4.15572">
        <ele>196.271176</ele>
        <time>2023-05-01T14:08:49.037Z</time>
      </trkpt>
      <trkpt lat="48.43432" lon="-4.15556">
        <ele>196.208554</ele>
        <time>2023-05-01T14:08:52.045Z</time>
      </trkpt>
      <trkpt lat="48.43428" lon="-4.15541">
        <ele>196.148801</ele>
        <time>2023-05-01T14:08:55.049Z</time>
      </trkpt>
      <trkpt lat="48.43425" lon="-4.15527">
        <ele>196.093321</ele>
        <time>2023-05-01T14:08:58.044Z</time>
      </trkpt>
      <trkpt lat="48.4342" lon="-4.15513">
        <ele>196.035093</ele>
        <time>2023-05-01T14:09:01.041Z</time>
      </trkpt>
      <trkpt lat="48.43416" lon="-4.155">
        <ele>195.979453</ele>
        <time>2023-05-01T14:09:04.049Z</time>
      </trkpt>
      <trkpt lat="48.43411" lon="-4.15484">
        <ele>195.916228</ele>
        <time>2023-05-01T14:09:07.037Z</time>
      </trkpt>
      <trkpt lat="48.43406" lon="-4.15469">
        <ele>195.85284</ele>
        <time>2023-05-01T14:09:10.034Z</time>
      </trkpt>
      <trkpt lat="48.43401" lon="-4.15455">
        <ele>195.791869</ele>
        <time>2023-05-01T14:09:13.047Z</time>
      </trkpt>
      <trkpt lat="48.43396" lon="-4.15439">
        <ele>195.72743</ele>
        <time>2023-05-01T14:09:16.047Z</time>
      </trkpt>
      <trkpt lat="48.43392" lon="-4.15423">
        <ele>195.664126</ele>
        <time>2023-05-01T14:09:19.047Z</time>
      </trkpt>
      <trkpt lat="48.43387" lon="-4.15408">
        <ele>195.601503</ele>
        <time>2023-05-01T14:09:22.044Z</time>
      </trkpt>
      <trkpt lat="48.43382" lon="-4.15393">
        <ele>195.539696</ele>
        <time>2023-05-01T14:09:25.044Z</time>
      </trkpt>
      <trkpt lat="48.43378" lon="-4.15379">
        <ele>195.483295</ele>
        <time>2023-05-01T14:09:28.038Z</time>
      </trkpt>
      <trkpt lat="48.43373" lon="-4.15366">
        <ele>195.500299</ele>
        <time>2023-05-01T14:09:31.048Z</time>
      </trkpt>
      <trkpt lat="48.43369" lon="-4.15354">
        <ele>195.609689</ele>
        <time>2023-05-01T14:09:34.051Z</time>
      </trkpt>
      <trkpt lat="48.43364" lon="-4.15341">
        <ele>195.729598</ele>
        <time>2023-05-01T14:09:37.045Z</time>
      </trkpt>
      <trkpt lat="48.43359" lon="-4.15327">
        <ele>195.850405</ele>
        <time>2023-05-01T14:09:40.049Z</time>
      </trkpt>
      <trkpt lat="48.43355" lon="-4.15312">
        <ele>195.979626</ele>
        <time>2023-05-01T14:09:43.048Z</time>
      </trkpt>
      <trkpt lat="48.43349" lon="-4.15298">
        <ele>196.107666</ele>
        <time>2023-05-01T14:09:46.047Z</time>
      </trkpt>
      <trkpt lat="48.43344" lon="-4.15283">
        <ele>196.24236</ele>
        <time>2023-05-01T14:09:49.040Z</time>
      </trkpt>
      <trkpt lat="48.43339" lon="-4.15268">
        <ele>196.374919</ele>
        <time>2023-05-01T14:09:52.048Z</time>
      </trkpt>
      <trkpt lat="48.43334" lon="-4.15253">
        <ele>196.50102</ele>
        <time>2023-05-01T14:09:55.040Z</time>
      </trkpt>
      <trkpt lat="48.43329" lon="-4.1524">
        <ele>196.626693</ele>
        <time>2023-05-01T14:09:58.040Z</time>
      </trkpt>
      <trkpt lat="48.43324" lon="-4.15226">
        <ele>196.749768</ele>
        <time>2023-05-01T14:10:01.047Z</time>
      </trkpt>
      <trkpt lat="48.43319" lon="-4.15212">
        <ele>196.870946</ele>
        <time>2023-05-01T14:10:04.042Z</time>
      </trkpt>
      <trkpt lat="48.43314" lon="-4.15199">
        <ele>196.993927</ele>
        <time>2023-05-01T14:10:07.039Z</time>
      </trkpt>
      <trkpt lat="48.43309" lon="-4.15187">
        <ele>197.101475</ele>
        <time>2023-05-01T14:10:10.036Z</time>
      </trkpt>
      <trkpt lat="48.43304" lon="-4.15173">
        <ele>197.222181</ele>
        <time>2023-05-01T14:10:14.040Z</time>
      </trkpt>
      <trkpt lat="48.43275" lon="-4.15064">
        <ele>196.619817</ele>
        <time>2023-05-01T14:21:36.039Z</time>
      </trkpt>
      <trkpt lat="48.4327" lon="-4.15049">
        <ele>196.402195</ele>
        <time>2023-05-01T14:21:41.040Z</time>
      </trkpt>
      <trkpt lat="48.43266" lon="-4.15035">
        <ele>196.198343</ele>
        <time>2023-05-01T14:21:45.046Z</time>
      </trkpt>
      <trkpt lat="48.43263" lon="-4.15021">
        <ele>196.003042</ele>
        <time>2023-05-01T14:21:49.043Z</time>
      </trkpt>
      <trkpt lat="48.43259" lon="-4.15006">
        <ele>195.793306</ele>
        <time>2023-05-01T14:21:53.041Z</time>
      </trkpt>
      <trkpt lat="48.43256" lon="-4.14989">
        <ele>195.559201</ele>
        <time>2023-05-01T14:21:57.048Z</time>
      </trkpt>
      <trkpt lat="48.43252" lon="-4.14976">
        <ele>195.376652</ele>
        <time>2023-05-01T14:22:00.043Z</time>
      </trkpt>
      <trkpt lat="48.43248" lon="-4.14963">
        <ele>195.178815</ele>
        <time>2023-05-01T14:22:03.046Z</time>
      </trkpt>
      <trkpt lat="48.43246" lon="-4.14949">
        <ele>194.994185</ele>
        <time>2023-05-01T14:22:06.047Z</time>
      </trkpt>
      <trkpt lat="48.43242" lon="-4.14932">
        <ele>194.761248</ele>
        <time>2023-05-01T14:22:10.051Z</time>
      </trkpt>
      <trkpt lat="48.43239" lon="-4.14919">
        <ele>194.570334</ele>
        <time>2023-05-01T14:22:13.039Z</time>
      </trkpt>
      <trkpt lat="48.43236" lon="-4.14905">
        <ele>194.378798</ele>
        <time>2023-05-01T14:22:16.047Z</time>
      </trkpt>
      <trkpt lat="48.43233" lon="-4.1489">
        <ele>194.169984</ele>
        <time>2023-05-01T14:22:19.049Z</time>
      </trkpt>
      <trkpt lat="48.4323" lon="-4.14874">
        <ele>193.955368</ele>
        <time>2023-05-01T14:22:22.048Z</time>
      </trkpt>
      <trkpt lat="48.43227" lon="-4.14858">
        <ele>193.758174</ele>
        <time>2023-05-01T14:22:25.040Z</time>
      </trkpt>
      <trkpt lat="48.43222" lon="-4.14842">
        <ele>193.552916</ele>
        <time>2023-05-01T14:22:28.043Z</time>
      </trkpt>
      <trkpt lat="48.4322" lon="-4.14825">
        <ele>193.349432</ele>
        <time>2023-05-01T14:22:31.086Z</time>
      </trkpt>
      <trkpt lat="48.43216" lon="-4.14808">
        <ele>193.142017</ele>
        <time>2023-05-01T14:22:34.037Z</time>
      </trkpt>
      <trkpt lat="48.43213" lon="-4.14791">
        <ele>192.934445</ele>
        <time>2023-05-01T14:22:37.042Z</time>
      </trkpt>
      <trkpt lat="48.43211" lon="-4.14775">
        <ele>192.735983</ele>
        <time>2023-05-01T14:22:40.041Z</time>
      </trkpt>
      <trkpt lat="48.43208" lon="-4.14759">
        <ele>192.541687</ele>
        <time>2023-05-01T14:22:43.042Z</time>
      </trkpt>
      <trkpt lat="48.43206" lon="-4.14743">
        <ele>192.351699</ele>
        <time>2023-05-01T14:22:46.044Z</time>
      </trkpt>
      <trkpt lat="48.43204" lon="-4.14729">
        <ele>192.176218</ele>
        <time>2023-05-01T14:22:49.038Z</time>
      </trkpt>
      <trkpt lat="48.43202" lon="-4.14713">
        <ele>191.990783</ele>
        <time>2023-05-01T14:22:52.034Z</time>
      </trkpt>
      <trkpt lat="48.432" lon="-4.14698">
        <ele>191.810928</ele>
        <time>2023-05-01T14:22:55.050Z</time>
      </trkpt>
      <trkpt lat="48.43199" lon="-4.14683">
        <ele>191.633637</ele>
        <time>2023-05-01T14:22:58.046Z</time>
      </trkpt>
      <trkpt lat="48.43198" lon="-4.14668">
        <ele>191.449096</ele>
        <time>2023-05-01T14:23:01.047Z</time>
      </trkpt>
      <trkpt lat="48.43197" lon="-4.14654">
        <ele>191.280387</ele>
        <time>2023-05-01T14:23:04.048Z</time>
      </trkpt>
      <trkpt lat="48.43196" lon="-4.14636">
        <ele>191.07329</ele>
        <time>2023-05-01T14:23:08.039Z</time>
      </trkpt>
      <trkpt lat="48.43195" lon="-4.14623">
        <ele>190.91248</ele>
        <time>2023-05-01T14:23:11.046Z</time>
      </trkpt>
      <trkpt lat="48.43193" lon="-4.14609">
        <ele>190.674812</ele>
        <time>2023-05-01T14:23:14.039Z</time>
      </trkpt>
      <trkpt lat="48.43191" lon="-4.14595">
        <ele>190.210763</ele>
        <time>2023-05-01T14:23:17.049Z</time>
      </trkpt>
      <trkpt lat="48.43189" lon="-4.14581">
        <ele>189.742441</ele>
        <time>2023-05-01T14:23:20.044Z</time>
      </trkpt>
      <trkpt lat="48.43187" lon="-4.14567">
        <ele>189.292922</ele>
        <time>2023-05-01T14:23:23.040Z</time>
      </trkpt>
      <trkpt lat="48.43186" lon="-4.14554">
        <ele>188.856536</ele>
        <time>2023-05-01T14:23:26.050Z</time>
      </trkpt>
      <trkpt lat="48.43183" lon="-4.1454">
        <ele>188.392486</ele>
        <time>2023-05-01T14:23:29.043Z</time>
      </trkpt>
      <trkpt lat="48.43182" lon="-4.14525">
        <ele>187.915622</ele>
        <time>2023-05-01T14:23:32.038Z</time>
      </trkpt>
      <trkpt lat="48.4318" lon="-4.1451">
        <ele>187.405403</ele>
        <time>2023-05-01T14:23:35.050Z</time>
      </trkpt>
      <trkpt lat="48.43178" lon="-4.14494">
        <ele>186.886503</ele>
        <time>2023-05-01T14:23:38.046Z</time>
      </trkpt>
      <trkpt lat="48.43176" lon="-4.14478">
        <ele>186.3649</ele>
        <time>2023-05-01T14:23:41.047Z</time>
      </trkpt>
      <trkpt lat="48.43174" lon="-4.14463">
        <ele>185.887299</ele>
        <time>2023-05-01T14:23:44.044Z</time>
      </trkpt>
      <trkpt lat="48.43173" lon="-4.14448">
        <ele>185.38357</ele>
        <time>2023-05-01T14:23:47.041Z</time>
      </trkpt>
      <trkpt lat="48.4317" lon="-4.14432">
        <ele>184.863939</ele>
        <time>2023-05-01T14:23:50.045Z</time>
      </trkpt>
      <trkpt lat="48.43168" lon="-4.14415">
        <ele>184.304778</ele>
        <time>2023-05-01T14:23:53.039Z</time>
      </trkpt>
      <trkpt lat="48.43166" lon="-4.14397">
        <ele>183.733694</ele>
        <time>2023-05-01T14:23:56.046Z</time>
      </trkpt>
      <trkpt lat="48.43165" lon="-4.14379">
        <ele>183.14157</ele>
        <time>2023-05-01T14:23:59.048Z</time>
      </trkpt>
      <trkpt lat="48.43163" lon="-4.1436">
        <ele>182.535069</ele>
        <time>2023-05-01T14:24:02.046Z</time>
      </trkpt>
      <trkpt lat="48.43162" lon="-4.14342">
        <ele>181.972918</ele>
        <time>2023-05-01T14:24:05.043Z</time>
      </trkpt>
      <trkpt lat="48.43159" lon="-4.14323">
        <ele>181.514237</ele>
        <time>2023-05-01T14:24:08.048Z</time>
      </trkpt>
      <trkpt lat="48.43157" lon="-4.14303">
        <ele>181.046162</ele>
        <time>2023-05-01T14:24:11.046Z</time>
      </trkpt>
      <trkpt lat="48.43156" lon="-4.14283">
        <ele>180.564179</ele>
        <time>2023-05-01T14:24:14.042Z</time>
      </trkpt>
      <trkpt lat="48.43155" lon="-4.14269">
        <ele>180.240702</ele>
        <time>2023-05-01T14:24:16.044Z</time>
      </trkpt>
      <trkpt lat="48.43153" lon="-4.1425">
        <ele>179.764637</ele>
        <time>2023-05-01T14:24:19.047Z</time>
      </trkpt>
      <trkpt lat="48.43152" lon="-4.1423">
        <ele>179.302715</ele>
        <time>2023-05-01T14:24:22.049Z</time>
      </trkpt>
      <trkpt lat="48.4315" lon="-4.14216">
        <ele>178.970011</ele>
        <time>2023-05-01T14:24:24.046Z</time>
      </trkpt>
      <trkpt lat="48.43149" lon="-4.14203">
        <ele>178.644933</ele>
        <time>2023-05-01T14:24:26.047Z</time>
      </trkpt>
      <trkpt lat="48.43146" lon="-4.14184">
        <ele>178.193258</ele>
        <time>2023-05-01T14:24:29.042Z</time>
      </trkpt>
      <trkpt lat="48.43146" lon="-4.1417">
        <ele>177.858395</ele>
        <time>2023-05-01T14:24:31.045Z</time>
      </trkpt>
      <trkpt lat="48.43144" lon="-4.14156">
        <ele>177.526</ele>
        <time>2023-05-01T14:24:33.038Z</time>
      </trkpt>
      <trkpt lat="48.43143" lon="-4.14142">
        <ele>177.176303</ele>
        <time>2023-05-01T14:24:35.038Z</time>
      </trkpt>
      <trkpt lat="48.43141" lon="-4.14123">
        <ele>176.715588</ele>
        <time>2023-05-01T14:24:38.038Z</time>
      </trkpt>
      <trkpt lat="48.43139" lon="-4.14103">
        <ele>176.246245</ele>
        <time>2023-05-01T14:24:41.048Z</time>
      </trkpt>
      <trkpt lat="48.43138" lon="-4.14084">
        <ele>175.786197</ele>
        <time>2023-05-01T14:24:44.046Z</time>
      </trkpt>
      <trkpt lat="48.43136" lon="-4.14064">
        <ele>175.221327</ele>
        <time>2023-05-01T14:24:47.050Z</time>
      </trkpt>
      <trkpt lat="48.43134" lon="-4.14045">
        <ele>174.643242</ele>
        <time>2023-05-01T14:24:50.050Z</time>
      </trkpt>
      <trkpt lat="48.43132" lon="-4.14026">
        <ele>174.074331</ele>
        <time>2023-05-01T14:24:53.039Z</time>
      </trkpt>
      <trkpt lat="48.43131" lon="-4.14007">
        <ele>173.504211</ele>
        <time>2023-05-01T14:24:56.052Z</time>
      </trkpt>
      <trkpt lat="48.43129" lon="-4.13987">
        <ele>172.909141</ele>
        <time>2023-05-01T14:24:59.042Z</time>
      </trkpt>
      <trkpt lat="48.43126" lon="-4.13968">
        <ele>172.308147</ele>
        <time>2023-05-01T14:25:02.049Z</time>
      </trkpt>
      <trkpt lat="48.43124" lon="-4.13954">
        <ele>171.90095</ele>
        <time>2023-05-01T14:25:04.047Z</time>
      </trkpt>
      <trkpt lat="48.43123" lon="-4.13941">
        <ele>171.487718</ele>
        <time>2023-05-01T14:25:06.026Z</time>
      </trkpt>
      <trkpt lat="48.43121" lon="-4.13926">
        <ele>171.050993</ele>
        <time>2023-05-01T14:25:08.044Z</time>
      </trkpt>
      <trkpt lat="48.4312" lon="-4.13912">
        <ele>170.620019</ele>
        <time>2023-05-01T14:25:10.051Z</time>
      </trkpt>
      <trkpt lat="48.43119" lon="-4.13898">
        <ele>170.205</ele>
        <time>2023-05-01T14:25:12.034Z</time>
      </trkpt>
      <trkpt lat="48.43117" lon="-4.13884">
        <ele>169.786145</ele>
        <time>2023-05-01T14:25:14.035Z</time>
      </trkpt>
      <trkpt lat="48.43113" lon="-4.13865">
        <ele>169.176018</ele>
        <time>2023-05-01T14:25:17.038Z</time>
      </trkpt>
      <trkpt lat="48.43109" lon="-4.13845">
        <ele>168.559554</ele>
        <time>2023-05-01T14:25:20.039Z</time>
      </trkpt>
      <trkpt lat="48.43106" lon="-4.13832">
        <ele>168.138695</ele>
        <time>2023-05-01T14:25:22.031Z</time>
      </trkpt>
      <trkpt lat="48.43102" lon="-4.13812">
        <ele>167.514997</ele>
        <time>2023-05-01T14:25:25.045Z</time>
      </trkpt>
      <trkpt lat="48.43099" lon="-4.13798">
        <ele>167.0863</ele>
        <time>2023-05-01T14:25:27.043Z</time>
      </trkpt>
      <trkpt lat="48.43095" lon="-4.13785">
        <ele>166.663799</ele>
        <time>2023-05-01T14:25:29.037Z</time>
      </trkpt>
      <trkpt lat="48.4309" lon="-4.13773">
        <ele>166.241971</ele>
        <time>2023-05-01T14:25:31.041Z</time>
      </trkpt>
      <trkpt lat="48.43086" lon="-4.1376">
        <ele>165.812367</ele>
        <time>2023-05-01T14:25:33.038Z</time>
      </trkpt>
      <trkpt lat="48.43082" lon="-4.13747">
        <ele>165.399031</ele>
        <time>2023-05-01T14:25:35.050Z</time>
      </trkpt>
      <trkpt lat="48.43075" lon="-4.1373">
        <ele>164.799582</ele>
        <time>2023-05-01T14:25:38.043Z</time>
      </trkpt>
      <trkpt lat="48.43068" lon="-4.13713">
        <ele>164.211671</ele>
        <time>2023-05-01T14:25:41.040Z</time>
      </trkpt>
      <trkpt lat="48.43063" lon="-4.13701">
        <ele>163.789842</ele>
        <time>2023-05-01T14:25:43.030Z</time>
      </trkpt>
      <trkpt lat="48.43057" lon="-4.13686">
        <ele>163.256031</ele>
        <time>2023-05-01T14:25:46.039Z</time>
      </trkpt>
      <trkpt lat="48.43049" lon="-4.13669">
        <ele>162.651639</ele>
        <time>2023-05-01T14:25:49.039Z</time>
      </trkpt>
      <trkpt lat="48.43042" lon="-4.13651">
        <ele>162.046698</ele>
        <time>2023-05-01T14:25:52.036Z</time>
      </trkpt>
      <trkpt lat="48.43037" lon="-4.13639">
        <ele>161.614329</ele>
        <time>2023-05-01T14:25:54.035Z</time>
      </trkpt>
      <trkpt lat="48.43031" lon="-4.13628">
        <ele>161.207216</ele>
        <time>2023-05-01T14:25:56.032Z</time>
      </trkpt>
      <trkpt lat="48.43026" lon="-4.13617">
        <ele>160.794712</ele>
        <time>2023-05-01T14:25:58.039Z</time>
      </trkpt>
      <trkpt lat="48.4302" lon="-4.13604">
        <ele>160.328478</ele>
        <time>2023-05-01T14:26:00.039Z</time>
      </trkpt>
      <trkpt lat="48.43015" lon="-4.13591">
        <ele>159.889315</ele>
        <time>2023-05-01T14:26:02.041Z</time>
      </trkpt>
      <trkpt lat="48.43009" lon="-4.13578">
        <ele>159.402033</ele>
        <time>2023-05-01T14:26:04.039Z</time>
      </trkpt>
      <trkpt lat="48.43004" lon="-4.13565">
        <ele>158.824971</ele>
        <time>2023-05-01T14:26:06.042Z</time>
      </trkpt>
      <trkpt lat="48.42997" lon="-4.13552">
        <ele>158.216713</ele>
        <time>2023-05-01T14:26:08.036Z</time>
      </trkpt>
      <trkpt lat="48.42992" lon="-4.13539">
        <ele>157.645989</ele>
        <time>2023-05-01T14:26:10.047Z</time>
      </trkpt>
      <trkpt lat="48.42986" lon="-4.13525">
        <ele>157.031552</ele>
        <time>2023-05-01T14:26:12.027Z</time>
      </trkpt>
      <trkpt lat="48.4298" lon="-4.13511">
        <ele>156.439136</ele>
        <time>2023-05-01T14:26:14.036Z</time>
      </trkpt>
      <trkpt lat="48.42976" lon="-4.13497">
        <ele>155.854104</ele>
        <time>2023-05-01T14:26:16.037Z</time>
      </trkpt>
      <trkpt lat="48.42971" lon="-4.13482">
        <ele>155.219357</ele>
        <time>2023-05-01T14:26:18.039Z</time>
      </trkpt>
      <trkpt lat="48.42966" lon="-4.13466">
        <ele>154.589433</ele>
        <time>2023-05-01T14:26:20.038Z</time>
      </trkpt>
      <trkpt lat="48.4296" lon="-4.13452">
        <ele>153.965464</ele>
        <time>2023-05-01T14:26:22.042Z</time>
      </trkpt>
      <trkpt lat="48.42955" lon="-4.13437">
        <ele>153.334207</ele>
        <time>2023-05-01T14:26:24.036Z</time>
      </trkpt>
      <trkpt lat="48.42949" lon="-4.13421">
        <ele>152.679496</ele>
        <time>2023-05-01T14:26:26.040Z</time>
      </trkpt>
      <trkpt lat="48.42944" lon="-4.13406">
        <ele>152.067919</ele>
        <time>2023-05-01T14:26:28.040Z</time>
      </trkpt>
      <trkpt lat="48.42939" lon="-4.13391">
        <ele>151.442269</ele>
        <time>2023-05-01T14:26:30.039Z</time>
      </trkpt>
      <trkpt lat="48.42935" lon="-4.13376">
        <ele>150.812492</ele>
        <time>2023-05-01T14:26:32.038Z</time>
      </trkpt>
      <trkpt lat="48.42931" lon="-4.13359">
        <ele>150.179974</ele>
        <time>2023-05-01T14:26:34.036Z</time>
      </trkpt>
      <trkpt lat="48.42927" lon="-4.13344">
        <ele>149.572781</ele>
        <time>2023-05-01T14:26:36.039Z</time>
      </trkpt>
      <trkpt lat="48.42922" lon="-4.1333">
        <ele>149.071704</ele>
        <time>2023-05-01T14:26:38.042Z</time>
      </trkpt>
      <trkpt lat="48.42918" lon="-4.13315">
        <ele>148.566185</ele>
        <time>2023-05-01T14:26:40.039Z</time>
      </trkpt>
      <trkpt lat="48.42914" lon="-4.133">
        <ele>148.064389</ele>
        <time>2023-05-01T14:26:42.039Z</time>
      </trkpt>
      <trkpt lat="48.42909" lon="-4.13284">
        <ele>147.515344</ele>
        <time>2023-05-01T14:26:44.038Z</time>
      </trkpt>
      <trkpt lat="48.42904" lon="-4.13268">
        <ele>146.973891</ele>
        <time>2023-05-01T14:26:46.043Z</time>
      </trkpt>
      <trkpt lat="48.42899" lon="-4.13252">
        <ele>146.427631</ele>
        <time>2023-05-01T14:26:48.039Z</time>
      </trkpt>
      <trkpt lat="48.42894" lon="-4.13237">
        <ele>145.885363</ele>
        <time>2023-05-01T14:26:50.040Z</time>
      </trkpt>
      <trkpt lat="48.42888" lon="-4.1322">
        <ele>145.329446</ele>
        <time>2023-05-01T14:26:52.032Z</time>
      </trkpt>
      <trkpt lat="48.42884" lon="-4.13204">
        <ele>144.785135</ele>
        <time>2023-05-01T14:26:54.034Z</time>
      </trkpt>
      <trkpt lat="48.42877" lon="-4.13188">
        <ele>144.194809</ele>
        <time>2023-05-01T14:26:56.041Z</time>
      </trkpt>
      <trkpt lat="48.4287" lon="-4.13171">
        <ele>143.580548</ele>
        <time>2023-05-01T14:26:58.040Z</time>
      </trkpt>
      <trkpt lat="48.42863" lon="-4.13153">
        <ele>142.943189</ele>
        <time>2023-05-01T14:27:00.041Z</time>
      </trkpt>
      <trkpt lat="48.42857" lon="-4.13135">
        <ele>142.296689</ele>
        <time>2023-05-01T14:27:02.040Z</time>
      </trkpt>
      <trkpt lat="48.4285" lon="-4.13116">
        <ele>141.653489</ele>
        <time>2023-05-01T14:27:04.041Z</time>
      </trkpt>
      <trkpt lat="48.42843" lon="-4.13098">
        <ele>141.113477</ele>
        <time>2023-05-01T14:27:06.042Z</time>
      </trkpt>
      <trkpt lat="48.42836" lon="-4.13079">
        <ele>141.124435</ele>
        <time>2023-05-01T14:27:08.043Z</time>
      </trkpt>
      <trkpt lat="48.4283" lon="-4.13061">
        <ele>141.135566</ele>
        <time>2023-05-01T14:27:10.039Z</time>
      </trkpt>
      <trkpt lat="48.42823" lon="-4.13042">
        <ele>141.14678</ele>
        <time>2023-05-01T14:27:12.033Z</time>
      </trkpt>
      <trkpt lat="48.42816" lon="-4.13022">
        <ele>141.157764</ele>
        <time>2023-05-01T14:27:14.038Z</time>
      </trkpt>
      <trkpt lat="48.42809" lon="-4.13003">
        <ele>141.169234</ele>
        <time>2023-05-01T14:27:16.043Z</time>
      </trkpt>
      <trkpt lat="48.42802" lon="-4.12984">
        <ele>141.180583</ele>
        <time>2023-05-01T14:27:18.046Z</time>
      </trkpt>
      <trkpt lat="48.42795" lon="-4.12964">
        <ele>141.192297</ele>
        <time>2023-05-01T14:27:20.046Z</time>
      </trkpt>
      <trkpt lat="48.42789" lon="-4.12944">
        <ele>141.203615</ele>
        <time>2023-05-01T14:27:22.044Z</time>
      </trkpt>
      <trkpt lat="48.42781" lon="-4.12925">
        <ele>141.215027</ele>
        <time>2023-05-01T14:27:24.043Z</time>
      </trkpt>
      <trkpt lat="48.42774" lon="-4.12906">
        <ele>141.226234</ele>
        <time>2023-05-01T14:27:26.041Z</time>
      </trkpt>
      <trkpt lat="48.42768" lon="-4.12887">
        <ele>141.237265</ele>
        <time>2023-05-01T14:27:28.047Z</time>
      </trkpt>
      <trkpt lat="48.42761" lon="-4.12868">
        <ele>141.248168</ele>
        <time>2023-05-01T14:27:30.044Z</time>
      </trkpt>
      <trkpt lat="48.42754" lon="-4.12849">
        <ele>141.086346</ele>
        <time>2023-05-01T14:27:32.038Z</time>
      </trkpt>
      <trkpt lat="48.42747" lon="-4.12831">
        <ele>140.872545</ele>
        <time>2023-05-01T14:27:34.036Z</time>
      </trkpt>
      <trkpt lat="48.42741" lon="-4.12813">
        <ele>140.656118</ele>
        <time>2023-05-01T14:27:36.048Z</time>
      </trkpt>
      <trkpt lat="48.42735" lon="-4.12794">
        <ele>140.442026</ele>
        <time>2023-05-01T14:27:38.041Z</time>
      </trkpt>
      <trkpt lat="48.42729" lon="-4.12777">
        <ele>140.233483</ele>
        <time>2023-05-01T14:27:40.042Z</time>
      </trkpt>
      <trkpt lat="48.42723" lon="-4.12758">
        <ele>140.021232</ele>
        <time>2023-05-01T14:27:42.046Z</time>
      </trkpt>
      <trkpt lat="48.42717" lon="-4.1274">
        <ele>139.811598</ele>
        <time>2023-05-01T14:27:44.044Z</time>
      </trkpt>
      <trkpt lat="48.42712" lon="-4.12722">
        <ele>139.607364</ele>
        <time>2023-05-01T14:27:46.042Z</time>
      </trkpt>
      <trkpt lat="48.42707" lon="-4.12705">
        <ele>139.415814</ele>
        <time>2023-05-01T14:27:48.037Z</time>
      </trkpt>
      <trkpt lat="48.42703" lon="-4.12686">
        <ele>139.20215</ele>
        <time>2023-05-01T14:27:50.039Z</time>
      </trkpt>
      <trkpt lat="48.427" lon="-4.12666">
        <ele>138.995961</ele>
        <time>2023-05-01T14:27:52.035Z</time>
      </trkpt>
      <trkpt lat="48.42697" lon="-4.12647">
        <ele>138.790788</ele>
        <time>2023-05-01T14:27:54.034Z</time>
      </trkpt>
      <trkpt lat="48.42696" lon="-4.12629">
        <ele>138.604656</ele>
        <time>2023-05-01T14:27:56.043Z</time>
      </trkpt>
      <trkpt lat="48.42694" lon="-4.12613">
        <ele>138.428369</ele>
        <time>2023-05-01T14:27:58.044Z</time>
      </trkpt>
      <trkpt lat="48.42693" lon="-4.12598">
        <ele>138.580507</ele>
        <time>2023-05-01T14:28:00.054Z</time>
      </trkpt>
      <trkpt lat="48.42693" lon="-4.12585">
        <ele>138.725741</ele>
        <time>2023-05-01T14:28:02.049Z</time>
      </trkpt>
      <trkpt lat="48.42692" lon="-4.12565">
        <ele>138.929776</ele>
        <time>2023-05-01T14:28:05.049Z</time>
      </trkpt>
      <trkpt lat="48.42691" lon="-4.1255">
        <ele>139.093654</ele>
        <time>2023-05-01T14:28:08.044Z</time>
      </trkpt>
      <trkpt lat="48.42691" lon="-4.12535">
        <ele>139.25423</ele>
        <time>2023-05-01T14:28:11.042Z</time>
      </trkpt>
      <trkpt lat="48.42691" lon="-4.12521">
        <ele>139.405824</ele>
        <time>2023-05-01T14:28:14.037Z</time>
      </trkpt>
      <trkpt lat="48.4269" lon="-4.12507">
        <ele>139.554539</ele>
        <time>2023-05-01T14:28:17.043Z</time>
      </trkpt>
      <trkpt lat="48.4269" lon="-4.12493">
        <ele>139.699764</ele>
        <time>2023-05-01T14:28:20.048Z</time>
      </trkpt>
      <trkpt lat="48.42688" lon="-4.12475">
        <ele>139.885761</ele>
        <time>2023-05-01T14:28:24.047Z</time>
      </trkpt>
      <trkpt lat="48.42688" lon="-4.12458">
        <ele>140.069322</ele>
        <time>2023-05-01T14:28:28.047Z</time>
      </trkpt>
      <trkpt lat="48.42686" lon="-4.12441">
        <ele>140.249014</ele>
        <time>2023-05-01T14:28:32.045Z</time>
      </trkpt>
      <trkpt lat="48.42685" lon="-4.12426">
        <ele>140.414773</ele>
        <time>2023-05-01T14:28:36.045Z</time>
      </trkpt>
      <trkpt lat="48.42683" lon="-4.12411">
        <ele>140.573841</ele>
        <time>2023-05-01T14:28:40.046Z</time>
      </trkpt>
      <trkpt lat="48.4268" lon="-4.12396">
        <ele>140.745448</ele>
        <time>2023-05-01T14:28:44.039Z</time>
      </trkpt>
      <trkpt lat="48.42677" lon="-4.12381">
        <ele>140.908156</ele>
        <time>2023-05-01T14:28:48.040Z</time>
      </trkpt>
      <trkpt lat="48.42675" lon="-4.12365">
        <ele>141.077348</ele>
        <time>2023-05-01T14:28:52.033Z</time>
      </trkpt>
      <trkpt lat="48.42675" lon="-4.12351">
        <ele>141.229069</ele>
        <time>2023-05-01T14:28:56.049Z</time>
      </trkpt>
      <trkpt lat="48.42673" lon="-4.12336">
        <ele>141.514521</ele>
        <time>2023-05-01T14:29:00.048Z</time>
      </trkpt>
      <trkpt lat="48.42671" lon="-4.12321">
        <ele>141.924578</ele>
        <time>2023-05-01T14:29:04.047Z</time>
      </trkpt>
      <trkpt lat="48.4267" lon="-4.12306">
        <ele>142.310339</ele>
        <time>2023-05-01T14:29:08.042Z</time>
      </trkpt>
      <trkpt lat="48.42669" lon="-4.12292">
        <ele>142.686076</ele>
        <time>2023-05-01T14:29:12.029Z</time>
      </trkpt>
      <trkpt lat="48.42668" lon="-4.12277">
        <ele>143.083029</ele>
        <time>2023-05-01T14:29:16.043Z</time>
      </trkpt>
      <trkpt lat="48.42668" lon="-4.12263">
        <ele>143.438502</ele>
        <time>2023-05-01T14:29:20.045Z</time>
      </trkpt>
      <trkpt lat="48.42668" lon="-4.12249">
        <ele>143.799458</ele>
        <time>2023-05-01T14:29:24.046Z</time>
      </trkpt>
      <trkpt lat="48.42668" lon="-4.12233">
        <ele>144.222785</ele>
        <time>2023-05-01T14:29:29.043Z</time>
      </trkpt>
      <trkpt lat="48.42668" lon="-4.12217">
        <ele>144.636129</ele>
        <time>2023-05-01T14:29:34.034Z</time>
      </trkpt>
      <trkpt lat="48.42669" lon="-4.12204">
        <ele>144.991864</ele>
        <time>2023-05-01T14:29:38.042Z</time>
      </trkpt>
      <trkpt lat="48.42671" lon="-4.12188">
        <ele>145.41593</ele>
        <time>2023-05-01T14:29:43.050Z</time>
      </trkpt>
      <trkpt lat="48.42673" lon="-4.12172">
        <ele>145.843246</ele>
        <time>2023-05-01T14:29:48.046Z</time>
      </trkpt>
      <trkpt lat="48.42674" lon="-4.12156">
        <ele>146.255787</ele>
        <time>2023-05-01T14:29:53.038Z</time>
      </trkpt>
      <trkpt lat="48.42676" lon="-4.12143">
        <ele>146.613968</ele>
        <time>2023-05-01T14:29:57.043Z</time>
      </trkpt>
      <trkpt lat="48.42677" lon="-4.12126">
        <ele>147.051751</ele>
        <time>2023-05-01T14:30:02.048Z</time>
      </trkpt>
      <trkpt lat="48.42679" lon="-4.12109">
        <ele>147.491935</ele>
        <time>2023-05-01T14:30:07.038Z</time>
      </trkpt>
      <trkpt lat="48.4268" lon="-4.12093">
        <ele>147.925271</ele>
        <time>2023-05-01T14:30:12.039Z</time>
      </trkpt>
      <trkpt lat="48.42682" lon="-4.12077">
        <ele>148.352172</ele>
        <time>2023-05-01T14:30:17.043Z</time>
      </trkpt>
      <trkpt lat="48.42684" lon="-4.1206">
        <ele>148.496559</ele>
        <time>2023-05-01T14:30:22.044Z</time>
      </trkpt>
      <trkpt lat="48.42684" lon="-4.12046">
        <ele>148.599645</ele>
        <time>2023-05-01T14:30:26.049Z</time>
      </trkpt>
      <trkpt lat="48.42685" lon="-4.12032">
        <ele>148.703407</ele>
        <time>2023-05-01T14:30:30.040Z</time>
      </trkpt>
      <trkpt lat="48.42685" lon="-4.12017">
        <ele>148.815242</ele>
        <time>2023-05-01T14:30:34.038Z</time>
      </trkpt>
      <trkpt lat="48.42686" lon="-4.12001">
        <ele>148.928936</ele>
        <time>2023-05-01T14:30:38.048Z</time>
      </trkpt>
      <trkpt lat="48.42687" lon="-4.11985">
        <ele>149.046661</ele>
        <time>2023-05-01T14:30:42.043Z</time>
      </trkpt>
      <trkpt lat="48.42687" lon="-4.11971">
        <ele>149.147464</ele>
        <time>2023-05-01T14:30:46.043Z</time>
      </trkpt>
      <trkpt lat="48.42688" lon="-4.11957">
        <ele>149.255871</ele>
        <time>2023-05-01T14:30:50.052Z</time>
      </trkpt>
      <trkpt lat="48.42689" lon="-4.11942">
        <ele>149.363871</ele>
        <time>2023-05-01T14:30:54.039Z</time>
      </trkpt>
      <trkpt lat="48.4269" lon="-4.11928">
        <ele>149.467519</ele>
        <time>2023-05-01T14:30:58.040Z</time>
      </trkpt>
      <trkpt lat="48.42691" lon="-4.11914">
        <ele>149.569479</ele>
        <time>2023-05-01T14:31:03.039Z</time>
      </trkpt>
      <trkpt lat="48.42691" lon="-4.11899">
        <ele>149.674632</ele>
        <time>2023-05-01T14:31:08.046Z</time>
      </trkpt>
      <trkpt lat="48.42691" lon="-4.11885">
        <ele>149.778324</ele>
        <time>2023-05-01T14:31:13.037Z</time>
      </trkpt>
      <trkpt lat="48.42694" lon="-4.11871">
        <ele>149.883182</ele>
        <time>2023-05-01T14:31:19.042Z</time>
      </trkpt>
      <trkpt lat="48.42693" lon="-4.11855">
        <ele>150.004552</ele>
        <time>2023-05-01T14:31:25.040Z</time>
      </trkpt>
      <trkpt lat="48.42693" lon="-4.1184">
        <ele>150.112147</ele>
        <time>2023-05-01T14:31:30.050Z</time>
      </trkpt>
      <trkpt lat="48.42692" lon="-4.11825">
        <ele>150.219517</ele>
        <time>2023-05-01T14:31:34.067Z</time>
      </trkpt>
      <trkpt lat="48.42693" lon="-4.11807">
        <ele>150.354213</ele>
        <time>2023-05-01T14:31:38.047Z</time>
      </trkpt>
      <trkpt lat="48.42693" lon="-4.11791">
        <ele>150.422276</ele>
        <time>2023-05-01T14:31:41.048Z</time>
      </trkpt>
      <trkpt lat="48.42693" lon="-4.11775">
        <ele>150.488081</ele>
        <time>2023-05-01T14:31:44.048Z</time>
      </trkpt>
      <trkpt lat="48.42693" lon="-4.11758">
        <ele>150.558454</ele>
        <time>2023-05-01T14:31:47.041Z</time>
      </trkpt>
      <trkpt lat="48.42692" lon="-4.1174">
        <ele>150.631261</ele>
        <time>2023-05-01T14:31:50.047Z</time>
      </trkpt>
      <trkpt lat="48.42692" lon="-4.11722">
        <ele>150.708995</ele>
        <time>2023-05-01T14:31:53.050Z</time>
      </trkpt>
      <trkpt lat="48.42692" lon="-4.11701">
        <ele>150.792906</ele>
        <time>2023-05-01T14:31:56.048Z</time>
      </trkpt>
      <trkpt lat="48.42691" lon="-4.11681">
        <ele>150.874624</ele>
        <time>2023-05-01T14:31:59.054Z</time>
      </trkpt>
      <trkpt lat="48.4269" lon="-4.11663">
        <ele>150.952103</ele>
        <time>2023-05-01T14:32:02.051Z</time>
      </trkpt>
      <trkpt lat="48.42689" lon="-4.11646">
        <ele>151.021667</ele>
        <time>2023-05-01T14:32:05.034Z</time>
      </trkpt>
      <trkpt lat="48.42687" lon="-4.11631">
        <ele>151.082051</ele>
        <time>2023-05-01T14:32:08.051Z</time>
      </trkpt>
      <trkpt lat="48.42685" lon="-4.11617">
        <ele>151.1418</ele>
        <time>2023-05-01T14:32:11.056Z</time>
      </trkpt>
      <trkpt lat="48.42684" lon="-4.11602">
        <ele>151.202714</ele>
        <time>2023-05-01T14:32:14.058Z</time>
      </trkpt>
      <trkpt lat="48.42683" lon="-4.11588">
        <ele>151.260944</ele>
        <time>2023-05-01T14:32:17.053Z</time>
      </trkpt>
      <trkpt lat="48.42681" lon="-4.11571">
        <ele>151.333516</ele>
        <time>2023-05-01T14:32:21.052Z</time>
      </trkpt>
      <trkpt lat="48.42679" lon="-4.11554">
        <ele>151.405036</ele>
        <time>2023-05-01T14:32:25.049Z</time>
      </trkpt>
      <trkpt lat="48.42677" lon="-4.11536">
        <ele>151.476981</ele>
        <time>2023-05-01T14:32:29.063Z</time>
      </trkpt>
      <trkpt lat="48.42675" lon="-4.1152">
        <ele>151.481672</ele>
        <time>2023-05-01T14:32:33.060Z</time>
      </trkpt>
      <trkpt lat="48.40569" lon="-4.07884">
        <ele>162.362606</ele>
        <time>2023-05-01T14:50:04.032Z</time>
      </trkpt>
      <trkpt lat="48.40574" lon="-4.07869">
        <ele>163.028584</ele>
        <time>2023-05-01T14:53:58.042Z</time>
      </trkpt>
      <trkpt lat="48.40576" lon="-4.07847">
        <ele>163.807044</ele>
        <time>2023-05-01T14:54:39.044Z</time>
      </trkpt>
      <trkpt lat="48.40575" lon="-4.07833">
        <ele>163.826556</ele>
        <time>2023-05-01T14:54:44.044Z</time>
      </trkpt>
      <trkpt lat="48.40574" lon="-4.07819">
        <ele>163.845231</ele>
        <time>2023-05-01T14:54:49.047Z</time>
      </trkpt>
      <trkpt lat="48.40581" lon="-4.07806">
        <ele>163.867049</ele>
        <time>2023-05-01T14:56:51.050Z</time>
      </trkpt>
      <trkpt lat="48.40581" lon="-4.0779">
        <ele>163.888322</ele>
        <time>2023-05-01T14:57:19.050Z</time>
      </trkpt>
      <trkpt lat="48.40579" lon="-4.07775">
        <ele>163.909407</ele>
        <time>2023-05-01T14:57:22.046Z</time>
      </trkpt>
      <trkpt lat="48.40579" lon="-4.07756">
        <ele>163.934265</ele>
        <time>2023-05-01T14:57:25.040Z</time>
      </trkpt>
      <trkpt lat="48.4058" lon="-4.07741">
        <ele>163.954158</ele>
        <time>2023-05-01T14:57:27.047Z</time>
      </trkpt>
      <trkpt lat="48.40582" lon="-4.07725">
        <ele>163.976757</ele>
        <time>2023-05-01T14:57:29.053Z</time>
      </trkpt>
      <trkpt lat="48.40583" lon="-4.07707">
        <ele>164.000249</ele>
        <time>2023-05-01T14:57:31.035Z</time>
      </trkpt>
      <trkpt lat="48.40585" lon="-4.07689">
        <ele>164.024138</ele>
        <time>2023-05-01T14:57:33.044Z</time>
      </trkpt>
      <trkpt lat="48.40587" lon="-4.07671">
        <ele>164.049307</ele>
        <time>2023-05-01T14:57:35.057Z</time>
      </trkpt>
      <trkpt lat="48.40589" lon="-4.07651">
        <ele>164.075501</ele>
        <time>2023-05-01T14:57:37.057Z</time>
      </trkpt>
      <trkpt lat="48.4059" lon="-4.0763">
        <ele>164.104512</ele>
        <time>2023-05-01T14:57:39.044Z</time>
      </trkpt>
      <trkpt lat="48.40588" lon="-4.07608">
        <ele>164.133123</ele>
        <time>2023-05-01T14:57:41.060Z</time>
      </trkpt>
      <trkpt lat="48.40586" lon="-4.07588">
        <ele>164.16048</ele>
        <time>2023-05-01T14:57:43.051Z</time>
      </trkpt>
      <trkpt lat="48.40584" lon="-4.07565">
        <ele>163.783452</ele>
        <time>2023-05-01T14:57:45.050Z</time>
      </trkpt>
      <trkpt lat="48.40582" lon="-4.07544">
        <ele>163.375168</ele>
        <time>2023-05-01T14:57:47.051Z</time>
      </trkpt>
      <trkpt lat="48.40581" lon="-4.07522">
        <ele>162.946071</ele>
        <time>2023-05-01T14:57:49.070Z</time>
      </trkpt>
      <trkpt lat="48.40578" lon="-4.075">
        <ele>162.521161</ele>
        <time>2023-05-01T14:57:51.047Z</time>
      </trkpt>
      <trkpt lat="48.40574" lon="-4.0748">
        <ele>162.113863</ele>
        <time>2023-05-01T14:57:53.051Z</time>
      </trkpt>
      <trkpt lat="48.40571" lon="-4.07461">
        <ele>161.744151</ele>
        <time>2023-05-01T14:57:55.042Z</time>
      </trkpt>
      <trkpt lat="48.40566" lon="-4.07441">
        <ele>161.350799</ele>
        <time>2023-05-01T14:57:57.048Z</time>
      </trkpt>
      <trkpt lat="48.40561" lon="-4.07424">
        <ele>160.989415</ele>
        <time>2023-05-01T14:57:59.047Z</time>
      </trkpt>
      <trkpt lat="48.40555" lon="-4.07408">
        <ele>160.644534</ele>
        <time>2023-05-01T14:58:01.047Z</time>
      </trkpt>
      <trkpt lat="48.40549" lon="-4.07393">
        <ele>160.312141</ele>
        <time>2023-05-01T14:58:03.039Z</time>
      </trkpt>
      <trkpt lat="48.40542" lon="-4.07382">
        <ele>160.011534</ele>
        <time>2023-05-01T14:58:05.041Z</time>
      </trkpt>
      <trkpt lat="48.40536" lon="-4.07368">
        <ele>159.698277</ele>
        <time>2023-05-01T14:58:07.044Z</time>
      </trkpt>
      <trkpt lat="48.40531" lon="-4.07356">
        <ele>159.432636</ele>
        <time>2023-05-01T14:58:09.049Z</time>
      </trkpt>
      <trkpt lat="48.40526" lon="-4.07343">
        <ele>159.148976</ele>
        <time>2023-05-01T14:58:11.054Z</time>
      </trkpt>
      <trkpt lat="48.40521" lon="-4.07332">
        <ele>158.949868</ele>
        <time>2023-05-01T14:58:13.046Z</time>
      </trkpt>
      <trkpt lat="48.40513" lon="-4.07317">
        <ele>158.807265</ele>
        <time>2023-05-01T14:58:16.050Z</time>
      </trkpt>
      <trkpt lat="48.40507" lon="-4.07304">
        <ele>158.685689</ele>
        <time>2023-05-01T14:58:19.043Z</time>
      </trkpt>
      <trkpt lat="48.405" lon="-4.0729">
        <ele>158.549928</ele>
        <time>2023-05-01T14:58:23.039Z</time>
      </trkpt>
      <trkpt lat="48.40495" lon="-4.07279">
        <ele>158.444756</ele>
        <time>2023-05-01T14:58:26.052Z</time>
      </trkpt>
      <trkpt lat="48.40489" lon="-4.07267">
        <ele>158.335024</ele>
        <time>2023-05-01T14:58:29.050Z</time>
      </trkpt>
      <trkpt lat="48.40482" lon="-4.07253">
        <ele>158.198053</ele>
        <time>2023-05-01T14:58:33.053Z</time>
      </trkpt>
      <trkpt lat="48.40476" lon="-4.07242">
        <ele>158.091647</ele>
        <time>2023-05-01T14:58:36.045Z</time>
      </trkpt>
      <trkpt lat="48.4047" lon="-4.07227">
        <ele>157.956182</ele>
        <time>2023-05-01T14:58:40.042Z</time>
      </trkpt>
      <trkpt lat="48.40463" lon="-4.07212">
        <ele>157.822615</ele>
        <time>2023-05-01T14:58:44.042Z</time>
      </trkpt>
      <trkpt lat="48.40456" lon="-4.07198">
        <ele>157.690743</ele>
        <time>2023-05-01T14:58:48.057Z</time>
      </trkpt>
      <trkpt lat="48.4045" lon="-4.07184">
        <ele>157.563491</ele>
        <time>2023-05-01T14:58:52.047Z</time>
      </trkpt>
      <trkpt lat="48.40444" lon="-4.07172">
        <ele>157.44828</ele>
        <time>2023-05-01T14:58:56.052Z</time>
      </trkpt>
      <trkpt lat="48.40438" lon="-4.07158">
        <ele>157.324201</ele>
        <time>2023-05-01T14:59:00.045Z</time>
      </trkpt>
      <trkpt lat="48.40434" lon="-4.07145">
        <ele>157.213473</ele>
        <time>2023-05-01T14:59:04.040Z</time>
      </trkpt>
      <trkpt lat="48.40428" lon="-4.07131">
        <ele>157.085604</ele>
        <time>2023-05-01T14:59:09.048Z</time>
      </trkpt>
      <trkpt lat="48.40422" lon="-4.07119">
        <ele>156.971655</ele>
        <time>2023-05-01T14:59:13.043Z</time>
      </trkpt>
      <trkpt lat="48.40416" lon="-4.07106">
        <ele>157.077262</ele>
        <time>2023-05-01T14:59:17.046Z</time>
      </trkpt>
      <trkpt lat="48.4041" lon="-4.07091">
        <ele>157.292758</ele>
        <time>2023-05-01T14:59:21.041Z</time>
      </trkpt>
      <trkpt lat="48.40404" lon="-4.07077">
        <ele>157.512239</ele>
        <time>2023-05-01T14:59:25.046Z</time>
      </trkpt>
      <trkpt lat="48.40398" lon="-4.07063">
        <ele>157.718003</ele>
        <time>2023-05-01T14:59:29.048Z</time>
      </trkpt>
      <trkpt lat="48.40392" lon="-4.07049">
        <ele>157.932208</ele>
        <time>2023-05-01T14:59:33.047Z</time>
      </trkpt>
      <trkpt lat="48.40386" lon="-4.07035">
        <ele>158.148612</ele>
        <time>2023-05-01T14:59:37.051Z</time>
      </trkpt>
      <trkpt lat="48.40379" lon="-4.07021">
        <ele>158.365266</ele>
        <time>2023-05-01T14:59:41.054Z</time>
      </trkpt>
      <trkpt lat="48.40374" lon="-4.07009">
        <ele>158.543701</ele>
        <time>2023-05-01T14:59:44.041Z</time>
      </trkpt>
      <trkpt lat="48.40368" lon="-4.06996">
        <ele>158.737928</ele>
        <time>2023-05-01T14:59:48.046Z</time>
      </trkpt>
      <trkpt lat="48.40362" lon="-4.06984">
        <ele>158.930519</ele>
        <time>2023-05-01T14:59:52.047Z</time>
      </trkpt>
      <trkpt lat="48.40357" lon="-4.06968">
        <ele>159.149443</ele>
        <time>2023-05-01T14:59:56.045Z</time>
      </trkpt>
      <trkpt lat="48.40358" lon="-4.06951">
        <ele>159.363079</ele>
        <time>2023-05-01T15:00:00.056Z</time>
      </trkpt>
      <trkpt lat="48.40358" lon="-4.06936">
        <ele>159.563523</ele>
        <time>2023-05-01T15:00:05.046Z</time>
      </trkpt>
      <trkpt lat="48.40357" lon="-4.06922">
        <ele>159.74041</ele>
        <time>2023-05-01T15:00:09.053Z</time>
      </trkpt>
      <trkpt lat="48.40356" lon="-4.06905">
        <ele>159.948835</ele>
        <time>2023-05-01T15:00:13.054Z</time>
      </trkpt>
      <trkpt lat="48.40355" lon="-4.06891">
        <ele>160.128649</ele>
        <time>2023-05-01T15:00:17.044Z</time>
      </trkpt>
      <trkpt lat="48.40352" lon="-4.06877">
        <ele>160.312271</ele>
        <time>2023-05-01T15:00:22.044Z</time>
      </trkpt>
      <trkpt lat="48.4035" lon="-4.06862">
        <ele>160.616933</ele>
        <time>2023-05-01T15:00:27.049Z</time>
      </trkpt>
      <trkpt lat="48.40349" lon="-4.06847">
        <ele>160.936808</ele>
        <time>2023-05-01T15:00:31.055Z</time>
      </trkpt>
      <trkpt lat="48.40349" lon="-4.06832">
        <ele>161.262601</ele>
        <time>2023-05-01T15:00:35.046Z</time>
      </trkpt>
      <trkpt lat="48.40348" lon="-4.06817">
        <ele>161.583972</ele>
        <time>2023-05-01T15:00:39.048Z</time>
      </trkpt>
      <trkpt lat="48.40348" lon="-4.068">
        <ele>161.947086</ele>
        <time>2023-05-01T15:00:44.043Z</time>
      </trkpt>
      <trkpt lat="48.40347" lon="-4.06785">
        <ele>162.275178</ele>
        <time>2023-05-01T15:00:48.050Z</time>
      </trkpt>
      <trkpt lat="48.40346" lon="-4.06771">
        <ele>162.579105</ele>
        <time>2023-05-01T15:00:52.035Z</time>
      </trkpt>
      <trkpt lat="48.40347" lon="-4.06757">
        <ele>162.877056</ele>
        <time>2023-05-01T15:00:56.047Z</time>
      </trkpt>
      <trkpt lat="48.40346" lon="-4.06742">
        <ele>163.199606</ele>
        <time>2023-05-01T15:01:00.044Z</time>
      </trkpt>
      <trkpt lat="48.40345" lon="-4.06728">
        <ele>163.503651</ele>
        <time>2023-05-01T15:01:04.048Z</time>
      </trkpt>
      <trkpt lat="48.40345" lon="-4.06712">
        <ele>163.857212</ele>
        <time>2023-05-01T15:01:09.053Z</time>
      </trkpt>
      <trkpt lat="48.40346" lon="-4.06698">
        <ele>164.159468</ele>
        <time>2023-05-01T15:01:13.054Z</time>
      </trkpt>
      <trkpt lat="48.40347" lon="-4.06681">
        <ele>164.52341</ele>
        <time>2023-05-01T15:01:18.051Z</time>
      </trkpt>
      <trkpt lat="48.40349" lon="-4.06667">
        <ele>164.836045</ele>
        <time>2023-05-01T15:01:23.044Z</time>
      </trkpt>
      <trkpt lat="48.40352" lon="-4.06653">
        <ele>165.141023</ele>
        <time>2023-05-01T15:01:28.052Z</time>
      </trkpt>
      <trkpt lat="48.40355" lon="-4.06638">
        <ele>165.486492</ele>
        <time>2023-05-01T15:01:33.049Z</time>
      </trkpt>
      <trkpt lat="48.40357" lon="-4.06624">
        <ele>165.788901</ele>
        <time>2023-05-01T15:01:37.052Z</time>
      </trkpt>
      <trkpt lat="48.40359" lon="-4.06611">
        <ele>166.088976</ele>
        <time>2023-05-01T15:01:41.046Z</time>
      </trkpt>
      <trkpt lat="48.40363" lon="-4.06598">
        <ele>166.452891</ele>
        <time>2023-05-01T15:01:45.047Z</time>
      </trkpt>
      <trkpt lat="48.40365" lon="-4.06584">
        <ele>166.843105</ele>
        <time>2023-05-01T15:01:49.050Z</time>
      </trkpt>
      <trkpt lat="48.40369" lon="-4.06569">
        <ele>167.27013</ele>
        <time>2023-05-01T15:01:53.052Z</time>
      </trkpt>
      <trkpt lat="48.40372" lon="-4.06556">
        <ele>167.670756</ele>
        <time>2023-05-01T15:01:57.052Z</time>
      </trkpt>
      <trkpt lat="48.40376" lon="-4.06542">
        <ele>168.078908</ele>
        <time>2023-05-01T15:02:02.052Z</time>
      </trkpt>
      <trkpt lat="48.40379" lon="-4.06528">
        <ele>168.468402</ele>
        <time>2023-05-01T15:02:06.053Z</time>
      </trkpt>
      <trkpt lat="48.40382" lon="-4.06514">
        <ele>168.8742</ele>
        <time>2023-05-01T15:02:10.047Z</time>
      </trkpt>
      <trkpt lat="48.40384" lon="-4.06501">
        <ele>169.255726</ele>
        <time>2023-05-01T15:02:14.048Z</time>
      </trkpt>
      <trkpt lat="48.40388" lon="-4.06487">
        <ele>169.672504</ele>
        <time>2023-05-01T15:02:18.028Z</time>
      </trkpt>
      <trkpt lat="48.40391" lon="-4.06472">
        <ele>170.100378</ele>
        <time>2023-05-01T15:02:22.057Z</time>
      </trkpt>
      <trkpt lat="48.40394" lon="-4.06458">
        <ele>170.498497</ele>
        <time>2023-05-01T15:02:26.046Z</time>
      </trkpt>
      <trkpt lat="48.40397" lon="-4.06444">
        <ele>170.905698</ele>
        <time>2023-05-01T15:02:30.051Z</time>
      </trkpt>
      <trkpt lat="48.404" lon="-4.06431">
        <ele>171.296004</ele>
        <time>2023-05-01T15:02:34.051Z</time>
      </trkpt>
      <trkpt lat="48.40403" lon="-4.06418">
        <ele>171.675693</ele>
        <time>2023-05-01T15:02:38.052Z</time>
      </trkpt>
      <trkpt lat="48.40406" lon="-4.06404">
        <ele>172.075616</ele>
        <time>2023-05-01T15:02:42.049Z</time>
      </trkpt>
      <trkpt lat="48.40409" lon="-4.06389">
        <ele>172.506257</ele>
        <time>2023-05-01T15:02:46.049Z</time>
      </trkpt>
      <trkpt lat="48.40413" lon="-4.06376">
        <ele>172.905939</ele>
        <time>2023-05-01T15:02:50.053Z</time>
      </trkpt>
      <trkpt lat="48.40416" lon="-4.0636">
        <ele>173.365081</ele>
        <time>2023-05-01T15:02:55.058Z</time>
      </trkpt>
      <trkpt lat="48.40418" lon="-4.06345">
        <ele>173.707699</ele>
        <time>2023-05-01T15:02:59.049Z</time>
      </trkpt>
      <trkpt lat="48.40421" lon="-4.06332">
        <ele>173.892779</ele>
        <time>2023-05-01T15:03:03.044Z</time>
      </trkpt>
      <trkpt lat="48.40425" lon="-4.06317">
        <ele>174.095966</ele>
        <time>2023-05-01T15:03:07.050Z</time>
      </trkpt>
      <trkpt lat="48.40429" lon="-4.06302">
        <ele>174.300343</ele>
        <time>2023-05-01T15:03:11.056Z</time>
      </trkpt>
      <trkpt lat="48.40432" lon="-4.06287">
        <ele>174.501877</ele>
        <time>2023-05-01T15:03:15.048Z</time>
      </trkpt>
      <trkpt lat="48.40436" lon="-4.06272">
        <ele>174.708277</ele>
        <time>2023-05-01T15:03:19.049Z</time>
      </trkpt>
      <trkpt lat="48.40439" lon="-4.06256">
        <ele>174.919685</ele>
        <time>2023-05-01T15:03:23.043Z</time>
      </trkpt>
      <trkpt lat="48.40441" lon="-4.0624">
        <ele>175.137407</ele>
        <time>2023-05-01T15:03:27.048Z</time>
      </trkpt>
      <trkpt lat="48.40445" lon="-4.06224">
        <ele>175.355368</ele>
        <time>2023-05-01T15:03:31.047Z</time>
      </trkpt>
      <trkpt lat="48.40449" lon="-4.06208">
        <ele>175.575761</ele>
        <time>2023-05-01T15:03:35.049Z</time>
      </trkpt>
      <trkpt lat="48.40451" lon="-4.06194">
        <ele>175.76084</ele>
        <time>2023-05-01T15:03:39.048Z</time>
      </trkpt>
      <trkpt lat="48.40454" lon="-4.06179">
        <ele>175.954384</ele>
        <time>2023-05-01T15:03:44.045Z</time>
      </trkpt>
      <trkpt lat="48.40456" lon="-4.06166">
        <ele>176.134459</ele>
        <time>2023-05-01T15:03:48.053Z</time>
      </trkpt>
      <trkpt lat="48.40459" lon="-4.0615">
        <ele>176.350117</ele>
        <time>2023-05-01T15:03:52.052Z</time>
      </trkpt>
      <trkpt lat="48.40462" lon="-4.06134">
        <ele>176.562493</ele>
        <time>2023-05-01T15:03:56.058Z</time>
      </trkpt>
      <trkpt lat="48.40464" lon="-4.06118">
        <ele>176.7679</ele>
        <time>2023-05-01T15:04:00.051Z</time>
      </trkpt>
      <trkpt lat="48.40467" lon="-4.06103">
        <ele>176.968893</ele>
        <time>2023-05-01T15:04:04.041Z</time>
      </trkpt>
      <trkpt lat="48.4047" lon="-4.06087">
        <ele>177.068853</ele>
        <time>2023-05-01T15:04:08.050Z</time>
      </trkpt>
      <trkpt lat="48.40472" lon="-4.06069">
        <ele>176.706483</ele>
        <time>2023-05-01T15:04:12.051Z</time>
      </trkpt>
      <trkpt lat="48.40474" lon="-4.06056">
        <ele>176.429464</ele>
        <time>2023-05-01T15:04:15.052Z</time>
      </trkpt>
      <trkpt lat="48.40477" lon="-4.0604">
        <ele>176.086961</ele>
        <time>2023-05-01T15:04:19.047Z</time>
      </trkpt>
      <trkpt lat="48.40479" lon="-4.06023">
        <ele>175.736417</ele>
        <time>2023-05-01T15:04:23.045Z</time>
      </trkpt>
      <trkpt lat="48.40481" lon="-4.06009">
        <ele>175.451495</ele>
        <time>2023-05-01T15:04:26.052Z</time>
      </trkpt>
      <trkpt lat="48.40484" lon="-4.05995">
        <ele>175.151668</ele>
        <time>2023-05-01T15:04:29.058Z</time>
      </trkpt>
      <trkpt lat="48.40486" lon="-4.05979">
        <ele>174.82506</ele>
        <time>2023-05-01T15:04:33.043Z</time>
      </trkpt>
      <trkpt lat="48.40489" lon="-4.05965">
        <ele>174.516816</ele>
        <time>2023-05-01T15:04:37.056Z</time>
      </trkpt>
      <trkpt lat="48.40492" lon="-4.05951">
        <ele>174.230873</ele>
        <time>2023-05-01T15:04:41.048Z</time>
      </trkpt>
      <trkpt lat="48.40494" lon="-4.05937">
        <ele>173.932035</ele>
        <time>2023-05-01T15:04:45.044Z</time>
      </trkpt>
      <trkpt lat="48.40496" lon="-4.05922">
        <ele>173.627205</ele>
        <time>2023-05-01T15:04:49.048Z</time>
      </trkpt>
      <trkpt lat="48.40498" lon="-4.05907">
        <ele>173.301259</ele>
        <time>2023-05-01T15:04:53.053Z</time>
      </trkpt>
      <trkpt lat="48.40501" lon="-4.0589">
        <ele>172.954395</ele>
        <time>2023-05-01T15:04:57.051Z</time>
      </trkpt>
      <trkpt lat="48.40506" lon="-4.05874">
        <ele>172.587904</ele>
        <time>2023-05-01T15:05:01.051Z</time>
      </trkpt>
      <trkpt lat="48.4051" lon="-4.05859">
        <ele>172.268297</ele>
        <time>2023-05-01T15:05:04.046Z</time>
      </trkpt>
      <trkpt lat="48.40515" lon="-4.05844">
        <ele>171.922529</ele>
        <time>2023-05-01T15:05:07.052Z</time>
      </trkpt>
      <trkpt lat="48.4052" lon="-4.05827">
        <ele>171.517912</ele>
        <time>2023-05-01T15:05:10.046Z</time>
      </trkpt>
      <trkpt lat="48.40524" lon="-4.05813">
        <ele>171.178143</ele>
        <time>2023-05-01T15:05:12.054Z</time>
      </trkpt>
      <trkpt lat="48.40528" lon="-4.05799">
        <ele>170.834069</ele>
        <time>2023-05-01T15:05:14.056Z</time>
      </trkpt>
      <trkpt lat="48.40532" lon="-4.05783">
        <ele>170.45472</ele>
        <time>2023-05-01T15:05:16.051Z</time>
      </trkpt>
      <trkpt lat="48.40537" lon="-4.05767">
        <ele>170.043373</ele>
        <time>2023-05-01T15:05:18.049Z</time>
      </trkpt>
      <trkpt lat="48.40542" lon="-4.0575">
        <ele>169.623029</ele>
        <time>2023-05-01T15:05:20.053Z</time>
      </trkpt>
      <trkpt lat="48.40547" lon="-4.05732">
        <ele>169.172749</ele>
        <time>2023-05-01T15:05:22.047Z</time>
      </trkpt>
      <trkpt lat="48.40554" lon="-4.05715">
        <ele>168.719924</ele>
        <time>2023-05-01T15:05:24.047Z</time>
      </trkpt>
      <trkpt lat="48.4056" lon="-4.05695">
        <ele>168.210842</ele>
        <time>2023-05-01T15:05:26.052Z</time>
      </trkpt>
      <trkpt lat="48.40567" lon="-4.05675">
        <ele>167.689867</ele>
        <time>2023-05-01T15:05:28.047Z</time>
      </trkpt>
      <trkpt lat="48.40575" lon="-4.05656">
        <ele>167.182476</ele>
        <time>2023-05-01T15:05:30.051Z</time>
      </trkpt>
      <trkpt lat="48.40583" lon="-4.05638">
        <ele>166.696248</ele>
        <time>2023-05-01T15:05:32.057Z</time>
      </trkpt>
      <trkpt lat="48.40591" lon="-4.05621">
        <ele>166.226846</ele>
        <time>2023-05-01T15:05:34.053Z</time>
      </trkpt>
      <trkpt lat="48.406" lon="-4.05606">
        <ele>165.758459</ele>
        <time>2023-05-01T15:05:36.044Z</time>
      </trkpt>
      <trkpt lat="48.40609" lon="-4.05593">
        <ele>165.500608</ele>
        <time>2023-05-01T15:05:38.050Z</time>
      </trkpt>
      <trkpt lat="48.40619" lon="-4.05581">
        <ele>165.665669</ele>
        <time>2023-05-01T15:05:40.044Z</time>
      </trkpt>
      <trkpt lat="48.40628" lon="-4.05569">
        <ele>165.825137</ele>
        <time>2023-05-01T15:05:42.053Z</time>
      </trkpt>
      <trkpt lat="48.40636" lon="-4.05558">
        <ele>165.969873</ele>
        <time>2023-05-01T15:05:44.042Z</time>
      </trkpt>
      <trkpt lat="48.40645" lon="-4.05548">
        <ele>166.112551</ele>
        <time>2023-05-01T15:05:46.048Z</time>
      </trkpt>
      <trkpt lat="48.40652" lon="-4.05539">
        <ele>166.241998</ele>
        <time>2023-05-01T15:05:48.050Z</time>
      </trkpt>
      <trkpt lat="48.4066" lon="-4.0553">
        <ele>166.367635</ele>
        <time>2023-05-01T15:05:50.052Z</time>
      </trkpt>
      <trkpt lat="48.40668" lon="-4.05518">
        <ele>166.525124</ele>
        <time>2023-05-01T15:05:53.050Z</time>
      </trkpt>
      <trkpt lat="48.40676" lon="-4.05507">
        <ele>166.661498</ele>
        <time>2023-05-01T15:05:56.051Z</time>
      </trkpt>
      <trkpt lat="48.40682" lon="-4.05497">
        <ele>166.781047</ele>
        <time>2023-05-01T15:05:59.052Z</time>
      </trkpt>
      <trkpt lat="48.40691" lon="-4.05486">
        <ele>166.933814</ele>
        <time>2023-05-01T15:06:03.044Z</time>
      </trkpt>
      <trkpt lat="48.40697" lon="-4.05476">
        <ele>167.053968</ele>
        <time>2023-05-01T15:06:14.048Z</time>
      </trkpt>
      <trkpt lat="48.40705" lon="-4.05466">
        <ele>167.187607</ele>
        <time>2023-05-01T15:06:20.047Z</time>
      </trkpt>
      <trkpt lat="48.40711" lon="-4.05456">
        <ele>167.309317</ele>
        <time>2023-05-01T15:06:24.040Z</time>
      </trkpt>
      <trkpt lat="48.40719" lon="-4.05446">
        <ele>167.447713</ele>
        <time>2023-05-01T15:06:28.027Z</time>
      </trkpt>
      <trkpt lat="48.40728" lon="-4.05435">
        <ele>167.597286</ele>
        <time>2023-05-01T15:06:32.052Z</time>
      </trkpt>
      <trkpt lat="48.40736" lon="-4.05423">
        <ele>167.745932</ele>
        <time>2023-05-01T15:06:36.047Z</time>
      </trkpt>
      <trkpt lat="48.40744" lon="-4.05412">
        <ele>167.87422</ele>
        <time>2023-05-01T15:06:40.044Z</time>
      </trkpt>
      <trkpt lat="48.40751" lon="-4.054">
        <ele>167.970603</ele>
        <time>2023-05-01T15:06:44.048Z</time>
      </trkpt>
      <trkpt lat="48.40759" lon="-4.05388">
        <ele>168.065535</ele>
        <time>2023-05-01T15:06:48.051Z</time>
      </trkpt>
      <trkpt lat="48.40765" lon="-4.05376">
        <ele>168.157421</ele>
        <time>2023-05-01T15:06:52.050Z</time>
      </trkpt>
      <trkpt lat="48.40773" lon="-4.05363">
        <ele>168.252651</ele>
        <time>2023-05-01T15:06:56.045Z</time>
      </trkpt>
      <trkpt lat="48.40779" lon="-4.05351">
        <ele>168.345857</ele>
        <time>2023-05-01T15:07:00.054Z</time>
      </trkpt>
      <trkpt lat="48.40787" lon="-4.05338">
        <ele>168.444878</ele>
        <time>2023-05-01T15:07:04.054Z</time>
      </trkpt>
      <trkpt lat="48.40795" lon="-4.05325">
        <ele>168.548083</ele>
        <time>2023-05-01T15:07:08.048Z</time>
      </trkpt>
      <trkpt lat="48.40802" lon="-4.05311">
        <ele>168.649083</ele>
        <time>2023-05-01T15:07:12.051Z</time>
      </trkpt>
      <trkpt lat="48.40809" lon="-4.05299">
        <ele>168.747585</ele>
        <time>2023-05-01T15:07:16.048Z</time>
      </trkpt>
      <trkpt lat="48.40815" lon="-4.05289">
        <ele>168.827276</ele>
        <time>2023-05-01T15:07:19.048Z</time>
      </trkpt>
      <trkpt lat="48.40823" lon="-4.05275">
        <ele>168.930342</ele>
        <time>2023-05-01T15:07:23.045Z</time>
      </trkpt>
      <trkpt lat="48.40829" lon="-4.05264">
        <ele>169.012687</ele>
        <time>2023-05-01T15:07:26.046Z</time>
      </trkpt>
      <trkpt lat="48.40835" lon="-4.05252">
        <ele>169.10442</ele>
        <time>2023-05-01T15:07:29.050Z</time>
      </trkpt>
      <trkpt lat="48.40901" lon="-4.05059">
        <ele>170.178287</ele>
        <time>2023-05-01T15:08:16.042Z</time>
      </trkpt>
      <trkpt lat="48.40905" lon="-4.05044">
        <ele>170.252838</ele>
        <time>2023-05-01T15:08:22.039Z</time>
      </trkpt>
      <trkpt lat="48.40909" lon="-4.05024">
        <ele>170.352911</ele>
        <time>2023-05-01T15:09:03.042Z</time>
      </trkpt>
      <trkpt lat="48.40914" lon="-4.0501">
        <ele>170.428159</ele>
        <time>2023-05-01T15:09:08.050Z</time>
      </trkpt>
      <trkpt lat="48.40918" lon="-4.04996">
        <ele>170.499155</ele>
        <time>2023-05-01T15:09:12.051Z</time>
      </trkpt>
      <trkpt lat="48.40922" lon="-4.04983">
        <ele>170.567154</ele>
        <time>2023-05-01T15:09:16.053Z</time>
      </trkpt>
      <trkpt lat="48.40927" lon="-4.04969">
        <ele>170.640674</ele>
        <time>2023-05-01T15:09:20.050Z</time>
      </trkpt>
      <trkpt lat="48.40932" lon="-4.04954">
        <ele>170.779408</ele>
        <time>2023-05-01T15:09:24.056Z</time>
      </trkpt>
      <trkpt lat="48.40937" lon="-4.0494">
        <ele>170.981104</ele>
        <time>2023-05-01T15:09:28.057Z</time>
      </trkpt>
      <trkpt lat="48.40942" lon="-4.04925">
        <ele>171.188851</ele>
        <time>2023-05-01T15:09:32.060Z</time>
      </trkpt>
      <trkpt lat="48.40946" lon="-4.0491">
        <ele>171.408658</ele>
        <time>2023-05-01T15:09:36.043Z</time>
      </trkpt>
      <trkpt lat="48.40951" lon="-4.04894">
        <ele>171.628078</ele>
        <time>2023-05-01T15:09:40.054Z</time>
      </trkpt>
      <trkpt lat="48.40954" lon="-4.04878">
        <ele>171.842189</ele>
        <time>2023-05-01T15:09:44.054Z</time>
      </trkpt>
      <trkpt lat="48.40957" lon="-4.04861">
        <ele>172.056323</ele>
        <time>2023-05-01T15:09:48.057Z</time>
      </trkpt>
      <trkpt lat="48.4096" lon="-4.04845">
        <ele>172.267024</ele>
        <time>2023-05-01T15:09:52.050Z</time>
      </trkpt>
      <trkpt lat="48.40963" lon="-4.0483">
        <ele>172.464249</ele>
        <time>2023-05-01T15:09:56.050Z</time>
      </trkpt>
      <trkpt lat="48.40965" lon="-4.04815">
        <ele>172.656898</ele>
        <time>2023-05-01T15:10:00.052Z</time>
      </trkpt>
      <trkpt lat="48.40968" lon="-4.048">
        <ele>172.860982</ele>
        <time>2023-05-01T15:10:04.087Z</time>
      </trkpt>
      <trkpt lat="48.4097" lon="-4.04786">
        <ele>173.046841</ele>
        <time>2023-05-01T15:10:08.051Z</time>
      </trkpt>
      <trkpt lat="48.40973" lon="-4.0477">
        <ele>173.248487</ele>
        <time>2023-05-01T15:10:12.052Z</time>
      </trkpt>
      <trkpt lat="48.40976" lon="-4.04755">
        <ele>173.453096</ele>
        <time>2023-05-01T15:10:16.049Z</time>
      </trkpt>
      <trkpt lat="48.40979" lon="-4.0474">
        <ele>173.654592</ele>
        <time>2023-05-01T15:10:20.051Z</time>
      </trkpt>
      <trkpt lat="48.40983" lon="-4.04724">
        <ele>173.867709</ele>
        <time>2023-05-01T15:10:24.057Z</time>
      </trkpt>
      <trkpt lat="48.40986" lon="-4.04709">
        <ele>174.069887</ele>
        <time>2023-05-01T15:10:28.057Z</time>
      </trkpt>
      <trkpt lat="48.4099" lon="-4.04693">
        <ele>174.214295</ele>
        <time>2023-05-01T15:10:32.037Z</time>
      </trkpt>
      <trkpt lat="48.40993" lon="-4.04677">
        <ele>174.346768</ele>
        <time>2023-05-01T15:10:36.046Z</time>
      </trkpt>
      <trkpt lat="48.40997" lon="-4.04661">
        <ele>174.481457</ele>
        <time>2023-05-01T15:10:40.060Z</time>
      </trkpt>
      <trkpt lat="48.41" lon="-4.04646">
        <ele>174.602826</ele>
        <time>2023-05-01T15:10:44.054Z</time>
      </trkpt>
      <trkpt lat="48.41004" lon="-4.04633">
        <ele>174.717744</ele>
        <time>2023-05-01T15:10:48.050Z</time>
      </trkpt>
      <trkpt lat="48.41008" lon="-4.0462">
        <ele>174.828448</ele>
        <time>2023-05-01T15:10:52.049Z</time>
      </trkpt>
      <trkpt lat="48.41011" lon="-4.04606">
        <ele>174.941616</ele>
        <time>2023-05-01T15:10:56.042Z</time>
      </trkpt>
      <trkpt lat="48.41014" lon="-4.04591">
        <ele>175.064456</ele>
        <time>2023-05-01T15:11:00.051Z</time>
      </trkpt>
      <trkpt lat="48.41017" lon="-4.04576">
        <ele>175.184306</ele>
        <time>2023-05-01T15:11:04.052Z</time>
      </trkpt>
      <trkpt lat="48.41021" lon="-4.04562">
        <ele>175.303015</ele>
        <time>2023-05-01T15:11:08.052Z</time>
      </trkpt>
      <trkpt lat="48.41024" lon="-4.04547">
        <ele>175.426251</ele>
        <time>2023-05-01T15:11:12.052Z</time>
      </trkpt>
      <trkpt lat="48.41029" lon="-4.04532">
        <ele>175.558775</ele>
        <time>2023-05-01T15:11:16.046Z</time>
      </trkpt>
      <trkpt lat="48.41033" lon="-4.04517">
        <ele>175.682944</ele>
        <time>2023-05-01T15:11:20.056Z</time>
      </trkpt>
      <trkpt lat="48.41036" lon="-4.04503">
        <ele>175.80097</ele>
        <time>2023-05-01T15:11:24.051Z</time>
      </trkpt>
      <trkpt lat="48.41041" lon="-4.04488">
        <ele>175.931339</ele>
        <time>2023-05-01T15:11:28.051Z</time>
      </trkpt>
      <trkpt lat="48.41045" lon="-4.04473">
        <ele>176.060991</ele>
        <time>2023-05-01T15:11:32.059Z</time>
      </trkpt>
      <trkpt lat="48.41049" lon="-4.04458">
        <ele>176.183499</ele>
        <time>2023-05-01T15:11:36.046Z</time>
      </trkpt>
      <trkpt lat="48.41053" lon="-4.04445">
        <ele>176.477403</ele>
        <time>2023-05-01T15:11:40.053Z</time>
      </trkpt>
      <trkpt lat="48.41057" lon="-4.04431">
        <ele>176.918778</ele>
        <time>2023-05-01T15:11:44.050Z</time>
      </trkpt>
      <trkpt lat="48.41061" lon="-4.04416">
        <ele>177.380764</ele>
        <time>2023-05-01T15:11:48.057Z</time>
      </trkpt>
      <trkpt lat="48.41066" lon="-4.04401">
        <ele>177.843262</ele>
        <time>2023-05-01T15:11:52.051Z</time>
      </trkpt>
      <trkpt lat="48.4107" lon="-4.04385">
        <ele>178.335275</ele>
        <time>2023-05-01T15:11:56.082Z</time>
      </trkpt>
      <trkpt lat="48.41075" lon="-4.0437">
        <ele>178.839235</ele>
        <time>2023-05-01T15:12:00.050Z</time>
      </trkpt>
      <trkpt lat="48.41081" lon="-4.04354">
        <ele>179.340819</ele>
        <time>2023-05-01T15:12:04.050Z</time>
      </trkpt>
      <trkpt lat="48.41087" lon="-4.0434">
        <ele>179.838288</ele>
        <time>2023-05-01T15:12:08.051Z</time>
      </trkpt>
      <trkpt lat="48.41093" lon="-4.04326">
        <ele>180.309559</ele>
        <time>2023-05-01T15:12:12.052Z</time>
      </trkpt>
      <trkpt lat="48.41098" lon="-4.04313">
        <ele>180.747353</ele>
        <time>2023-05-01T15:12:16.046Z</time>
      </trkpt>
      <trkpt lat="48.41104" lon="-4.043">
        <ele>181.213959</ele>
        <time>2023-05-01T15:12:21.060Z</time>
      </trkpt>
      <trkpt lat="48.4111" lon="-4.04288">
        <ele>181.653865</ele>
        <time>2023-05-01T15:12:26.055Z</time>
      </trkpt>
      <trkpt lat="48.41115" lon="-4.04275">
        <ele>182.068241</ele>
        <time>2023-05-01T15:12:30.057Z</time>
      </trkpt>
      <trkpt lat="48.4112" lon="-4.0426">
        <ele>182.550325</ele>
        <time>2023-05-01T15:12:35.047Z</time>
      </trkpt>
      <trkpt lat="48.41125" lon="-4.04245">
        <ele>183.033989</ele>
        <time>2023-05-01T15:12:40.057Z</time>
      </trkpt>
      <trkpt lat="48.41129" lon="-4.0423">
        <ele>183.503533</ele>
        <time>2023-05-01T15:12:45.054Z</time>
      </trkpt>
      <trkpt lat="48.41133" lon="-4.04215">
        <ele>183.984805</ele>
        <time>2023-05-01T15:12:50.057Z</time>
      </trkpt>
      <trkpt lat="48.41138" lon="-4.042">
        <ele>184.325737</ele>
        <time>2023-05-01T15:12:55.047Z</time>
      </trkpt>
      <trkpt lat="48.41141" lon="-4.04185">
        <ele>184.662178</ele>
        <time>2023-05-01T15:13:00.053Z</time>
      </trkpt>
      <trkpt lat="48.41145" lon="-4.04169">
        <ele>184.992141</ele>
        <time>2023-05-01T15:13:05.055Z</time>
      </trkpt>
      <trkpt lat="48.41148" lon="-4.04154">
        <ele>185.310383</ele>
        <time>2023-05-01T15:13:10.048Z</time>
      </trkpt>
      <trkpt lat="48.41151" lon="-4.04139">
        <ele>185.63543</ele>
        <time>2023-05-01T15:13:15.050Z</time>
      </trkpt>
      <trkpt lat="48.41154" lon="-4.04124">
        <ele>185.941204</ele>
        <time>2023-05-01T15:13:20.055Z</time>
      </trkpt>
      <trkpt lat="48.41158" lon="-4.04111">
        <ele>186.235829</ele>
        <time>2023-05-01T15:13:25.051Z</time>
      </trkpt>
      <trkpt lat="48.41162" lon="-4.04097">
        <ele>186.539373</ele>
        <time>2023-05-01T15:13:30.057Z</time>
      </trkpt>
      <trkpt lat="48.41167" lon="-4.04084">
        <ele>186.845154</ele>
        <time>2023-05-01T15:13:35.048Z</time>
      </trkpt>
      <trkpt lat="48.41172" lon="-4.04069">
        <ele>187.183388</ele>
        <time>2023-05-01T15:13:40.051Z</time>
      </trkpt>
      <trkpt lat="48.41177" lon="-4.04057">
        <ele>187.484621</ele>
        <time>2023-05-01T15:13:44.054Z</time>
      </trkpt>
      <trkpt lat="48.41183" lon="-4.04044">
        <ele>187.784224</ele>
        <time>2023-05-01T15:13:48.057Z</time>
      </trkpt>
      <trkpt lat="48.41189" lon="-4.04034">
        <ele>188.061036</ele>
        <time>2023-05-01T15:13:52.050Z</time>
      </trkpt>
      <trkpt lat="48.41195" lon="-4.04022">
        <ele>188.368587</ele>
        <time>2023-05-01T15:13:57.051Z</time>
      </trkpt>
      <trkpt lat="48.41201" lon="-4.04011">
        <ele>188.645141</ele>
        <time>2023-05-01T15:14:01.053Z</time>
      </trkpt>
      <trkpt lat="48.41208" lon="-4.04">
        <ele>188.968006</ele>
        <time>2023-05-01T15:14:07.044Z</time>
      </trkpt>
      <trkpt lat="48.41214" lon="-4.03986">
        <ele>189.301463</ele>
        <time>2023-05-01T15:14:12.051Z</time>
      </trkpt>
      <trkpt lat="48.41219" lon="-4.03973">
        <ele>189.516981</ele>
        <time>2023-05-01T15:14:16.045Z</time>
      </trkpt>
      <trkpt lat="48.41225" lon="-4.03959">
        <ele>189.494754</ele>
        <time>2023-05-01T15:14:20.054Z</time>
      </trkpt>
      <trkpt lat="48.41231" lon="-4.03945">
        <ele>189.472369</ele>
        <time>2023-05-01T15:14:24.052Z</time>
      </trkpt>
      <trkpt lat="48.41236" lon="-4.03933">
        <ele>189.452536</ele>
        <time>2023-05-01T15:14:28.055Z</time>
      </trkpt>
      <trkpt lat="48.41241" lon="-4.03919">
        <ele>189.430862</ele>
        <time>2023-05-01T15:14:33.050Z</time>
      </trkpt>
      <trkpt lat="48.41246" lon="-4.03906">
        <ele>189.409842</ele>
        <time>2023-05-01T15:14:37.049Z</time>
      </trkpt>
      <trkpt lat="48.41251" lon="-4.03891">
        <ele>189.387541</ele>
        <time>2023-05-01T15:14:41.058Z</time>
      </trkpt>
      <trkpt lat="48.41256" lon="-4.03876">
        <ele>189.363537</ele>
        <time>2023-05-01T15:14:45.054Z</time>
      </trkpt>
      <trkpt lat="48.41261" lon="-4.03861">
        <ele>189.340794</ele>
        <time>2023-05-01T15:14:49.057Z</time>
      </trkpt>
      <trkpt lat="48.41266" lon="-4.03846">
        <ele>189.31786</ele>
        <time>2023-05-01T15:14:53.055Z</time>
      </trkpt>
      <trkpt lat="48.4127" lon="-4.03831">
        <ele>189.295979</ele>
        <time>2023-05-01T15:14:57.062Z</time>
      </trkpt>
      <trkpt lat="48.41274" lon="-4.03817">
        <ele>189.274387</ele>
        <time>2023-05-01T15:15:01.054Z</time>
      </trkpt>
      <trkpt lat="48.41278" lon="-4.03802">
        <ele>189.252588</ele>
        <time>2023-05-01T15:15:05.054Z</time>
      </trkpt>
      <trkpt lat="48.41283" lon="-4.03786">
        <ele>189.227563</ele>
        <time>2023-05-01T15:15:09.053Z</time>
      </trkpt>
      <trkpt lat="48.41287" lon="-4.03772">
        <ele>189.207778</ele>
        <time>2023-05-01T15:15:12.053Z</time>
      </trkpt>
      <trkpt lat="48.41291" lon="-4.03759">
        <ele>189.187399</ele>
        <time>2023-05-01T15:15:15.049Z</time>
      </trkpt>
      <trkpt lat="48.41296" lon="-4.03746">
        <ele>189.167211</ele>
        <time>2023-05-01T15:15:18.061Z</time>
      </trkpt>
      <trkpt lat="48.413" lon="-4.0373">
        <ele>189.157576</ele>
        <time>2023-05-01T15:15:22.055Z</time>
      </trkpt>
      <trkpt lat="48.41304" lon="-4.03716">
        <ele>189.178531</ele>
        <time>2023-05-01T15:15:26.056Z</time>
      </trkpt>
      <trkpt lat="48.41309" lon="-4.037">
        <ele>189.202141</ele>
        <time>2023-05-01T15:15:30.053Z</time>
      </trkpt>
      <trkpt lat="48.41314" lon="-4.03684">
        <ele>189.22591</ele>
        <time>2023-05-01T15:15:34.046Z</time>
      </trkpt>
      <trkpt lat="48.41318" lon="-4.03672">
        <ele>189.244305</ele>
        <time>2023-05-01T15:15:37.055Z</time>
      </trkpt>
      <trkpt lat="48.41321" lon="-4.0366">
        <ele>189.2627</ele>
        <time>2023-05-01T15:15:40.052Z</time>
      </trkpt>
      <trkpt lat="48.41325" lon="-4.03647">
        <ele>189.2813</ele>
        <time>2023-05-01T15:15:43.048Z</time>
      </trkpt>
      <trkpt lat="48.41328" lon="-4.03634">
        <ele>189.300148</ele>
        <time>2023-05-01T15:15:46.046Z</time>
      </trkpt>
      <trkpt lat="48.41333" lon="-4.03622">
        <ele>189.318855</ele>
        <time>2023-05-01T15:15:49.057Z</time>
      </trkpt>
      <trkpt lat="48.41337" lon="-4.03609">
        <ele>189.338248</ele>
        <time>2023-05-01T15:15:52.049Z</time>
      </trkpt>
      <trkpt lat="48.41342" lon="-4.03594">
        <ele>189.361439</ele>
        <time>2023-05-01T15:15:56.046Z</time>
      </trkpt>
      <trkpt lat="48.41346" lon="-4.0358">
        <ele>189.382441</ele>
        <time>2023-05-01T15:16:00.054Z</time>
      </trkpt>
      <trkpt lat="48.41351" lon="-4.03565">
        <ele>189.404021</ele>
        <time>2023-05-01T15:16:04.049Z</time>
      </trkpt>
      <trkpt lat="48.41355" lon="-4.03549">
        <ele>189.428411</ele>
        <time>2023-05-01T15:16:08.045Z</time>
      </trkpt>
      <trkpt lat="48.4136" lon="-4.03533">
        <ele>189.452057</ele>
        <time>2023-05-01T15:16:12.060Z</time>
      </trkpt>
      <trkpt lat="48.41365" lon="-4.03517">
        <ele>189.475371</ele>
        <time>2023-05-01T15:16:16.053Z</time>
      </trkpt>
      <trkpt lat="48.41369" lon="-4.03505">
        <ele>189.493975</ele>
        <time>2023-05-01T15:16:19.061Z</time>
      </trkpt>
      <trkpt lat="48.41373" lon="-4.03492">
        <ele>189.51274</ele>
        <time>2023-05-01T15:16:22.059Z</time>
      </trkpt>
      <trkpt lat="48.41377" lon="-4.03476">
        <ele>189.649713</ele>
        <time>2023-05-01T15:16:26.051Z</time>
      </trkpt>
      <trkpt lat="48.41381" lon="-4.03463">
        <ele>189.788685</ele>
        <time>2023-05-01T15:16:29.056Z</time>
      </trkpt>
      <trkpt lat="48.41386" lon="-4.03446">
        <ele>189.957417</ele>
        <time>2023-05-01T15:16:33.055Z</time>
      </trkpt>
      <trkpt lat="48.41389" lon="-4.03434">
        <ele>190.089042</ele>
        <time>2023-05-01T15:16:36.051Z</time>
      </trkpt>
      <trkpt lat="48.41391" lon="-4.03417">
        <ele>190.25392</ele>
        <time>2023-05-01T15:16:40.057Z</time>
      </trkpt>
      <trkpt lat="48.41394" lon="-4.03402">
        <ele>190.403946</ele>
        <time>2023-05-01T15:16:45.058Z</time>
      </trkpt>
      <trkpt lat="48.41396" lon="-4.03385">
        <ele>190.56427</ele>
        <time>2023-05-01T15:16:50.060Z</time>
      </trkpt>
      <trkpt lat="48.41396" lon="-4.03369">
        <ele>190.719647</ele>
        <time>2023-05-01T15:16:54.043Z</time>
      </trkpt>
      <trkpt lat="48.41399" lon="-4.03352">
        <ele>190.883272</ele>
        <time>2023-05-01T15:16:58.049Z</time>
      </trkpt>
      <trkpt lat="48.41401" lon="-4.03336">
        <ele>191.040263</ele>
        <time>2023-05-01T15:17:02.055Z</time>
      </trkpt>
      <trkpt lat="48.41401" lon="-4.03318">
        <ele>191.207531</ele>
        <time>2023-05-01T15:17:06.057Z</time>
      </trkpt>
      <trkpt lat="48.41401" lon="-4.03302">
        <ele>191.36333</ele>
        <time>2023-05-01T15:17:10.050Z</time>
      </trkpt>
      <trkpt lat="48.41402" lon="-4.03286">
        <ele>191.519786</ele>
        <time>2023-05-01T15:17:14.042Z</time>
      </trkpt>
      <trkpt lat="48.41403" lon="-4.03269">
        <ele>191.682498</ele>
        <time>2023-05-01T15:17:18.039Z</time>
      </trkpt>
      <trkpt lat="48.41403" lon="-4.03253">
        <ele>191.835971</ele>
        <time>2023-05-01T15:17:22.055Z</time>
      </trkpt>
      <trkpt lat="48.41404" lon="-4.03235">
        <ele>192.007152</ele>
        <time>2023-05-01T15:17:26.052Z</time>
      </trkpt>
      <trkpt lat="48.41403" lon="-4.03221">
        <ele>192.135774</ele>
        <time>2023-05-01T15:17:29.056Z</time>
      </trkpt>
      <trkpt lat="48.41402" lon="-4.03207">
        <ele>192.245588</ele>
        <time>2023-05-01T15:17:32.055Z</time>
      </trkpt>
      <trkpt lat="48.41401" lon="-4.03191">
        <ele>192.374461</ele>
        <time>2023-05-01T15:17:36.049Z</time>
      </trkpt>
      <trkpt lat="48.41402" lon="-4.03175">
        <ele>192.506505</ele>
        <time>2023-05-01T15:17:40.064Z</time>
      </trkpt>
      <trkpt lat="48.41402" lon="-4.0316">
        <ele>192.625113</ele>
        <time>2023-05-01T15:17:44.056Z</time>
      </trkpt>
      <trkpt lat="48.41401" lon="-4.03147">
        <ele>192.733469</ele>
        <time>2023-05-01T15:17:48.057Z</time>
      </trkpt>
      <trkpt lat="48.41399" lon="-4.03133">
        <ele>192.850107</ele>
        <time>2023-05-01T15:17:52.058Z</time>
      </trkpt>
      <trkpt lat="48.41397" lon="-4.03116">
        <ele>192.982341</ele>
        <time>2023-05-01T15:17:56.045Z</time>
      </trkpt>
      <trkpt lat="48.41396" lon="-4.03102">
        <ele>193.097704</ele>
        <time>2023-05-01T15:18:00.054Z</time>
      </trkpt>
      <trkpt lat="48.41395" lon="-4.03087">
        <ele>193.222927</ele>
        <time>2023-05-01T15:18:04.052Z</time>
      </trkpt>
      <trkpt lat="48.41394" lon="-4.03072">
        <ele>193.341141</ele>
        <time>2023-05-01T15:18:08.052Z</time>
      </trkpt>
      <trkpt lat="48.41391" lon="-4.03058">
        <ele>193.455463</ele>
        <time>2023-05-01T15:18:12.051Z</time>
      </trkpt>
      <trkpt lat="48.41389" lon="-4.03043">
        <ele>193.578789</ele>
        <time>2023-05-01T15:18:16.046Z</time>
      </trkpt>
      <trkpt lat="48.41385" lon="-4.03028">
        <ele>193.707888</ele>
        <time>2023-05-01T15:18:20.049Z</time>
      </trkpt>
      <trkpt lat="48.41381" lon="-4.03015">
        <ele>193.826275</ele>
        <time>2023-05-01T15:18:24.050Z</time>
      </trkpt>
      <trkpt lat="48.41377" lon="-4.03001">
        <ele>193.946707</ele>
        <time>2023-05-01T15:18:28.055Z</time>
      </trkpt>
      <trkpt lat="48.41373" lon="-4.02988">
        <ele>194.059385</ele>
        <time>2023-05-01T15:18:32.054Z</time>
      </trkpt>
      <trkpt lat="48.41369" lon="-4.02975">
        <ele>194.178865</ele>
        <time>2023-05-01T15:18:36.059Z</time>
      </trkpt>
      <trkpt lat="48.41364" lon="-4.02961">
        <ele>194.295745</ele>
        <time>2023-05-01T15:18:40.051Z</time>
      </trkpt>
      <trkpt lat="48.4136" lon="-4.02947">
        <ele>194.37329</ele>
        <time>2023-05-01T15:18:44.051Z</time>
      </trkpt>
      <trkpt lat="48.41356" lon="-4.02932">
        <ele>194.460849</ele>
        <time>2023-05-01T15:18:48.050Z</time>
      </trkpt>
      <trkpt lat="48.41353" lon="-4.02916">
        <ele>194.547049</ele>
        <time>2023-05-01T15:18:52.049Z</time>
      </trkpt>
      <trkpt lat="48.4135" lon="-4.02901">
        <ele>194.630712</ele>
        <time>2023-05-01T15:18:56.047Z</time>
      </trkpt>
      <trkpt lat="48.41348" lon="-4.02886">
        <ele>194.709717</ele>
        <time>2023-05-01T15:19:00.053Z</time>
      </trkpt>
      <trkpt lat="48.41347" lon="-4.02873">
        <ele>194.781656</ele>
        <time>2023-05-01T15:19:04.048Z</time>
      </trkpt>
      <trkpt lat="48.41345" lon="-4.02858">
        <ele>194.860605</ele>
        <time>2023-05-01T15:19:09.050Z</time>
      </trkpt>
      <trkpt lat="48.41344" lon="-4.02843">
        <ele>194.938793</ele>
        <time>2023-05-01T15:19:13.048Z</time>
      </trkpt>
      <trkpt lat="48.41653" lon="-4.01247">
        <ele>209.575022</ele>
        <time>2023-05-01T15:28:02.040Z</time>
      </trkpt>
      <trkpt lat="48.41662" lon="-4.01241">
        <ele>210.180963</ele>
        <time>2023-05-01T15:28:06.039Z</time>
      </trkpt>
      <trkpt lat="48.41664" lon="-4.01224">
        <ele>210.902425</ele>
        <time>2023-05-01T15:28:11.044Z</time>
      </trkpt>
      <trkpt lat="48.41664" lon="-4.01208">
        <ele>211.539087</ele>
        <time>2023-05-01T15:28:15.049Z</time>
      </trkpt>
      <trkpt lat="48.41665" lon="-4.01193">
        <ele>212.174229</ele>
        <time>2023-05-01T15:28:19.048Z</time>
      </trkpt>
      <trkpt lat="48.41666" lon="-4.01176">
        <ele>212.888513</ele>
        <time>2023-05-01T15:28:23.048Z</time>
      </trkpt>
      <trkpt lat="48.41668" lon="-4.0116">
        <ele>213.566352</ele>
        <time>2023-05-01T15:28:27.048Z</time>
      </trkpt>
      <trkpt lat="48.41669" lon="-4.01143">
        <ele>214.280132</ele>
        <time>2023-05-01T15:28:31.050Z</time>
      </trkpt>
      <trkpt lat="48.4167" lon="-4.01128">
        <ele>215.023417</ele>
        <time>2023-05-01T15:28:35.050Z</time>
      </trkpt>
      <trkpt lat="48.41672" lon="-4.01113">
        <ele>215.778416</ele>
        <time>2023-05-01T15:28:40.047Z</time>
      </trkpt>
      <trkpt lat="48.41672" lon="-4.01097">
        <ele>216.516415</ele>
        <time>2023-05-01T15:28:45.058Z</time>
      </trkpt>
      <trkpt lat="48.41673" lon="-4.01082">
        <ele>217.273743</ele>
        <time>2023-05-01T15:28:50.052Z</time>
      </trkpt>
      <trkpt lat="48.41674" lon="-4.01067">
        <ele>218.001602</ele>
        <time>2023-05-01T15:28:54.050Z</time>
      </trkpt>
      <trkpt lat="48.41675" lon="-4.01053">
        <ele>218.668209</ele>
        <time>2023-05-01T15:28:58.052Z</time>
      </trkpt>
      <trkpt lat="48.41676" lon="-4.01037">
        <ele>219.43475</ele>
        <time>2023-05-01T15:29:03.041Z</time>
      </trkpt>
      <trkpt lat="48.41676" lon="-4.01024">
        <ele>220.108999</ele>
        <time>2023-05-01T15:29:07.047Z</time>
      </trkpt>
      <trkpt lat="48.41676" lon="-4.0101">
        <ele>220.78226</ele>
        <time>2023-05-01T15:29:11.046Z</time>
      </trkpt>
      <trkpt lat="48.41677" lon="-4.00995">
        <ele>221.488364</ele>
        <time>2023-05-01T15:29:15.048Z</time>
      </trkpt>
      <trkpt lat="48.41677" lon="-4.00981">
        <ele>222.157418</ele>
        <time>2023-05-01T15:29:19.048Z</time>
      </trkpt>
      <trkpt lat="48.41678" lon="-4.00967">
        <ele>222.843518</ele>
        <time>2023-05-01T15:29:24.037Z</time>
      </trkpt>
      <trkpt lat="48.41677" lon="-4.00952">
        <ele>223.592994</ele>
        <time>2023-05-01T15:29:29.048Z</time>
      </trkpt>
      <trkpt lat="48.41676" lon="-4.00936">
        <ele>224.345489</ele>
        <time>2023-05-01T15:29:34.048Z</time>
      </trkpt>
      <trkpt lat="48.41674" lon="-4.00922">
        <ele>225.0288</ele>
        <time>2023-05-01T15:29:38.052Z</time>
      </trkpt>
      <trkpt lat="48.41672" lon="-4.00907">
        <ele>225.812281</ele>
        <time>2023-05-01T15:29:43.045Z</time>
      </trkpt>
      <trkpt lat="48.41669" lon="-4.00892">
        <ele>226.536529</ele>
        <time>2023-05-01T15:29:47.046Z</time>
      </trkpt>
      <trkpt lat="48.41666" lon="-4.00878">
        <ele>227.224032</ele>
        <time>2023-05-01T15:29:51.052Z</time>
      </trkpt>
      <trkpt lat="48.41663" lon="-4.00864">
        <ele>227.235886</ele>
        <time>2023-05-01T15:29:55.050Z</time>
      </trkpt>
      <trkpt lat="48.41659" lon="-4.00849">
        <ele>227.249424</ele>
        <time>2023-05-01T15:30:00.055Z</time>
      </trkpt>
      <trkpt lat="48.41656" lon="-4.00835">
        <ele>227.261511</ele>
        <time>2023-05-01T15:30:04.046Z</time>
      </trkpt>
      <trkpt lat="48.41652" lon="-4.00822">
        <ele>227.27356</ele>
        <time>2023-05-01T15:30:08.059Z</time>
      </trkpt>
      <trkpt lat="48.41648" lon="-4.00808">
        <ele>227.285914</ele>
        <time>2023-05-01T15:30:12.050Z</time>
      </trkpt>
      <trkpt lat="48.41643" lon="-4.00794">
        <ele>227.299385</ele>
        <time>2023-05-01T15:30:17.047Z</time>
      </trkpt>
      <trkpt lat="48.41638" lon="-4.00782">
        <ele>227.311383</ele>
        <time>2023-05-01T15:30:21.041Z</time>
      </trkpt>
      <trkpt lat="48.41633" lon="-4.00769">
        <ele>227.323229</ele>
        <time>2023-05-01T15:30:25.047Z</time>
      </trkpt>
      <trkpt lat="48.41627" lon="-4.00756">
        <ele>227.336414</ele>
        <time>2023-05-01T15:30:31.054Z</time>
      </trkpt>
      <trkpt lat="48.41621" lon="-4.00744">
        <ele>227.349534</ele>
        <time>2023-05-01T15:30:36.043Z</time>
      </trkpt>
      <trkpt lat="48.41614" lon="-4.0073">
        <ele>227.363265</ele>
        <time>2023-05-01T15:30:41.040Z</time>
      </trkpt>
      <trkpt lat="48.41607" lon="-4.00718">
        <ele>227.376836</ele>
        <time>2023-05-01T15:30:46.047Z</time>
      </trkpt>
      <trkpt lat="48.41601" lon="-4.00707">
        <ele>227.388479</ele>
        <time>2023-05-01T15:30:50.047Z</time>
      </trkpt>
      <trkpt lat="48.41594" lon="-4.00697">
        <ele>227.400237</ele>
        <time>2023-05-01T15:30:54.048Z</time>
      </trkpt>
      <trkpt lat="48.41587" lon="-4.00685">
        <ele>227.413428</ele>
        <time>2023-05-01T15:30:59.042Z</time>
      </trkpt>
      <trkpt lat="48.4158" lon="-4.00674">
        <ele>227.426321</ele>
        <time>2023-05-01T15:31:04.043Z</time>
      </trkpt>
      <trkpt lat="48.41572" lon="-4.00663">
        <ele>227.440006</ele>
        <time>2023-05-01T15:31:09.047Z</time>
      </trkpt>
      <trkpt lat="48.41564" lon="-4.00652">
        <ele>227.359436</ele>
        <time>2023-05-01T15:31:13.047Z</time>
      </trkpt>
      <trkpt lat="48.41556" lon="-4.00642">
        <ele>227.140237</ele>
        <time>2023-05-01T15:31:18.048Z</time>
      </trkpt>
      <trkpt lat="48.41549" lon="-4.00633">
        <ele>226.946511</ele>
        <time>2023-05-01T15:31:22.041Z</time>
      </trkpt>
      <trkpt lat="48.41542" lon="-4.00623">
        <ele>226.740683</ele>
        <time>2023-05-01T15:31:26.044Z</time>
      </trkpt>
      <trkpt lat="48.41534" lon="-4.00613">
        <ele>226.534233</ele>
        <time>2023-05-01T15:31:30.047Z</time>
      </trkpt>
      <trkpt lat="48.41527" lon="-4.00602">
        <ele>226.324798</ele>
        <time>2023-05-01T15:31:34.045Z</time>
      </trkpt>
      <trkpt lat="48.41519" lon="-4.00591">
        <ele>226.104171</ele>
        <time>2023-05-01T15:31:38.045Z</time>
      </trkpt>
      <trkpt lat="48.41512" lon="-4.00579">
        <ele>225.874247</ele>
        <time>2023-05-01T15:31:42.043Z</time>
      </trkpt>
      <trkpt lat="48.41504" lon="-4.00567">
        <ele>225.654114</ele>
        <time>2023-05-01T15:31:46.046Z</time>
      </trkpt>
      <trkpt lat="48.41497" lon="-4.00555">
        <ele>225.439972</ele>
        <time>2023-05-01T15:31:50.046Z</time>
      </trkpt>
      <trkpt lat="48.41491" lon="-4.00544">
        <ele>225.234638</ele>
        <time>2023-05-01T15:31:54.045Z</time>
      </trkpt>
      <trkpt lat="48.41484" lon="-4.00532">
        <ele>225.026631</ele>
        <time>2023-05-01T15:31:58.048Z</time>
      </trkpt>
      <trkpt lat="48.41477" lon="-4.00521">
        <ele>224.815147</ele>
        <time>2023-05-01T15:32:02.040Z</time>
      </trkpt>
      <trkpt lat="48.41471" lon="-4.00509">
        <ele>224.604916</ele>
        <time>2023-05-01T15:32:06.048Z</time>
      </trkpt>
      <trkpt lat="48.41465" lon="-4.00495">
        <ele>224.373301</ele>
        <time>2023-05-01T15:32:11.051Z</time>
      </trkpt>
      <trkpt lat="48.41459" lon="-4.00484">
        <ele>224.182913</ele>
        <time>2023-05-01T15:32:15.048Z</time>
      </trkpt>
      <trkpt lat="48.41453" lon="-4.00471">
        <ele>223.971849</ele>
        <time>2023-05-01T15:32:19.049Z</time>
      </trkpt>
      <trkpt lat="48.41448" lon="-4.00459">
        <ele>223.765509</ele>
        <time>2023-05-01T15:32:23.043Z</time>
      </trkpt>
      <trkpt lat="48.41442" lon="-4.00447">
        <ele>223.651223</ele>
        <time>2023-05-01T15:32:27.048Z</time>
      </trkpt>
      <trkpt lat="48.41436" lon="-4.00434">
        <ele>223.547175</ele>
        <time>2023-05-01T15:32:31.043Z</time>
      </trkpt>
      <trkpt lat="48.41431" lon="-4.00422">
        <ele>223.445972</ele>
        <time>2023-05-01T15:32:36.047Z</time>
      </trkpt>
      <trkpt lat="48.41421" lon="-4.00416">
        <ele>223.338124</ele>
        <time>2023-05-01T15:38:45.060Z</time>
      </trkpt>
      <trkpt lat="48.41432" lon="-4.00417">
        <ele>223.224074</ele>
        <time>2023-05-01T15:39:54.058Z</time>
      </trkpt>
      <trkpt lat="48.41425" lon="-4.00404">
        <ele>223.11124</ele>
        <time>2023-05-01T15:40:34.055Z</time>
      </trkpt>
      <trkpt lat="48.4142" lon="-4.00391">
        <ele>223.006058</ele>
        <time>2023-05-01T15:40:38.056Z</time>
      </trkpt>
      <trkpt lat="48.41414" lon="-4.00377">
        <ele>222.893915</ele>
        <time>2023-05-01T15:40:42.045Z</time>
      </trkpt>
      <trkpt lat="48.41409" lon="-4.00366">
        <ele>222.796145</ele>
        <time>2023-05-01T15:40:46.057Z</time>
      </trkpt>
      <trkpt lat="48.41403" lon="-4.00353">
        <ele>222.692058</ele>
        <time>2023-05-01T15:40:50.043Z</time>
      </trkpt>
      <trkpt lat="48.41402" lon="-4.00338">
        <ele>222.589312</ele>
        <time>2023-05-01T15:40:56.054Z</time>
      </trkpt>
      <trkpt lat="48.41399" lon="-4.00325">
        <ele>222.491637</ele>
        <time>2023-05-01T15:41:20.047Z</time>
      </trkpt>
      <trkpt lat="48.41391" lon="-4.00313">
        <ele>222.377612</ele>
        <time>2023-05-01T15:41:25.051Z</time>
      </trkpt>
      <trkpt lat="48.41387" lon="-4.003">
        <ele>222.276114</ele>
        <time>2023-05-01T15:41:29.053Z</time>
      </trkpt>
      <trkpt lat="48.41381" lon="-4.00284">
        <ele>222.153009</ele>
        <time>2023-05-01T15:41:33.051Z</time>
      </trkpt>
      <trkpt lat="48.41376" lon="-4.00272">
        <ele>222.054</ele>
        <time>2023-05-01T15:41:36.058Z</time>
      </trkpt>
      <trkpt lat="48.41372" lon="-4.00258">
        <ele>221.947129</ele>
        <time>2023-05-01T15:41:39.052Z</time>
      </trkpt>
      <trkpt lat="48.41368" lon="-4.00243">
        <ele>221.969577</ele>
        <time>2023-05-01T15:41:42.050Z</time>
      </trkpt>
      <trkpt lat="48.41364" lon="-4.00229">
        <ele>222.220879</ele>
        <time>2023-05-01T15:41:45.059Z</time>
      </trkpt>
      <trkpt lat="48.4136" lon="-4.00216">
        <ele>222.443494</ele>
        <time>2023-05-01T15:41:48.052Z</time>
      </trkpt>
      <trkpt lat="48.41356" lon="-4.00202">
        <ele>222.692627</ele>
        <time>2023-05-01T15:41:52.051Z</time>
      </trkpt>
      <trkpt lat="48.4135" lon="-4.00182">
        <ele>223.05184</ele>
        <time>2023-05-01T15:47:27.045Z</time>
      </trkpt>
      <trkpt lat="48.41347" lon="-4.00167">
        <ele>223.298942</ele>
        <time>2023-05-01T15:47:32.051Z</time>
      </trkpt>
      <trkpt lat="48.41344" lon="-4.00154">
        <ele>223.517729</ele>
        <time>2023-05-01T15:47:36.034Z</time>
      </trkpt>
      <trkpt lat="48.4134" lon="-4.0014">
        <ele>223.763642</ele>
        <time>2023-05-01T15:47:41.044Z</time>
      </trkpt>
      <trkpt lat="48.41336" lon="-4.00127">
        <ele>224.005446</ele>
        <time>2023-05-01T15:47:45.053Z</time>
      </trkpt>
      <trkpt lat="48.41331" lon="-4.00113">
        <ele>224.255849</ele>
        <time>2023-05-01T15:47:49.053Z</time>
      </trkpt>
      <trkpt lat="48.41325" lon="-4.001">
        <ele>224.505685</ele>
        <time>2023-05-01T15:47:53.049Z</time>
      </trkpt>
      <trkpt lat="48.4132" lon="-4.00085">
        <ele>224.78645</ele>
        <time>2023-05-01T15:47:57.059Z</time>
      </trkpt>
      <trkpt lat="48.41315" lon="-4.00071">
        <ele>225.038064</ele>
        <time>2023-05-01T15:48:01.045Z</time>
      </trkpt>
      <trkpt lat="48.4131" lon="-4.00058">
        <ele>225.290095</ele>
        <time>2023-05-01T15:48:05.058Z</time>
      </trkpt>
      <trkpt lat="48.41306" lon="-4.00045">
        <ele>225.51486</ele>
        <time>2023-05-01T15:48:09.050Z</time>
      </trkpt>
      <trkpt lat="48.41299" lon="-4.00032">
        <ele>225.77998</ele>
        <time>2023-05-01T15:48:14.060Z</time>
      </trkpt>
      <trkpt lat="48.41293" lon="-4.0002">
        <ele>226.028554</ele>
        <time>2023-05-01T15:48:18.055Z</time>
      </trkpt>
      <trkpt lat="48.41287" lon="-4.00007">
        <ele>226.261253</ele>
        <time>2023-05-01T15:48:22.046Z</time>
      </trkpt>
      <trkpt lat="48.41281" lon="-3.99995">
        <ele>226.385868</ele>
        <time>2023-05-01T15:48:26.054Z</time>
      </trkpt>
      <trkpt lat="48.41275" lon="-3.99982">
        <ele>226.516783</ele>
        <time>2023-05-01T15:48:30.053Z</time>
      </trkpt>
      <trkpt lat="48.41269" lon="-3.99969">
        <ele>226.650382</ele>
        <time>2023-05-01T15:48:34.053Z</time>
      </trkpt>
      <trkpt lat="48.41262" lon="-3.99956">
        <ele>226.790899</ele>
        <time>2023-05-01T15:48:38.055Z</time>
      </trkpt>
      <trkpt lat="48.41255" lon="-3.99943">
        <ele>226.926392</ele>
        <time>2023-05-01T15:48:42.048Z</time>
      </trkpt>
      <trkpt lat="48.41248" lon="-3.99932">
        <ele>227.05293</ele>
        <time>2023-05-01T15:48:46.050Z</time>
      </trkpt>
      <trkpt lat="48.41241" lon="-3.9992">
        <ele>227.184746</ele>
        <time>2023-05-01T15:48:50.053Z</time>
      </trkpt>
      <trkpt lat="48.41234" lon="-3.99906">
        <ele>227.324103</ele>
        <time>2023-05-01T15:48:54.051Z</time>
      </trkpt>
      <trkpt lat="48.41226" lon="-3.99895">
        <ele>227.464461</ele>
        <time>2023-05-01T15:48:58.054Z</time>
      </trkpt>
      <trkpt lat="48.41218" lon="-3.99882">
        <ele>227.606143</ele>
        <time>2023-05-01T15:49:02.048Z</time>
      </trkpt>
      <trkpt lat="48.41211" lon="-3.9987">
        <ele>227.740525</ele>
        <time>2023-05-01T15:49:06.050Z</time>
      </trkpt>
      <trkpt lat="48.41203" lon="-3.99859">
        <ele>227.874077</ele>
        <time>2023-05-01T15:49:10.050Z</time>
      </trkpt>
      <trkpt lat="48.41196" lon="-3.99848">
        <ele>228.001542</ele>
        <time>2023-05-01T15:49:14.063Z</time>
      </trkpt>
      <trkpt lat="48.41189" lon="-3.99836">
        <ele>228.140032</ele>
        <time>2023-05-01T15:49:18.058Z</time>
      </trkpt>
      <trkpt lat="48.41181" lon="-3.99825">
        <ele>228.265996</ele>
        <time>2023-05-01T15:49:22.048Z</time>
      </trkpt>
      <trkpt lat="48.41173" lon="-3.99814">
        <ele>228.40321</ele>
        <time>2023-05-01T15:49:27.053Z</time>
      </trkpt>
      <trkpt lat="48.41165" lon="-3.99802">
        <ele>228.564861</ele>
        <time>2023-05-01T15:49:32.049Z</time>
      </trkpt>
      <trkpt lat="48.41157" lon="-3.99792">
        <ele>228.738955</ele>
        <time>2023-05-01T15:49:36.055Z</time>
      </trkpt>
      <trkpt lat="48.41147" lon="-3.99782">
        <ele>228.933505</ele>
        <time>2023-05-01T15:49:40.053Z</time>
      </trkpt>
      <trkpt lat="48.4114" lon="-3.99773">
        <ele>229.084545</ele>
        <time>2023-05-01T15:49:43.043Z</time>
      </trkpt>
      <trkpt lat="48.41131" lon="-3.99762">
        <ele>229.274534</ele>
        <time>2023-05-01T15:49:47.053Z</time>
      </trkpt>
      <trkpt lat="48.41122" lon="-3.99753">
        <ele>229.455915</ele>
        <time>2023-05-01T15:49:51.051Z</time>
      </trkpt>
      <trkpt lat="48.41114" lon="-3.99742">
        <ele>229.633795</ele>
        <time>2023-05-01T15:49:55.053Z</time>
      </trkpt>
      <trkpt lat="48.41105" lon="-3.99732">
        <ele>229.8165</ele>
        <time>2023-05-01T15:49:59.052Z</time>
      </trkpt>
      <trkpt lat="48.41096" lon="-3.99722">
        <ele>230.007144</ele>
        <time>2023-05-01T15:50:03.043Z</time>
      </trkpt>
      <trkpt lat="48.41087" lon="-3.99711">
        <ele>230.193768</ele>
        <time>2023-05-01T15:50:07.056Z</time>
      </trkpt>
      <trkpt lat="48.4108" lon="-3.99703">
        <ele>230.342833</ele>
        <time>2023-05-01T15:50:10.055Z</time>
      </trkpt>
      <trkpt lat="48.41071" lon="-3.99693">
        <ele>230.515615</ele>
        <time>2023-05-01T15:50:14.052Z</time>
      </trkpt>
      <trkpt lat="48.41064" lon="-3.99684">
        <ele>230.68135</ele>
        <time>2023-05-01T15:50:18.039Z</time>
      </trkpt>
      <trkpt lat="48.41055" lon="-3.99673">
        <ele>230.867313</ele>
        <time>2023-05-01T15:50:22.031Z</time>
      </trkpt>
      <trkpt lat="48.41046" lon="-3.99663">
        <ele>231.051483</ele>
        <time>2023-05-01T15:50:26.060Z</time>
      </trkpt>
      <trkpt lat="48.41038" lon="-3.99652">
        <ele>231.228645</ele>
        <time>2023-05-01T15:50:30.054Z</time>
      </trkpt>
      <trkpt lat="48.4103" lon="-3.99641">
        <ele>231.40852</ele>
        <time>2023-05-01T15:50:34.051Z</time>
      </trkpt>
      <trkpt lat="48.41023" lon="-3.99629">
        <ele>231.48522</ele>
        <time>2023-05-01T15:50:38.051Z</time>
      </trkpt>
      <trkpt lat="48.41015" lon="-3.99618">
        <ele>231.521603</ele>
        <time>2023-05-01T15:50:42.046Z</time>
      </trkpt>
      <trkpt lat="48.41007" lon="-3.99607">
        <ele>231.559666</ele>
        <time>2023-05-01T15:50:46.052Z</time>
      </trkpt>
      <trkpt lat="48.41" lon="-3.99597">
        <ele>231.595184</ele>
        <time>2023-05-01T15:50:50.049Z</time>
      </trkpt>
      <trkpt lat="48.40993" lon="-3.99585">
        <ele>231.630789</ele>
        <time>2023-05-01T15:50:54.055Z</time>
      </trkpt>
      <trkpt lat="48.40986" lon="-3.99575">
        <ele>231.664391</ele>
        <time>2023-05-01T15:50:58.051Z</time>
      </trkpt>
      <trkpt lat="48.40978" lon="-3.99563">
        <ele>231.703599</ele>
        <time>2023-05-01T15:51:02.052Z</time>
      </trkpt>
      <trkpt lat="48.40972" lon="-3.99551">
        <ele>231.740383</ele>
        <time>2023-05-01T15:51:06.045Z</time>
      </trkpt>
      <trkpt lat="48.40966" lon="-3.99537">
        <ele>231.778356</ele>
        <time>2023-05-01T15:51:10.057Z</time>
      </trkpt>
      <trkpt lat="48.4096" lon="-3.99524">
        <ele>231.81397</ele>
        <time>2023-05-01T15:51:14.057Z</time>
      </trkpt>
      <trkpt lat="48.40955" lon="-3.9951">
        <ele>231.851273</ele>
        <time>2023-05-01T15:51:18.060Z</time>
      </trkpt>
      <trkpt lat="48.4095" lon="-3.99496">
        <ele>231.887631</ele>
        <time>2023-05-01T15:51:22.050Z</time>
      </trkpt>
      <trkpt lat="48.40946" lon="-3.99484">
        <ele>231.919606</ele>
        <time>2023-05-01T15:51:26.051Z</time>
      </trkpt>
      <trkpt lat="48.40941" lon="-3.9947">
        <ele>231.954609</ele>
        <time>2023-05-01T15:51:30.061Z</time>
      </trkpt>
      <trkpt lat="48.40937" lon="-3.99458">
        <ele>231.987609</ele>
        <time>2023-05-01T15:51:34.057Z</time>
      </trkpt>
      <trkpt lat="48.40933" lon="-3.99444">
        <ele>232.022453</ele>
        <time>2023-05-01T15:51:38.057Z</time>
      </trkpt>
      <trkpt lat="48.40929" lon="-3.9943">
        <ele>232.057806</ele>
        <time>2023-05-01T15:51:42.049Z</time>
      </trkpt>
      <trkpt lat="48.40925" lon="-3.99417">
        <ele>232.083025</ele>
        <time>2023-05-01T15:51:46.064Z</time>
      </trkpt>
      <trkpt lat="48.40921" lon="-3.99404">
        <ele>232.058989</ele>
        <time>2023-05-01T15:51:50.059Z</time>
      </trkpt>
      <trkpt lat="48.40918" lon="-3.99389">
        <ele>232.032968</ele>
        <time>2023-05-01T15:51:54.056Z</time>
      </trkpt>
      <trkpt lat="48.40914" lon="-3.99375">
        <ele>232.006225</ele>
        <time>2023-05-01T15:51:58.061Z</time>
      </trkpt>
      <trkpt lat="48.40911" lon="-3.9936">
        <ele>231.979582</ele>
        <time>2023-05-01T15:52:02.046Z</time>
      </trkpt>
      <trkpt lat="48.40908" lon="-3.99345">
        <ele>231.954135</ele>
        <time>2023-05-01T15:52:06.058Z</time>
      </trkpt>
      <trkpt lat="48.40903" lon="-3.99331">
        <ele>231.927328</ele>
        <time>2023-05-01T15:52:10.056Z</time>
      </trkpt>
      <trkpt lat="48.40899" lon="-3.99316">
        <ele>231.898926</ele>
        <time>2023-05-01T15:52:14.052Z</time>
      </trkpt>
      <trkpt lat="48.40895" lon="-3.99301">
        <ele>231.871494</ele>
        <time>2023-05-01T15:52:18.054Z</time>
      </trkpt>
      <trkpt lat="48.40892" lon="-3.99285">
        <ele>231.845177</ele>
        <time>2023-05-01T15:52:22.045Z</time>
      </trkpt>
      <trkpt lat="48.40889" lon="-3.99271">
        <ele>231.818609</ele>
        <time>2023-05-01T15:52:26.057Z</time>
      </trkpt>
      <trkpt lat="48.40886" lon="-3.99256">
        <ele>231.792279</ele>
        <time>2023-05-01T15:52:30.054Z</time>
      </trkpt>
      <trkpt lat="48.40882" lon="-3.9924">
        <ele>231.764914</ele>
        <time>2023-05-01T15:52:34.058Z</time>
      </trkpt>
      <trkpt lat="48.40879" lon="-3.99225">
        <ele>231.737626</ele>
        <time>2023-05-01T15:52:38.058Z</time>
      </trkpt>
      <trkpt lat="48.40876" lon="-3.99209">
        <ele>231.70994</ele>
        <time>2023-05-01T15:52:42.045Z</time>
      </trkpt>
      <trkpt lat="48.40872" lon="-3.99193">
        <ele>231.68137</ele>
        <time>2023-05-01T15:52:46.074Z</time>
      </trkpt>
      <trkpt lat="48.4087" lon="-3.99177">
        <ele>231.652971</ele>
        <time>2023-05-01T15:52:50.058Z</time>
      </trkpt>
      <trkpt lat="48.40867" lon="-3.99161">
        <ele>231.630562</ele>
        <time>2023-05-01T15:52:54.059Z</time>
      </trkpt>
      <trkpt lat="48.40865" lon="-3.99145">
        <ele>231.648354</ele>
        <time>2023-05-01T15:52:58.051Z</time>
      </trkpt>
      <trkpt lat="48.40864" lon="-3.99129">
        <ele>231.666108</ele>
        <time>2023-05-01T15:53:02.051Z</time>
      </trkpt>
      <trkpt lat="48.40862" lon="-3.99113">
        <ele>231.682963</ele>
        <time>2023-05-01T15:53:06.061Z</time>
      </trkpt>
      <trkpt lat="48.4086" lon="-3.99097">
        <ele>231.700292</ele>
        <time>2023-05-01T15:53:10.062Z</time>
      </trkpt>
      <trkpt lat="48.40859" lon="-3.99081">
        <ele>231.717765</ele>
        <time>2023-05-01T15:53:14.061Z</time>
      </trkpt>
      <trkpt lat="48.40857" lon="-3.99066">
        <ele>231.734696</ele>
        <time>2023-05-01T15:53:18.066Z</time>
      </trkpt>
      <trkpt lat="48.40857" lon="-3.99049">
        <ele>231.752248</ele>
        <time>2023-05-01T15:53:22.041Z</time>
      </trkpt>
      <trkpt lat="48.40855" lon="-3.99035">
        <ele>231.768228</ele>
        <time>2023-05-01T15:53:27.058Z</time>
      </trkpt>
      <trkpt lat="48.40855" lon="-3.9902">
        <ele>231.783669</ele>
        <time>2023-05-01T15:53:31.059Z</time>
      </trkpt>
      <trkpt lat="48.40854" lon="-3.99005">
        <ele>231.800827</ele>
        <time>2023-05-01T15:53:35.062Z</time>
      </trkpt>
      <trkpt lat="48.40853" lon="-3.98989">
        <ele>231.817642</ele>
        <time>2023-05-01T15:53:39.061Z</time>
      </trkpt>
      <trkpt lat="48.40853" lon="-3.98974">
        <ele>231.833783</ele>
        <time>2023-05-01T15:53:43.053Z</time>
      </trkpt>
      <trkpt lat="48.40853" lon="-3.98958">
        <ele>231.850465</ele>
        <time>2023-05-01T15:53:47.055Z</time>
      </trkpt>
      <trkpt lat="48.40853" lon="-3.98942">
        <ele>231.867719</ele>
        <time>2023-05-01T15:53:51.059Z</time>
      </trkpt>
      <trkpt lat="48.40852" lon="-3.98927">
        <ele>231.884632</ele>
        <time>2023-05-01T15:53:55.052Z</time>
      </trkpt>
      <trkpt lat="48.40852" lon="-3.98912">
        <ele>231.900991</ele>
        <time>2023-05-01T15:53:59.062Z</time>
      </trkpt>
      <trkpt lat="48.40852" lon="-3.98896">
        <ele>231.918112</ele>
        <time>2023-05-01T15:54:03.049Z</time>
      </trkpt>
      <trkpt lat="48.40852" lon="-3.9888">
        <ele>232.073785</ele>
        <time>2023-05-01T15:54:07.053Z</time>
      </trkpt>
      <trkpt lat="48.40853" lon="-3.98864">
        <ele>232.257674</ele>
        <time>2023-05-01T15:54:11.056Z</time>
      </trkpt>
      <trkpt lat="48.40854" lon="-3.98848">
        <ele>232.444579</ele>
        <time>2023-05-01T15:54:15.057Z</time>
      </trkpt>
      <trkpt lat="48.40855" lon="-3.98831">
        <ele>232.630921</ele>
        <time>2023-05-01T15:54:19.055Z</time>
      </trkpt>
      <trkpt lat="48.40856" lon="-3.98815">
        <ele>232.811027</ele>
        <time>2023-05-01T15:54:23.038Z</time>
      </trkpt>
      <trkpt lat="48.40857" lon="-3.98799">
        <ele>232.99342</ele>
        <time>2023-05-01T15:54:27.063Z</time>
      </trkpt>
      <trkpt lat="48.40859" lon="-3.98784">
        <ele>233.175768</ele>
        <time>2023-05-01T15:54:31.056Z</time>
      </trkpt>
      <trkpt lat="48.4086" lon="-3.98767">
        <ele>233.368882</ele>
        <time>2023-05-01T15:54:36.055Z</time>
      </trkpt>
      <trkpt lat="48.40862" lon="-3.98753">
        <ele>233.52683</ele>
        <time>2023-05-01T15:54:40.056Z</time>
      </trkpt>
      <trkpt lat="48.40864" lon="-3.98739">
        <ele>233.691263</ele>
        <time>2023-05-01T15:54:44.059Z</time>
      </trkpt>
      <trkpt lat="48.40865" lon="-3.98724">
        <ele>233.859903</ele>
        <time>2023-05-01T15:54:48.057Z</time>
      </trkpt>
      <trkpt lat="48.40867" lon="-3.98711">
        <ele>234.01602</ele>
        <time>2023-05-01T15:54:52.058Z</time>
      </trkpt>
      <trkpt lat="48.4087" lon="-3.98696">
        <ele>234.182858</ele>
        <time>2023-05-01T15:54:56.055Z</time>
      </trkpt>
      <trkpt lat="48.40872" lon="-3.98682">
        <ele>234.350106</ele>
        <time>2023-05-01T15:55:00.058Z</time>
      </trkpt>
      <trkpt lat="48.40875" lon="-3.98668">
        <ele>234.512305</ele>
        <time>2023-05-01T15:55:04.064Z</time>
      </trkpt>
      <trkpt lat="48.40877" lon="-3.98655">
        <ele>234.672781</ele>
        <time>2023-05-01T15:55:08.065Z</time>
      </trkpt>
      <trkpt lat="48.4088" lon="-3.98639">
        <ele>234.850762</ele>
        <time>2023-05-01T15:55:13.058Z</time>
      </trkpt>
      <trkpt lat="48.40883" lon="-3.98626">
        <ele>235.031694</ele>
        <time>2023-05-01T15:55:19.054Z</time>
      </trkpt>
      <trkpt lat="48.40886" lon="-3.98611">
        <ele>235.471593</ele>
        <time>2023-05-01T15:55:24.061Z</time>
      </trkpt>
      <trkpt lat="48.40889" lon="-3.98596">
        <ele>235.886895</ele>
        <time>2023-05-01T15:55:29.058Z</time>
      </trkpt>
      <trkpt lat="48.40892" lon="-3.98582">
        <ele>236.273615</ele>
        <time>2023-05-01T15:55:34.059Z</time>
      </trkpt>
      <trkpt lat="48.40895" lon="-3.98569">
        <ele>236.64297</ele>
        <time>2023-05-01T15:55:40.048Z</time>
      </trkpt>
      <trkpt lat="48.40899" lon="-3.98556">
        <ele>237.033743</ele>
        <time>2023-05-01T15:55:46.077Z</time>
      </trkpt>
      <trkpt lat="48.40903" lon="-3.98542">
        <ele>237.449505</ele>
        <time>2023-05-01T15:55:52.045Z</time>
      </trkpt>
      <trkpt lat="48.40906" lon="-3.98528">
        <ele>237.849438</ele>
        <time>2023-05-01T15:55:58.050Z</time>
      </trkpt>
      <trkpt lat="48.4091" lon="-3.98513">
        <ele>238.282196</ele>
        <time>2023-05-01T15:56:04.058Z</time>
      </trkpt>
      <trkpt lat="48.40914" lon="-3.98498">
        <ele>238.705945</ele>
        <time>2023-05-01T15:56:10.056Z</time>
      </trkpt>
      <trkpt lat="48.40918" lon="-3.98485">
        <ele>239.093476</ele>
        <time>2023-05-01T15:56:15.044Z</time>
      </trkpt>
      <trkpt lat="48.40922" lon="-3.98471">
        <ele>239.515355</ele>
        <time>2023-05-01T15:56:21.042Z</time>
      </trkpt>
      <trkpt lat="48.40927" lon="-3.98458">
        <ele>239.908261</ele>
        <time>2023-05-01T15:56:27.042Z</time>
      </trkpt>
      <trkpt lat="48.40932" lon="-3.98444">
        <ele>240.332027</ele>
        <time>2023-05-01T15:56:33.041Z</time>
      </trkpt>
      <trkpt lat="48.40936" lon="-3.9843">
        <ele>240.762313</ele>
        <time>2023-05-01T15:56:39.051Z</time>
      </trkpt>
      <trkpt lat="48.40941" lon="-3.98416">
        <ele>241.18133</ele>
        <time>2023-05-01T15:56:45.054Z</time>
      </trkpt>
      <trkpt lat="48.40947" lon="-3.98403">
        <ele>241.607825</ele>
        <time>2023-05-01T15:56:51.043Z</time>
      </trkpt>
      <trkpt lat="48.40951" lon="-3.9839">
        <ele>241.992923</ele>
        <time>2023-05-01T15:56:56.053Z</time>
      </trkpt>
      <trkpt lat="48.40955" lon="-3.98378">
        <ele>242.357772</ele>
        <time>2023-05-01T15:57:01.039Z</time>
      </trkpt>
      <trkpt lat="48.4096" lon="-3.98365">
        <ele>242.706369</ele>
        <time>2023-05-01T15:57:06.049Z</time>
      </trkpt>
      <trkpt lat="48.40965" lon="-3.98353">
        <ele>243.053092</ele>
        <time>2023-05-01T15:57:11.053Z</time>
      </trkpt>
      <trkpt lat="48.40971" lon="-3.98342">
        <ele>243.405411</ele>
        <time>2023-05-01T15:57:16.053Z</time>
      </trkpt>
      <trkpt lat="48.40977" lon="-3.9833">
        <ele>243.782303</ele>
        <time>2023-05-01T15:57:21.046Z</time>
      </trkpt>
      <trkpt lat="48.40983" lon="-3.98319">
        <ele>244.132259</ele>
        <time>2023-05-01T15:57:26.060Z</time>
      </trkpt>
      <trkpt lat="48.40988" lon="-3.98306">
        <ele>244.500993</ele>
        <time>2023-05-01T15:57:31.053Z</time>
      </trkpt>
      <trkpt lat="48.40994" lon="-3.98294">
        <ele>244.881697</ele>
        <time>2023-05-01T15:57:36.050Z</time>
      </trkpt>
      <trkpt lat="48.41" lon="-3.98281">
        <ele>245.268832</ele>
        <time>2023-05-01T15:57:42.047Z</time>
      </trkpt>
      <trkpt lat="48.41006" lon="-3.98269">
        <ele>245.62123</ele>
        <time>2023-05-01T15:57:47.049Z</time>
      </trkpt>
      <trkpt lat="48.41011" lon="-3.98258">
        <ele>245.967637</ele>
        <time>2023-05-01T15:57:52.050Z</time>
      </trkpt>
      <trkpt lat="48.41017" lon="-3.98246">
        <ele>246.341415</ele>
        <time>2023-05-01T15:57:57.050Z</time>
      </trkpt>
      <trkpt lat="48.41024" lon="-3.98233">
        <ele>246.750545</ele>
        <time>2023-05-01T15:58:02.053Z</time>
      </trkpt>
      <trkpt lat="48.4103" lon="-3.98222">
        <ele>247.094811</ele>
        <time>2023-05-01T15:58:06.058Z</time>
      </trkpt>
      <trkpt lat="48.41038" lon="-3.9821">
        <ele>247.498538</ele>
        <time>2023-05-01T15:58:11.055Z</time>
      </trkpt>
      <trkpt lat="48.41046" lon="-3.98199">
        <ele>247.905327</ele>
        <time>2023-05-01T15:58:16.052Z</time>
      </trkpt>
      <trkpt lat="48.41051" lon="-3.98188">
        <ele>248.248335</ele>
        <time>2023-05-01T15:58:20.052Z</time>
      </trkpt>
      <trkpt lat="48.41058" lon="-3.98178">
        <ele>248.583666</ele>
        <time>2023-05-01T15:58:24.049Z</time>
      </trkpt>
      <trkpt lat="48.41064" lon="-3.98166">
        <ele>248.958877</ele>
        <time>2023-05-01T15:58:29.048Z</time>
      </trkpt>
      <trkpt lat="48.41072" lon="-3.98155">
        <ele>249.228888</ele>
        <time>2023-05-01T15:58:34.050Z</time>
      </trkpt>
      <trkpt lat="48.41079" lon="-3.98145">
        <ele>249.452536</ele>
        <time>2023-05-01T15:58:38.049Z</time>
      </trkpt>
      <trkpt lat="48.41236" lon="-3.97847">
        <ele>255.685804</ele>
        <time>2023-05-01T16:02:04.046Z</time>
      </trkpt>
      <trkpt lat="48.41238" lon="-3.97831">
        <ele>255.94561</ele>
        <time>2023-05-01T16:02:10.046Z</time>
      </trkpt>
      <trkpt lat="48.41242" lon="-3.97818">
        <ele>256.182508</ele>
        <time>2023-05-01T16:02:15.049Z</time>
      </trkpt>
      <trkpt lat="48.41245" lon="-3.97802">
        <ele>256.450083</ele>
        <time>2023-05-01T16:02:20.052Z</time>
      </trkpt>
      <trkpt lat="48.41248" lon="-3.97788">
        <ele>256.700492</ele>
        <time>2023-05-01T16:02:25.043Z</time>
      </trkpt>
      <trkpt lat="48.41249" lon="-3.97772">
        <ele>256.952433</ele>
        <time>2023-05-01T16:02:31.055Z</time>
      </trkpt>
      <trkpt lat="48.4125" lon="-3.97757">
        <ele>257.205777</ele>
        <time>2023-05-01T16:02:37.053Z</time>
      </trkpt>
      <trkpt lat="48.41252" lon="-3.97742">
        <ele>257.457636</ele>
        <time>2023-05-01T16:02:43.050Z</time>
      </trkpt>
      <trkpt lat="48.41253" lon="-3.97727">
        <ele>257.708668</ele>
        <time>2023-05-01T16:02:49.055Z</time>
      </trkpt>
      <trkpt lat="48.41254" lon="-3.97712">
        <ele>257.983468</ele>
        <time>2023-05-01T16:02:55.047Z</time>
      </trkpt>
      <trkpt lat="48.41254" lon="-3.97697">
        <ele>258.289199</ele>
        <time>2023-05-01T16:03:01.048Z</time>
      </trkpt>
      <trkpt lat="48.41255" lon="-3.97683">
        <ele>258.582159</ele>
        <time>2023-05-01T16:03:07.047Z</time>
      </trkpt>
      <trkpt lat="48.41256" lon="-3.97668">
        <ele>258.892564</ele>
        <time>2023-05-01T16:03:13.051Z</time>
      </trkpt>
      <trkpt lat="48.41256" lon="-3.97653">
        <ele>259.202969</ele>
        <time>2023-05-01T16:03:19.050Z</time>
      </trkpt>
      <trkpt lat="48.41257" lon="-3.97639">
        <ele>259.49807</ele>
        <time>2023-05-01T16:03:24.045Z</time>
      </trkpt>
      <trkpt lat="48.41257" lon="-3.97626">
        <ele>259.780964</ele>
        <time>2023-05-01T16:03:29.043Z</time>
      </trkpt>
      <trkpt lat="48.41256" lon="-3.97612">
        <ele>260.072313</ele>
        <time>2023-05-01T16:03:34.037Z</time>
      </trkpt>
      <trkpt lat="48.41256" lon="-3.97596">
        <ele>260.392472</ele>
        <time>2023-05-01T16:03:40.046Z</time>
      </trkpt>
      <trkpt lat="48.41257" lon="-3.9758">
        <ele>260.733504</ele>
        <time>2023-05-01T16:03:46.049Z</time>
      </trkpt>
      <trkpt lat="48.41257" lon="-3.97564">
        <ele>261.064863</ele>
        <time>2023-05-01T16:03:52.049Z</time>
      </trkpt>
      <trkpt lat="48.41257" lon="-3.97549">
        <ele>261.370337</ele>
        <time>2023-05-01T16:03:57.050Z</time>
      </trkpt>
      <trkpt lat="48.41258" lon="-3.97535">
        <ele>261.669144</ele>
        <time>2023-05-01T16:04:02.048Z</time>
      </trkpt>
      <trkpt lat="48.41259" lon="-3.97521">
        <ele>261.965885</ele>
        <time>2023-05-01T16:04:07.041Z</time>
      </trkpt>
      <trkpt lat="48.41261" lon="-3.97506">
        <ele>262.265413</ele>
        <time>2023-05-01T16:04:12.047Z</time>
      </trkpt>
      <trkpt lat="48.41261" lon="-3.97492">
        <ele>262.566747</ele>
        <time>2023-05-01T16:04:17.058Z</time>
      </trkpt>
      <trkpt lat="48.41261" lon="-3.97478">
        <ele>262.85206</ele>
        <time>2023-05-01T16:04:22.042Z</time>
      </trkpt>
      <trkpt lat="48.41261" lon="-3.97464">
        <ele>263.138849</ele>
        <time>2023-05-01T16:04:27.050Z</time>
      </trkpt>
      <trkpt lat="48.41262" lon="-3.97449">
        <ele>263.465712</ele>
        <time>2023-05-01T16:04:32.051Z</time>
      </trkpt>
      <trkpt lat="48.41262" lon="-3.97433">
        <ele>263.724955</ele>
        <time>2023-05-01T16:04:38.054Z</time>
      </trkpt>
      <trkpt lat="48.41263" lon="-3.97418">
        <ele>263.960168</ele>
        <time>2023-05-01T16:04:43.051Z</time>
      </trkpt>
      <trkpt lat="48.41263" lon="-3.97404">
        <ele>264.192646</ele>
        <time>2023-05-01T16:04:48.052Z</time>
      </trkpt>
      <trkpt lat="48.41264" lon="-3.97388">
        <ele>264.449021</ele>
        <time>2023-05-01T16:04:54.052Z</time>
      </trkpt>
      <trkpt lat="48.41265" lon="-3.97374">
        <ele>264.676146</ele>
        <time>2023-05-01T16:05:00.043Z</time>
      </trkpt>
      <trkpt lat="48.41264" lon="-3.97358">
        <ele>264.930529</ele>
        <time>2023-05-01T16:05:06.046Z</time>
      </trkpt>
      <trkpt lat="48.41265" lon="-3.97343">
        <ele>265.170335</ele>
        <time>2023-05-01T16:05:11.047Z</time>
      </trkpt>
      <trkpt lat="48.41266" lon="-3.9733">
        <ele>265.397065</ele>
        <time>2023-05-01T16:05:16.045Z</time>
      </trkpt>
      <trkpt lat="48.41265" lon="-3.97314">
        <ele>265.650957</ele>
        <time>2023-05-01T16:05:21.052Z</time>
      </trkpt>
      <trkpt lat="48.41266" lon="-3.97299">
        <ele>265.894149</ele>
        <time>2023-05-01T16:05:26.055Z</time>
      </trkpt>
      <trkpt lat="48.41267" lon="-3.97283">
        <ele>266.152065</ele>
        <time>2023-05-01T16:05:32.046Z</time>
      </trkpt>
      <trkpt lat="48.41267" lon="-3.97268">
        <ele>266.408125</ele>
        <time>2023-05-01T16:05:38.035Z</time>
      </trkpt>
      <trkpt lat="48.41267" lon="-3.97252">
        <ele>266.660889</ele>
        <time>2023-05-01T16:05:43.047Z</time>
      </trkpt>
      <trkpt lat="48.41268" lon="-3.97236">
        <ele>266.915027</ele>
        <time>2023-05-01T16:05:48.052Z</time>
      </trkpt>
      <trkpt lat="48.4127" lon="-3.97221">
        <ele>267.168778</ele>
        <time>2023-05-01T16:05:53.059Z</time>
      </trkpt>
      <trkpt lat="48.41271" lon="-3.97207">
        <ele>267.393411</ele>
        <time>2023-05-01T16:05:58.044Z</time>
      </trkpt>
      <trkpt lat="48.41271" lon="-3.97193">
        <ele>267.615348</ele>
        <time>2023-05-01T16:06:03.044Z</time>
      </trkpt>
      <trkpt lat="48.41271" lon="-3.97179">
        <ele>267.85737</ele>
        <time>2023-05-01T16:06:08.052Z</time>
      </trkpt>
      <trkpt lat="48.41272" lon="-3.97164">
        <ele>268.214544</ele>
        <time>2023-05-01T16:06:13.053Z</time>
      </trkpt>
      <trkpt lat="48.41273" lon="-3.9715">
        <ele>268.554067</ele>
        <time>2023-05-01T16:06:18.057Z</time>
      </trkpt>
      <trkpt lat="48.41272" lon="-3.97136">
        <ele>268.899796</ele>
        <time>2023-05-01T16:06:23.048Z</time>
      </trkpt>
      <trkpt lat="48.41271" lon="-3.97122">
        <ele>269.255092</ele>
        <time>2023-05-01T16:06:28.046Z</time>
      </trkpt>
      <trkpt lat="48.41269" lon="-3.97106">
        <ele>269.642525</ele>
        <time>2023-05-01T16:06:33.051Z</time>
      </trkpt>
      <trkpt lat="48.41267" lon="-3.97091">
        <ele>270.018002</ele>
        <time>2023-05-01T16:06:38.050Z</time>
      </trkpt>
      <trkpt lat="48.41265" lon="-3.97076">
        <ele>270.386294</ele>
        <time>2023-05-01T16:06:43.047Z</time>
      </trkpt>
      <trkpt lat="48.41261" lon="-3.97062">
        <ele>270.762512</ele>
        <time>2023-05-01T16:06:48.049Z</time>
      </trkpt>
      <trkpt lat="48.41257" lon="-3.97049">
        <ele>271.108413</ele>
        <time>2023-05-01T16:06:53.049Z</time>
      </trkpt>
      <trkpt lat="48.41253" lon="-3.97035">
        <ele>271.490198</ele>
        <time>2023-05-01T16:06:58.048Z</time>
      </trkpt>
      <trkpt lat="48.41248" lon="-3.97022">
        <ele>271.840136</ele>
        <time>2023-05-01T16:07:02.050Z</time>
      </trkpt>
      <trkpt lat="48.41242" lon="-3.97009">
        <ele>272.21321</ele>
        <time>2023-05-01T16:07:06.047Z</time>
      </trkpt>
      <trkpt lat="48.41238" lon="-3.96998">
        <ele>272.543713</ele>
        <time>2023-05-01T16:07:10.047Z</time>
      </trkpt>
      <trkpt lat="48.4123" lon="-3.96986">
        <ele>272.942934</ele>
        <time>2023-05-01T16:07:16.051Z</time>
      </trkpt>
      <trkpt lat="48.41222" lon="-3.96974">
        <ele>273.344034</ele>
        <time>2023-05-01T16:07:21.047Z</time>
      </trkpt>
      <trkpt lat="48.41215" lon="-3.96963">
        <ele>273.719978</ele>
        <time>2023-05-01T16:07:26.049Z</time>
      </trkpt>
      <trkpt lat="48.4121" lon="-3.96951">
        <ele>274.0748</ele>
        <time>2023-05-01T16:07:32.040Z</time>
      </trkpt>
      <trkpt lat="48.41204" lon="-3.96939">
        <ele>274.432099</ele>
        <time>2023-05-01T16:07:38.048Z</time>
      </trkpt>
      <trkpt lat="48.41198" lon="-3.96927">
        <ele>274.309695</ele>
        <time>2023-05-01T16:19:52.039Z</time>
      </trkpt>
      <trkpt lat="48.41193" lon="-3.96915">
        <ele>274.188767</ele>
        <time>2023-05-01T16:19:58.057Z</time>
      </trkpt>
      <trkpt lat="48.41186" lon="-3.96905">
        <ele>274.067156</ele>
        <time>2023-05-01T16:20:02.050Z</time>
      </trkpt>
      <trkpt lat="48.41179" lon="-3.96894">
        <ele>273.934695</ele>
        <time>2023-05-01T16:20:06.053Z</time>
      </trkpt>
      <trkpt lat="48.41172" lon="-3.9688">
        <ele>273.792528</ele>
        <time>2023-05-01T16:20:10.049Z</time>
      </trkpt>
      <trkpt lat="48.41164" lon="-3.96869">
        <ele>273.653568</ele>
        <time>2023-05-01T16:20:14.047Z</time>
      </trkpt>
      <trkpt lat="48.41156" lon="-3.96856">
        <ele>273.504055</ele>
        <time>2023-05-01T16:20:18.046Z</time>
      </trkpt>
      <trkpt lat="48.4115" lon="-3.96845">
        <ele>273.388475</ele>
        <time>2023-05-01T16:20:21.055Z</time>
      </trkpt>
      <trkpt lat="48.41144" lon="-3.96834">
        <ele>273.264976</ele>
        <time>2023-05-01T16:20:24.050Z</time>
      </trkpt>
      <trkpt lat="48.41138" lon="-3.96823">
        <ele>273.138438</ele>
        <time>2023-05-01T16:20:27.052Z</time>
      </trkpt>
      <trkpt lat="48.41131" lon="-3.96811">
        <ele>273.008071</ele>
        <time>2023-05-01T16:20:30.046Z</time>
      </trkpt>
      <trkpt lat="48.41125" lon="-3.968">
        <ele>272.88864</ele>
        <time>2023-05-01T16:20:33.047Z</time>
      </trkpt>
      <trkpt lat="48.41118" lon="-3.96786">
        <ele>272.741624</ele>
        <time>2023-05-01T16:20:37.043Z</time>
      </trkpt>
      <trkpt lat="48.41112" lon="-3.96772">
        <ele>272.600282</ele>
        <time>2023-05-01T16:20:41.049Z</time>
      </trkpt>
      <trkpt lat="48.41105" lon="-3.9676">
        <ele>272.46543</ele>
        <time>2023-05-01T16:20:45.046Z</time>
      </trkpt>
      <trkpt lat="48.41098" lon="-3.96746">
        <ele>272.318569</ele>
        <time>2023-05-01T16:20:49.048Z</time>
      </trkpt>
      <trkpt lat="48.41091" lon="-3.96732">
        <ele>272.170527</ele>
        <time>2023-05-01T16:20:53.048Z</time>
      </trkpt>
      <trkpt lat="48.41084" lon="-3.9672">
        <ele>272.329551</ele>
        <time>2023-05-01T16:20:57.054Z</time>
      </trkpt>
      <trkpt lat="48.41078" lon="-3.96709">
        <ele>272.508902</ele>
        <time>2023-05-01T16:21:00.049Z</time>
      </trkpt>
      <trkpt lat="48.41071" lon="-3.96695">
        <ele>272.743115</ele>
        <time>2023-05-01T16:21:04.047Z</time>
      </trkpt>
      <trkpt lat="48.41066" lon="-3.96684">
        <ele>272.922125</ele>
        <time>2023-05-01T16:21:07.050Z</time>
      </trkpt>
      <trkpt lat="48.4106" lon="-3.96669">
        <ele>273.144413</ele>
        <time>2023-05-01T16:21:11.055Z</time>
      </trkpt>
      <trkpt lat="48.41054" lon="-3.96654">
        <ele>273.3757</ele>
        <time>2023-05-01T16:21:15.054Z</time>
      </trkpt>
      <trkpt lat="48.41049" lon="-3.96642">
        <ele>273.561977</ele>
        <time>2023-05-01T16:21:18.051Z</time>
      </trkpt>
      <trkpt lat="48.41044" lon="-3.9663">
        <ele>273.738558</ele>
        <time>2023-05-01T16:21:21.051Z</time>
      </trkpt>
      <trkpt lat="48.41038" lon="-3.96615">
        <ele>273.970979</ele>
        <time>2023-05-01T16:21:25.046Z</time>
      </trkpt>
      <trkpt lat="48.41034" lon="-3.96602">
        <ele>274.154895</ele>
        <time>2023-05-01T16:21:28.047Z</time>
      </trkpt>
      <trkpt lat="48.41029" lon="-3.9659">
        <ele>274.333095</ele>
        <time>2023-05-01T16:21:31.047Z</time>
      </trkpt>
      <trkpt lat="48.41025" lon="-3.96577">
        <ele>274.51637</ele>
        <time>2023-05-01T16:21:34.056Z</time>
      </trkpt>
      <trkpt lat="48.41021" lon="-3.96565">
        <ele>274.696168</ele>
        <time>2023-05-01T16:21:37.043Z</time>
      </trkpt>
      <trkpt lat="48.41016" lon="-3.96549">
        <ele>274.927444</ele>
        <time>2023-05-01T16:21:41.053Z</time>
      </trkpt>
      <trkpt lat="48.41012" lon="-3.96537">
        <ele>275.103461</ele>
        <time>2023-05-01T16:21:44.043Z</time>
      </trkpt>
      <trkpt lat="48.41006" lon="-3.96521">
        <ele>275.333994</ele>
        <time>2023-05-01T16:21:48.035Z</time>
      </trkpt>
      <trkpt lat="48.41001" lon="-3.96505">
        <ele>275.569767</ele>
        <time>2023-05-01T16:21:52.050Z</time>
      </trkpt>
      <trkpt lat="48.40997" lon="-3.96492">
        <ele>275.748445</ele>
        <time>2023-05-01T16:21:55.053Z</time>
      </trkpt>
      <trkpt lat="48.40994" lon="-3.96479">
        <ele>275.913762</ele>
        <time>2023-05-01T16:21:58.045Z</time>
      </trkpt>
      <trkpt lat="48.40989" lon="-3.96464">
        <ele>276.11434</ele>
        <time>2023-05-01T16:22:02.052Z</time>
      </trkpt>
      <trkpt lat="48.40985" lon="-3.96448">
        <ele>276.324055</ele>
        <time>2023-05-01T16:22:06.051Z</time>
      </trkpt>
      <trkpt lat="48.40981" lon="-3.96435">
        <ele>276.486481</ele>
        <time>2023-05-01T16:22:09.054Z</time>
      </trkpt>
      <trkpt lat="48.40978" lon="-3.96422">
        <ele>276.655116</ele>
        <time>2023-05-01T16:22:12.051Z</time>
      </trkpt>
      <trkpt lat="48.40974" lon="-3.96409">
        <ele>276.826641</ele>
        <time>2023-05-01T16:22:15.051Z</time>
      </trkpt>
      <trkpt lat="48.40971" lon="-3.96395">
        <ele>277.00083</ele>
        <time>2023-05-01T16:22:18.051Z</time>
      </trkpt>
      <trkpt lat="48.40968" lon="-3.96382">
        <ele>277.170292</ele>
        <time>2023-05-01T16:22:21.055Z</time>
      </trkpt>
      <trkpt lat="48.40964" lon="-3.96369">
        <ele>277.33301</ele>
        <time>2023-05-01T16:22:24.051Z</time>
      </trkpt>
      <trkpt lat="48.4096" lon="-3.96352">
        <ele>277.547576</ele>
        <time>2023-05-01T16:22:28.052Z</time>
      </trkpt>
      <trkpt lat="48.40955" lon="-3.96339">
        <ele>277.731739</ele>
        <time>2023-05-01T16:22:32.050Z</time>
      </trkpt>
      <trkpt lat="48.4095" lon="-3.96323">
        <ele>277.931583</ele>
        <time>2023-05-01T16:22:37.048Z</time>
      </trkpt>
      <trkpt lat="48.40947" lon="-3.9631">
        <ele>278.100027</ele>
        <time>2023-05-01T16:22:41.054Z</time>
      </trkpt>
      <trkpt lat="48.40943" lon="-3.96297">
        <ele>278.278843</ele>
        <time>2023-05-01T16:22:45.053Z</time>
      </trkpt>
      <trkpt lat="48.40432" lon="-3.92679">
        <ele>331.352475</ele>
        <time>2023-05-01T16:49:14.056Z</time>
      </trkpt>
      <trkpt lat="48.40436" lon="-3.92667">
        <ele>331.471743</ele>
        <time>2023-05-01T16:49:18.057Z</time>
      </trkpt>
      <trkpt lat="48.4044" lon="-3.92652">
        <ele>331.610564</ele>
        <time>2023-05-01T16:49:23.055Z</time>
      </trkpt>
      <trkpt lat="48.40444" lon="-3.92636">
        <ele>331.761833</ele>
        <time>2023-05-01T16:49:28.055Z</time>
      </trkpt>
      <trkpt lat="48.40448" lon="-3.92623">
        <ele>331.890557</ele>
        <time>2023-05-01T16:49:32.056Z</time>
      </trkpt>
      <trkpt lat="48.40452" lon="-3.92608">
        <ele>332.03126</ele>
        <time>2023-05-01T16:49:36.061Z</time>
      </trkpt>
      <trkpt lat="48.40456" lon="-3.92595">
        <ele>332.160179</ele>
        <time>2023-05-01T16:49:40.058Z</time>
      </trkpt>
      <trkpt lat="48.4046" lon="-3.9258">
        <ele>332.301985</ele>
        <time>2023-05-01T16:49:44.059Z</time>
      </trkpt>
      <trkpt lat="48.40464" lon="-3.92564">
        <ele>332.447774</ele>
        <time>2023-05-01T16:49:48.059Z</time>
      </trkpt>
      <trkpt lat="48.40469" lon="-3.92549">
        <ele>332.598122</ele>
        <time>2023-05-01T16:49:52.059Z</time>
      </trkpt>
      <trkpt lat="48.40473" lon="-3.92534">
        <ele>332.788621</ele>
        <time>2023-05-01T16:49:56.058Z</time>
      </trkpt>
      <trkpt lat="48.40478" lon="-3.92518">
        <ele>333.000564</ele>
        <time>2023-05-01T16:50:00.063Z</time>
      </trkpt>
      <trkpt lat="48.40483" lon="-3.92503">
        <ele>333.21562</ele>
        <time>2023-05-01T16:50:04.058Z</time>
      </trkpt>
      <trkpt lat="48.40488" lon="-3.92488">
        <ele>333.421351</ele>
        <time>2023-05-01T16:50:08.061Z</time>
      </trkpt>
      <trkpt lat="48.40491" lon="-3.92474">
        <ele>333.613293</ele>
        <time>2023-05-01T16:50:12.050Z</time>
      </trkpt>
      <trkpt lat="48.40495" lon="-3.92459">
        <ele>333.818655</ele>
        <time>2023-05-01T16:50:16.059Z</time>
      </trkpt>
      <trkpt lat="48.405" lon="-3.92444">
        <ele>334.031666</ele>
        <time>2023-05-01T16:50:20.041Z</time>
      </trkpt>
      <trkpt lat="48.40504" lon="-3.92428">
        <ele>334.243169</ele>
        <time>2023-05-01T16:50:24.056Z</time>
      </trkpt>
      <trkpt lat="48.40508" lon="-3.92414">
        <ele>334.448851</ele>
        <time>2023-05-01T16:50:28.055Z</time>
      </trkpt>
      <trkpt lat="48.40513" lon="-3.92398">
        <ele>334.656114</ele>
        <time>2023-05-01T16:50:32.051Z</time>
      </trkpt>
      <trkpt lat="48.40517" lon="-3.92382">
        <ele>334.875599</ele>
        <time>2023-05-01T16:50:36.056Z</time>
      </trkpt>
      <trkpt lat="48.40521" lon="-3.92366">
        <ele>335.097098</ele>
        <time>2023-05-01T16:50:40.055Z</time>
      </trkpt>
      <trkpt lat="48.40526" lon="-3.92351">
        <ele>335.313976</ele>
        <time>2023-05-01T16:50:44.059Z</time>
      </trkpt>
      <trkpt lat="48.4053" lon="-3.92334">
        <ele>335.535163</ele>
        <time>2023-05-01T16:50:48.062Z</time>
      </trkpt>
      <trkpt lat="48.40534" lon="-3.92317">
        <ele>335.761051</ele>
        <time>2023-05-01T16:50:52.052Z</time>
      </trkpt>
      <trkpt lat="48.40538" lon="-3.92303">
        <ele>335.954169</ele>
        <time>2023-05-01T16:50:56.060Z</time>
      </trkpt>
      <trkpt lat="48.40542" lon="-3.92288">
        <ele>336.187271</ele>
        <time>2023-05-01T16:51:00.059Z</time>
      </trkpt>
      <trkpt lat="48.40545" lon="-3.92274">
        <ele>336.437392</ele>
        <time>2023-05-01T16:51:04.063Z</time>
      </trkpt>
      <trkpt lat="48.40549" lon="-3.9226">
        <ele>336.684572</ele>
        <time>2023-05-01T16:51:08.058Z</time>
      </trkpt>
      <trkpt lat="48.40553" lon="-3.92246">
        <ele>336.937992</ele>
        <time>2023-05-01T16:51:12.052Z</time>
      </trkpt>
      <trkpt lat="48.40556" lon="-3.92232">
        <ele>337.183424</ele>
        <time>2023-05-01T16:51:16.056Z</time>
      </trkpt>
      <trkpt lat="48.40559" lon="-3.92217">
        <ele>337.441592</ele>
        <time>2023-05-01T16:51:20.059Z</time>
      </trkpt>
      <trkpt lat="48.40562" lon="-3.92203">
        <ele>337.693442</ele>
        <time>2023-05-01T16:51:24.061Z</time>
      </trkpt>
      <trkpt lat="48.40565" lon="-3.92188">
        <ele>337.952242</ele>
        <time>2023-05-01T16:51:28.063Z</time>
      </trkpt>
      <trkpt lat="48.40568" lon="-3.92174">
        <ele>338.194473</ele>
        <time>2023-05-01T16:51:32.056Z</time>
      </trkpt>
      <trkpt lat="48.40572" lon="-3.92161">
        <ele>338.437518</ele>
        <time>2023-05-01T16:51:36.067Z</time>
      </trkpt>
      <trkpt lat="48.40575" lon="-3.92146">
        <ele>338.692383</ele>
        <time>2023-05-01T16:51:40.063Z</time>
      </trkpt>
      <trkpt lat="48.40578" lon="-3.92131">
        <ele>338.963026</ele>
        <time>2023-05-01T16:51:44.057Z</time>
      </trkpt>
      <trkpt lat="48.40582" lon="-3.92117">
        <ele>339.208009</ele>
        <time>2023-05-01T16:51:48.058Z</time>
      </trkpt>
      <trkpt lat="48.40586" lon="-3.92103">
        <ele>339.454328</ele>
        <time>2023-05-01T16:51:52.051Z</time>
      </trkpt>
      <trkpt lat="48.40589" lon="-3.92089">
        <ele>339.709297</ele>
        <time>2023-05-01T16:51:56.055Z</time>
      </trkpt>
      <trkpt lat="48.40593" lon="-3.92075">
        <ele>339.96929</ele>
        <time>2023-05-01T16:52:00.054Z</time>
      </trkpt>
      <trkpt lat="48.40598" lon="-3.9206">
        <ele>340.245068</ele>
        <time>2023-05-01T16:52:04.061Z</time>
      </trkpt>
      <trkpt lat="48.40604" lon="-3.92045">
        <ele>340.526758</ele>
        <time>2023-05-01T16:52:08.049Z</time>
      </trkpt>
      <trkpt lat="48.40608" lon="-3.9203">
        <ele>340.741364</ele>
        <time>2023-05-01T16:52:12.053Z</time>
      </trkpt>
      <trkpt lat="48.40613" lon="-3.92017">
        <ele>340.934377</ele>
        <time>2023-05-01T16:52:16.057Z</time>
      </trkpt>
      <trkpt lat="48.40617" lon="-3.92005">
        <ele>341.103375</ele>
        <time>2023-05-01T16:52:20.058Z</time>
      </trkpt>
      <trkpt lat="48.40622" lon="-3.91992">
        <ele>341.282739</ele>
        <time>2023-05-01T16:52:24.058Z</time>
      </trkpt>
      <trkpt lat="48.40626" lon="-3.91978">
        <ele>341.473697</ele>
        <time>2023-05-01T16:52:28.059Z</time>
      </trkpt>
      <trkpt lat="48.40631" lon="-3.91964">
        <ele>341.671349</ele>
        <time>2023-05-01T16:52:32.053Z</time>
      </trkpt>
      <trkpt lat="48.40636" lon="-3.9195">
        <ele>341.868547</ele>
        <time>2023-05-01T16:52:36.086Z</time>
      </trkpt>
      <trkpt lat="48.40641" lon="-3.91936">
        <ele>342.065348</ele>
        <time>2023-05-01T16:52:40.053Z</time>
      </trkpt>
      <trkpt lat="48.40645" lon="-3.91922">
        <ele>342.258557</ele>
        <time>2023-05-01T16:52:44.057Z</time>
      </trkpt>
      <trkpt lat="48.40649" lon="-3.91907">
        <ele>342.457441</ele>
        <time>2023-05-01T16:52:48.060Z</time>
      </trkpt>
      <trkpt lat="48.40653" lon="-3.91894">
        <ele>342.644124</ele>
        <time>2023-05-01T16:52:52.047Z</time>
      </trkpt>
      <trkpt lat="48.40658" lon="-3.91881">
        <ele>342.82084</ele>
        <time>2023-05-01T16:52:56.056Z</time>
      </trkpt>
      <trkpt lat="48.40661" lon="-3.91865">
        <ele>343.036337</ele>
        <time>2023-05-01T16:53:01.055Z</time>
      </trkpt>
      <trkpt lat="48.40664" lon="-3.91852">
        <ele>343.206241</ele>
        <time>2023-05-01T16:53:05.051Z</time>
      </trkpt>
      <trkpt lat="48.40666" lon="-3.91838">
        <ele>343.375551</ele>
        <time>2023-05-01T16:53:09.058Z</time>
      </trkpt>
      <trkpt lat="48.40668" lon="-3.91824">
        <ele>343.556217</ele>
        <time>2023-05-01T16:53:13.052Z</time>
      </trkpt>
      <trkpt lat="48.4067" lon="-3.9181">
        <ele>343.736572</ele>
        <time>2023-05-01T16:53:17.060Z</time>
      </trkpt>
      <trkpt lat="48.40672" lon="-3.91797">
        <ele>343.908852</ele>
        <time>2023-05-01T16:53:21.058Z</time>
      </trkpt>
      <trkpt lat="48.40674" lon="-3.91783">
        <ele>344.150858</ele>
        <time>2023-05-01T16:53:25.054Z</time>
      </trkpt>
      <trkpt lat="48.40677" lon="-3.91769">
        <ele>344.428616</ele>
        <time>2023-05-01T16:53:29.052Z</time>
      </trkpt>
      <trkpt lat="48.40679" lon="-3.91755">
        <ele>344.709345</ele>
        <time>2023-05-01T16:53:33.056Z</time>
      </trkpt>
      <trkpt lat="48.4068" lon="-3.91741">
        <ele>344.982017</ele>
        <time>2023-05-01T16:53:37.062Z</time>
      </trkpt>
      <trkpt lat="48.40683" lon="-3.91724">
        <ele>345.297528</ele>
        <time>2023-05-01T16:53:42.058Z</time>
      </trkpt>
      <trkpt lat="48.40684" lon="-3.91711">
        <ele>345.558629</ele>
        <time>2023-05-01T16:53:46.062Z</time>
      </trkpt>
      <trkpt lat="48.40686" lon="-3.91698">
        <ele>345.819498</ele>
        <time>2023-05-01T16:53:50.060Z</time>
      </trkpt>
      <trkpt lat="48.40688" lon="-3.91683">
        <ele>346.097639</ele>
        <time>2023-05-01T16:53:55.058Z</time>
      </trkpt>
      <trkpt lat="48.40689" lon="-3.91667">
        <ele>346.41483</ele>
        <time>2023-05-01T16:54:00.057Z</time>
      </trkpt>
      <trkpt lat="48.40691" lon="-3.91653">
        <ele>346.676508</ele>
        <time>2023-05-01T16:54:04.059Z</time>
      </trkpt>
      <trkpt lat="48.40693" lon="-3.91639">
        <ele>346.94801</ele>
        <time>2023-05-01T16:54:08.061Z</time>
      </trkpt>
      <trkpt lat="48.40696" lon="-3.91625">
        <ele>347.223215</ele>
        <time>2023-05-01T16:54:12.053Z</time>
      </trkpt>
      <trkpt lat="48.40698" lon="-3.91612">
        <ele>347.497278</ele>
        <time>2023-05-01T16:54:16.044Z</time>
      </trkpt>
      <trkpt lat="48.40701" lon="-3.91598">
        <ele>347.771806</ele>
        <time>2023-05-01T16:54:20.057Z</time>
      </trkpt>
      <trkpt lat="48.40703" lon="-3.91584">
        <ele>348.047371</ele>
        <time>2023-05-01T16:54:24.059Z</time>
      </trkpt>
      <trkpt lat="48.40706" lon="-3.91571">
        <ele>348.314549</ele>
        <time>2023-05-01T16:54:28.056Z</time>
      </trkpt>
      <trkpt lat="48.40709" lon="-3.91558">
        <ele>348.576244</ele>
        <time>2023-05-01T16:54:32.053Z</time>
      </trkpt>
      <trkpt lat="48.40712" lon="-3.91541">
        <ele>348.899789</ele>
        <time>2023-05-01T16:54:37.053Z</time>
      </trkpt>
      <trkpt lat="48.40717" lon="-3.91526">
        <ele>349.161706</ele>
        <time>2023-05-01T16:54:42.055Z</time>
      </trkpt>
      <trkpt lat="48.40719" lon="-3.91513">
        <ele>349.254992</ele>
        <time>2023-05-01T16:54:46.057Z</time>
      </trkpt>
      <trkpt lat="48.40722" lon="-3.91498">
        <ele>349.356608</ele>
        <time>2023-05-01T16:54:51.053Z</time>
      </trkpt>
      <trkpt lat="48.40726" lon="-3.91484">
        <ele>349.462066</ele>
        <time>2023-05-01T16:54:56.053Z</time>
      </trkpt>
      <trkpt lat="48.40729" lon="-3.9147">
        <ele>349.560125</ele>
        <time>2023-05-01T16:55:01.052Z</time>
      </trkpt>
      <trkpt lat="48.40733" lon="-3.91457">
        <ele>349.655626</ele>
        <time>2023-05-01T16:55:06.060Z</time>
      </trkpt>
      <trkpt lat="48.40736" lon="-3.91442">
        <ele>349.762391</ele>
        <time>2023-05-01T16:55:11.052Z</time>
      </trkpt>
      <trkpt lat="48.41086" lon="-3.90415">
        <ele>364.28764</ele>
        <time>2023-05-01T17:01:10.052Z</time>
      </trkpt>
      <trkpt lat="48.41093" lon="-3.90401">
        <ele>365.116405</ele>
        <time>2023-05-01T17:01:13.053Z</time>
      </trkpt>
      <trkpt lat="48.41099" lon="-3.90391">
        <ele>365.763635</ele>
        <time>2023-05-01T17:01:17.058Z</time>
      </trkpt>
      <trkpt lat="48.41106" lon="-3.90378">
        <ele>366.555077</ele>
        <time>2023-05-01T17:01:22.058Z</time>
      </trkpt>
      <trkpt lat="48.41112" lon="-3.90365">
        <ele>367.30187</ele>
        <time>2023-05-01T17:01:27.059Z</time>
      </trkpt>
      <trkpt lat="48.41117" lon="-3.90352">
        <ele>368.035064</ele>
        <time>2023-05-01T17:01:32.054Z</time>
      </trkpt>
      <trkpt lat="48.41124" lon="-3.9034">
        <ele>368.788686</ele>
        <time>2023-05-01T17:01:37.058Z</time>
      </trkpt>
      <trkpt lat="48.41129" lon="-3.90327">
        <ele>369.44277</ele>
        <time>2023-05-01T17:01:42.055Z</time>
      </trkpt>
      <trkpt lat="48.41134" lon="-3.90313">
        <ele>369.857435</ele>
        <time>2023-05-01T17:01:47.056Z</time>
      </trkpt>
      <trkpt lat="48.4114" lon="-3.903">
        <ele>370.272528</ele>
        <time>2023-05-01T17:01:52.057Z</time>
      </trkpt>
      <trkpt lat="48.41145" lon="-3.90285">
        <ele>370.702551</ele>
        <time>2023-05-01T17:01:57.061Z</time>
      </trkpt>
      <trkpt lat="48.4115" lon="-3.90271">
        <ele>371.129454</ele>
        <time>2023-05-01T17:02:02.054Z</time>
      </trkpt>
      <trkpt lat="48.41155" lon="-3.90256">
        <ele>371.565995</ele>
        <time>2023-05-01T17:02:07.058Z</time>
      </trkpt>
      <trkpt lat="48.4116" lon="-3.90242">
        <ele>372.000216</ele>
        <time>2023-05-01T17:02:12.063Z</time>
      </trkpt>
      <trkpt lat="48.41164" lon="-3.90227">
        <ele>372.42267</ele>
        <time>2023-05-01T17:02:17.039Z</time>
      </trkpt>
      <trkpt lat="48.41169" lon="-3.90213">
        <ele>372.834665</ele>
        <time>2023-05-01T17:02:22.061Z</time>
      </trkpt>
      <trkpt lat="48.41173" lon="-3.90198">
        <ele>373.275769</ele>
        <time>2023-05-01T17:02:27.039Z</time>
      </trkpt>
      <trkpt lat="48.41177" lon="-3.90184">
        <ele>373.678715</ele>
        <time>2023-05-01T17:02:32.053Z</time>
      </trkpt>
      <trkpt lat="48.4118" lon="-3.90169">
        <ele>374.073812</ele>
        <time>2023-05-01T17:02:37.043Z</time>
      </trkpt>
      <trkpt lat="48.41184" lon="-3.90157">
        <ele>374.436042</ele>
        <time>2023-05-01T17:02:41.044Z</time>
      </trkpt>
      <trkpt lat="48.41188" lon="-3.90144">
        <ele>374.794233</ele>
        <time>2023-05-01T17:02:45.043Z</time>
      </trkpt>
      <trkpt lat="48.4119" lon="-3.90129">
        <ele>375.207546</ele>
        <time>2023-05-01T17:02:50.061Z</time>
      </trkpt>
      <trkpt lat="48.41193" lon="-3.90115">
        <ele>375.611405</ele>
        <time>2023-05-01T17:02:55.062Z</time>
      </trkpt>
      <trkpt lat="48.41196" lon="-3.90098">
        <ele>376.047875</ele>
        <time>2023-05-01T17:03:00.049Z</time>
      </trkpt>
      <trkpt lat="48.41198" lon="-3.90083">
        <ele>376.476188</ele>
        <time>2023-05-01T17:03:05.061Z</time>
      </trkpt>
      <trkpt lat="48.412" lon="-3.90069">
        <ele>376.790286</ele>
        <time>2023-05-01T17:03:09.061Z</time>
      </trkpt>
      <trkpt lat="48.41202" lon="-3.90054">
        <ele>377.146326</ele>
        <time>2023-05-01T17:03:14.055Z</time>
      </trkpt>
      <trkpt lat="48.41204" lon="-3.90039">
        <ele>377.495735</ele>
        <time>2023-05-01T17:03:19.062Z</time>
      </trkpt>
      <trkpt lat="48.41207" lon="-3.90023">
        <ele>377.87335</ele>
        <time>2023-05-01T17:03:24.059Z</time>
      </trkpt>
      <trkpt lat="48.41208" lon="-3.9001">
        <ele>378.184412</ele>
        <time>2023-05-01T17:03:28.059Z</time>
      </trkpt>
      <trkpt lat="48.4121" lon="-3.89996">
        <ele>378.506281</ele>
        <time>2023-05-01T17:03:32.065Z</time>
      </trkpt>
      <trkpt lat="48.41212" lon="-3.89979">
        <ele>378.889968</ele>
        <time>2023-05-01T17:03:37.061Z</time>
      </trkpt>
      <trkpt lat="48.41213" lon="-3.89963">
        <ele>379.262633</ele>
        <time>2023-05-01T17:03:42.063Z</time>
      </trkpt>
      <trkpt lat="48.41214" lon="-3.89949">
        <ele>379.576435</ele>
        <time>2023-05-01T17:03:46.061Z</time>
      </trkpt>
      <trkpt lat="48.41215" lon="-3.89936">
        <ele>379.894754</ele>
        <time>2023-05-01T17:03:50.059Z</time>
      </trkpt>
      <trkpt lat="48.41215" lon="-3.89919">
        <ele>380.278442</ele>
        <time>2023-05-01T17:03:55.041Z</time>
      </trkpt>
      <trkpt lat="48.41215" lon="-3.89905">
        <ele>380.594072</ele>
        <time>2023-05-01T17:03:59.061Z</time>
      </trkpt>
      <trkpt lat="48.41215" lon="-3.89889">
        <ele>380.957208</ele>
        <time>2023-05-01T17:04:03.063Z</time>
      </trkpt>
      <trkpt lat="48.41215" lon="-3.89875">
        <ele>381.276936</ele>
        <time>2023-05-01T17:04:07.067Z</time>
      </trkpt>
      <trkpt lat="48.41214" lon="-3.8986">
        <ele>381.622882</ele>
        <time>2023-05-01T17:04:12.057Z</time>
      </trkpt>
      <trkpt lat="48.41213" lon="-3.89844">
        <ele>381.989902</ele>
        <time>2023-05-01T17:04:17.067Z</time>
      </trkpt>
      <trkpt lat="48.41212" lon="-3.8983">
        <ele>382.305981</ele>
        <time>2023-05-01T17:04:21.058Z</time>
      </trkpt>
      <trkpt lat="48.41211" lon="-3.89817">
        <ele>382.619778</ele>
        <time>2023-05-01T17:04:25.061Z</time>
      </trkpt>
      <trkpt lat="48.41209" lon="-3.898">
        <ele>383.158805</ele>
        <time>2023-05-01T17:04:30.054Z</time>
      </trkpt>
      <trkpt lat="48.41207" lon="-3.89784">
        <ele>383.713738</ele>
        <time>2023-05-01T17:04:35.060Z</time>
      </trkpt>
      <trkpt lat="48.41206" lon="-3.8977">
        <ele>384.232863</ele>
        <time>2023-05-01T17:04:40.056Z</time>
      </trkpt>
      <trkpt lat="48.41205" lon="-3.89754">
        <ele>384.780255</ele>
        <time>2023-05-01T17:04:45.064Z</time>
      </trkpt>
      <trkpt lat="48.41203" lon="-3.8974">
        <ele>385.265886</ele>
        <time>2023-05-01T17:04:49.054Z</time>
      </trkpt>
      <trkpt lat="48.41202" lon="-3.89725">
        <ele>385.805701</ele>
        <time>2023-05-01T17:04:54.068Z</time>
      </trkpt>
      <trkpt lat="48.412" lon="-3.8971">
        <ele>386.346939</ele>
        <time>2023-05-01T17:04:59.060Z</time>
      </trkpt>
      <trkpt lat="48.41198" lon="-3.89694">
        <ele>386.879508</ele>
        <time>2023-05-01T17:05:04.064Z</time>
      </trkpt>
      <trkpt lat="48.41197" lon="-3.89679">
        <ele>387.433125</ele>
        <time>2023-05-01T17:05:09.054Z</time>
      </trkpt>
      <trkpt lat="48.41196" lon="-3.89663">
        <ele>387.969882</ele>
        <time>2023-05-01T17:05:14.059Z</time>
      </trkpt>
      <trkpt lat="48.41196" lon="-3.89647">
        <ele>388.519693</ele>
        <time>2023-05-01T17:05:19.058Z</time>
      </trkpt>
      <trkpt lat="48.41195" lon="-3.89632">
        <ele>389.060195</ele>
        <time>2023-05-01T17:05:24.061Z</time>
      </trkpt>
      <trkpt lat="48.41194" lon="-3.89618">
        <ele>389.536</ele>
        <time>2023-05-01T17:05:30.057Z</time>
      </trkpt>
      <trkpt lat="48.41193" lon="-3.896">
        <ele>390.172431</ele>
        <time>2023-05-01T17:13:30.052Z</time>
      </trkpt>
      <trkpt lat="48.41192" lon="-3.89584">
        <ele>390.725582</ele>
        <time>2023-05-01T17:13:36.066Z</time>
      </trkpt>
      <trkpt lat="48.41185" lon="-3.89572">
        <ele>391.277743</ele>
        <time>2023-05-01T17:13:42.060Z</time>
      </trkpt>
      <trkpt lat="48.41178" lon="-3.8956">
        <ele>391.827188</ele>
        <time>2023-05-01T17:13:47.060Z</time>
      </trkpt>
      <trkpt lat="48.41178" lon="-3.89545">
        <ele>392.249149</ele>
        <time>2023-05-01T17:13:53.059Z</time>
      </trkpt>
      <trkpt lat="48.4118" lon="-3.89531">
        <ele>392.510216</ele>
        <time>2023-05-01T17:13:57.067Z</time>
      </trkpt>
      <trkpt lat="48.4118" lon="-3.89514">
        <ele>392.811943</ele>
        <time>2023-05-01T17:14:01.067Z</time>
      </trkpt>
      <trkpt lat="48.41178" lon="-3.89498">
        <ele>393.113702</ele>
        <time>2023-05-01T17:14:06.063Z</time>
      </trkpt>
      <trkpt lat="48.41177" lon="-3.89484">
        <ele>393.380896</ele>
        <time>2023-05-01T17:14:10.058Z</time>
      </trkpt>
      <trkpt lat="48.41175" lon="-3.89469">
        <ele>393.664152</ele>
        <time>2023-05-01T17:14:14.060Z</time>
      </trkpt>
      <trkpt lat="48.41174" lon="-3.89454">
        <ele>393.950422</ele>
        <time>2023-05-01T17:14:18.060Z</time>
      </trkpt>
      <trkpt lat="48.41174" lon="-3.89438">
        <ele>394.240651</ele>
        <time>2023-05-01T17:14:22.062Z</time>
      </trkpt>
      <trkpt lat="48.41173" lon="-3.89424">
        <ele>394.502204</ele>
        <time>2023-05-01T17:14:26.060Z</time>
      </trkpt>
      <trkpt lat="48.41171" lon="-3.89409">
        <ele>394.77485</ele>
        <time>2023-05-01T17:14:31.056Z</time>
      </trkpt>
      <trkpt lat="48.41171" lon="-3.89396">
        <ele>395.028809</ele>
        <time>2023-05-01T17:14:35.060Z</time>
      </trkpt>
      <trkpt lat="48.4117" lon="-3.89382">
        <ele>395.289058</ele>
        <time>2023-05-01T17:14:39.067Z</time>
      </trkpt>
      <trkpt lat="48.41169" lon="-3.89367">
        <ele>395.55982</ele>
        <time>2023-05-01T17:14:43.064Z</time>
      </trkpt>
      <trkpt lat="48.41168" lon="-3.89351">
        <ele>395.850649</ele>
        <time>2023-05-01T17:14:47.064Z</time>
      </trkpt>
      <trkpt lat="48.41168" lon="-3.89336">
        <ele>396.131707</ele>
        <time>2023-05-01T17:14:51.057Z</time>
      </trkpt>
      <trkpt lat="48.41167" lon="-3.8932">
        <ele>396.422736</ele>
        <time>2023-05-01T17:14:55.099Z</time>
      </trkpt>
      <trkpt lat="48.41166" lon="-3.89304">
        <ele>396.72631</ele>
        <time>2023-05-01T17:14:59.065Z</time>
      </trkpt>
      <trkpt lat="48.41165" lon="-3.8929">
        <ele>396.981046</ele>
        <time>2023-05-01T17:15:03.066Z</time>
      </trkpt>
      <trkpt lat="48.41166" lon="-3.89268">
        <ele>397.137219</ele>
        <time>2023-05-01T17:16:08.068Z</time>
      </trkpt>
      <trkpt lat="48.41164" lon="-3.89253">
        <ele>397.151602</ele>
        <time>2023-05-01T17:16:12.066Z</time>
      </trkpt>
      <trkpt lat="48.41163" lon="-3.89236">
        <ele>397.167111</ele>
        <time>2023-05-01T17:16:16.070Z</time>
      </trkpt>
      <trkpt lat="48.41162" lon="-3.89221">
        <ele>397.181456</ele>
        <time>2023-05-01T17:16:20.061Z</time>
      </trkpt>
      <trkpt lat="48.4116" lon="-3.89205">
        <ele>397.196218</ele>
        <time>2023-05-01T17:16:24.065Z</time>
      </trkpt>
      <trkpt lat="48.41159" lon="-3.89188">
        <ele>397.212867</ele>
        <time>2023-05-01T17:16:28.070Z</time>
      </trkpt>
      <trkpt lat="48.41158" lon="-3.89173">
        <ele>397.226177</ele>
        <time>2023-05-01T17:16:31.058Z</time>
      </trkpt>
      <trkpt lat="48.41157" lon="-3.8916">
        <ele>397.239238</ele>
        <time>2023-05-01T17:16:34.063Z</time>
      </trkpt>
      <trkpt lat="48.41156" lon="-3.89142">
        <ele>397.255813</ele>
        <time>2023-05-01T17:16:38.064Z</time>
      </trkpt>
      <trkpt lat="48.41155" lon="-3.89127">
        <ele>397.269947</ele>
        <time>2023-05-01T17:16:41.063Z</time>
      </trkpt>
      <trkpt lat="48.41154" lon="-3.89112">
        <ele>397.283842</ele>
        <time>2023-05-01T17:16:44.058Z</time>
      </trkpt>
      <trkpt lat="48.41153" lon="-3.89098">
        <ele>397.297351</ele>
        <time>2023-05-01T17:16:47.067Z</time>
      </trkpt>
      <trkpt lat="48.41152" lon="-3.8908">
        <ele>397.313503</ele>
        <time>2023-05-01T17:16:51.056Z</time>
      </trkpt>
      <trkpt lat="48.41151" lon="-3.89064">
        <ele>397.328661</ele>
        <time>2023-05-01T17:16:55.062Z</time>
      </trkpt>
      <trkpt lat="48.4115" lon="-3.89037">
        <ele>397.354366</ele>
        <time>2023-05-01T17:17:22.059Z</time>
      </trkpt>
      <trkpt lat="48.41149" lon="-3.8902">
        <ele>397.370175</ele>
        <time>2023-05-01T17:17:26.065Z</time>
      </trkpt>
      <trkpt lat="48.41149" lon="-3.89003">
        <ele>397.275531</ele>
        <time>2023-05-01T17:17:30.056Z</time>
      </trkpt>
      <trkpt lat="48.41146" lon="-3.88985">
        <ele>397.101851</ele>
        <time>2023-05-01T17:17:34.060Z</time>
      </trkpt>
      <trkpt lat="48.41145" lon="-3.8897">
        <ele>396.947451</ele>
        <time>2023-05-01T17:17:37.063Z</time>
      </trkpt>
      <trkpt lat="48.41144" lon="-3.88953">
        <ele>396.785253</ele>
        <time>2023-05-01T17:17:40.067Z</time>
      </trkpt>
      <trkpt lat="48.41143" lon="-3.88936">
        <ele>396.612052</ele>
        <time>2023-05-01T17:17:43.046Z</time>
      </trkpt>
      <trkpt lat="48.41142" lon="-3.88918">
        <ele>396.444237</ele>
        <time>2023-05-01T17:17:46.069Z</time>
      </trkpt>
      <trkpt lat="48.41141" lon="-3.88902">
        <ele>396.277852</ele>
        <time>2023-05-01T17:17:49.056Z</time>
      </trkpt>
      <trkpt lat="48.41139" lon="-3.88885">
        <ele>396.114159</ele>
        <time>2023-05-01T17:17:52.063Z</time>
      </trkpt>
      <trkpt lat="48.41138" lon="-3.88869">
        <ele>395.952936</ele>
        <time>2023-05-01T17:17:55.042Z</time>
      </trkpt>
      <trkpt lat="48.41137" lon="-3.88853">
        <ele>395.803408</ele>
        <time>2023-05-01T17:17:58.061Z</time>
      </trkpt>
      <trkpt lat="48.41136" lon="-3.88839">
        <ele>395.663275</ele>
        <time>2023-05-01T17:18:01.061Z</time>
      </trkpt>
      <trkpt lat="48.41135" lon="-3.88823">
        <ele>395.507753</ele>
        <time>2023-05-01T17:18:04.059Z</time>
      </trkpt>
      <trkpt lat="48.41134" lon="-3.88807">
        <ele>395.344913</ele>
        <time>2023-05-01T17:18:07.057Z</time>
      </trkpt>
      <trkpt lat="48.41133" lon="-3.88788">
        <ele>395.161133</ele>
        <time>2023-05-01T17:18:10.055Z</time>
      </trkpt>
      <trkpt lat="48.41131" lon="-3.88769">
        <ele>394.970394</ele>
        <time>2023-05-01T17:18:13.051Z</time>
      </trkpt>
      <trkpt lat="48.4113" lon="-3.8875">
        <ele>394.786478</ele>
        <time>2023-05-01T17:18:16.061Z</time>
      </trkpt>
      <trkpt lat="48.41129" lon="-3.88732">
        <ele>394.577709</ele>
        <time>2023-05-01T17:18:19.066Z</time>
      </trkpt>
      <trkpt lat="48.41128" lon="-3.88715">
        <ele>394.352103</ele>
        <time>2023-05-01T17:18:22.061Z</time>
      </trkpt>
      <trkpt lat="48.41128" lon="-3.88698">
        <ele>394.134725</ele>
        <time>2023-05-01T17:18:25.062Z</time>
      </trkpt>
      <trkpt lat="48.41126" lon="-3.88681">
        <ele>393.915725</ele>
        <time>2023-05-01T17:18:28.058Z</time>
      </trkpt>
      <trkpt lat="48.41126" lon="-3.88664">
        <ele>393.699802</ele>
        <time>2023-05-01T17:18:31.056Z</time>
      </trkpt>
      <trkpt lat="48.41125" lon="-3.88647">
        <ele>393.480594</ele>
        <time>2023-05-01T17:18:34.061Z</time>
      </trkpt>
      <trkpt lat="48.41123" lon="-3.8863">
        <ele>393.255692</ele>
        <time>2023-05-01T17:18:37.061Z</time>
      </trkpt>
      <trkpt lat="48.41122" lon="-3.88611">
        <ele>393.016745</ele>
        <time>2023-05-01T17:18:40.063Z</time>
      </trkpt>
      <trkpt lat="48.4112" lon="-3.88592">
        <ele>392.766139</ele>
        <time>2023-05-01T17:18:43.072Z</time>
      </trkpt>
      <trkpt lat="48.41119" lon="-3.88572">
        <ele>392.508895</ele>
        <time>2023-05-01T17:18:46.075Z</time>
      </trkpt>
      <trkpt lat="48.41118" lon="-3.88558">
        <ele>392.328409</ele>
        <time>2023-05-01T17:18:48.068Z</time>
      </trkpt>
      <trkpt lat="48.41117" lon="-3.88544">
        <ele>392.148329</ele>
        <time>2023-05-01T17:18:50.059Z</time>
      </trkpt>
      <trkpt lat="48.41117" lon="-3.88529">
        <ele>391.955422</ele>
        <time>2023-05-01T17:18:52.064Z</time>
      </trkpt>
      <trkpt lat="48.41116" lon="-3.88514">
        <ele>391.753535</ele>
        <time>2023-05-01T17:18:54.064Z</time>
      </trkpt>
      <trkpt lat="48.41114" lon="-3.88498">
        <ele>391.549818</ele>
        <time>2023-05-01T17:18:56.069Z</time>
      </trkpt>
      <trkpt lat="48.41114" lon="-3.88483">
        <ele>391.356678</ele>
        <time>2023-05-01T17:18:58.064Z</time>
      </trkpt>
      <trkpt lat="48.41112" lon="-3.88465">
        <ele>391.110515</ele>
        <time>2023-05-01T17:19:00.059Z</time>
      </trkpt>
      <trkpt lat="48.41111" lon="-3.88449">
        <ele>390.858976</ele>
        <time>2023-05-01T17:19:02.066Z</time>
      </trkpt>
      <trkpt lat="48.4111" lon="-3.88431">
        <ele>390.583977</ele>
        <time>2023-05-01T17:19:04.069Z</time>
      </trkpt>
      <trkpt lat="48.41108" lon="-3.88412">
        <ele>390.304226</ele>
        <time>2023-05-01T17:19:06.067Z</time>
      </trkpt>
      <trkpt lat="48.41107" lon="-3.88394">
        <ele>390.034944</ele>
        <time>2023-05-01T17:19:08.063Z</time>
      </trkpt>
      <trkpt lat="48.41105" lon="-3.88376">
        <ele>389.762677</ele>
        <time>2023-05-01T17:19:10.058Z</time>
      </trkpt>
      <trkpt lat="48.41104" lon="-3.88359">
        <ele>389.498984</ele>
        <time>2023-05-01T17:19:12.064Z</time>
      </trkpt>
      <trkpt lat="48.41103" lon="-3.88341">
        <ele>389.230305</ele>
        <time>2023-05-01T17:19:14.067Z</time>
      </trkpt>
      <trkpt lat="48.41102" lon="-3.88324">
        <ele>388.972205</ele>
        <time>2023-05-01T17:19:16.062Z</time>
      </trkpt>
      <trkpt lat="48.41101" lon="-3.88307">
        <ele>388.70962</ele>
        <time>2023-05-01T17:19:18.059Z</time>
      </trkpt>
      <trkpt lat="48.411" lon="-3.8829">
        <ele>388.462731</ele>
        <time>2023-05-01T17:19:20.061Z</time>
      </trkpt>
      <trkpt lat="48.41098" lon="-3.88273">
        <ele>388.20658</ele>
        <time>2023-05-01T17:19:22.062Z</time>
      </trkpt>
      <trkpt lat="48.41097" lon="-3.88257">
        <ele>387.95745</ele>
        <time>2023-05-01T17:19:24.061Z</time>
      </trkpt>
      <trkpt lat="48.41096" lon="-3.8824">
        <ele>387.69832</ele>
        <time>2023-05-01T17:19:26.062Z</time>
      </trkpt>
      <trkpt lat="48.41095" lon="-3.88223">
        <ele>387.448105</ele>
        <time>2023-05-01T17:19:28.060Z</time>
      </trkpt>
      <trkpt lat="48.41094" lon="-3.88206">
        <ele>387.196199</ele>
        <time>2023-05-01T17:19:30.059Z</time>
      </trkpt>
      <trkpt lat="48.41093" lon="-3.8819">
        <ele>386.99462</ele>
        <time>2023-05-01T17:19:32.067Z</time>
      </trkpt>
      <trkpt lat="48.41092" lon="-3.88173">
        <ele>386.793062</ele>
        <time>2023-05-01T17:19:34.064Z</time>
      </trkpt>
      <trkpt lat="48.41091" lon="-3.88155">
        <ele>386.588909</ele>
        <time>2023-05-01T17:19:36.059Z</time>
      </trkpt>
      <trkpt lat="48.4109" lon="-3.88138">
        <ele>386.378592</ele>
        <time>2023-05-01T17:19:38.062Z</time>
      </trkpt>
      <trkpt lat="48.41089" lon="-3.8812">
        <ele>386.170255</ele>
        <time>2023-05-01T17:19:40.063Z</time>
      </trkpt>
      <trkpt lat="48.41086" lon="-3.88102">
        <ele>385.949143</ele>
        <time>2023-05-01T17:19:42.064Z</time>
      </trkpt>
      <trkpt lat="48.41085" lon="-3.88083">
        <ele>385.730086</ele>
        <time>2023-05-01T17:19:44.067Z</time>
      </trkpt>
      <trkpt lat="48.41083" lon="-3.88064">
        <ele>385.498704</ele>
        <time>2023-05-01T17:19:46.063Z</time>
      </trkpt>
      <trkpt lat="48.41081" lon="-3.88044">
        <ele>385.271489</ele>
        <time>2023-05-01T17:19:48.076Z</time>
      </trkpt>
      <trkpt lat="48.41079" lon="-3.88026">
        <ele>385.04749</ele>
        <time>2023-05-01T17:19:50.057Z</time>
      </trkpt>
      <trkpt lat="48.41077" lon="-3.88008">
        <ele>384.831618</ele>
        <time>2023-05-01T17:19:52.063Z</time>
      </trkpt>
      <trkpt lat="48.41074" lon="-3.87987">
        <ele>384.579672</ele>
        <time>2023-05-01T17:19:54.062Z</time>
      </trkpt>
      <trkpt lat="48.41071" lon="-3.87966">
        <ele>384.331554</ele>
        <time>2023-05-01T17:19:56.064Z</time>
      </trkpt>
      <trkpt lat="48.41068" lon="-3.87945">
        <ele>384.076537</ele>
        <time>2023-05-01T17:19:58.066Z</time>
      </trkpt>
      <trkpt lat="48.41065" lon="-3.87924">
        <ele>383.803797</ele>
        <time>2023-05-01T17:20:00.057Z</time>
      </trkpt>
      <trkpt lat="48.41063" lon="-3.87902">
        <ele>383.522347</ele>
        <time>2023-05-01T17:20:02.063Z</time>
      </trkpt>
      <trkpt lat="48.4106" lon="-3.87881">
        <ele>383.242011</ele>
        <time>2023-05-01T17:20:04.052Z</time>
      </trkpt>
      <trkpt lat="48.41057" lon="-3.87859">
        <ele>382.953267</ele>
        <time>2023-05-01T17:20:06.065Z</time>
      </trkpt>
      <trkpt lat="48.41055" lon="-3.87837">
        <ele>382.666057</ele>
        <time>2023-05-01T17:20:08.061Z</time>
      </trkpt>
      <trkpt lat="48.41052" lon="-3.87815">
        <ele>382.378585</ele>
        <time>2023-05-01T17:20:10.058Z</time>
      </trkpt>
      <trkpt lat="48.4105" lon="-3.87794">
        <ele>382.094945</ele>
        <time>2023-05-01T17:20:12.067Z</time>
      </trkpt>
      <trkpt lat="48.41047" lon="-3.87773">
        <ele>381.825</ele>
        <time>2023-05-01T17:20:14.060Z</time>
      </trkpt>
      <trkpt lat="48.41045" lon="-3.87753">
        <ele>381.554323</ele>
        <time>2023-05-01T17:20:16.064Z</time>
      </trkpt>
      <trkpt lat="48.41042" lon="-3.87732">
        <ele>381.280721</ele>
        <time>2023-05-01T17:20:18.060Z</time>
      </trkpt>
      <trkpt lat="48.41039" lon="-3.87712">
        <ele>381.018415</ele>
        <time>2023-05-01T17:20:20.062Z</time>
      </trkpt>
      <trkpt lat="48.41037" lon="-3.87692">
        <ele>380.750091</ele>
        <time>2023-05-01T17:20:22.070Z</time>
      </trkpt>
      <trkpt lat="48.41035" lon="-3.87673">
        <ele>380.501576</ele>
        <time>2023-05-01T17:20:24.063Z</time>
      </trkpt>
      <trkpt lat="48.41032" lon="-3.87653">
        <ele>380.341574</ele>
        <time>2023-05-01T17:20:26.066Z</time>
      </trkpt>
      <trkpt lat="48.4103" lon="-3.87635">
        <ele>380.196584</ele>
        <time>2023-05-01T17:20:28.069Z</time>
      </trkpt>
      <trkpt lat="48.41028" lon="-3.87616">
        <ele>380.051954</ele>
        <time>2023-05-01T17:20:30.059Z</time>
      </trkpt>
      <trkpt lat="48.41025" lon="-3.87596">
        <ele>379.90135</ele>
        <time>2023-05-01T17:20:32.068Z</time>
      </trkpt>
      <trkpt lat="48.41022" lon="-3.87578">
        <ele>379.756595</ele>
        <time>2023-05-01T17:20:34.065Z</time>
      </trkpt>
      <trkpt lat="48.4102" lon="-3.8756">
        <ele>379.61801</ele>
        <time>2023-05-01T17:20:36.065Z</time>
      </trkpt>
      <trkpt lat="48.41018" lon="-3.87542">
        <ele>379.482345</ele>
        <time>2023-05-01T17:20:38.064Z</time>
      </trkpt>
      <trkpt lat="48.41016" lon="-3.87524">
        <ele>379.34593</ele>
        <time>2023-05-01T17:20:40.050Z</time>
      </trkpt>
      <trkpt lat="48.41014" lon="-3.87508">
        <ele>379.221619</ele>
        <time>2023-05-01T17:20:42.057Z</time>
      </trkpt>
      <trkpt lat="48.41012" lon="-3.87493">
        <ele>379.101244</ele>
        <time>2023-05-01T17:20:44.061Z</time>
      </trkpt>
      <trkpt lat="48.4101" lon="-3.87478">
        <ele>378.984804</ele>
        <time>2023-05-01T17:20:46.060Z</time>
      </trkpt>
      <trkpt lat="48.41008" lon="-3.87463">
        <ele>378.871116</ele>
        <time>2023-05-01T17:20:48.064Z</time>
      </trkpt>
      <trkpt lat="48.41006" lon="-3.87448">
        <ele>378.753488</ele>
        <time>2023-05-01T17:20:50.056Z</time>
      </trkpt>
      <trkpt lat="48.41005" lon="-3.87433">
        <ele>378.637452</ele>
        <time>2023-05-01T17:20:52.056Z</time>
      </trkpt>
      <trkpt lat="48.41003" lon="-3.87418">
        <ele>378.524771</ele>
        <time>2023-05-01T17:20:54.063Z</time>
      </trkpt>
      <trkpt lat="48.41001" lon="-3.87403">
        <ele>378.409254</ele>
        <time>2023-05-01T17:20:56.061Z</time>
      </trkpt>
      <trkpt lat="48.41" lon="-3.87388">
        <ele>378.269861</ele>
        <time>2023-05-01T17:20:58.061Z</time>
      </trkpt>
      <trkpt lat="48.40998" lon="-3.87373">
        <ele>378.127473</ele>
        <time>2023-05-01T17:21:00.049Z</time>
      </trkpt>
      <trkpt lat="48.40996" lon="-3.87358">
        <ele>377.985444</ele>
        <time>2023-05-01T17:21:02.067Z</time>
      </trkpt>
      <trkpt lat="48.40994" lon="-3.87344">
        <ele>377.848815</ele>
        <time>2023-05-01T17:21:04.063Z</time>
      </trkpt>
      <trkpt lat="48.40992" lon="-3.87329">
        <ele>377.704595</ele>
        <time>2023-05-01T17:21:06.063Z</time>
      </trkpt>
      <trkpt lat="48.4099" lon="-3.87313">
        <ele>377.557089</ele>
        <time>2023-05-01T17:21:08.067Z</time>
      </trkpt>
      <trkpt lat="48.40988" lon="-3.87298">
        <ele>377.409296</ele>
        <time>2023-05-01T17:21:10.059Z</time>
      </trkpt>
      <trkpt lat="48.40986" lon="-3.87283">
        <ele>377.267408</ele>
        <time>2023-05-01T17:21:12.067Z</time>
      </trkpt>
      <trkpt lat="48.40984" lon="-3.87268">
        <ele>377.122272</ele>
        <time>2023-05-01T17:21:14.060Z</time>
      </trkpt>
      <trkpt lat="48.40983" lon="-3.87253">
        <ele>376.980613</ele>
        <time>2023-05-01T17:21:16.051Z</time>
      </trkpt>
      <trkpt lat="48.40981" lon="-3.87238">
        <ele>376.841481</ele>
        <time>2023-05-01T17:21:18.066Z</time>
      </trkpt>
      <trkpt lat="48.40979" lon="-3.87223">
        <ele>376.703268</ele>
        <time>2023-05-01T17:21:20.066Z</time>
      </trkpt>
      <trkpt lat="48.40977" lon="-3.87208">
        <ele>376.56061</ele>
        <time>2023-05-01T17:21:22.068Z</time>
      </trkpt>
      <trkpt lat="48.40976" lon="-3.87193">
        <ele>376.419396</ele>
        <time>2023-05-01T17:21:24.060Z</time>
      </trkpt>
      <trkpt lat="48.40974" lon="-3.87178">
        <ele>376.276738</ele>
        <time>2023-05-01T17:21:26.069Z</time>
      </trkpt>
      <trkpt lat="48.40972" lon="-3.87165">
        <ele>376.146782</ele>
        <time>2023-05-01T17:21:28.071Z</time>
      </trkpt>
      <trkpt lat="48.4097" lon="-3.8715">
        <ele>376.008569</ele>
        <time>2023-05-01T17:21:30.061Z</time>
      </trkpt>
      <trkpt lat="48.40968" lon="-3.87136">
        <ele>375.862621</ele>
        <time>2023-05-01T17:21:32.061Z</time>
      </trkpt>
      <trkpt lat="48.40966" lon="-3.87117">
        <ele>375.549908</ele>
        <time>2023-05-01T17:21:35.054Z</time>
      </trkpt>
      <trkpt lat="48.40965" lon="-3.87103">
        <ele>375.325143</ele>
        <time>2023-05-01T17:21:37.064Z</time>
      </trkpt>
      <trkpt lat="48.40964" lon="-3.87088">
        <ele>375.096773</ele>
        <time>2023-05-01T17:21:39.066Z</time>
      </trkpt>
      <trkpt lat="48.40962" lon="-3.87075">
        <ele>374.882593</ele>
        <time>2023-05-01T17:21:41.070Z</time>
      </trkpt>
      <trkpt lat="48.4096" lon="-3.87061">
        <ele>374.662819</ele>
        <time>2023-05-01T17:21:43.068Z</time>
      </trkpt>
      <trkpt lat="48.40957" lon="-3.87041">
        <ele>374.34347</ele>
        <time>2023-05-01T17:21:46.066Z</time>
      </trkpt>
      <trkpt lat="48.40956" lon="-3.87022">
        <ele>374.039196</ele>
        <time>2023-05-01T17:21:49.057Z</time>
      </trkpt>
      <trkpt lat="48.40953" lon="-3.87003">
        <ele>373.731346</ele>
        <time>2023-05-01T17:21:52.064Z</time>
      </trkpt>
      <trkpt lat="48.40952" lon="-3.86984">
        <ele>373.426619</ele>
        <time>2023-05-01T17:21:55.063Z</time>
      </trkpt>
      <trkpt lat="48.4095" lon="-3.86964">
        <ele>373.10199</ele>
        <time>2023-05-01T17:21:58.061Z</time>
      </trkpt>
      <trkpt lat="48.40949" lon="-3.8695">
        <ele>372.879638</ele>
        <time>2023-05-01T17:22:00.059Z</time>
      </trkpt>
      <trkpt lat="48.40947" lon="-3.86935">
        <ele>372.637658</ele>
        <time>2023-05-01T17:22:02.067Z</time>
      </trkpt>
      <trkpt lat="48.40946" lon="-3.86919">
        <ele>372.388627</ele>
        <time>2023-05-01T17:22:04.062Z</time>
      </trkpt>
      <trkpt lat="48.40946" lon="-3.86902">
        <ele>372.118118</ele>
        <time>2023-05-01T17:22:06.063Z</time>
      </trkpt>
      <trkpt lat="48.40946" lon="-3.86884">
        <ele>371.843385</ele>
        <time>2023-05-01T17:22:08.061Z</time>
      </trkpt>
      <trkpt lat="48.40946" lon="-3.86867">
        <ele>371.532559</ele>
        <time>2023-05-01T17:22:10.059Z</time>
      </trkpt>
      <trkpt lat="48.40947" lon="-3.86848">
        <ele>371.062848</ele>
        <time>2023-05-01T17:22:12.061Z</time>
      </trkpt>
      <trkpt lat="48.40947" lon="-3.86828">
        <ele>370.565701</ele>
        <time>2023-05-01T17:22:14.070Z</time>
      </trkpt>
      <trkpt lat="48.40949" lon="-3.86808">
        <ele>370.06121</ele>
        <time>2023-05-01T17:22:16.065Z</time>
      </trkpt>
      <trkpt lat="48.40949" lon="-3.86787">
        <ele>369.556839</ele>
        <time>2023-05-01T17:22:18.063Z</time>
      </trkpt>
      <trkpt lat="48.4095" lon="-3.86765">
        <ele>369.014286</ele>
        <time>2023-05-01T17:22:20.062Z</time>
      </trkpt>
      <trkpt lat="48.40951" lon="-3.86744">
        <ele>368.467407</ele>
        <time>2023-05-01T17:22:22.066Z</time>
      </trkpt>
      <trkpt lat="48.40952" lon="-3.86722">
        <ele>367.929813</ele>
        <time>2023-05-01T17:22:24.073Z</time>
      </trkpt>
      <trkpt lat="48.40953" lon="-3.86699">
        <ele>367.369405</ele>
        <time>2023-05-01T17:22:26.062Z</time>
      </trkpt>
      <trkpt lat="48.40954" lon="-3.86677">
        <ele>366.80971</ele>
        <time>2023-05-01T17:22:28.065Z</time>
      </trkpt>
      <trkpt lat="48.40955" lon="-3.86654">
        <ele>366.240573</ele>
        <time>2023-05-01T17:22:30.057Z</time>
      </trkpt>
      <trkpt lat="48.40955" lon="-3.86631">
        <ele>365.656647</ele>
        <time>2023-05-01T17:22:32.066Z</time>
      </trkpt>
      <trkpt lat="48.40955" lon="-3.86607">
        <ele>365.07787</ele>
        <time>2023-05-01T17:22:34.068Z</time>
      </trkpt>
      <trkpt lat="48.40954" lon="-3.86584">
        <ele>364.552699</ele>
        <time>2023-05-01T17:22:36.099Z</time>
      </trkpt>
      <trkpt lat="48.40952" lon="-3.86561">
        <ele>364.040131</ele>
        <time>2023-05-01T17:22:38.067Z</time>
      </trkpt>
      <trkpt lat="48.40949" lon="-3.86537">
        <ele>363.525849</ele>
        <time>2023-05-01T17:22:40.066Z</time>
      </trkpt>
      <trkpt lat="48.40945" lon="-3.86514">
        <ele>363.001443</ele>
        <time>2023-05-01T17:22:42.061Z</time>
      </trkpt>
      <trkpt lat="48.4094" lon="-3.86491">
        <ele>362.469626</ele>
        <time>2023-05-01T17:22:44.063Z</time>
      </trkpt>
      <trkpt lat="48.40935" lon="-3.86466">
        <ele>361.911265</ele>
        <time>2023-05-01T17:22:46.062Z</time>
      </trkpt>
      <trkpt lat="48.40928" lon="-3.86442">
        <ele>361.347105</ele>
        <time>2023-05-01T17:22:48.064Z</time>
      </trkpt>
      <trkpt lat="48.40921" lon="-3.86419">
        <ele>360.785464</ele>
        <time>2023-05-01T17:22:50.058Z</time>
      </trkpt>
      <trkpt lat="48.40912" lon="-3.86395">
        <ele>360.206196</ele>
        <time>2023-05-01T17:22:52.069Z</time>
      </trkpt>
      <trkpt lat="48.40903" lon="-3.86373">
        <ele>359.633702</ele>
        <time>2023-05-01T17:22:54.061Z</time>
      </trkpt>
      <trkpt lat="48.40892" lon="-3.86352">
        <ele>359.069857</ele>
        <time>2023-05-01T17:22:56.058Z</time>
      </trkpt>
      <trkpt lat="48.40881" lon="-3.8633">
        <ele>358.304069</ele>
        <time>2023-05-01T17:22:58.061Z</time>
      </trkpt>
      <trkpt lat="48.40875" lon="-3.8632">
        <ele>357.908638</ele>
        <time>2023-05-01T17:22:59.059Z</time>
      </trkpt>
      <trkpt lat="48.40868" lon="-3.86309">
        <ele>357.498052</ele>
        <time>2023-05-01T17:23:00.062Z</time>
      </trkpt>
      <trkpt lat="48.40861" lon="-3.86299">
        <ele>357.087416</ele>
        <time>2023-05-01T17:23:01.062Z</time>
      </trkpt>
      <trkpt lat="48.40854" lon="-3.86288">
        <ele>356.657955</ele>
        <time>2023-05-01T17:23:02.063Z</time>
      </trkpt>
      <trkpt lat="48.40846" lon="-3.86278">
        <ele>356.244351</ele>
        <time>2023-05-01T17:23:03.067Z</time>
      </trkpt>
      <trkpt lat="48.40838" lon="-3.86268">
        <ele>355.794176</ele>
        <time>2023-05-01T17:23:04.062Z</time>
      </trkpt>
      <trkpt lat="48.4083" lon="-3.86259">
        <ele>355.364735</ele>
        <time>2023-05-01T17:23:05.047Z</time>
      </trkpt>
      <trkpt lat="48.40821" lon="-3.8625">
        <ele>354.919987</ele>
        <time>2023-05-01T17:23:06.056Z</time>
      </trkpt>
      <trkpt lat="48.40812" lon="-3.86241">
        <ele>354.466045</ele>
        <time>2023-05-01T17:23:07.059Z</time>
      </trkpt>
      <trkpt lat="48.40803" lon="-3.86232">
        <ele>353.996522</ele>
        <time>2023-05-01T17:23:08.067Z</time>
      </trkpt>
      <trkpt lat="48.40793" lon="-3.86224">
        <ele>353.514067</ele>
        <time>2023-05-01T17:23:09.057Z</time>
      </trkpt>
      <trkpt lat="48.40782" lon="-3.86217">
        <ele>353.036772</ele>
        <time>2023-05-01T17:23:10.062Z</time>
      </trkpt>
      <trkpt lat="48.40772" lon="-3.86209">
        <ele>352.530333</ele>
        <time>2023-05-01T17:23:11.058Z</time>
      </trkpt>
      <trkpt lat="48.40761" lon="-3.86202">
        <ele>352.049521</ele>
        <time>2023-05-01T17:23:12.063Z</time>
      </trkpt>
      <trkpt lat="48.4075" lon="-3.86196">
        <ele>351.567131</ele>
        <time>2023-05-01T17:23:13.065Z</time>
      </trkpt>
      <trkpt lat="48.40739" lon="-3.86191">
        <ele>350.989218</ele>
        <time>2023-05-01T17:23:14.057Z</time>
      </trkpt>
      <trkpt lat="48.40728" lon="-3.86186">
        <ele>350.382085</ele>
        <time>2023-05-01T17:23:15.059Z</time>
      </trkpt>
      <trkpt lat="48.40716" lon="-3.86182">
        <ele>349.77916</ele>
        <time>2023-05-01T17:23:16.057Z</time>
      </trkpt>
      <trkpt lat="48.40705" lon="-3.86177">
        <ele>349.180372</ele>
        <time>2023-05-01T17:23:17.063Z</time>
      </trkpt>
      <trkpt lat="48.40693" lon="-3.86175">
        <ele>348.583308</ele>
        <time>2023-05-01T17:23:18.057Z</time>
      </trkpt>
      <trkpt lat="48.40681" lon="-3.86172">
        <ele>347.954517</ele>
        <time>2023-05-01T17:23:19.060Z</time>
      </trkpt>
      <trkpt lat="48.40669" lon="-3.86169">
        <ele>347.3297</ele>
        <time>2023-05-01T17:23:20.062Z</time>
      </trkpt>
      <trkpt lat="48.40657" lon="-3.86166">
        <ele>346.702544</ele>
        <time>2023-05-01T17:23:21.064Z</time>
      </trkpt>
      <trkpt lat="48.40645" lon="-3.86164">
        <ele>346.086605</ele>
        <time>2023-05-01T17:23:22.066Z</time>
      </trkpt>
      <trkpt lat="48.40633" lon="-3.86163">
        <ele>345.515299</ele>
        <time>2023-05-01T17:23:23.062Z</time>
      </trkpt>
      <trkpt lat="48.40622" lon="-3.8616">
        <ele>344.908607</ele>
        <time>2023-05-01T17:23:24.063Z</time>
      </trkpt>
      <trkpt lat="48.4061" lon="-3.86158">
        <ele>344.320081</ele>
        <time>2023-05-01T17:23:25.062Z</time>
      </trkpt>
      <trkpt lat="48.40599" lon="-3.86154">
        <ele>343.726599</ele>
        <time>2023-05-01T17:23:26.067Z</time>
      </trkpt>
      <trkpt lat="48.40588" lon="-3.86151">
        <ele>343.146982</ele>
        <time>2023-05-01T17:23:27.064Z</time>
      </trkpt>
      <trkpt lat="48.40577" lon="-3.86148">
        <ele>342.584683</ele>
        <time>2023-05-01T17:23:28.060Z</time>
      </trkpt>
      <trkpt lat="48.40565" lon="-3.86145">
        <ele>341.967868</ele>
        <time>2023-05-01T17:23:29.058Z</time>
      </trkpt>
      <trkpt lat="48.40554" lon="-3.86142">
        <ele>341.327591</ele>
        <time>2023-05-01T17:23:30.052Z</time>
      </trkpt>
      <trkpt lat="48.40543" lon="-3.86139">
        <ele>340.71625</ele>
        <time>2023-05-01T17:23:31.053Z</time>
      </trkpt>
      <trkpt lat="48.40532" lon="-3.86135">
        <ele>340.082847</ele>
        <time>2023-05-01T17:23:32.058Z</time>
      </trkpt>
      <trkpt lat="48.4052" lon="-3.86131">
        <ele>339.433999</ele>
        <time>2023-05-01T17:23:33.058Z</time>
      </trkpt>
      <trkpt lat="48.40508" lon="-3.86128">
        <ele>338.780451</ele>
        <time>2023-05-01T17:23:34.078Z</time>
      </trkpt>
      <trkpt lat="48.40497" lon="-3.86125">
        <ele>338.143763</ele>
        <time>2023-05-01T17:23:35.058Z</time>
      </trkpt>
      <trkpt lat="48.40486" lon="-3.86122">
        <ele>337.52326</ele>
        <time>2023-05-01T17:23:36.059Z</time>
      </trkpt>
      <trkpt lat="48.40475" lon="-3.86119">
        <ele>336.894499</ele>
        <time>2023-05-01T17:23:37.057Z</time>
      </trkpt>
      <trkpt lat="48.40464" lon="-3.86119">
        <ele>336.306917</ele>
        <time>2023-05-01T17:23:38.062Z</time>
      </trkpt>
      <trkpt lat="48.40453" lon="-3.86116">
        <ele>335.701558</ele>
        <time>2023-05-01T17:23:39.060Z</time>
      </trkpt>
      <trkpt lat="48.40442" lon="-3.86114">
        <ele>335.087328</ele>
        <time>2023-05-01T17:23:40.059Z</time>
      </trkpt>
      <trkpt lat="48.40431" lon="-3.86111">
        <ele>334.468154</ele>
        <time>2023-05-01T17:23:41.062Z</time>
      </trkpt>
      <trkpt lat="48.40419" lon="-3.86108">
        <ele>333.839393</ele>
        <time>2023-05-01T17:23:42.062Z</time>
      </trkpt>
      <trkpt lat="48.40408" lon="-3.86105">
        <ele>333.197306</ele>
        <time>2023-05-01T17:23:43.057Z</time>
      </trkpt>
      <trkpt lat="48.40396" lon="-3.86103">
        <ele>332.550798</ele>
        <time>2023-05-01T17:23:44.059Z</time>
      </trkpt>
      <trkpt lat="48.40384" lon="-3.86101">
        <ele>331.984883</ele>
        <time>2023-05-01T17:23:45.060Z</time>
      </trkpt>
      <trkpt lat="48.40373" lon="-3.86098">
        <ele>331.461373</ele>
        <time>2023-05-01T17:23:46.058Z</time>
      </trkpt>
      <trkpt lat="48.40361" lon="-3.86095">
        <ele>330.932096</ele>
        <time>2023-05-01T17:23:47.062Z</time>
      </trkpt>
      <trkpt lat="48.40349" lon="-3.86092">
        <ele>330.40181</ele>
        <time>2023-05-01T17:23:48.062Z</time>
      </trkpt>
      <trkpt lat="48.40337" lon="-3.86088">
        <ele>329.857415</ele>
        <time>2023-05-01T17:23:49.060Z</time>
      </trkpt>
      <trkpt lat="48.40325" lon="-3.86086">
        <ele>329.331537</ele>
        <time>2023-05-01T17:23:50.060Z</time>
      </trkpt>
      <trkpt lat="48.40313" lon="-3.86084">
        <ele>328.804087</ele>
        <time>2023-05-01T17:23:51.058Z</time>
      </trkpt>
      <trkpt lat="48.40302" lon="-3.8608">
        <ele>328.27867</ele>
        <time>2023-05-01T17:23:52.046Z</time>
      </trkpt>
      <trkpt lat="48.4029" lon="-3.86077">
        <ele>327.74018</ele>
        <time>2023-05-01T17:23:53.057Z</time>
      </trkpt>
      <trkpt lat="48.40278" lon="-3.86075">
        <ele>327.227468</ele>
        <time>2023-05-01T17:23:54.059Z</time>
      </trkpt>
      <trkpt lat="48.40266" lon="-3.86072">
        <ele>326.696654</ele>
        <time>2023-05-01T17:23:55.066Z</time>
      </trkpt>
      <trkpt lat="48.40255" lon="-3.86069">
        <ele>326.17358</ele>
        <time>2023-05-01T17:23:56.060Z</time>
      </trkpt>
      <trkpt lat="48.40243" lon="-3.86067">
        <ele>325.655306</ele>
        <time>2023-05-01T17:23:57.064Z</time>
      </trkpt>
      <trkpt lat="48.40231" lon="-3.86064">
        <ele>325.142215</ele>
        <time>2023-05-01T17:23:58.060Z</time>
      </trkpt>
      <trkpt lat="48.40221" lon="-3.86062">
        <ele>324.653165</ele>
        <time>2023-05-01T17:23:59.063Z</time>
      </trkpt>
      <trkpt lat="48.4021" lon="-3.86059">
        <ele>324.303255</ele>
        <time>2023-05-01T17:24:00.062Z</time>
      </trkpt>
      <trkpt lat="48.40199" lon="-3.86057">
        <ele>324.077458</ele>
        <time>2023-05-01T17:24:01.062Z</time>
      </trkpt>
      <trkpt lat="48.40189" lon="-3.86054">
        <ele>323.847417</ele>
        <time>2023-05-01T17:24:02.049Z</time>
      </trkpt>
      <trkpt lat="48.40178" lon="-3.86052">
        <ele>323.619053</ele>
        <time>2023-05-01T17:24:03.056Z</time>
      </trkpt>
      <trkpt lat="48.40168" lon="-3.8605">
        <ele>323.404078</ele>
        <time>2023-05-01T17:24:04.069Z</time>
      </trkpt>
      <trkpt lat="48.40158" lon="-3.86048">
        <ele>323.190239</ele>
        <time>2023-05-01T17:24:05.060Z</time>
      </trkpt>
      <trkpt lat="48.40149" lon="-3.86046">
        <ele>322.990098</ele>
        <time>2023-05-01T17:24:06.061Z</time>
      </trkpt>
      <trkpt lat="48.4014" lon="-3.86043">
        <ele>322.790404</ele>
        <time>2023-05-01T17:24:07.066Z</time>
      </trkpt>
      <trkpt lat="48.40131" lon="-3.86042">
        <ele>322.591484</ele>
        <time>2023-05-01T17:24:08.058Z</time>
      </trkpt>
      <trkpt lat="48.40121" lon="-3.8604">
        <ele>322.388128</ele>
        <time>2023-05-01T17:24:09.057Z</time>
      </trkpt>
      <trkpt lat="48.40112" lon="-3.86039">
        <ele>322.193953</ele>
        <time>2023-05-01T17:24:10.059Z</time>
      </trkpt>
      <trkpt lat="48.40095" lon="-3.86036">
        <ele>321.813989</ele>
        <time>2023-05-01T17:24:12.061Z</time>
      </trkpt>
      <trkpt lat="48.40077" lon="-3.86032">
        <ele>321.438992</ele>
        <time>2023-05-01T17:24:14.061Z</time>
      </trkpt>
      <trkpt lat="48.4006" lon="-3.86028">
        <ele>321.055875</ele>
        <time>2023-05-01T17:24:16.060Z</time>
      </trkpt>
      <trkpt lat="48.40051" lon="-3.86027">
        <ele>320.858905</ele>
        <time>2023-05-01T17:24:17.054Z</time>
      </trkpt>
      <trkpt lat="48.40034" lon="-3.86022">
        <ele>320.482655</ele>
        <time>2023-05-01T17:24:19.060Z</time>
      </trkpt>
      <trkpt lat="48.40018" lon="-3.86018">
        <ele>320.0742</ele>
        <time>2023-05-01T17:24:21.060Z</time>
      </trkpt>
      <trkpt lat="48.40002" lon="-3.86013">
        <ele>319.684415</ele>
        <time>2023-05-01T17:24:23.058Z</time>
      </trkpt>
      <trkpt lat="48.39988" lon="-3.86009">
        <ele>319.3105</ele>
        <time>2023-05-01T17:24:25.062Z</time>
      </trkpt>
      <trkpt lat="48.39974" lon="-3.86005">
        <ele>318.963476</ele>
        <time>2023-05-01T17:24:27.066Z</time>
      </trkpt>
      <trkpt lat="48.3996" lon="-3.86">
        <ele>318.616493</ele>
        <time>2023-05-01T17:24:29.055Z</time>
      </trkpt>
      <trkpt lat="48.39947" lon="-3.85997">
        <ele>318.283479</ele>
        <time>2023-05-01T17:24:31.051Z</time>
      </trkpt>
      <trkpt lat="48.39933" lon="-3.85992">
        <ele>317.921215</ele>
        <time>2023-05-01T17:24:33.063Z</time>
      </trkpt>
      <trkpt lat="48.3992" lon="-3.8599">
        <ele>317.588995</ele>
        <time>2023-05-01T17:24:35.061Z</time>
      </trkpt>
      <trkpt lat="48.39906" lon="-3.85988">
        <ele>317.249348</ele>
        <time>2023-05-01T17:24:37.061Z</time>
      </trkpt>
      <trkpt lat="48.39892" lon="-3.85987">
        <ele>316.895119</ele>
        <time>2023-05-01T17:24:39.067Z</time>
      </trkpt>
      <trkpt lat="48.39878" lon="-3.85984">
        <ele>316.549276</ele>
        <time>2023-05-01T17:24:41.063Z</time>
      </trkpt>
      <trkpt lat="48.39864" lon="-3.85982">
        <ele>316.201541</ele>
        <time>2023-05-01T17:24:43.062Z</time>
      </trkpt>
      <trkpt lat="48.39851" lon="-3.85982">
        <ele>315.938301</ele>
        <time>2023-05-01T17:24:45.058Z</time>
      </trkpt>
      <trkpt lat="48.39837" lon="-3.8598">
        <ele>315.693556</ele>
        <time>2023-05-01T17:24:47.063Z</time>
      </trkpt>
      <trkpt lat="48.39823" lon="-3.85978">
        <ele>315.445719</ele>
        <time>2023-05-01T17:24:49.051Z</time>
      </trkpt>
      <trkpt lat="48.39809" lon="-3.85978">
        <ele>315.191187</ele>
        <time>2023-05-01T17:24:51.058Z</time>
      </trkpt>
      <trkpt lat="48.39794" lon="-3.85976">
        <ele>314.93262</ele>
        <time>2023-05-01T17:24:53.049Z</time>
      </trkpt>
      <trkpt lat="48.3978" lon="-3.85977">
        <ele>314.679941</ele>
        <time>2023-05-01T17:24:55.065Z</time>
      </trkpt>
      <trkpt lat="48.39765" lon="-3.85976">
        <ele>314.425236</ele>
        <time>2023-05-01T17:24:57.058Z</time>
      </trkpt>
      <trkpt lat="48.39751" lon="-3.85977">
        <ele>314.175705</ele>
        <time>2023-05-01T17:24:59.066Z</time>
      </trkpt>
      <trkpt lat="48.39737" lon="-3.85978">
        <ele>313.931644</ele>
        <time>2023-05-01T17:25:01.067Z</time>
      </trkpt>
      <trkpt lat="48.39723" lon="-3.8598">
        <ele>313.679755</ele>
        <time>2023-05-01T17:25:03.057Z</time>
      </trkpt>
      <trkpt lat="48.39708" lon="-3.8598">
        <ele>313.411021</ele>
        <time>2023-05-01T17:25:05.067Z</time>
      </trkpt>
      <trkpt lat="48.39692" lon="-3.85982">
        <ele>313.136659</ele>
        <time>2023-05-01T17:25:07.063Z</time>
      </trkpt>
      <trkpt lat="48.39678" lon="-3.85983">
        <ele>312.759175</ele>
        <time>2023-05-01T17:25:09.065Z</time>
      </trkpt>
      <trkpt lat="48.39661" lon="-3.85984">
        <ele>311.826627</ele>
        <time>2023-05-01T17:25:11.062Z</time>
      </trkpt>
      <trkpt lat="48.39644" lon="-3.85988">
        <ele>310.805115</ele>
        <time>2023-05-01T17:25:13.058Z</time>
      </trkpt>
      <trkpt lat="48.39626" lon="-3.85991">
        <ele>309.763675</ele>
        <time>2023-05-01T17:25:15.057Z</time>
      </trkpt>
      <trkpt lat="48.39617" lon="-3.85993">
        <ele>309.243575</ele>
        <time>2023-05-01T17:25:16.061Z</time>
      </trkpt>
      <trkpt lat="48.39599" lon="-3.85997">
        <ele>308.184587</ele>
        <time>2023-05-01T17:25:18.062Z</time>
      </trkpt>
      <trkpt lat="48.39589" lon="-3.85999">
        <ele>307.644018</ele>
        <time>2023-05-01T17:25:19.064Z</time>
      </trkpt>
      <trkpt lat="48.3958" lon="-3.86001">
        <ele>307.115381</ele>
        <time>2023-05-01T17:25:20.061Z</time>
      </trkpt>
      <trkpt lat="48.39571" lon="-3.86004">
        <ele>306.571744</ele>
        <time>2023-05-01T17:25:21.062Z</time>
      </trkpt>
      <trkpt lat="48.39561" lon="-3.86005">
        <ele>305.98363</ele>
        <time>2023-05-01T17:25:22.066Z</time>
      </trkpt>
      <trkpt lat="48.39551" lon="-3.86008">
        <ele>305.420312</ele>
        <time>2023-05-01T17:25:23.064Z</time>
      </trkpt>
      <trkpt lat="48.39542" lon="-3.86011">
        <ele>304.855289</ele>
        <time>2023-05-01T17:25:24.065Z</time>
      </trkpt>
      <trkpt lat="48.39531" lon="-3.86014">
        <ele>304.225976</ele>
        <time>2023-05-01T17:25:25.157Z</time>
      </trkpt>
      <trkpt lat="48.3952" lon="-3.86017">
        <ele>303.620584</ele>
        <time>2023-05-01T17:25:26.067Z</time>
      </trkpt>
      <trkpt lat="48.39511" lon="-3.86018">
        <ele>303.055958</ele>
        <time>2023-05-01T17:25:27.059Z</time>
      </trkpt>
      <trkpt lat="48.39501" lon="-3.8602">
        <ele>302.510537</ele>
        <time>2023-05-01T17:25:28.067Z</time>
      </trkpt>
      <trkpt lat="48.3949" lon="-3.86022">
        <ele>302.02867</ele>
        <time>2023-05-01T17:25:29.054Z</time>
      </trkpt>
      <trkpt lat="48.3948" lon="-3.86025">
        <ele>301.558344</ele>
        <time>2023-05-01T17:25:30.057Z</time>
      </trkpt>
      <trkpt lat="48.3947" lon="-3.86026">
        <ele>301.102762</ele>
        <time>2023-05-01T17:25:31.051Z</time>
      </trkpt>
      <trkpt lat="48.3946" lon="-3.86029">
        <ele>300.640276</ele>
        <time>2023-05-01T17:25:32.060Z</time>
      </trkpt>
      <trkpt lat="48.3945" lon="-3.86031">
        <ele>300.155487</ele>
        <time>2023-05-01T17:25:33.060Z</time>
      </trkpt>
      <trkpt lat="48.39439" lon="-3.86033">
        <ele>299.678952</ele>
        <time>2023-05-01T17:25:34.068Z</time>
      </trkpt>
      <trkpt lat="48.39429" lon="-3.86035">
        <ele>299.204761</ele>
        <time>2023-05-01T17:25:35.064Z</time>
      </trkpt>
      <trkpt lat="48.39419" lon="-3.86037">
        <ele>298.744887</ele>
        <time>2023-05-01T17:25:36.068Z</time>
      </trkpt>
      <trkpt lat="48.39408" lon="-3.86038">
        <ele>298.261376</ele>
        <time>2023-05-01T17:25:37.067Z</time>
      </trkpt>
      <trkpt lat="48.39398" lon="-3.8604">
        <ele>297.803246</ele>
        <time>2023-05-01T17:25:38.071Z</time>
      </trkpt>
      <trkpt lat="48.39388" lon="-3.86042">
        <ele>297.33649</ele>
        <time>2023-05-01T17:25:39.066Z</time>
      </trkpt>
      <trkpt lat="48.39378" lon="-3.86045">
        <ele>296.877527</ele>
        <time>2023-05-01T17:25:40.068Z</time>
      </trkpt>
      <trkpt lat="48.39368" lon="-3.86046">
        <ele>296.421945</ele>
        <time>2023-05-01T17:25:41.071Z</time>
      </trkpt>
      <trkpt lat="48.39358" lon="-3.86047">
        <ele>295.970638</ele>
        <time>2023-05-01T17:25:42.063Z</time>
      </trkpt>
      <trkpt lat="48.39348" lon="-3.86047">
        <ele>295.525568</ele>
        <time>2023-05-01T17:25:43.063Z</time>
      </trkpt>
      <trkpt lat="48.39338" lon="-3.86047">
        <ele>295.075926</ele>
        <time>2023-05-01T17:25:44.067Z</time>
      </trkpt>
      <trkpt lat="48.39329" lon="-3.86047">
        <ele>294.644227</ele>
        <time>2023-05-01T17:25:45.053Z</time>
      </trkpt>
      <trkpt lat="48.3932" lon="-3.86046">
        <ele>294.412555</ele>
        <time>2023-05-01T17:25:46.062Z</time>
      </trkpt>
      <trkpt lat="48.39302" lon="-3.86046">
        <ele>294.387211</ele>
        <time>2023-05-01T17:25:48.063Z</time>
      </trkpt>
      <trkpt lat="48.39286" lon="-3.86045">
        <ele>294.363306</ele>
        <time>2023-05-01T17:25:50.060Z</time>
      </trkpt>
      <trkpt lat="48.3927" lon="-3.86043">
        <ele>294.3402</ele>
        <time>2023-05-01T17:25:52.062Z</time>
      </trkpt>
      <trkpt lat="48.39256" lon="-3.86041">
        <ele>294.319114</ele>
        <time>2023-05-01T17:25:54.067Z</time>
      </trkpt>
      <trkpt lat="48.39241" lon="-3.86039">
        <ele>294.297586</ele>
        <time>2023-05-01T17:25:56.068Z</time>
      </trkpt>
      <trkpt lat="48.39227" lon="-3.86036">
        <ele>294.277421</ele>
        <time>2023-05-01T17:25:58.064Z</time>
      </trkpt>
      <trkpt lat="48.39215" lon="-3.86032">
        <ele>294.259276</ele>
        <time>2023-05-01T17:26:00.063Z</time>
      </trkpt>
      <trkpt lat="48.39204" lon="-3.86029">
        <ele>294.243437</ele>
        <time>2023-05-01T17:26:02.063Z</time>
      </trkpt>
      <trkpt lat="48.39194" lon="-3.86026">
        <ele>294.228851</ele>
        <time>2023-05-01T17:26:04.070Z</time>
      </trkpt>
      <trkpt lat="48.39185" lon="-3.86022">
        <ele>294.214705</ele>
        <time>2023-05-01T17:26:06.066Z</time>
      </trkpt>
      <trkpt lat="48.39173" lon="-3.86017">
        <ele>294.197005</ele>
        <time>2023-05-01T17:26:09.056Z</time>
      </trkpt>
      <trkpt lat="48.39164" lon="-3.86013">
        <ele>294.183263</ele>
        <time>2023-05-01T17:26:12.060Z</time>
      </trkpt>
      <trkpt lat="48.39154" lon="-3.86008">
        <ele>294.168625</ele>
        <time>2023-05-01T17:26:16.063Z</time>
      </trkpt>
      <trkpt lat="48.39144" lon="-3.86002">
        <ele>294.238513</ele>
        <time>2023-05-01T17:26:21.059Z</time>
      </trkpt>
      <trkpt lat="48.39134" lon="-3.85997">
        <ele>294.442853</ele>
        <time>2023-05-01T17:26:25.062Z</time>
      </trkpt>
      <trkpt lat="48.39125" lon="-3.85991">
        <ele>294.64201</ele>
        <time>2023-05-01T17:26:30.056Z</time>
      </trkpt>
      <trkpt lat="48.39115" lon="-3.85986">
        <ele>294.8535</ele>
        <time>2023-05-01T17:26:35.061Z</time>
      </trkpt>
      <trkpt lat="48.39107" lon="-3.8598">
        <ele>295.037677</ele>
        <time>2023-05-01T17:26:39.066Z</time>
      </trkpt>
      <trkpt lat="48.39097" lon="-3.85974">
        <ele>295.264858</ele>
        <time>2023-05-01T17:26:44.064Z</time>
      </trkpt>
      <trkpt lat="48.39088" lon="-3.85968">
        <ele>295.448861</ele>
        <time>2023-05-01T17:26:48.060Z</time>
      </trkpt>
      <trkpt lat="48.39079" lon="-3.85962">
        <ele>295.657835</ele>
        <time>2023-05-01T17:26:53.061Z</time>
      </trkpt>
      <trkpt lat="48.39072" lon="-3.85955">
        <ele>295.839949</ele>
        <time>2023-05-01T17:26:58.058Z</time>
      </trkpt>
      <trkpt lat="48.39062" lon="-3.85948">
        <ele>296.04652</ele>
        <time>2023-05-01T17:27:03.069Z</time>
      </trkpt>
      <trkpt lat="48.39054" lon="-3.85941">
        <ele>296.232009</ele>
        <time>2023-05-01T17:27:07.065Z</time>
      </trkpt>
      <trkpt lat="48.39045" lon="-3.85935">
        <ele>296.440439</ele>
        <time>2023-05-01T17:27:11.059Z</time>
      </trkpt>
      <trkpt lat="48.39037" lon="-3.85926">
        <ele>296.648138</ele>
        <time>2023-05-01T17:27:15.061Z</time>
      </trkpt>
      <trkpt lat="48.39028" lon="-3.85917">
        <ele>296.86121</ele>
        <time>2023-05-01T17:27:19.063Z</time>
      </trkpt>
      <trkpt lat="48.39019" lon="-3.85911">
        <ele>297.061489</ele>
        <time>2023-05-01T17:27:24.057Z</time>
      </trkpt>
      <trkpt lat="48.39011" lon="-3.859">
        <ele>297.2755</ele>
        <time>2023-05-01T17:27:40.053Z</time>
      </trkpt>
      <trkpt lat="48.39003" lon="-3.8589">
        <ele>297.497842</ele>
        <time>2023-05-01T17:27:45.065Z</time>
      </trkpt>
      <trkpt lat="48.38993" lon="-3.85882">
        <ele>297.714711</ele>
        <time>2023-05-01T17:27:50.057Z</time>
      </trkpt>
      <trkpt lat="48.38985" lon="-3.85873">
        <ele>297.943735</ele>
        <time>2023-05-01T17:27:54.057Z</time>
      </trkpt>
      <trkpt lat="48.38976" lon="-3.85864">
        <ele>298.18854</ele>
        <time>2023-05-01T17:27:58.048Z</time>
      </trkpt>
      <trkpt lat="48.38967" lon="-3.85853">
        <ele>298.446889</ele>
        <time>2023-05-01T17:28:02.064Z</time>
      </trkpt>
      <trkpt lat="48.38959" lon="-3.85844">
        <ele>298.660247</ele>
        <time>2023-05-01T17:28:05.062Z</time>
      </trkpt>
      <trkpt lat="48.38952" lon="-3.85835">
        <ele>298.871095</ele>
        <time>2023-05-01T17:28:08.055Z</time>
      </trkpt>
      <trkpt lat="48.38945" lon="-3.85825">
        <ele>299.083542</ele>
        <time>2023-05-01T17:28:11.067Z</time>
      </trkpt>
      <trkpt lat="48.38939" lon="-3.85815">
        <ele>299.302204</ele>
        <time>2023-05-01T17:28:14.066Z</time>
      </trkpt>
      <trkpt lat="48.38932" lon="-3.85805">
        <ele>299.516596</ele>
        <time>2023-05-01T17:28:17.061Z</time>
      </trkpt>
      <trkpt lat="48.38925" lon="-3.85795">
        <ele>299.731075</ele>
        <time>2023-05-01T17:28:20.063Z</time>
      </trkpt>
      <trkpt lat="48.38919" lon="-3.85784">
        <ele>299.944594</ele>
        <time>2023-05-01T17:28:23.060Z</time>
      </trkpt>
      <trkpt lat="48.38911" lon="-3.85772">
        <ele>300.209078</ele>
        <time>2023-05-01T17:28:27.063Z</time>
      </trkpt>
      <trkpt lat="48.38904" lon="-3.85759">
        <ele>300.449877</ele>
        <time>2023-05-01T17:28:31.067Z</time>
      </trkpt>
      <trkpt lat="48.38899" lon="-3.85748">
        <ele>300.658865</ele>
        <time>2023-05-01T17:28:35.041Z</time>
      </trkpt>
      <trkpt lat="48.38891" lon="-3.85736">
        <ele>300.911176</ele>
        <time>2023-05-01T17:28:40.065Z</time>
      </trkpt>
      <trkpt lat="48.38885" lon="-3.85723">
        <ele>301.154361</ele>
        <time>2023-05-01T17:28:44.061Z</time>
      </trkpt>
      <trkpt lat="48.38878" lon="-3.85709">
        <ele>301.403569</ele>
        <time>2023-05-01T17:28:48.062Z</time>
      </trkpt>
      <trkpt lat="48.38872" lon="-3.85696">
        <ele>301.65007</ele>
        <time>2023-05-01T17:28:52.061Z</time>
      </trkpt>
      <trkpt lat="48.38866" lon="-3.85681">
        <ele>301.879127</ele>
        <time>2023-05-01T17:28:56.065Z</time>
      </trkpt>
      <trkpt lat="48.38856" lon="-3.85669">
        <ele>301.882944</ele>
        <time>2023-05-01T17:29:07.549Z</time>
      </trkpt>
      <trkpt lat="48.38852" lon="-3.85649">
        <ele>301.887039</ele>
        <time>2023-05-01T17:32:46.064Z</time>
      </trkpt>
      <trkpt lat="48.38847" lon="-3.85635">
        <ele>301.890137</ele>
        <time>2023-05-01T17:32:49.060Z</time>
      </trkpt>
      <trkpt lat="48.38842" lon="-3.85622">
        <ele>301.893278</ele>
        <time>2023-05-01T17:32:52.067Z</time>
      </trkpt>
      <trkpt lat="48.38837" lon="-3.85609">
        <ele>301.89618</ele>
        <time>2023-05-01T17:32:55.047Z</time>
      </trkpt>
      <trkpt lat="48.38831" lon="-3.85593">
        <ele>301.899711</ele>
        <time>2023-05-01T17:32:59.059Z</time>
      </trkpt>
      <trkpt lat="48.38825" lon="-3.85579">
        <ele>301.903148</ele>
        <time>2023-05-01T17:33:03.064Z</time>
      </trkpt>
      <trkpt lat="48.3882" lon="-3.85562">
        <ele>301.906753</ele>
        <time>2023-05-01T17:33:07.058Z</time>
      </trkpt>
      <trkpt lat="48.38813" lon="-3.85548">
        <ele>301.910223</ele>
        <time>2023-05-01T17:33:10.066Z</time>
      </trkpt>
      <trkpt lat="48.38807" lon="-3.85533">
        <ele>301.913697</ele>
        <time>2023-05-01T17:33:13.070Z</time>
      </trkpt>
      <trkpt lat="48.38801" lon="-3.85517">
        <ele>301.917223</ele>
        <time>2023-05-01T17:33:16.064Z</time>
      </trkpt>
      <trkpt lat="48.38796" lon="-3.85503">
        <ele>301.920437</ele>
        <time>2023-05-01T17:33:19.066Z</time>
      </trkpt>
      <trkpt lat="48.38791" lon="-3.85488">
        <ele>301.923717</ele>
        <time>2023-05-01T17:33:22.062Z</time>
      </trkpt>
      <trkpt lat="48.38785" lon="-3.85473">
        <ele>301.927287</ele>
        <time>2023-05-01T17:33:25.070Z</time>
      </trkpt>
      <trkpt lat="48.38779" lon="-3.85459">
        <ele>301.930711</ele>
        <time>2023-05-01T17:33:28.057Z</time>
      </trkpt>
      <trkpt lat="48.38772" lon="-3.85442">
        <ele>302.031881</ele>
        <time>2023-05-01T17:33:31.067Z</time>
      </trkpt>
      <trkpt lat="48.38767" lon="-3.85425">
        <ele>302.197071</ele>
        <time>2023-05-01T17:33:34.064Z</time>
      </trkpt>
      <trkpt lat="48.3876" lon="-3.8541">
        <ele>302.358473</ele>
        <time>2023-05-01T17:33:37.067Z</time>
      </trkpt>
      <trkpt lat="48.38753" lon="-3.85395">
        <ele>302.524342</ele>
        <time>2023-05-01T17:33:40.065Z</time>
      </trkpt>
      <trkpt lat="48.38747" lon="-3.85378">
        <ele>302.695052</ele>
        <time>2023-05-01T17:33:43.067Z</time>
      </trkpt>
      <trkpt lat="48.38741" lon="-3.85363">
        <ele>302.851034</ele>
        <time>2023-05-01T17:33:46.067Z</time>
      </trkpt>
      <trkpt lat="48.38736" lon="-3.85349">
        <ele>302.993911</ele>
        <time>2023-05-01T17:33:49.063Z</time>
      </trkpt>
      <trkpt lat="48.3873" lon="-3.85337">
        <ele>303.124818</ele>
        <time>2023-05-01T17:33:52.070Z</time>
      </trkpt>
      <trkpt lat="48.38723" lon="-3.85323">
        <ele>303.279052</ele>
        <time>2023-05-01T17:33:55.070Z</time>
      </trkpt>
      <trkpt lat="48.38718" lon="-3.8531">
        <ele>303.421929</ele>
        <time>2023-05-01T17:33:58.094Z</time>
      </trkpt>
      <trkpt lat="48.38713" lon="-3.85296">
        <ele>303.554599</ele>
        <time>2023-05-01T17:34:01.066Z</time>
      </trkpt>
      <trkpt lat="48.38708" lon="-3.85282">
        <ele>303.700604</ele>
        <time>2023-05-01T17:34:04.066Z</time>
      </trkpt>
      <trkpt lat="48.38702" lon="-3.85269">
        <ele>303.848629</ele>
        <time>2023-05-01T17:34:07.061Z</time>
      </trkpt>
      <trkpt lat="48.38695" lon="-3.85255">
        <ele>303.99768</ele>
        <time>2023-05-01T17:34:10.068Z</time>
      </trkpt>
      <trkpt lat="48.38688" lon="-3.85242">
        <ele>304.148875</ele>
        <time>2023-05-01T17:34:13.067Z</time>
      </trkpt>
      <trkpt lat="48.38681" lon="-3.85229">
        <ele>304.292636</ele>
        <time>2023-05-01T17:34:16.064Z</time>
      </trkpt>
      <trkpt lat="48.38674" lon="-3.85216">
        <ele>304.371333</ele>
        <time>2023-05-01T17:34:19.061Z</time>
      </trkpt>
      <trkpt lat="48.38667" lon="-3.85202">
        <ele>304.406351</ele>
        <time>2023-05-01T17:34:22.069Z</time>
      </trkpt>
      <trkpt lat="48.38659" lon="-3.85188">
        <ele>304.441845</ele>
        <time>2023-05-01T17:34:25.068Z</time>
      </trkpt>
      <trkpt lat="48.38652" lon="-3.85175">
        <ele>304.474385</ele>
        <time>2023-05-01T17:34:28.060Z</time>
      </trkpt>
      <trkpt lat="48.38645" lon="-3.85161">
        <ele>304.507435</ele>
        <time>2023-05-01T17:34:31.071Z</time>
      </trkpt>
      <trkpt lat="48.38638" lon="-3.85148">
        <ele>304.54076</ele>
        <time>2023-05-01T17:34:34.066Z</time>
      </trkpt>
      <trkpt lat="48.3863" lon="-3.85135">
        <ele>304.57475</ele>
        <time>2023-05-01T17:34:37.066Z</time>
      </trkpt>
      <trkpt lat="48.38624" lon="-3.85123">
        <ele>304.604399</ele>
        <time>2023-05-01T17:34:40.060Z</time>
      </trkpt>
      <trkpt lat="48.38618" lon="-3.8511">
        <ele>304.634337</ele>
        <time>2023-05-01T17:34:43.058Z</time>
      </trkpt>
      <trkpt lat="48.38609" lon="-3.85097">
        <ele>304.670074</ele>
        <time>2023-05-01T17:34:46.061Z</time>
      </trkpt>
      <trkpt lat="48.386" lon="-3.85084">
        <ele>304.707255</ele>
        <time>2023-05-01T17:34:49.058Z</time>
      </trkpt>
      <trkpt lat="48.38591" lon="-3.85069">
        <ele>304.746015</ele>
        <time>2023-05-01T17:34:52.062Z</time>
      </trkpt>
      <trkpt lat="48.38582" lon="-3.85057">
        <ele>304.780481</ele>
        <time>2023-05-01T17:34:55.058Z</time>
      </trkpt>
      <trkpt lat="48.38575" lon="-3.85047">
        <ele>304.809556</ele>
        <time>2023-05-01T17:34:58.059Z</time>
      </trkpt>
      <trkpt lat="48.38568" lon="-3.85035">
        <ele>304.840757</ele>
        <time>2023-05-01T17:35:01.059Z</time>
      </trkpt>
      <trkpt lat="48.38558" lon="-3.85023">
        <ele>304.874663</ele>
        <time>2023-05-01T17:35:04.068Z</time>
      </trkpt>
      <trkpt lat="48.38549" lon="-3.8501">
        <ele>304.840181</ele>
        <time>2023-05-01T17:35:07.054Z</time>
      </trkpt>
      <trkpt lat="48.38539" lon="-3.84996">
        <ele>304.804094</ele>
        <time>2023-05-01T17:35:10.061Z</time>
      </trkpt>
      <trkpt lat="48.38529" lon="-3.84983">
        <ele>304.767766</ele>
        <time>2023-05-01T17:35:13.068Z</time>
      </trkpt>
      <trkpt lat="48.38519" lon="-3.84971">
        <ele>304.732768</ele>
        <time>2023-05-01T17:35:16.060Z</time>
      </trkpt>
      <trkpt lat="48.38511" lon="-3.8496">
        <ele>304.70138</ele>
        <time>2023-05-01T17:35:19.062Z</time>
      </trkpt>
      <trkpt lat="48.38503" lon="-3.84949">
        <ele>304.671937</ele>
        <time>2023-05-01T17:35:22.059Z</time>
      </trkpt>
      <trkpt lat="48.38494" lon="-3.84939">
        <ele>304.641741</ele>
        <time>2023-05-01T17:35:25.063Z</time>
      </trkpt>
      <trkpt lat="48.38485" lon="-3.8493">
        <ele>304.614246</ele>
        <time>2023-05-01T17:35:27.059Z</time>
      </trkpt>
      <trkpt lat="48.38479" lon="-3.8492">
        <ele>304.589076</ele>
        <time>2023-05-01T17:35:29.057Z</time>
      </trkpt>
      <trkpt lat="48.38472" lon="-3.84912">
        <ele>304.564002</ele>
        <time>2023-05-01T17:35:31.062Z</time>
      </trkpt>
      <trkpt lat="48.38464" lon="-3.84903">
        <ele>304.538058</ele>
        <time>2023-05-01T17:35:33.053Z</time>
      </trkpt>
      <trkpt lat="48.38457" lon="-3.84894">
        <ele>304.512731</ele>
        <time>2023-05-01T17:35:35.061Z</time>
      </trkpt>
      <trkpt lat="48.3845" lon="-3.84884">
        <ele>304.485699</ele>
        <time>2023-05-01T17:35:37.077Z</time>
      </trkpt>
      <trkpt lat="48.38442" lon="-3.84874">
        <ele>304.458924</ele>
        <time>2023-05-01T17:35:39.059Z</time>
      </trkpt>
      <trkpt lat="48.38436" lon="-3.84865">
        <ele>304.433531</ele>
        <time>2023-05-01T17:35:41.058Z</time>
      </trkpt>
      <trkpt lat="48.38428" lon="-3.84856">
        <ele>304.407359</ele>
        <time>2023-05-01T17:35:43.060Z</time>
      </trkpt>
      <trkpt lat="48.38421" lon="-3.84846">
        <ele>304.383151</ele>
        <time>2023-05-01T17:35:45.068Z</time>
      </trkpt>
      <trkpt lat="48.38413" lon="-3.84838">
        <ele>304.370389</ele>
        <time>2023-05-01T17:35:47.059Z</time>
      </trkpt>
      <trkpt lat="48.38406" lon="-3.84829">
        <ele>304.357825</ele>
        <time>2023-05-01T17:35:49.060Z</time>
      </trkpt>
      <trkpt lat="48.38399" lon="-3.8482">
        <ele>304.345009</ele>
        <time>2023-05-01T17:35:51.066Z</time>
      </trkpt>
      <trkpt lat="48.38392" lon="-3.8481">
        <ele>304.332452</ele>
        <time>2023-05-01T17:35:53.081Z</time>
      </trkpt>
      <trkpt lat="48.38385" lon="-3.84801">
        <ele>304.320237</ele>
        <time>2023-05-01T17:35:55.069Z</time>
      </trkpt>
      <trkpt lat="48.38378" lon="-3.84792">
        <ele>304.306923</ele>
        <time>2023-05-01T17:35:57.067Z</time>
      </trkpt>
      <trkpt lat="48.3837" lon="-3.84783">
        <ele>304.294588</ele>
        <time>2023-05-01T17:35:59.064Z</time>
      </trkpt>
      <trkpt lat="48.38363" lon="-3.84773">
        <ele>304.280806</ele>
        <time>2023-05-01T17:36:01.060Z</time>
      </trkpt>
      <trkpt lat="48.38355" lon="-3.84764">
        <ele>304.267126</ele>
        <time>2023-05-01T17:36:03.074Z</time>
      </trkpt>
      <trkpt lat="48.38347" lon="-3.84754">
        <ele>304.253022</ele>
        <time>2023-05-01T17:36:05.057Z</time>
      </trkpt>
      <trkpt lat="48.3834" lon="-3.84744">
        <ele>304.240243</ele>
        <time>2023-05-01T17:36:07.056Z</time>
      </trkpt>
      <trkpt lat="48.38332" lon="-3.84735">
        <ele>304.226937</ele>
        <time>2023-05-01T17:36:09.058Z</time>
      </trkpt>
      <trkpt lat="48.38325" lon="-3.84725">
        <ele>304.213977</ele>
        <time>2023-05-01T17:36:11.061Z</time>
      </trkpt>
      <trkpt lat="48.38317" lon="-3.84716">
        <ele>304.200453</ele>
        <time>2023-05-01T17:36:13.058Z</time>
      </trkpt>
      <trkpt lat="48.3831" lon="-3.84706">
        <ele>304.187139</ele>
        <time>2023-05-01T17:36:15.063Z</time>
      </trkpt>
      <trkpt lat="48.38303" lon="-3.84697">
        <ele>304.1741</ele>
        <time>2023-05-01T17:36:17.068Z</time>
      </trkpt>
      <trkpt lat="48.38296" lon="-3.84687">
        <ele>304.161543</ele>
        <time>2023-05-01T17:36:19.069Z</time>
      </trkpt>
      <trkpt lat="48.38289" lon="-3.84676">
        <ele>304.147658</ele>
        <time>2023-05-01T17:36:21.065Z</time>
      </trkpt>
      <trkpt lat="48.38281" lon="-3.84665">
        <ele>304.053165</ele>
        <time>2023-05-01T17:36:23.063Z</time>
      </trkpt>
      <trkpt lat="48.38272" lon="-3.84655">
        <ele>303.885828</ele>
        <time>2023-05-01T17:36:25.066Z</time>
      </trkpt>
      <trkpt lat="48.38261" lon="-3.84645">
        <ele>303.704288</ele>
        <time>2023-05-01T17:36:27.059Z</time>
      </trkpt>
      <trkpt lat="48.38254" lon="-3.84636">
        <ele>303.568133</ele>
        <time>2023-05-01T17:36:29.059Z</time>
      </trkpt>
      <trkpt lat="48.38247" lon="-3.84625">
        <ele>303.419077</ele>
        <time>2023-05-01T17:36:31.063Z</time>
      </trkpt>
      <trkpt lat="48.38238" lon="-3.84614">
        <ele>303.258584</ele>
        <time>2023-05-01T17:36:33.066Z</time>
      </trkpt>
      <trkpt lat="48.3823" lon="-3.84603">
        <ele>303.099391</ele>
        <time>2023-05-01T17:36:35.065Z</time>
      </trkpt>
      <trkpt lat="48.38222" lon="-3.84592">
        <ele>302.938767</ele>
        <time>2023-05-01T17:36:37.063Z</time>
      </trkpt>
      <trkpt lat="48.38214" lon="-3.8458">
        <ele>302.780818</ele>
        <time>2023-05-01T17:36:39.066Z</time>
      </trkpt>
      <trkpt lat="48.38207" lon="-3.84569">
        <ele>302.625654</ele>
        <time>2023-05-01T17:36:41.064Z</time>
      </trkpt>
      <trkpt lat="48.38199" lon="-3.84556">
        <ele>302.461931</ele>
        <time>2023-05-01T17:36:43.059Z</time>
      </trkpt>
      <trkpt lat="48.38191" lon="-3.84543">
        <ele>302.295425</ele>
        <time>2023-05-01T17:36:45.062Z</time>
      </trkpt>
      <trkpt lat="48.38184" lon="-3.84531">
        <ele>302.127204</ele>
        <time>2023-05-01T17:36:47.063Z</time>
      </trkpt>
      <trkpt lat="48.38176" lon="-3.84517">
        <ele>301.957109</ele>
        <time>2023-05-01T17:36:49.062Z</time>
      </trkpt>
      <trkpt lat="48.38168" lon="-3.84503">
        <ele>301.783779</ele>
        <time>2023-05-01T17:36:51.065Z</time>
      </trkpt>
      <trkpt lat="48.3816" lon="-3.8449">
        <ele>301.611515</ele>
        <time>2023-05-01T17:36:53.064Z</time>
      </trkpt>
      <trkpt lat="48.38153" lon="-3.84475">
        <ele>301.428686</ele>
        <time>2023-05-01T17:36:55.063Z</time>
      </trkpt>
      <trkpt lat="48.38146" lon="-3.8446">
        <ele>301.242083</ele>
        <time>2023-05-01T17:36:57.068Z</time>
      </trkpt>
      <trkpt lat="48.38138" lon="-3.84446">
        <ele>301.058455</ele>
        <time>2023-05-01T17:36:59.055Z</time>
      </trkpt>
      <trkpt lat="48.38131" lon="-3.84431">
        <ele>300.870596</ele>
        <time>2023-05-01T17:37:01.070Z</time>
      </trkpt>
      <trkpt lat="48.38123" lon="-3.84416">
        <ele>300.681143</ele>
        <time>2023-05-01T17:37:03.063Z</time>
      </trkpt>
      <trkpt lat="48.38116" lon="-3.84402">
        <ele>300.510201</ele>
        <time>2023-05-01T17:37:05.064Z</time>
      </trkpt>
      <trkpt lat="48.3811" lon="-3.84386">
        <ele>300.323418</ele>
        <time>2023-05-01T17:37:07.057Z</time>
      </trkpt>
      <trkpt lat="48.38104" lon="-3.8437">
        <ele>300.138361</ele>
        <time>2023-05-01T17:37:09.058Z</time>
      </trkpt>
      <trkpt lat="48.38098" lon="-3.84355">
        <ele>299.957216</ele>
        <time>2023-05-01T17:37:11.066Z</time>
      </trkpt>
      <trkpt lat="48.38092" lon="-3.84339">
        <ele>299.775197</ele>
        <time>2023-05-01T17:37:13.060Z</time>
      </trkpt>
      <trkpt lat="48.38086" lon="-3.84323">
        <ele>299.594173</ele>
        <time>2023-05-01T17:37:15.061Z</time>
      </trkpt>
      <trkpt lat="48.3808" lon="-3.84307">
        <ele>299.413446</ele>
        <time>2023-05-01T17:37:17.061Z</time>
      </trkpt>
      <trkpt lat="48.38075" lon="-3.84291">
        <ele>299.232325</ele>
        <time>2023-05-01T17:37:19.066Z</time>
      </trkpt>
      <trkpt lat="48.3807" lon="-3.84275">
        <ele>299.048511</ele>
        <time>2023-05-01T17:37:21.068Z</time>
      </trkpt>
      <trkpt lat="48.38064" lon="-3.84259">
        <ele>298.872336</ele>
        <time>2023-05-01T17:37:23.059Z</time>
      </trkpt>
      <trkpt lat="48.38058" lon="-3.84243">
        <ele>298.763031</ele>
        <time>2023-05-01T17:37:25.065Z</time>
      </trkpt>
      <trkpt lat="48.38053" lon="-3.84228">
        <ele>298.690506</ele>
        <time>2023-05-01T17:37:27.060Z</time>
      </trkpt>
      <trkpt lat="48.38048" lon="-3.84212">
        <ele>298.6172</ele>
        <time>2023-05-01T17:37:29.062Z</time>
      </trkpt>
      <trkpt lat="48.38044" lon="-3.84197">
        <ele>298.547101</ele>
        <time>2023-05-01T17:37:31.060Z</time>
      </trkpt>
      <trkpt lat="48.38039" lon="-3.84182">
        <ele>298.475163</ele>
        <time>2023-05-01T17:37:33.063Z</time>
      </trkpt>
      <trkpt lat="48.38035" lon="-3.84167">
        <ele>298.407952</ele>
        <time>2023-05-01T17:37:35.068Z</time>
      </trkpt>
      <trkpt lat="48.3803" lon="-3.84152">
        <ele>298.339519</ele>
        <time>2023-05-01T17:37:37.067Z</time>
      </trkpt>
      <trkpt lat="48.38026" lon="-3.84138">
        <ele>298.27414</ele>
        <time>2023-05-01T17:37:39.066Z</time>
      </trkpt>
      <trkpt lat="48.38022" lon="-3.84123">
        <ele>298.207497</ele>
        <time>2023-05-01T17:37:41.067Z</time>
      </trkpt>
      <trkpt lat="48.38017" lon="-3.84109">
        <ele>298.142602</ele>
        <time>2023-05-01T17:37:43.069Z</time>
      </trkpt>
      <trkpt lat="48.38013" lon="-3.84096">
        <ele>298.07939</ele>
        <time>2023-05-01T17:37:45.069Z</time>
      </trkpt>
      <trkpt lat="48.38009" lon="-3.84083">
        <ele>298.019262</ele>
        <time>2023-05-01T17:37:47.060Z</time>
      </trkpt>
      <trkpt lat="48.38005" lon="-3.8407">
        <ele>297.96054</ele>
        <time>2023-05-01T17:37:49.059Z</time>
      </trkpt>
      <trkpt lat="48.38002" lon="-3.84057">
        <ele>297.901955</ele>
        <time>2023-05-01T17:37:51.063Z</time>
      </trkpt>
      <trkpt lat="48.37998" lon="-3.84045">
        <ele>297.844643</ele>
        <time>2023-05-01T17:37:53.065Z</time>
      </trkpt>
      <trkpt lat="48.37993" lon="-3.84027">
        <ele>297.762395</ele>
        <time>2023-05-01T17:37:56.072Z</time>
      </trkpt>
      <trkpt lat="48.37987" lon="-3.84008">
        <ele>297.681193</ele>
        <time>2023-05-01T17:37:59.067Z</time>
      </trkpt>
      <trkpt lat="48.37982" lon="-3.83992">
        <ele>297.786362</ele>
        <time>2023-05-01T17:38:02.069Z</time>
      </trkpt>
      <trkpt lat="48.37977" lon="-3.83975">
        <ele>297.891313</ele>
        <time>2023-05-01T17:38:05.057Z</time>
      </trkpt>
      <trkpt lat="48.37971" lon="-3.8396">
        <ele>297.992835</ele>
        <time>2023-05-01T17:38:08.062Z</time>
      </trkpt>
      <trkpt lat="48.37967" lon="-3.83944">
        <ele>298.087771</ele>
        <time>2023-05-01T17:38:11.064Z</time>
      </trkpt>
      <trkpt lat="48.37963" lon="-3.83929">
        <ele>298.186791</ele>
        <time>2023-05-01T17:38:14.060Z</time>
      </trkpt>
      <trkpt lat="48.37959" lon="-3.83912">
        <ele>298.286505</ele>
        <time>2023-05-01T17:38:17.063Z</time>
      </trkpt>
      <trkpt lat="48.37955" lon="-3.83896">
        <ele>298.386386</ele>
        <time>2023-05-01T17:38:20.069Z</time>
      </trkpt>
      <trkpt lat="48.3795" lon="-3.8388">
        <ele>298.490506</ele>
        <time>2023-05-01T17:38:23.062Z</time>
      </trkpt>
      <trkpt lat="48.37944" lon="-3.83864">
        <ele>298.596305</ele>
        <time>2023-05-01T17:38:26.065Z</time>
      </trkpt>
      <trkpt lat="48.37939" lon="-3.83847">
        <ele>298.704613</ele>
        <time>2023-05-01T17:38:29.059Z</time>
      </trkpt>
      <trkpt lat="48.37934" lon="-3.83831">
        <ele>298.807622</ele>
        <time>2023-05-01T17:38:32.067Z</time>
      </trkpt>
      <trkpt lat="48.37929" lon="-3.83815">
        <ele>298.906589</ele>
        <time>2023-05-01T17:38:35.068Z</time>
      </trkpt>
      <trkpt lat="48.37924" lon="-3.83799">
        <ele>299.008021</ele>
        <time>2023-05-01T17:38:38.072Z</time>
      </trkpt>
      <trkpt lat="48.37919" lon="-3.83784">
        <ele>299.106754</ele>
        <time>2023-05-01T17:38:41.064Z</time>
      </trkpt>
      <trkpt lat="48.37915" lon="-3.83769">
        <ele>299.203767</ele>
        <time>2023-05-01T17:38:44.066Z</time>
      </trkpt>
      <trkpt lat="48.3791" lon="-3.83754">
        <ele>299.348224</ele>
        <time>2023-05-01T17:38:47.059Z</time>
      </trkpt>
      <trkpt lat="48.37906" lon="-3.83739">
        <ele>299.538486</ele>
        <time>2023-05-01T17:38:50.057Z</time>
      </trkpt>
      <trkpt lat="48.37901" lon="-3.83725">
        <ele>299.723619</ele>
        <time>2023-05-01T17:38:53.063Z</time>
      </trkpt>
      <trkpt lat="48.37897" lon="-3.83711">
        <ele>299.900873</ele>
        <time>2023-05-01T17:38:56.068Z</time>
      </trkpt>
      <trkpt lat="48.37893" lon="-3.83697">
        <ele>300.073247</ele>
        <time>2023-05-01T17:38:59.062Z</time>
      </trkpt>
      <trkpt lat="48.37888" lon="-3.83683">
        <ele>300.25792</ele>
        <time>2023-05-01T17:39:02.054Z</time>
      </trkpt>
      <trkpt lat="48.37884" lon="-3.83668">
        <ele>300.443638</ele>
        <time>2023-05-01T17:39:05.068Z</time>
      </trkpt>
      <trkpt lat="48.37879" lon="-3.83653">
        <ele>300.629053</ele>
        <time>2023-05-01T17:39:08.063Z</time>
      </trkpt>
      <trkpt lat="48.37875" lon="-3.83638">
        <ele>300.818352</ele>
        <time>2023-05-01T17:39:11.067Z</time>
      </trkpt>
      <trkpt lat="48.37871" lon="-3.83624">
        <ele>301.002726</ele>
        <time>2023-05-01T17:39:14.053Z</time>
      </trkpt>
      <trkpt lat="48.37866" lon="-3.83608">
        <ele>301.199758</ele>
        <time>2023-05-01T17:39:17.065Z</time>
      </trkpt>
      <trkpt lat="48.37861" lon="-3.83593">
        <ele>301.394444</ele>
        <time>2023-05-01T17:39:20.065Z</time>
      </trkpt>
      <trkpt lat="48.37856" lon="-3.83578">
        <ele>301.590436</ele>
        <time>2023-05-01T17:39:23.059Z</time>
      </trkpt>
      <trkpt lat="48.37851" lon="-3.83563">
        <ele>301.783172</ele>
        <time>2023-05-01T17:39:26.063Z</time>
      </trkpt>
      <trkpt lat="48.37846" lon="-3.83548">
        <ele>301.974765</ele>
        <time>2023-05-01T17:39:29.059Z</time>
      </trkpt>
      <trkpt lat="48.37841" lon="-3.83533">
        <ele>302.166886</ele>
        <time>2023-05-01T17:39:32.064Z</time>
      </trkpt>
      <trkpt lat="48.37836" lon="-3.83518">
        <ele>302.357699</ele>
        <time>2023-05-01T17:39:35.065Z</time>
      </trkpt>
      <trkpt lat="48.37832" lon="-3.83503">
        <ele>302.462281</ele>
        <time>2023-05-01T17:39:38.066Z</time>
      </trkpt>
      <trkpt lat="48.37828" lon="-3.83489">
        <ele>302.552474</ele>
        <time>2023-05-01T17:39:41.067Z</time>
      </trkpt>
      <trkpt lat="48.37823" lon="-3.83474">
        <ele>302.645766</ele>
        <time>2023-05-01T17:39:44.067Z</time>
      </trkpt>
      <trkpt lat="48.37818" lon="-3.83458">
        <ele>302.750488</ele>
        <time>2023-05-01T17:39:47.059Z</time>
      </trkpt>
      <trkpt lat="48.37813" lon="-3.83442">
        <ele>302.853103</ele>
        <time>2023-05-01T17:39:50.071Z</time>
      </trkpt>
      <trkpt lat="48.37808" lon="-3.83427">
        <ele>302.952849</ele>
        <time>2023-05-01T17:39:53.067Z</time>
      </trkpt>
      <trkpt lat="48.37803" lon="-3.83411">
        <ele>303.054708</ele>
        <time>2023-05-01T17:39:56.065Z</time>
      </trkpt>
      <trkpt lat="48.37799" lon="-3.83395">
        <ele>303.156404</ele>
        <time>2023-05-01T17:39:59.062Z</time>
      </trkpt>
      <trkpt lat="48.37795" lon="-3.83379">
        <ele>303.254405</ele>
        <time>2023-05-01T17:40:02.070Z</time>
      </trkpt>
      <trkpt lat="48.37791" lon="-3.83363">
        <ele>303.354037</ele>
        <time>2023-05-01T17:40:05.063Z</time>
      </trkpt>
      <trkpt lat="48.37786" lon="-3.83347">
        <ele>303.460149</ele>
        <time>2023-05-01T17:40:08.060Z</time>
      </trkpt>
      <trkpt lat="48.37781" lon="-3.8333">
        <ele>303.568678</ele>
        <time>2023-05-01T17:40:11.064Z</time>
      </trkpt>
      <trkpt lat="48.37777" lon="-3.83313">
        <ele>303.671039</ele>
        <time>2023-05-01T17:40:14.064Z</time>
      </trkpt>
      <trkpt lat="48.37773" lon="-3.83298">
        <ele>303.76843</ele>
        <time>2023-05-01T17:40:17.067Z</time>
      </trkpt>
      <trkpt lat="48.3777" lon="-3.83284">
        <ele>303.856299</ele>
        <time>2023-05-01T17:40:20.066Z</time>
      </trkpt>
      <trkpt lat="48.37766" lon="-3.83268">
        <ele>303.952401</ele>
        <time>2023-05-01T17:40:23.067Z</time>
      </trkpt>
      <trkpt lat="48.37762" lon="-3.8325">
        <ele>304.030733</ele>
        <time>2023-05-01T17:40:26.052Z</time>
      </trkpt>
      <trkpt lat="48.37758" lon="-3.83233">
        <ele>304.104819</ele>
        <time>2023-05-01T17:40:29.060Z</time>
      </trkpt>
      <trkpt lat="48.37753" lon="-3.83217">
        <ele>304.180346</ele>
        <time>2023-05-01T17:40:32.062Z</time>
      </trkpt>
      <trkpt lat="48.37749" lon="-3.832">
        <ele>304.253242</ele>
        <time>2023-05-01T17:40:35.060Z</time>
      </trkpt>
      <trkpt lat="48.37743" lon="-3.83182">
        <ele>304.3333</ele>
        <time>2023-05-01T17:40:38.067Z</time>
      </trkpt>
      <trkpt lat="48.37739" lon="-3.83165">
        <ele>304.411304</ele>
        <time>2023-05-01T17:40:41.069Z</time>
      </trkpt>
      <trkpt lat="48.37736" lon="-3.83148">
        <ele>304.484618</ele>
        <time>2023-05-01T17:40:44.072Z</time>
      </trkpt>
      <trkpt lat="48.37732" lon="-3.83132">
        <ele>304.554666</ele>
        <time>2023-05-01T17:40:47.057Z</time>
      </trkpt>
      <trkpt lat="48.37727" lon="-3.83116">
        <ele>304.623894</ele>
        <time>2023-05-01T17:40:50.072Z</time>
      </trkpt>
      <trkpt lat="48.37723" lon="-3.83101">
        <ele>304.690412</ele>
        <time>2023-05-01T17:40:53.070Z</time>
      </trkpt>
      <trkpt lat="48.37719" lon="-3.83087">
        <ele>304.755489</ele>
        <time>2023-05-01T17:40:56.063Z</time>
      </trkpt>
      <trkpt lat="48.37716" lon="-3.83073">
        <ele>304.817023</ele>
        <time>2023-05-01T17:40:59.062Z</time>
      </trkpt>
      <trkpt lat="48.37713" lon="-3.83059">
        <ele>304.878331</ele>
        <time>2023-05-01T17:41:02.064Z</time>
      </trkpt>
      <trkpt lat="48.3771" lon="-3.83045">
        <ele>304.941046</ele>
        <time>2023-05-01T17:41:05.063Z</time>
      </trkpt>
      <trkpt lat="48.37706" lon="-3.83031">
        <ele>305.003223</ele>
        <time>2023-05-01T17:41:08.058Z</time>
      </trkpt>
      <trkpt lat="48.37702" lon="-3.83016">
        <ele>305.068486</ele>
        <time>2023-05-01T17:41:11.063Z</time>
      </trkpt>
      <trkpt lat="48.37699" lon="-3.83001">
        <ele>304.916762</ele>
        <time>2023-05-01T17:41:14.061Z</time>
      </trkpt>
      <trkpt lat="48.37695" lon="-3.82987">
        <ele>304.763432</ele>
        <time>2023-05-01T17:41:17.063Z</time>
      </trkpt>
      <trkpt lat="48.37691" lon="-3.82971">
        <ele>304.596249</ele>
        <time>2023-05-01T17:41:20.064Z</time>
      </trkpt>
      <trkpt lat="48.37687" lon="-3.82955">
        <ele>304.422616</ele>
        <time>2023-05-01T17:41:23.079Z</time>
      </trkpt>
      <trkpt lat="48.37683" lon="-3.82939">
        <ele>304.242881</ele>
        <time>2023-05-01T17:41:26.063Z</time>
      </trkpt>
      <trkpt lat="48.37678" lon="-3.82922">
        <ele>304.062942</ele>
        <time>2023-05-01T17:41:29.061Z</time>
      </trkpt>
      <trkpt lat="48.37674" lon="-3.82905">
        <ele>303.876101</ele>
        <time>2023-05-01T17:41:32.073Z</time>
      </trkpt>
      <trkpt lat="48.37669" lon="-3.82888">
        <ele>303.689675</ele>
        <time>2023-05-01T17:41:35.075Z</time>
      </trkpt>
      <trkpt lat="48.37664" lon="-3.8287">
        <ele>303.497376</ele>
        <time>2023-05-01T17:41:38.092Z</time>
      </trkpt>
      <trkpt lat="48.37659" lon="-3.82852">
        <ele>303.301685</ele>
        <time>2023-05-01T17:41:41.054Z</time>
      </trkpt>
      <trkpt lat="48.37655" lon="-3.82839">
        <ele>303.160053</ele>
        <time>2023-05-01T17:41:43.066Z</time>
      </trkpt>
      <trkpt lat="48.37649" lon="-3.82821">
        <ele>302.952541</ele>
        <time>2023-05-01T17:41:46.074Z</time>
      </trkpt>
      <trkpt lat="48.37644" lon="-3.82806">
        <ele>302.786057</ele>
        <time>2023-05-01T17:41:48.059Z</time>
      </trkpt>
      <trkpt lat="48.3764" lon="-3.82791">
        <ele>302.617108</ele>
        <time>2023-05-01T17:41:50.063Z</time>
      </trkpt>
      <trkpt lat="48.37636" lon="-3.82778">
        <ele>302.470608</ele>
        <time>2023-05-01T17:41:52.063Z</time>
      </trkpt>
      <trkpt lat="48.37631" lon="-3.82764">
        <ele>302.275608</ele>
        <time>2023-05-01T17:41:54.059Z</time>
      </trkpt>
      <trkpt lat="48.37625" lon="-3.82748">
        <ele>301.897306</ele>
        <time>2023-05-01T17:41:56.059Z</time>
      </trkpt>
      <trkpt lat="48.37619" lon="-3.82733">
        <ele>301.524023</ele>
        <time>2023-05-01T17:41:58.057Z</time>
      </trkpt>
      <trkpt lat="48.37614" lon="-3.82718">
        <ele>301.155701</ele>
        <time>2023-05-01T17:42:00.061Z</time>
      </trkpt>
      <trkpt lat="48.37608" lon="-3.82701">
        <ele>300.764763</ele>
        <time>2023-05-01T17:42:02.064Z</time>
      </trkpt>
      <trkpt lat="48.37602" lon="-3.82686">
        <ele>300.382485</ele>
        <time>2023-05-01T17:42:04.064Z</time>
      </trkpt>
      <trkpt lat="48.37596" lon="-3.82669">
        <ele>299.977237</ele>
        <time>2023-05-01T17:42:06.060Z</time>
      </trkpt>
      <trkpt lat="48.37591" lon="-3.82653">
        <ele>299.58337</ele>
        <time>2023-05-01T17:42:08.063Z</time>
      </trkpt>
      <trkpt lat="48.37584" lon="-3.82636">
        <ele>299.172213</ele>
        <time>2023-05-01T17:42:10.069Z</time>
      </trkpt>
      <trkpt lat="48.37579" lon="-3.8262">
        <ele>298.789611</ele>
        <time>2023-05-01T17:42:12.063Z</time>
      </trkpt>
      <trkpt lat="48.37571" lon="-3.82603">
        <ele>298.353539</ele>
        <time>2023-05-01T17:42:14.050Z</time>
      </trkpt>
      <trkpt lat="48.37565" lon="-3.82584">
        <ele>297.894277</ele>
        <time>2023-05-01T17:42:16.047Z</time>
      </trkpt>
      <trkpt lat="48.37557" lon="-3.82565">
        <ele>297.424141</ele>
        <time>2023-05-01T17:42:18.064Z</time>
      </trkpt>
      <trkpt lat="48.37549" lon="-3.82546">
        <ele>296.955655</ele>
        <time>2023-05-01T17:42:20.059Z</time>
      </trkpt>
      <trkpt lat="48.37543" lon="-3.82528">
        <ele>296.49464</ele>
        <time>2023-05-01T17:42:22.060Z</time>
      </trkpt>
      <trkpt lat="48.37534" lon="-3.82507">
        <ele>295.719414</ele>
        <time>2023-05-01T17:42:24.060Z</time>
      </trkpt>
      <trkpt lat="48.37526" lon="-3.82486">
        <ele>294.968268</ele>
        <time>2023-05-01T17:42:26.055Z</time>
      </trkpt>
      <trkpt lat="48.37517" lon="-3.82465">
        <ele>294.172595</ele>
        <time>2023-05-01T17:42:28.060Z</time>
      </trkpt>
      <trkpt lat="48.37507" lon="-3.82442">
        <ele>293.330577</ele>
        <time>2023-05-01T17:42:30.067Z</time>
      </trkpt>
      <trkpt lat="48.37497" lon="-3.8242">
        <ele>292.493716</ele>
        <time>2023-05-01T17:42:32.059Z</time>
      </trkpt>
      <trkpt lat="48.37492" lon="-3.82409">
        <ele>292.066135</ele>
        <time>2023-05-01T17:42:33.061Z</time>
      </trkpt>
      <trkpt lat="48.37483" lon="-3.82387">
        <ele>291.255396</ele>
        <time>2023-05-01T17:42:35.058Z</time>
      </trkpt>
      <trkpt lat="48.37473" lon="-3.82365">
        <ele>290.402881</ele>
        <time>2023-05-01T17:42:37.067Z</time>
      </trkpt>
      <trkpt lat="48.37467" lon="-3.82353">
        <ele>289.943914</ele>
        <time>2023-05-01T17:42:38.061Z</time>
      </trkpt>
      <trkpt lat="48.37462" lon="-3.82341">
        <ele>289.495466</ele>
        <time>2023-05-01T17:42:39.064Z</time>
      </trkpt>
      <trkpt lat="48.37457" lon="-3.82329">
        <ele>289.052296</ele>
        <time>2023-05-01T17:42:40.060Z</time>
      </trkpt>
      <trkpt lat="48.37451" lon="-3.82317">
        <ele>288.598435</ele>
        <time>2023-05-01T17:42:41.060Z</time>
      </trkpt>
      <trkpt lat="48.37445" lon="-3.82305">
        <ele>288.142024</ele>
        <time>2023-05-01T17:42:42.060Z</time>
      </trkpt>
      <trkpt lat="48.3744" lon="-3.82293">
        <ele>287.831884</ele>
        <time>2023-05-01T17:42:43.060Z</time>
      </trkpt>
      <trkpt lat="48.37434" lon="-3.82281">
        <ele>287.539864</ele>
        <time>2023-05-01T17:42:44.067Z</time>
      </trkpt>
      <trkpt lat="48.37428" lon="-3.82269">
        <ele>287.234811</ele>
        <time>2023-05-01T17:42:45.059Z</time>
      </trkpt>
      <trkpt lat="48.37422" lon="-3.82257">
        <ele>286.947769</ele>
        <time>2023-05-01T17:42:46.060Z</time>
      </trkpt>
      <trkpt lat="48.37417" lon="-3.82245">
        <ele>286.649477</ele>
        <time>2023-05-01T17:42:47.061Z</time>
      </trkpt>
      <trkpt lat="48.37411" lon="-3.82233">
        <ele>286.356102</ele>
        <time>2023-05-01T17:42:48.061Z</time>
      </trkpt>
      <trkpt lat="48.37405" lon="-3.8222">
        <ele>286.05781</ele>
        <time>2023-05-01T17:42:49.062Z</time>
      </trkpt>
      <trkpt lat="48.37399" lon="-3.82208">
        <ele>285.757425</ele>
        <time>2023-05-01T17:42:50.063Z</time>
      </trkpt>
      <trkpt lat="48.37393" lon="-3.82196">
        <ele>285.445647</ele>
        <time>2023-05-01T17:42:51.068Z</time>
      </trkpt>
      <trkpt lat="48.37387" lon="-3.82183">
        <ele>285.135614</ele>
        <time>2023-05-01T17:42:52.065Z</time>
      </trkpt>
      <trkpt lat="48.37381" lon="-3.82171">
        <ele>284.834748</ele>
        <time>2023-05-01T17:42:53.069Z</time>
      </trkpt>
      <trkpt lat="48.37376" lon="-3.82158">
        <ele>284.538059</ele>
        <time>2023-05-01T17:42:54.063Z</time>
      </trkpt>
      <trkpt lat="48.3737" lon="-3.82146">
        <ele>284.241334</ele>
        <time>2023-05-01T17:42:55.065Z</time>
      </trkpt>
      <trkpt lat="48.37364" lon="-3.82134">
        <ele>283.939708</ele>
        <time>2023-05-01T17:42:56.067Z</time>
      </trkpt>
      <trkpt lat="48.37359" lon="-3.82121">
        <ele>283.644696</ele>
        <time>2023-05-01T17:42:57.063Z</time>
      </trkpt>
      <trkpt lat="48.37353" lon="-3.8211">
        <ele>283.361271</ele>
        <time>2023-05-01T17:42:58.058Z</time>
      </trkpt>
      <trkpt lat="48.37348" lon="-3.82097">
        <ele>283.06133</ele>
        <time>2023-05-01T17:42:59.059Z</time>
      </trkpt>
      <trkpt lat="48.37342" lon="-3.82085">
        <ele>282.767951</ele>
        <time>2023-05-01T17:43:00.062Z</time>
      </trkpt>
      <trkpt lat="48.37337" lon="-3.82073">
        <ele>282.551348</ele>
        <time>2023-05-01T17:43:01.061Z</time>
      </trkpt>
      <trkpt lat="48.37331" lon="-3.82061">
        <ele>282.352234</ele>
        <time>2023-05-01T17:43:02.061Z</time>
      </trkpt>
      <trkpt lat="48.37326" lon="-3.82049">
        <ele>282.15312</ele>
        <time>2023-05-01T17:43:03.063Z</time>
      </trkpt>
      <trkpt lat="48.37321" lon="-3.82037">
        <ele>281.960778</ele>
        <time>2023-05-01T17:43:04.058Z</time>
      </trkpt>
      <trkpt lat="48.37316" lon="-3.82025">
        <ele>281.769674</ele>
        <time>2023-05-01T17:43:05.069Z</time>
      </trkpt>
      <trkpt lat="48.37311" lon="-3.82014">
        <ele>281.577322</ele>
        <time>2023-05-01T17:43:06.061Z</time>
      </trkpt>
      <trkpt lat="48.37305" lon="-3.82002">
        <ele>281.382647</ele>
        <time>2023-05-01T17:43:07.060Z</time>
      </trkpt>
      <trkpt lat="48.373" lon="-3.81991">
        <ele>281.192611</ele>
        <time>2023-05-01T17:43:08.061Z</time>
      </trkpt>
      <trkpt lat="48.37294" lon="-3.8198">
        <ele>280.997514</ele>
        <time>2023-05-01T17:43:09.061Z</time>
      </trkpt>
      <trkpt lat="48.37289" lon="-3.81968">
        <ele>280.805233</ele>
        <time>2023-05-01T17:43:10.063Z</time>
      </trkpt>
      <trkpt lat="48.37279" lon="-3.81946">
        <ele>280.435533</ele>
        <time>2023-05-01T17:43:12.066Z</time>
      </trkpt>
      <trkpt lat="48.37269" lon="-3.81925">
        <ele>280.083905</ele>
        <time>2023-05-01T17:43:14.063Z</time>
      </trkpt>
      <trkpt lat="48.36982" lon="-3.81331">
        <ele>269.842161</ele>
        <time>2023-05-01T17:44:37.031Z</time>
      </trkpt>
      <trkpt lat="48.36976" lon="-3.81317">
        <ele>269.982203</ele>
        <time>2023-05-01T17:50:39.059Z</time>
      </trkpt>
      <trkpt lat="48.36969" lon="-3.81306">
        <ele>270.11282</ele>
        <time>2023-05-01T17:50:43.063Z</time>
      </trkpt>
      <trkpt lat="48.36962" lon="-3.81292">
        <ele>270.270477</ele>
        <time>2023-05-01T17:50:47.066Z</time>
      </trkpt>
      <trkpt lat="48.36956" lon="-3.8128">
        <ele>270.399738</ele>
        <time>2023-05-01T17:50:50.070Z</time>
      </trkpt>
      <trkpt lat="48.3695" lon="-3.81269">
        <ele>270.526666</ele>
        <time>2023-05-01T17:50:53.068Z</time>
      </trkpt>
      <trkpt lat="48.36944" lon="-3.81256">
        <ele>270.661553</ele>
        <time>2023-05-01T17:50:56.064Z</time>
      </trkpt>
      <trkpt lat="48.36938" lon="-3.81243">
        <ele>270.798879</ele>
        <time>2023-05-01T17:50:59.061Z</time>
      </trkpt>
      <trkpt lat="48.36932" lon="-3.81231">
        <ele>270.934479</ele>
        <time>2023-05-01T17:51:02.062Z</time>
      </trkpt>
      <trkpt lat="48.36927" lon="-3.81218">
        <ele>271.062083</ele>
        <time>2023-05-01T17:51:05.070Z</time>
      </trkpt>
      <trkpt lat="48.3692" lon="-3.81207">
        <ele>271.199412</ele>
        <time>2023-05-01T17:51:08.065Z</time>
      </trkpt>
      <trkpt lat="48.36913" lon="-3.81195">
        <ele>271.234539</ele>
        <time>2023-05-01T17:51:11.068Z</time>
      </trkpt>
      <trkpt lat="48.36907" lon="-3.81182">
        <ele>271.263051</ele>
        <time>2023-05-01T17:51:14.067Z</time>
      </trkpt>
      <trkpt lat="48.369" lon="-3.8117">
        <ele>271.291936</ele>
        <time>2023-05-01T17:51:17.058Z</time>
      </trkpt>
      <trkpt lat="48.36894" lon="-3.81159">
        <ele>271.318798</ele>
        <time>2023-05-01T17:51:20.070Z</time>
      </trkpt>
      <trkpt lat="48.36888" lon="-3.81149">
        <ele>271.343713</ele>
        <time>2023-05-01T17:51:23.067Z</time>
      </trkpt>
      <trkpt lat="48.36882" lon="-3.81135">
        <ele>271.373287</ele>
        <time>2023-05-01T17:51:27.061Z</time>
      </trkpt>
      <trkpt lat="48.36876" lon="-3.81125">
        <ele>271.398477</ele>
        <time>2023-05-01T17:51:30.076Z</time>
      </trkpt>
      <trkpt lat="48.3687" lon="-3.81114">
        <ele>271.423508</ele>
        <time>2023-05-01T17:51:33.068Z</time>
      </trkpt>
      <trkpt lat="48.36863" lon="-3.811">
        <ele>271.456467</ele>
        <time>2023-05-01T17:51:37.062Z</time>
      </trkpt>
      <trkpt lat="48.36856" lon="-3.81087">
        <ele>271.488592</ele>
        <time>2023-05-01T17:51:41.071Z</time>
      </trkpt>
      <trkpt lat="48.36849" lon="-3.81073">
        <ele>271.519138</ele>
        <time>2023-05-01T17:51:45.068Z</time>
      </trkpt>
      <trkpt lat="48.36843" lon="-3.81063">
        <ele>271.543871</ele>
        <time>2023-05-01T17:51:48.060Z</time>
      </trkpt>
      <trkpt lat="48.36836" lon="-3.81051">
        <ele>271.573213</ele>
        <time>2023-05-01T17:51:52.068Z</time>
      </trkpt>
      <trkpt lat="48.3683" lon="-3.81039">
        <ele>271.599267</ele>
        <time>2023-05-01T17:51:56.065Z</time>
      </trkpt>
      <trkpt lat="48.36824" lon="-3.81027">
        <ele>271.628252</ele>
        <time>2023-05-01T17:52:00.064Z</time>
      </trkpt>
      <trkpt lat="48.36818" lon="-3.81013">
        <ele>271.657197</ele>
        <time>2023-05-01T17:52:04.074Z</time>
      </trkpt>
      <trkpt lat="48.36812" lon="-3.81001">
        <ele>271.686329</ele>
        <time>2023-05-01T17:52:08.057Z</time>
      </trkpt>
      <trkpt lat="48.36806" lon="-3.80989">
        <ele>271.894848</ele>
        <time>2023-05-01T17:52:12.073Z</time>
      </trkpt>
      <trkpt lat="48.36801" lon="-3.80977">
        <ele>272.354116</ele>
        <time>2023-05-01T17:52:16.062Z</time>
      </trkpt>
      <trkpt lat="48.36795" lon="-3.80965">
        <ele>272.837347</ele>
        <time>2023-05-01T17:52:20.055Z</time>
      </trkpt>
      <trkpt lat="48.3679" lon="-3.80954">
        <ele>273.288461</ele>
        <time>2023-05-01T17:52:24.071Z</time>
      </trkpt>
      <trkpt lat="48.36783" lon="-3.80941">
        <ele>273.80962</ele>
        <time>2023-05-01T17:52:29.069Z</time>
      </trkpt>
      <trkpt lat="48.36776" lon="-3.8093">
        <ele>274.344029</ele>
        <time>2023-05-01T17:52:35.070Z</time>
      </trkpt>
      <trkpt lat="48.36771" lon="-3.80918">
        <ele>274.797566</ele>
        <time>2023-05-01T17:52:40.069Z</time>
      </trkpt>
      <trkpt lat="48.36764" lon="-3.80905">
        <ele>275.320801</ele>
        <time>2023-05-01T17:52:46.070Z</time>
      </trkpt>
      <trkpt lat="48.36758" lon="-3.80894">
        <ele>275.801383</ele>
        <time>2023-05-01T17:52:51.059Z</time>
      </trkpt>
      <trkpt lat="48.36751" lon="-3.80882">
        <ele>276.329015</ele>
        <time>2023-05-01T17:52:57.063Z</time>
      </trkpt>
      <trkpt lat="48.36746" lon="-3.8087">
        <ele>276.771323</ele>
        <time>2023-05-01T17:53:02.057Z</time>
      </trkpt>
      <trkpt lat="48.3674" lon="-3.80857">
        <ele>277.292485</ele>
        <time>2023-05-01T17:53:08.072Z</time>
      </trkpt>
      <trkpt lat="48.36735" lon="-3.80844">
        <ele>277.779036</ele>
        <time>2023-05-01T17:53:14.063Z</time>
      </trkpt>
      <trkpt lat="48.36727" lon="-3.80833">
        <ele>278.29486</ele>
        <time>2023-05-01T17:53:20.062Z</time>
      </trkpt>
      <trkpt lat="48.36721" lon="-3.80821">
        <ele>278.779383</ele>
        <time>2023-05-01T17:53:26.055Z</time>
      </trkpt>
      <trkpt lat="48.36714" lon="-3.80809">
        <ele>279.308577</ele>
        <time>2023-05-01T17:53:32.062Z</time>
      </trkpt>
      <trkpt lat="48.36709" lon="-3.80798">
        <ele>279.756781</ele>
        <time>2023-05-01T17:53:37.056Z</time>
      </trkpt>
      <trkpt lat="48.36702" lon="-3.80788">
        <ele>280.203393</ele>
        <time>2023-05-01T17:53:42.057Z</time>
      </trkpt>
      <trkpt lat="48.36697" lon="-3.80777">
        <ele>280.670543</ele>
        <time>2023-05-01T17:53:47.072Z</time>
      </trkpt>
      <trkpt lat="48.36691" lon="-3.80765">
        <ele>281.28954</ele>
        <time>2023-05-01T17:53:53.059Z</time>
      </trkpt>
      <trkpt lat="48.36685" lon="-3.80754">
        <ele>281.839517</ele>
        <time>2023-05-01T17:53:58.057Z</time>
      </trkpt>
      <trkpt lat="48.36678" lon="-3.80743">
        <ele>282.420056</ele>
        <time>2023-05-01T17:54:04.063Z</time>
      </trkpt>
      <trkpt lat="48.36672" lon="-3.80731">
        <ele>283.001379</ele>
        <time>2023-05-01T17:54:10.060Z</time>
      </trkpt>
      <trkpt lat="48.36667" lon="-3.80718">
        <ele>283.582104</ele>
        <time>2023-05-01T17:54:16.068Z</time>
      </trkpt>
      <trkpt lat="48.36662" lon="-3.80707">
        <ele>284.127372</ele>
        <time>2023-05-01T17:54:21.057Z</time>
      </trkpt>
      <trkpt lat="48.36656" lon="-3.80695">
        <ele>284.701305</ele>
        <time>2023-05-01T17:54:26.060Z</time>
      </trkpt>
      <trkpt lat="48.36649" lon="-3.80684">
        <ele>285.295313</ele>
        <time>2023-05-01T17:54:32.060Z</time>
      </trkpt>
      <trkpt lat="48.36643" lon="-3.80672">
        <ele>285.900975</ele>
        <time>2023-05-01T17:54:38.058Z</time>
      </trkpt>
      <trkpt lat="48.36636" lon="-3.80661">
        <ele>286.49788</ele>
        <time>2023-05-01T17:54:44.065Z</time>
      </trkpt>
      <trkpt lat="48.36631" lon="-3.8065">
        <ele>287.029477</ele>
        <time>2023-05-01T17:54:49.050Z</time>
      </trkpt>
      <trkpt lat="48.36624" lon="-3.80638">
        <ele>287.60104</ele>
        <time>2023-05-01T17:54:54.064Z</time>
      </trkpt>
      <trkpt lat="48.36617" lon="-3.80627">
        <ele>288.209956</ele>
        <time>2023-05-01T17:55:00.061Z</time>
      </trkpt>
      <trkpt lat="48.3661" lon="-3.80619">
        <ele>288.742427</ele>
        <time>2023-05-01T17:55:05.063Z</time>
      </trkpt>
      <trkpt lat="48.36604" lon="-3.80609">
        <ele>289.277648</ele>
        <time>2023-05-01T17:55:10.070Z</time>
      </trkpt>
      <trkpt lat="48.36597" lon="-3.80597">
        <ele>289.891334</ele>
        <time>2023-05-01T17:55:16.066Z</time>
      </trkpt>
      <trkpt lat="48.36591" lon="-3.80587">
        <ele>290.437667</ele>
        <time>2023-05-01T17:55:21.060Z</time>
      </trkpt>
      <trkpt lat="48.36584" lon="-3.80576">
        <ele>291.014462</ele>
        <time>2023-05-01T17:55:27.058Z</time>
      </trkpt>
      <trkpt lat="48.36578" lon="-3.80562">
        <ele>291.107511</ele>
        <time>2023-05-01T17:55:33.066Z</time>
      </trkpt>
      <trkpt lat="48.36572" lon="-3.80552">
        <ele>291.092824</ele>
        <time>2023-05-01T17:55:38.074Z</time>
      </trkpt>
      <trkpt lat="48.34333" lon="-3.75895">
        <ele>279.788521</ele>
        <time>2023-05-01T18:14:32.048Z</time>
      </trkpt>
      <trkpt lat="48.34332" lon="-3.75878">
        <ele>279.072284</ele>
        <time>2023-05-01T18:15:46.067Z</time>
      </trkpt>
      <trkpt lat="48.34331" lon="-3.75861">
        <ele>278.335871</ele>
        <time>2023-05-01T18:15:50.063Z</time>
      </trkpt>
      <trkpt lat="48.34332" lon="-3.75844">
        <ele>277.563842</ele>
        <time>2023-05-01T18:15:54.061Z</time>
      </trkpt>
      <trkpt lat="48.34332" lon="-3.75829">
        <ele>276.915803</ele>
        <time>2023-05-01T18:15:57.063Z</time>
      </trkpt>
      <trkpt lat="48.34332" lon="-3.75813">
        <ele>276.24056</ele>
        <time>2023-05-01T18:16:00.063Z</time>
      </trkpt>
      <trkpt lat="48.34333" lon="-3.75797">
        <ele>275.544222</ele>
        <time>2023-05-01T18:16:03.059Z</time>
      </trkpt>
      <trkpt lat="48.34334" lon="-3.7578">
        <ele>274.776839</ele>
        <time>2023-05-01T18:16:06.058Z</time>
      </trkpt>
      <trkpt lat="48.34336" lon="-3.75762">
        <ele>273.987884</ele>
        <time>2023-05-01T18:16:09.069Z</time>
      </trkpt>
      <trkpt lat="48.34337" lon="-3.75743">
        <ele>273.160828</ele>
        <time>2023-05-01T18:16:12.061Z</time>
      </trkpt>
      <trkpt lat="48.34338" lon="-3.75728">
        <ele>272.515976</ele>
        <time>2023-05-01T18:16:14.068Z</time>
      </trkpt>
      <trkpt lat="48.34339" lon="-3.7571">
        <ele>271.813017</ele>
        <time>2023-05-01T18:16:17.063Z</time>
      </trkpt>
      <trkpt lat="48.34341" lon="-3.75691">
        <ele>271.215949</ele>
        <time>2023-05-01T18:16:20.069Z</time>
      </trkpt>
      <trkpt lat="48.34343" lon="-3.75676">
        <ele>270.730797</ele>
        <time>2023-05-01T18:16:22.068Z</time>
      </trkpt>
      <trkpt lat="48.34345" lon="-3.75656">
        <ele>270.083188</ele>
        <time>2023-05-01T18:16:25.059Z</time>
      </trkpt>
      <trkpt lat="48.34347" lon="-3.75642">
        <ele>269.6345</ele>
        <time>2023-05-01T18:16:27.058Z</time>
      </trkpt>
      <trkpt lat="48.34349" lon="-3.75627">
        <ele>269.153589</ele>
        <time>2023-05-01T18:16:29.058Z</time>
      </trkpt>
      <trkpt lat="48.34351" lon="-3.75613">
        <ele>268.704266</ele>
        <time>2023-05-01T18:16:31.069Z</time>
      </trkpt>
      <trkpt lat="48.34354" lon="-3.75597">
        <ele>268.198608</ele>
        <time>2023-05-01T18:16:33.065Z</time>
      </trkpt>
      <trkpt lat="48.34356" lon="-3.75581">
        <ele>267.687158</ele>
        <time>2023-05-01T18:16:35.058Z</time>
      </trkpt>
      <trkpt lat="48.3436" lon="-3.75564">
        <ele>267.123871</ele>
        <time>2023-05-01T18:16:37.061Z</time>
      </trkpt>
      <trkpt lat="48.34363" lon="-3.75547">
        <ele>266.55274</ele>
        <time>2023-05-01T18:16:39.062Z</time>
      </trkpt>
      <trkpt lat="48.34366" lon="-3.75528">
        <ele>265.957956</ele>
        <time>2023-05-01T18:16:41.060Z</time>
      </trkpt>
      <trkpt lat="48.34369" lon="-3.75509">
        <ele>265.350364</ele>
        <time>2023-05-01T18:16:43.053Z</time>
      </trkpt>
      <trkpt lat="48.34372" lon="-3.75489">
        <ele>264.70417</ele>
        <time>2023-05-01T18:16:45.061Z</time>
      </trkpt>
      <trkpt lat="48.34375" lon="-3.75469">
        <ele>264.052791</ele>
        <time>2023-05-01T18:16:47.061Z</time>
      </trkpt>
      <trkpt lat="48.3438" lon="-3.75448">
        <ele>263.464895</ele>
        <time>2023-05-01T18:16:49.057Z</time>
      </trkpt>
      <trkpt lat="48.34383" lon="-3.75427">
        <ele>263.178158</ele>
        <time>2023-05-01T18:16:51.062Z</time>
      </trkpt>
      <trkpt lat="48.34387" lon="-3.75405">
        <ele>262.883146</ele>
        <time>2023-05-01T18:16:53.061Z</time>
      </trkpt>
      <trkpt lat="48.3439" lon="-3.75383">
        <ele>262.587853</ele>
        <time>2023-05-01T18:16:55.061Z</time>
      </trkpt>
      <trkpt lat="48.34395" lon="-3.7536">
        <ele>262.281135</ele>
        <time>2023-05-01T18:16:57.062Z</time>
      </trkpt>
      <trkpt lat="48.34399" lon="-3.75338">
        <ele>261.979968</ele>
        <time>2023-05-01T18:16:59.058Z</time>
      </trkpt>
      <trkpt lat="48.34403" lon="-3.75316">
        <ele>261.683799</ele>
        <time>2023-05-01T18:17:01.064Z</time>
      </trkpt>
      <trkpt lat="48.34408" lon="-3.75295">
        <ele>261.392049</ele>
        <time>2023-05-01T18:17:03.062Z</time>
      </trkpt>
      <trkpt lat="48.34412" lon="-3.75274">
        <ele>261.102785</ele>
        <time>2023-05-01T18:17:05.058Z</time>
      </trkpt>
      <trkpt lat="48.34416" lon="-3.75253">
        <ele>260.820769</ele>
        <time>2023-05-01T18:17:07.058Z</time>
      </trkpt>
      <trkpt lat="48.3442" lon="-3.75232">
        <ele>260.54013</ele>
        <time>2023-05-01T18:17:09.063Z</time>
      </trkpt>
      <trkpt lat="48.34424" lon="-3.75212">
        <ele>260.269005</ele>
        <time>2023-05-01T18:17:11.059Z</time>
      </trkpt>
      <trkpt lat="48.34427" lon="-3.75193">
        <ele>260.011289</ele>
        <time>2023-05-01T18:17:13.062Z</time>
      </trkpt>
      <trkpt lat="48.34431" lon="-3.75174">
        <ele>260.006507</ele>
        <time>2023-05-01T18:17:15.061Z</time>
      </trkpt>
      <trkpt lat="48.34434" lon="-3.75155">
        <ele>260.001593</ele>
        <time>2023-05-01T18:17:17.061Z</time>
      </trkpt>
      <trkpt lat="48.34438" lon="-3.75138">
        <ele>259.997048</ele>
        <time>2023-05-01T18:17:19.065Z</time>
      </trkpt>
      <trkpt lat="48.34441" lon="-3.7512">
        <ele>259.992344</ele>
        <time>2023-05-01T18:17:21.068Z</time>
      </trkpt>
      <trkpt lat="48.34445" lon="-3.75104">
        <ele>259.988051</ele>
        <time>2023-05-01T18:17:23.060Z</time>
      </trkpt>
      <trkpt lat="48.34448" lon="-3.75087">
        <ele>259.983764</ele>
        <time>2023-05-01T18:17:25.057Z</time>
      </trkpt>
      <trkpt lat="48.34451" lon="-3.75071">
        <ele>259.979601</ele>
        <time>2023-05-01T18:17:27.061Z</time>
      </trkpt>
      <trkpt lat="48.34453" lon="-3.75057">
        <ele>259.975765</ele>
        <time>2023-05-01T18:17:29.069Z</time>
      </trkpt>
      <trkpt lat="48.34455" lon="-3.75042">
        <ele>259.97198</ele>
        <time>2023-05-01T18:17:31.097Z</time>
      </trkpt>
      <trkpt lat="48.34459" lon="-3.75026">
        <ele>259.967899</ele>
        <time>2023-05-01T18:17:33.075Z</time>
      </trkpt>
      <trkpt lat="48.34461" lon="-3.75011">
        <ele>259.963908</ele>
        <time>2023-05-01T18:17:35.069Z</time>
      </trkpt>
      <trkpt lat="48.34464" lon="-3.74996">
        <ele>259.959999</ele>
        <time>2023-05-01T18:17:37.063Z</time>
      </trkpt>
      <trkpt lat="48.34466" lon="-3.74981">
        <ele>259.956197</ele>
        <time>2023-05-01T18:17:39.064Z</time>
      </trkpt>
      <trkpt lat="48.34469" lon="-3.74966">
        <ele>259.952307</ele>
        <time>2023-05-01T18:17:41.068Z</time>
      </trkpt>
      <trkpt lat="48.34472" lon="-3.74951">
        <ele>259.948425</ele>
        <time>2023-05-01T18:17:43.062Z</time>
      </trkpt>
      <trkpt lat="48.34475" lon="-3.74936">
        <ele>259.944403</ele>
        <time>2023-05-01T18:17:45.060Z</time>
      </trkpt>
      <trkpt lat="48.34477" lon="-3.74921">
        <ele>259.956248</ele>
        <time>2023-05-01T18:17:47.057Z</time>
      </trkpt>
      <trkpt lat="48.3448" lon="-3.74906">
        <ele>259.972782</ele>
        <time>2023-05-01T18:17:49.067Z</time>
      </trkpt>
      <trkpt lat="48.34483" lon="-3.74892">
        <ele>259.989296</ele>
        <time>2023-05-01T18:17:51.066Z</time>
      </trkpt>
      <trkpt lat="48.34485" lon="-3.74877">
        <ele>260.005809</ele>
        <time>2023-05-01T18:17:53.065Z</time>
      </trkpt>
      <trkpt lat="48.34487" lon="-3.74862">
        <ele>260.022325</ele>
        <time>2023-05-01T18:17:55.061Z</time>
      </trkpt>
      <trkpt lat="48.3449" lon="-3.74847">
        <ele>260.038804</ele>
        <time>2023-05-01T18:17:57.066Z</time>
      </trkpt>
      <trkpt lat="48.34492" lon="-3.74832">
        <ele>260.055844</ele>
        <time>2023-05-01T18:17:59.067Z</time>
      </trkpt>
      <trkpt lat="48.34495" lon="-3.74817">
        <ele>260.073101</ele>
        <time>2023-05-01T18:18:01.063Z</time>
      </trkpt>
      <trkpt lat="48.34496" lon="-3.74802">
        <ele>260.089357</ele>
        <time>2023-05-01T18:18:03.060Z</time>
      </trkpt>
      <trkpt lat="48.34499" lon="-3.74787">
        <ele>260.106415</ele>
        <time>2023-05-01T18:18:05.061Z</time>
      </trkpt>
      <trkpt lat="48.345" lon="-3.74773">
        <ele>260.121789</ele>
        <time>2023-05-01T18:18:07.057Z</time>
      </trkpt>
      <trkpt lat="48.34501" lon="-3.74758">
        <ele>260.137809</ele>
        <time>2023-05-01T18:18:09.064Z</time>
      </trkpt>
      <trkpt lat="48.34504" lon="-3.74743">
        <ele>260.154553</ele>
        <time>2023-05-01T18:18:11.061Z</time>
      </trkpt>
      <trkpt lat="48.34506" lon="-3.74728">
        <ele>260.170964</ele>
        <time>2023-05-01T18:18:13.063Z</time>
      </trkpt>
      <trkpt lat="48.34507" lon="-3.74714">
        <ele>260.186445</ele>
        <time>2023-05-01T18:18:15.063Z</time>
      </trkpt>
      <trkpt lat="48.34508" lon="-3.74701">
        <ele>260.201139</ele>
        <time>2023-05-01T18:18:17.062Z</time>
      </trkpt>
      <trkpt lat="48.34509" lon="-3.74687">
        <ele>260.215849</ele>
        <time>2023-05-01T18:18:19.062Z</time>
      </trkpt>
      <trkpt lat="48.34511" lon="-3.74668">
        <ele>260.236845</ele>
        <time>2023-05-01T18:18:22.059Z</time>
      </trkpt>
      <trkpt lat="48.34513" lon="-3.74653">
        <ele>260.222429</ele>
        <time>2023-05-01T18:18:24.063Z</time>
      </trkpt>
      <trkpt lat="48.34514" lon="-3.74639">
        <ele>260.208676</ele>
        <time>2023-05-01T18:18:26.061Z</time>
      </trkpt>
      <trkpt lat="48.34517" lon="-3.74625">
        <ele>260.194656</ele>
        <time>2023-05-01T18:18:28.062Z</time>
      </trkpt>
      <trkpt lat="48.34519" lon="-3.74611">
        <ele>260.180809</ele>
        <time>2023-05-01T18:18:30.068Z</time>
      </trkpt>
      <trkpt lat="48.3452" lon="-3.74596">
        <ele>260.166749</ele>
        <time>2023-05-01T18:18:32.063Z</time>
      </trkpt>
      <trkpt lat="48.34521" lon="-3.74582">
        <ele>260.152577</ele>
        <time>2023-05-01T18:18:34.065Z</time>
      </trkpt>
      <trkpt lat="48.34522" lon="-3.74567">
        <ele>260.138544</ele>
        <time>2023-05-01T18:18:36.061Z</time>
      </trkpt>
      <trkpt lat="48.34523" lon="-3.74553">
        <ele>260.124699</ele>
        <time>2023-05-01T18:18:38.058Z</time>
      </trkpt>
      <trkpt lat="48.34524" lon="-3.74538">
        <ele>260.110415</ele>
        <time>2023-05-01T18:18:40.055Z</time>
      </trkpt>
      <trkpt lat="48.34525" lon="-3.74523">
        <ele>260.095997</ele>
        <time>2023-05-01T18:18:42.059Z</time>
      </trkpt>
      <trkpt lat="48.34527" lon="-3.74509">
        <ele>260.081844</ele>
        <time>2023-05-01T18:18:44.058Z</time>
      </trkpt>
      <trkpt lat="48.34527" lon="-3.74494">
        <ele>260.067715</ele>
        <time>2023-05-01T18:18:46.059Z</time>
      </trkpt>
      <trkpt lat="48.34529" lon="-3.7448">
        <ele>260.05391</ele>
        <time>2023-05-01T18:18:48.059Z</time>
      </trkpt>
      <trkpt lat="48.34529" lon="-3.74465">
        <ele>260.039492</ele>
        <time>2023-05-01T18:18:50.066Z</time>
      </trkpt>
      <trkpt lat="48.3453" lon="-3.74451">
        <ele>260.025577</ele>
        <time>2023-05-01T18:18:52.064Z</time>
      </trkpt>
      <trkpt lat="48.34531" lon="-3.74437">
        <ele>260.011788</ele>
        <time>2023-05-01T18:18:54.058Z</time>
      </trkpt>
      <trkpt lat="48.34532" lon="-3.74422">
        <ele>259.998031</ele>
        <time>2023-05-01T18:18:56.057Z</time>
      </trkpt>
      <trkpt lat="48.34533" lon="-3.74409">
        <ele>259.984671</ele>
        <time>2023-05-01T18:18:58.060Z</time>
      </trkpt>
      <trkpt lat="48.34533" lon="-3.74389">
        <ele>259.972179</ele>
        <time>2023-05-01T18:19:01.061Z</time>
      </trkpt>
      <trkpt lat="48.34534" lon="-3.7437">
        <ele>259.965376</ele>
        <time>2023-05-01T18:19:04.062Z</time>
      </trkpt>
      <trkpt lat="48.34535" lon="-3.7435">
        <ele>259.958338</ele>
        <time>2023-05-01T18:19:07.059Z</time>
      </trkpt>
      <trkpt lat="48.34536" lon="-3.74333">
        <ele>259.952081</ele>
        <time>2023-05-01T18:19:10.064Z</time>
      </trkpt>
      <trkpt lat="48.34538" lon="-3.74315">
        <ele>259.945808</ele>
        <time>2023-05-01T18:19:13.063Z</time>
      </trkpt>
      <trkpt lat="48.34539" lon="-3.74298">
        <ele>259.939471</ele>
        <time>2023-05-01T18:19:16.059Z</time>
      </trkpt>
      <trkpt lat="48.3454" lon="-3.74279">
        <ele>259.932677</ele>
        <time>2023-05-01T18:19:19.063Z</time>
      </trkpt>
      <trkpt lat="48.34542" lon="-3.74258">
        <ele>259.925407</ele>
        <time>2023-05-01T18:19:22.062Z</time>
      </trkpt>
      <trkpt lat="48.34542" lon="-3.74244">
        <ele>259.920239</ele>
        <time>2023-05-01T18:19:24.062Z</time>
      </trkpt>
      <trkpt lat="48.34543" lon="-3.74225">
        <ele>259.913347</ele>
        <time>2023-05-01T18:19:27.059Z</time>
      </trkpt>
      <trkpt lat="48.34544" lon="-3.74205">
        <ele>259.906194</ele>
        <time>2023-05-01T18:19:30.066Z</time>
      </trkpt>
      <trkpt lat="48.34544" lon="-3.74191">
        <ele>259.901238</ele>
        <time>2023-05-01T18:19:32.064Z</time>
      </trkpt>
      <trkpt lat="48.34545" lon="-3.74177">
        <ele>259.896304</ele>
        <time>2023-05-01T18:19:34.068Z</time>
      </trkpt>
      <trkpt lat="48.34546" lon="-3.74163">
        <ele>259.89117</ele>
        <time>2023-05-01T18:19:36.061Z</time>
      </trkpt>
      <trkpt lat="48.34546" lon="-3.74148">
        <ele>259.886075</ele>
        <time>2023-05-01T18:19:38.074Z</time>
      </trkpt>
      <trkpt lat="48.34547" lon="-3.74134">
        <ele>259.881105</ele>
        <time>2023-05-01T18:19:40.060Z</time>
      </trkpt>
      <trkpt lat="48.34547" lon="-3.7412">
        <ele>259.87769</ele>
        <time>2023-05-01T18:19:42.067Z</time>
      </trkpt>
      <trkpt lat="48.34548" lon="-3.74106">
        <ele>259.875084</ele>
        <time>2023-05-01T18:19:44.062Z</time>
      </trkpt>
      <trkpt lat="48.34548" lon="-3.74092">
        <ele>259.872477</ele>
        <time>2023-05-01T18:19:46.059Z</time>
      </trkpt>
      <trkpt lat="48.34549" lon="-3.74079">
        <ele>259.869912</ele>
        <time>2023-05-01T18:19:48.064Z</time>
      </trkpt>
      <trkpt lat="48.34549" lon="-3.7406">
        <ele>259.866461</ele>
        <time>2023-05-01T18:19:51.063Z</time>
      </trkpt>
      <trkpt lat="48.3455" lon="-3.74042">
        <ele>259.863025</ele>
        <time>2023-05-01T18:19:54.068Z</time>
      </trkpt>
      <trkpt lat="48.34551" lon="-3.74025">
        <ele>259.859774</ele>
        <time>2023-05-01T18:19:57.061Z</time>
      </trkpt>
      <trkpt lat="48.34552" lon="-3.74008">
        <ele>259.856566</ele>
        <time>2023-05-01T18:20:00.057Z</time>
      </trkpt>
      <trkpt lat="48.34553" lon="-3.7399">
        <ele>259.853291</ele>
        <time>2023-05-01T18:20:03.063Z</time>
      </trkpt>
      <trkpt lat="48.34555" lon="-3.73972">
        <ele>259.849823</ele>
        <time>2023-05-01T18:20:06.060Z</time>
      </trkpt>
      <trkpt lat="48.34556" lon="-3.73952">
        <ele>259.846159</ele>
        <time>2023-05-01T18:20:09.061Z</time>
      </trkpt>
      <trkpt lat="48.34557" lon="-3.73939">
        <ele>259.843606</ele>
        <time>2023-05-01T18:20:11.060Z</time>
      </trkpt>
      <trkpt lat="48.34558" lon="-3.73918">
        <ele>259.839745</ele>
        <time>2023-05-01T18:20:14.063Z</time>
      </trkpt>
      <trkpt lat="48.34559" lon="-3.739">
        <ele>259.836262</ele>
        <time>2023-05-01T18:20:17.060Z</time>
      </trkpt>
      <trkpt lat="48.3456" lon="-3.73882">
        <ele>259.832877</ele>
        <time>2023-05-01T18:20:20.057Z</time>
      </trkpt>
      <trkpt lat="48.3456" lon="-3.73862">
        <ele>259.829282</ele>
        <time>2023-05-01T18:20:23.066Z</time>
      </trkpt>
      <trkpt lat="48.34561" lon="-3.73849">
        <ele>259.744673</ele>
        <time>2023-05-01T18:20:25.060Z</time>
      </trkpt>
      <trkpt lat="48.34562" lon="-3.73835">
        <ele>259.639788</ele>
        <time>2023-05-01T18:20:27.057Z</time>
      </trkpt>
      <trkpt lat="48.34563" lon="-3.73821">
        <ele>259.535873</ele>
        <time>2023-05-01T18:20:29.062Z</time>
      </trkpt>
      <trkpt lat="48.34563" lon="-3.73806">
        <ele>259.427346</ele>
        <time>2023-05-01T18:20:31.063Z</time>
      </trkpt>
      <trkpt lat="48.34564" lon="-3.73793">
        <ele>259.325344</ele>
        <time>2023-05-01T18:20:33.062Z</time>
      </trkpt>
      <trkpt lat="48.34564" lon="-3.73779">
        <ele>259.221362</ele>
        <time>2023-05-01T18:20:35.059Z</time>
      </trkpt>
      <trkpt lat="48.34566" lon="-3.73759">
        <ele>259.07195</ele>
        <time>2023-05-01T18:20:38.062Z</time>
      </trkpt>
      <trkpt lat="48.34567" lon="-3.73738">
        <ele>258.919587</ele>
        <time>2023-05-01T18:20:41.062Z</time>
      </trkpt>
      <trkpt lat="48.34568" lon="-3.73719">
        <ele>258.774949</ele>
        <time>2023-05-01T18:20:44.059Z</time>
      </trkpt>
      <trkpt lat="48.34569" lon="-3.737">
        <ele>258.635026</ele>
        <time>2023-05-01T18:20:47.058Z</time>
      </trkpt>
      <trkpt lat="48.34569" lon="-3.73682">
        <ele>258.501399</ele>
        <time>2023-05-01T18:20:50.065Z</time>
      </trkpt>
      <trkpt lat="48.3457" lon="-3.73665">
        <ele>258.371181</ele>
        <time>2023-05-01T18:20:53.062Z</time>
      </trkpt>
      <trkpt lat="48.34571" lon="-3.73647">
        <ele>258.243843</ele>
        <time>2023-05-01T18:20:56.062Z</time>
      </trkpt>
      <trkpt lat="48.34572" lon="-3.7363">
        <ele>258.117466</ele>
        <time>2023-05-01T18:20:59.058Z</time>
      </trkpt>
      <trkpt lat="48.34573" lon="-3.73613">
        <ele>257.987076</ele>
        <time>2023-05-01T18:21:02.060Z</time>
      </trkpt>
      <trkpt lat="48.34573" lon="-3.73595">
        <ele>257.852637</ele>
        <time>2023-05-01T18:21:05.058Z</time>
      </trkpt>
      <trkpt lat="48.34574" lon="-3.73576">
        <ele>257.558916</ele>
        <time>2023-05-01T18:21:08.060Z</time>
      </trkpt>
      <trkpt lat="48.34575" lon="-3.73555">
        <ele>257.206735</ele>
        <time>2023-05-01T18:21:11.063Z</time>
      </trkpt>
      <trkpt lat="48.34575" lon="-3.73541">
        <ele>256.957993</ele>
        <time>2023-05-01T18:21:13.061Z</time>
      </trkpt>
      <trkpt lat="48.34576" lon="-3.73527">
        <ele>256.714484</ele>
        <time>2023-05-01T18:21:15.060Z</time>
      </trkpt>
      <trkpt lat="48.34577" lon="-3.73513">
        <ele>256.470337</ele>
        <time>2023-05-01T18:21:17.063Z</time>
      </trkpt>
      <trkpt lat="48.34578" lon="-3.735">
        <ele>256.226828</ele>
        <time>2023-05-01T18:21:19.061Z</time>
      </trkpt>
      <trkpt lat="48.34578" lon="-3.73485">
        <ele>255.978587</ele>
        <time>2023-05-01T18:21:21.061Z</time>
      </trkpt>
      <trkpt lat="48.34578" lon="-3.73471">
        <ele>255.72269</ele>
        <time>2023-05-01T18:21:23.061Z</time>
      </trkpt>
      <trkpt lat="48.34579" lon="-3.73456">
        <ele>255.457656</ele>
        <time>2023-05-01T18:21:25.060Z</time>
      </trkpt>
      <trkpt lat="48.3458" lon="-3.7344">
        <ele>255.185148</ele>
        <time>2023-05-01T18:21:27.067Z</time>
      </trkpt>
      <trkpt lat="48.34581" lon="-3.73425">
        <ele>254.916117</ele>
        <time>2023-05-01T18:21:29.061Z</time>
      </trkpt>
      <trkpt lat="48.34583" lon="-3.73409">
        <ele>254.638108</ele>
        <time>2023-05-01T18:21:31.059Z</time>
      </trkpt>
      <trkpt lat="48.34583" lon="-3.73393">
        <ele>254.354708</ele>
        <time>2023-05-01T18:21:33.065Z</time>
      </trkpt>
      <trkpt lat="48.34584" lon="-3.73376">
        <ele>254.063927</ele>
        <time>2023-05-01T18:21:35.063Z</time>
      </trkpt>
      <trkpt lat="48.34584" lon="-3.73359">
        <ele>253.763138</ele>
        <time>2023-05-01T18:21:37.062Z</time>
      </trkpt>
      <trkpt lat="48.34584" lon="-3.73342">
        <ele>253.470896</ele>
        <time>2023-05-01T18:21:39.062Z</time>
      </trkpt>
      <trkpt lat="48.34585" lon="-3.73325">
        <ele>253.17352</ele>
        <time>2023-05-01T18:21:41.064Z</time>
      </trkpt>
      <trkpt lat="48.34586" lon="-3.73307">
        <ele>252.686758</ele>
        <time>2023-05-01T18:21:43.073Z</time>
      </trkpt>
      <trkpt lat="48.34587" lon="-3.73289">
        <ele>252.118261</ele>
        <time>2023-05-01T18:21:45.061Z</time>
      </trkpt>
      <trkpt lat="48.34588" lon="-3.7327">
        <ele>251.542211</ele>
        <time>2023-05-01T18:21:47.057Z</time>
      </trkpt>
      <trkpt lat="48.34589" lon="-3.73251">
        <ele>250.954016</ele>
        <time>2023-05-01T18:21:49.067Z</time>
      </trkpt>
      <trkpt lat="48.34591" lon="-3.73232">
        <ele>250.387502</ele>
        <time>2023-05-01T18:21:51.067Z</time>
      </trkpt>
      <trkpt lat="48.34592" lon="-3.73214">
        <ele>249.838292</ele>
        <time>2023-05-01T18:21:53.062Z</time>
      </trkpt>
      <trkpt lat="48.34593" lon="-3.73196">
        <ele>249.278926</ele>
        <time>2023-05-01T18:21:55.099Z</time>
      </trkpt>
      <trkpt lat="48.34593" lon="-3.73177">
        <ele>248.69548</ele>
        <time>2023-05-01T18:21:57.065Z</time>
      </trkpt>
      <trkpt lat="48.34594" lon="-3.73159">
        <ele>248.13307</ele>
        <time>2023-05-01T18:21:59.064Z</time>
      </trkpt>
      <trkpt lat="48.34595" lon="-3.73139">
        <ele>247.542249</ele>
        <time>2023-05-01T18:22:01.060Z</time>
      </trkpt>
      <trkpt lat="48.34596" lon="-3.73119">
        <ele>246.934439</ele>
        <time>2023-05-01T18:22:03.062Z</time>
      </trkpt>
      <trkpt lat="48.34597" lon="-3.73099">
        <ele>246.312833</ele>
        <time>2023-05-01T18:22:05.060Z</time>
      </trkpt>
      <trkpt lat="48.34599" lon="-3.73079">
        <ele>245.68428</ele>
        <time>2023-05-01T18:22:07.060Z</time>
      </trkpt>
      <trkpt lat="48.34599" lon="-3.73058">
        <ele>245.067077</ele>
        <time>2023-05-01T18:22:09.063Z</time>
      </trkpt>
      <trkpt lat="48.34601" lon="-3.73036">
        <ele>244.356958</ele>
        <time>2023-05-01T18:22:11.057Z</time>
      </trkpt>
      <trkpt lat="48.34602" lon="-3.73014">
        <ele>243.630981</ele>
        <time>2023-05-01T18:22:13.065Z</time>
      </trkpt>
      <trkpt lat="48.34603" lon="-3.72991">
        <ele>242.877769</ele>
        <time>2023-05-01T18:22:15.061Z</time>
      </trkpt>
      <trkpt lat="48.34603" lon="-3.72968">
        <ele>242.131596</ele>
        <time>2023-05-01T18:22:17.061Z</time>
      </trkpt>
      <trkpt lat="48.34604" lon="-3.72944">
        <ele>241.375952</ele>
        <time>2023-05-01T18:22:19.062Z</time>
      </trkpt>
      <trkpt lat="48.34605" lon="-3.72921">
        <ele>240.619806</ele>
        <time>2023-05-01T18:22:21.065Z</time>
      </trkpt>
      <trkpt lat="48.34606" lon="-3.72898">
        <ele>239.873633</ele>
        <time>2023-05-01T18:22:23.064Z</time>
      </trkpt>
      <trkpt lat="48.34607" lon="-3.72873">
        <ele>239.068967</ele>
        <time>2023-05-01T18:22:25.060Z</time>
      </trkpt>
      <trkpt lat="48.34607" lon="-3.72849">
        <ele>238.294656</ele>
        <time>2023-05-01T18:22:27.059Z</time>
      </trkpt>
      <trkpt lat="48.34606" lon="-3.72827">
        <ele>237.571919</ele>
        <time>2023-05-01T18:22:29.067Z</time>
      </trkpt>
      <trkpt lat="48.34606" lon="-3.72804">
        <ele>236.829989</ele>
        <time>2023-05-01T18:22:31.060Z</time>
      </trkpt>
      <trkpt lat="48.34606" lon="-3.7278">
        <ele>236.059833</ele>
        <time>2023-05-01T18:22:33.071Z</time>
      </trkpt>
      <trkpt lat="48.34605" lon="-3.72756">
        <ele>234.920244</ele>
        <time>2023-05-01T18:22:35.057Z</time>
      </trkpt>
      <trkpt lat="48.34603" lon="-3.72733">
        <ele>233.782362</ele>
        <time>2023-05-01T18:22:37.060Z</time>
      </trkpt>
      <trkpt lat="48.346" lon="-3.72708">
        <ele>232.605595</ele>
        <time>2023-05-01T18:22:39.062Z</time>
      </trkpt>
      <trkpt lat="48.34598" lon="-3.72684">
        <ele>231.467724</ele>
        <time>2023-05-01T18:22:41.062Z</time>
      </trkpt>
      <trkpt lat="48.34595" lon="-3.72661">
        <ele>230.340348</ele>
        <time>2023-05-01T18:22:43.058Z</time>
      </trkpt>
      <trkpt lat="48.34592" lon="-3.72637">
        <ele>229.182185</ele>
        <time>2023-05-01T18:22:45.060Z</time>
      </trkpt>
      <trkpt lat="48.34588" lon="-3.72613">
        <ele>228.010492</ele>
        <time>2023-05-01T18:22:47.059Z</time>
      </trkpt>
      <trkpt lat="48.34585" lon="-3.72588">
        <ele>226.810969</ele>
        <time>2023-05-01T18:22:49.067Z</time>
      </trkpt>
      <trkpt lat="48.34581" lon="-3.72563">
        <ele>225.571449</ele>
        <time>2023-05-01T18:22:51.059Z</time>
      </trkpt>
      <trkpt lat="48.34577" lon="-3.72538">
        <ele>224.349936</ele>
        <time>2023-05-01T18:22:53.058Z</time>
      </trkpt>
      <trkpt lat="48.34572" lon="-3.72513">
        <ele>223.149328</ele>
        <time>2023-05-01T18:22:55.061Z</time>
      </trkpt>
      <trkpt lat="48.34568" lon="-3.72489">
        <ele>222.070094</ele>
        <time>2023-05-01T18:22:57.057Z</time>
      </trkpt>
      <trkpt lat="48.34564" lon="-3.72465">
        <ele>220.967906</ele>
        <time>2023-05-01T18:22:59.057Z</time>
      </trkpt>
      <trkpt lat="48.3456" lon="-3.7244">
        <ele>219.858292</ele>
        <time>2023-05-01T18:23:01.063Z</time>
      </trkpt>
      <trkpt lat="48.34556" lon="-3.72416">
        <ele>218.75937</ele>
        <time>2023-05-01T18:23:03.066Z</time>
      </trkpt>
      <trkpt lat="48.34551" lon="-3.72392">
        <ele>217.674447</ele>
        <time>2023-05-01T18:23:05.058Z</time>
      </trkpt>
      <trkpt lat="48.34547" lon="-3.72368">
        <ele>216.60105</ele>
        <time>2023-05-01T18:23:07.059Z</time>
      </trkpt>
      <trkpt lat="48.34543" lon="-3.72345">
        <ele>215.526982</ele>
        <time>2023-05-01T18:23:09.063Z</time>
      </trkpt>
      <trkpt lat="48.34539" lon="-3.7232">
        <ele>214.409483</ele>
        <time>2023-05-01T18:23:11.064Z</time>
      </trkpt>
      <trkpt lat="48.34535" lon="-3.72294">
        <ele>213.254823</ele>
        <time>2023-05-01T18:23:13.062Z</time>
      </trkpt>
      <trkpt lat="48.34529" lon="-3.7227">
        <ele>212.12223</ele>
        <time>2023-05-01T18:23:15.064Z</time>
      </trkpt>
      <trkpt lat="48.34525" lon="-3.72246">
        <ele>211.05381</ele>
        <time>2023-05-01T18:23:17.055Z</time>
      </trkpt>
      <trkpt lat="48.3452" lon="-3.72222">
        <ele>210.00393</ele>
        <time>2023-05-01T18:23:19.062Z</time>
      </trkpt>
      <trkpt lat="48.34515" lon="-3.72198">
        <ele>208.942011</ele>
        <time>2023-05-01T18:23:21.063Z</time>
      </trkpt>
      <trkpt lat="48.3451" lon="-3.72174">
        <ele>207.899899</ele>
        <time>2023-05-01T18:23:23.058Z</time>
      </trkpt>
      <trkpt lat="48.34505" lon="-3.7215">
        <ele>206.828124</ele>
        <time>2023-05-01T18:23:25.060Z</time>
      </trkpt>
      <trkpt lat="48.34499" lon="-3.72127">
        <ele>205.778066</ele>
        <time>2023-05-01T18:23:27.059Z</time>
      </trkpt>
      <trkpt lat="48.34493" lon="-3.72102">
        <ele>204.67588</ele>
        <time>2023-05-01T18:23:29.062Z</time>
      </trkpt>
      <trkpt lat="48.34487" lon="-3.72076">
        <ele>203.530147</ele>
        <time>2023-05-01T18:23:31.060Z</time>
      </trkpt>
      <trkpt lat="48.34481" lon="-3.72051">
        <ele>202.382267</ele>
        <time>2023-05-01T18:23:33.064Z</time>
      </trkpt>
      <trkpt lat="48.34477" lon="-3.72038">
        <ele>201.808711</ele>
        <time>2023-05-01T18:23:34.067Z</time>
      </trkpt>
      <trkpt lat="48.34474" lon="-3.72025">
        <ele>201.186708</ele>
        <time>2023-05-01T18:23:35.062Z</time>
      </trkpt>
      <trkpt lat="48.3447" lon="-3.72011">
        <ele>200.57141</ele>
        <time>2023-05-01T18:23:36.066Z</time>
      </trkpt>
      <trkpt lat="48.34466" lon="-3.71998">
        <ele>199.984556</ele>
        <time>2023-05-01T18:23:37.070Z</time>
      </trkpt>
      <trkpt lat="48.34462" lon="-3.71984">
        <ele>199.648549</ele>
        <time>2023-05-01T18:23:38.064Z</time>
      </trkpt>
      <trkpt lat="48.34455" lon="-3.71972">
        <ele>199.284287</ele>
        <time>2023-05-01T18:23:39.063Z</time>
      </trkpt>
      <trkpt lat="48.34451" lon="-3.71958">
        <ele>198.932842</ele>
        <time>2023-05-01T18:23:40.062Z</time>
      </trkpt>
      <trkpt lat="48.34446" lon="-3.71945">
        <ele>198.587134</ele>
        <time>2023-05-01T18:23:41.063Z</time>
      </trkpt>
      <trkpt lat="48.34441" lon="-3.71932">
        <ele>198.242459</ele>
        <time>2023-05-01T18:23:42.066Z</time>
      </trkpt>
      <trkpt lat="48.34436" lon="-3.71919">
        <ele>197.883552</ele>
        <time>2023-05-01T18:23:43.063Z</time>
      </trkpt>
      <trkpt lat="48.34432" lon="-3.71905">
        <ele>197.532744</ele>
        <time>2023-05-01T18:23:44.070Z</time>
      </trkpt>
      <trkpt lat="48.34428" lon="-3.71892">
        <ele>197.200045</ele>
        <time>2023-05-01T18:23:45.060Z</time>
      </trkpt>
      <trkpt lat="48.34423" lon="-3.71878">
        <ele>196.852427</ele>
        <time>2023-05-01T18:23:46.060Z</time>
      </trkpt>
      <trkpt lat="48.34418" lon="-3.71866">
        <ele>196.527858</ele>
        <time>2023-05-01T18:23:47.059Z</time>
      </trkpt>
      <trkpt lat="48.34414" lon="-3.71853">
        <ele>196.17971</ele>
        <time>2023-05-01T18:23:48.062Z</time>
      </trkpt>
      <trkpt lat="48.34409" lon="-3.7184">
        <ele>195.843121</ele>
        <time>2023-05-01T18:23:49.061Z</time>
      </trkpt>
      <trkpt lat="48.34404" lon="-3.71827">
        <ele>195.503699</ele>
        <time>2023-05-01T18:23:50.063Z</time>
      </trkpt>
      <trkpt lat="48.34394" lon="-3.71806">
        <ele>194.907494</ele>
        <time>2023-05-01T18:23:52.063Z</time>
      </trkpt>
      <trkpt lat="48.34385" lon="-3.71785">
        <ele>194.334328</ele>
        <time>2023-05-01T18:23:54.058Z</time>
      </trkpt>
      <trkpt lat="48.34376" lon="-3.71765">
        <ele>193.784109</ele>
        <time>2023-05-01T18:23:56.070Z</time>
      </trkpt>
      <trkpt lat="48.34367" lon="-3.71747">
        <ele>193.610075</ele>
        <time>2023-05-01T18:23:58.066Z</time>
      </trkpt>
      <trkpt lat="48.34358" lon="-3.71729">
        <ele>193.436208</ele>
        <time>2023-05-01T18:24:00.060Z</time>
      </trkpt>
      <trkpt lat="48.34349" lon="-3.71711">
        <ele>193.270456</ele>
        <time>2023-05-01T18:24:02.064Z</time>
      </trkpt>
      <trkpt lat="48.34341" lon="-3.71694">
        <ele>193.111981</ele>
        <time>2023-05-01T18:24:04.070Z</time>
      </trkpt>
      <trkpt lat="48.34334" lon="-3.71677">
        <ele>192.95535</ele>
        <time>2023-05-01T18:24:06.061Z</time>
      </trkpt>
      <trkpt lat="48.34326" lon="-3.71661">
        <ele>192.807275</ele>
        <time>2023-05-01T18:24:08.066Z</time>
      </trkpt>
      <trkpt lat="48.34319" lon="-3.71648">
        <ele>192.677954</ele>
        <time>2023-05-01T18:24:10.059Z</time>
      </trkpt>
      <trkpt lat="48.34311" lon="-3.71635">
        <ele>192.546866</ele>
        <time>2023-05-01T18:24:12.063Z</time>
      </trkpt>
      <trkpt lat="48.34303" lon="-3.71622">
        <ele>192.408225</ele>
        <time>2023-05-01T18:24:14.067Z</time>
      </trkpt>
      <trkpt lat="48.34296" lon="-3.71609">
        <ele>192.285044</ele>
        <time>2023-05-01T18:24:16.067Z</time>
      </trkpt>
      <trkpt lat="48.34287" lon="-3.71597">
        <ele>192.151577</ele>
        <time>2023-05-01T18:24:18.051Z</time>
      </trkpt>
      <trkpt lat="48.34279" lon="-3.71585">
        <ele>192.016821</ele>
        <time>2023-05-01T18:24:20.065Z</time>
      </trkpt>
      <trkpt lat="48.34271" lon="-3.71573">
        <ele>191.890622</ele>
        <time>2023-05-01T18:24:22.061Z</time>
      </trkpt>
      <trkpt lat="48.34263" lon="-3.71561">
        <ele>191.759895</ele>
        <time>2023-05-01T18:24:24.072Z</time>
      </trkpt>
      <trkpt lat="48.34255" lon="-3.71549">
        <ele>191.71866</ele>
        <time>2023-05-01T18:24:26.062Z</time>
      </trkpt>
      <trkpt lat="48.34247" lon="-3.71537">
        <ele>191.699258</ele>
        <time>2023-05-01T18:24:28.063Z</time>
      </trkpt>
      <trkpt lat="48.34239" lon="-3.71528">
        <ele>191.681061</ele>
        <time>2023-05-01T18:24:30.062Z</time>
      </trkpt>
      <trkpt lat="48.34232" lon="-3.71516">
        <ele>191.662832</ele>
        <time>2023-05-01T18:24:32.063Z</time>
      </trkpt>
      <trkpt lat="48.34225" lon="-3.71506">
        <ele>191.645272</ele>
        <time>2023-05-01T18:24:34.064Z</time>
      </trkpt>
      <trkpt lat="48.34218" lon="-3.71496">
        <ele>191.628247</ele>
        <time>2023-05-01T18:24:36.061Z</time>
      </trkpt>
      <trkpt lat="48.34211" lon="-3.71485">
        <ele>191.609641</ele>
        <time>2023-05-01T18:24:38.067Z</time>
      </trkpt>
      <trkpt lat="48.34203" lon="-3.71475">
        <ele>191.591441</ele>
        <time>2023-05-01T18:24:40.063Z</time>
      </trkpt>
      <trkpt lat="48.34195" lon="-3.71466">
        <ele>191.574279</ele>
        <time>2023-05-01T18:24:42.052Z</time>
      </trkpt>
      <trkpt lat="48.34188" lon="-3.71456">
        <ele>191.556652</ele>
        <time>2023-05-01T18:24:44.060Z</time>
      </trkpt>
      <trkpt lat="48.34181" lon="-3.71447">
        <ele>191.540047</ele>
        <time>2023-05-01T18:24:46.061Z</time>
      </trkpt>
      <trkpt lat="48.34173" lon="-3.71438">
        <ele>191.522912</ele>
        <time>2023-05-01T18:24:48.064Z</time>
      </trkpt>
      <trkpt lat="48.34164" lon="-3.71429">
        <ele>191.504252</ele>
        <time>2023-05-01T18:24:50.063Z</time>
      </trkpt>
      <trkpt lat="48.34157" lon="-3.71421">
        <ele>191.487471</ele>
        <time>2023-05-01T18:24:52.062Z</time>
      </trkpt>
      <trkpt lat="48.34149" lon="-3.71411">
        <ele>191.469327</ele>
        <time>2023-05-01T18:24:54.061Z</time>
      </trkpt>
      <trkpt lat="48.34141" lon="-3.71402">
        <ele>191.451967</ele>
        <time>2023-05-01T18:24:56.059Z</time>
      </trkpt>
      <trkpt lat="48.34133" lon="-3.71392">
        <ele>191.434532</ele>
        <time>2023-05-01T18:24:58.062Z</time>
      </trkpt>
      <trkpt lat="48.34126" lon="-3.71383">
        <ele>191.417217</ele>
        <time>2023-05-01T18:25:00.059Z</time>
      </trkpt>
      <trkpt lat="48.34119" lon="-3.71374">
        <ele>191.267704</ele>
        <time>2023-05-01T18:25:02.060Z</time>
      </trkpt>
      <trkpt lat="48.34111" lon="-3.71365">
        <ele>191.088166</ele>
        <time>2023-05-01T18:25:04.060Z</time>
      </trkpt>
      <trkpt lat="48.34103" lon="-3.71355">
        <ele>190.905094</ele>
        <time>2023-05-01T18:25:06.059Z</time>
      </trkpt>
      <trkpt lat="48.34094" lon="-3.71345">
        <ele>190.71782</ele>
        <time>2023-05-01T18:25:08.059Z</time>
      </trkpt>
      <trkpt lat="48.34086" lon="-3.71334">
        <ele>190.526744</ele>
        <time>2023-05-01T18:25:10.062Z</time>
      </trkpt>
      <trkpt lat="48.34078" lon="-3.71325">
        <ele>190.357642</ele>
        <time>2023-05-01T18:25:12.060Z</time>
      </trkpt>
      <trkpt lat="48.34071" lon="-3.71316">
        <ele>190.182131</ele>
        <time>2023-05-01T18:25:14.061Z</time>
      </trkpt>
      <trkpt lat="48.34062" lon="-3.71305">
        <ele>189.995396</ele>
        <time>2023-05-01T18:25:16.060Z</time>
      </trkpt>
      <trkpt lat="48.34054" lon="-3.71296">
        <ele>189.808145</ele>
        <time>2023-05-01T18:25:18.065Z</time>
      </trkpt>
      <trkpt lat="48.34045" lon="-3.71286">
        <ele>189.616624</ele>
        <time>2023-05-01T18:25:20.065Z</time>
      </trkpt>
      <trkpt lat="48.34037" lon="-3.71278">
        <ele>189.439086</ele>
        <time>2023-05-01T18:25:22.069Z</time>
      </trkpt>
      <trkpt lat="48.34028" lon="-3.71267">
        <ele>189.250856</ele>
        <time>2023-05-01T18:25:24.073Z</time>
      </trkpt>
      <trkpt lat="48.3402" lon="-3.71258">
        <ele>189.069159</ele>
        <time>2023-05-01T18:25:26.057Z</time>
      </trkpt>
      <trkpt lat="48.34012" lon="-3.71248">
        <ele>188.876295</ele>
        <time>2023-05-01T18:25:28.062Z</time>
      </trkpt>
      <trkpt lat="48.34004" lon="-3.71236">
        <ele>188.690394</ele>
        <time>2023-05-01T18:25:30.061Z</time>
      </trkpt>
      <trkpt lat="48.33996" lon="-3.71225">
        <ele>188.504035</ele>
        <time>2023-05-01T18:25:32.061Z</time>
      </trkpt>
      <trkpt lat="48.33988" lon="-3.71215">
        <ele>188.31539</ele>
        <time>2023-05-01T18:25:34.062Z</time>
      </trkpt>
      <trkpt lat="48.33981" lon="-3.71204">
        <ele>188.134297</ele>
        <time>2023-05-01T18:25:36.062Z</time>
      </trkpt>
      <trkpt lat="48.33973" lon="-3.71192">
        <ele>187.949589</ele>
        <time>2023-05-01T18:25:38.067Z</time>
      </trkpt>
      <trkpt lat="48.33966" lon="-3.71181">
        <ele>187.776085</ele>
        <time>2023-05-01T18:25:40.060Z</time>
      </trkpt>
      <trkpt lat="48.33959" lon="-3.7117">
        <ele>187.600456</ele>
        <time>2023-05-01T18:25:42.064Z</time>
      </trkpt>
      <trkpt lat="48.33951" lon="-3.71159">
        <ele>187.422592</ele>
        <time>2023-05-01T18:25:44.061Z</time>
      </trkpt>
      <trkpt lat="48.33944" lon="-3.71146">
        <ele>187.238838</ele>
        <time>2023-05-01T18:25:46.060Z</time>
      </trkpt>
      <trkpt lat="48.33937" lon="-3.71133">
        <ele>187.049699</ele>
        <time>2023-05-01T18:25:48.064Z</time>
      </trkpt>
      <trkpt lat="48.3393" lon="-3.71121">
        <ele>186.870373</ele>
        <time>2023-05-01T18:25:50.066Z</time>
      </trkpt>
      <trkpt lat="48.33924" lon="-3.71108">
        <ele>186.689246</ele>
        <time>2023-05-01T18:25:52.062Z</time>
      </trkpt>
      <trkpt lat="48.33918" lon="-3.71093">
        <ele>186.491308</ele>
        <time>2023-05-01T18:25:54.057Z</time>
      </trkpt>
      <trkpt lat="48.33912" lon="-3.71079">
        <ele>186.301666</ele>
        <time>2023-05-01T18:25:56.061Z</time>
      </trkpt>
      <trkpt lat="48.33906" lon="-3.71062">
        <ele>186.08425</ele>
        <time>2023-05-01T18:25:58.060Z</time>
      </trkpt>
      <trkpt lat="48.339" lon="-3.71049">
        <ele>185.905088</ele>
        <time>2023-05-01T18:26:00.066Z</time>
      </trkpt>
      <trkpt lat="48.33894" lon="-3.71035">
        <ele>185.71743</ele>
        <time>2023-05-01T18:26:02.067Z</time>
      </trkpt>
      <trkpt lat="48.33887" lon="-3.71022">
        <ele>185.533306</ele>
        <time>2023-05-01T18:26:04.062Z</time>
      </trkpt>
      <trkpt lat="48.33882" lon="-3.7101">
        <ele>185.371611</ele>
        <time>2023-05-01T18:26:06.059Z</time>
      </trkpt>
      <trkpt lat="48.33876" lon="-3.70997">
        <ele>185.195033</ele>
        <time>2023-05-01T18:26:08.063Z</time>
      </trkpt>
      <trkpt lat="48.33871" lon="-3.70984">
        <ele>185.054997</ele>
        <time>2023-05-01T18:26:10.062Z</time>
      </trkpt>
      <trkpt lat="48.33865" lon="-3.70972">
        <ele>184.919545</ele>
        <time>2023-05-01T18:26:12.066Z</time>
      </trkpt>
      <trkpt lat="48.3386" lon="-3.70959">
        <ele>184.781141</ele>
        <time>2023-05-01T18:26:14.064Z</time>
      </trkpt>
      <trkpt lat="48.33854" lon="-3.70946">
        <ele>184.637398</ele>
        <time>2023-05-01T18:26:16.062Z</time>
      </trkpt>
      <trkpt lat="48.33849" lon="-3.70935">
        <ele>184.508261</ele>
        <time>2023-05-01T18:26:18.056Z</time>
      </trkpt>
      <trkpt lat="48.33842" lon="-3.70917">
        <ele>184.324156</ele>
        <time>2023-05-01T18:26:21.064Z</time>
      </trkpt>
      <trkpt lat="48.33837" lon="-3.70906">
        <ele>184.198692</ele>
        <time>2023-05-01T18:26:23.067Z</time>
      </trkpt>
      <trkpt lat="48.33832" lon="-3.70894">
        <ele>184.06619</ele>
        <time>2023-05-01T18:26:25.059Z</time>
      </trkpt>
      <trkpt lat="48.33827" lon="-3.70882">
        <ele>183.937534</ele>
        <time>2023-05-01T18:26:27.058Z</time>
      </trkpt>
      <trkpt lat="48.33819" lon="-3.70869">
        <ele>183.772123</ele>
        <time>2023-05-01T18:26:30.066Z</time>
      </trkpt>
      <trkpt lat="48.33811" lon="-3.7085">
        <ele>183.567454</ele>
        <time>2023-05-01T18:26:33.068Z</time>
      </trkpt>
      <trkpt lat="48.33806" lon="-3.70838">
        <ele>183.436011</ele>
        <time>2023-05-01T18:26:35.062Z</time>
      </trkpt>
      <trkpt lat="48.338" lon="-3.70826">
        <ele>183.291225</ele>
        <time>2023-05-01T18:26:37.064Z</time>
      </trkpt>
      <trkpt lat="48.33794" lon="-3.70814">
        <ele>183.156512</ele>
        <time>2023-05-01T18:26:39.066Z</time>
      </trkpt>
      <trkpt lat="48.33788" lon="-3.70803">
        <ele>183.026197</ele>
        <time>2023-05-01T18:26:41.064Z</time>
      </trkpt>
      <trkpt lat="48.33782" lon="-3.70791">
        <ele>182.892116</ele>
        <time>2023-05-01T18:26:43.059Z</time>
      </trkpt>
      <trkpt lat="48.33776" lon="-3.7078">
        <ele>182.753728</ele>
        <time>2023-05-01T18:26:45.063Z</time>
      </trkpt>
      <trkpt lat="48.33769" lon="-3.7077">
        <ele>182.881569</ele>
        <time>2023-05-01T18:26:47.058Z</time>
      </trkpt>
      <trkpt lat="48.33763" lon="-3.70759">
        <ele>183.110525</ele>
        <time>2023-05-01T18:26:49.065Z</time>
      </trkpt>
      <trkpt lat="48.33756" lon="-3.7075">
        <ele>183.342845</ele>
        <time>2023-05-01T18:26:51.085Z</time>
      </trkpt>
      <trkpt lat="48.33747" lon="-3.70738">
        <ele>183.645702</ele>
        <time>2023-05-01T18:26:54.076Z</time>
      </trkpt>
      <trkpt lat="48.33737" lon="-3.70722">
        <ele>183.988297</ele>
        <time>2023-05-01T18:26:57.066Z</time>
      </trkpt>
      <trkpt lat="48.33728" lon="-3.70708">
        <ele>184.306336</ele>
        <time>2023-05-01T18:27:00.057Z</time>
      </trkpt>
      <trkpt lat="48.3372" lon="-3.70695">
        <ele>184.615705</ele>
        <time>2023-05-01T18:27:03.077Z</time>
      </trkpt>
      <trkpt lat="48.33712" lon="-3.70683">
        <ele>184.88717</ele>
        <time>2023-05-01T18:27:06.058Z</time>
      </trkpt>
      <trkpt lat="48.33705" lon="-3.70674">
        <ele>185.128895</ele>
        <time>2023-05-01T18:27:09.062Z</time>
      </trkpt>
      <trkpt lat="48.33698" lon="-3.70664">
        <ele>185.362988</ele>
        <time>2023-05-01T18:27:12.059Z</time>
      </trkpt>
      <trkpt lat="48.3369" lon="-3.70653">
        <ele>185.612383</ele>
        <time>2023-05-01T18:27:15.062Z</time>
      </trkpt>
      <trkpt lat="48.33682" lon="-3.70643">
        <ele>185.877507</ele>
        <time>2023-05-01T18:27:18.064Z</time>
      </trkpt>
      <trkpt lat="48.33673" lon="-3.70634">
        <ele>186.13685</ele>
        <time>2023-05-01T18:27:21.062Z</time>
      </trkpt>
      <trkpt lat="48.33665" lon="-3.70627">
        <ele>186.381912</ele>
        <time>2023-05-01T18:27:24.064Z</time>
      </trkpt>
      <trkpt lat="48.33658" lon="-3.70616">
        <ele>186.621221</ele>
        <time>2023-05-01T18:27:27.062Z</time>
      </trkpt>
      <trkpt lat="48.33651" lon="-3.70606">
        <ele>186.878054</ele>
        <time>2023-05-01T18:27:30.061Z</time>
      </trkpt>
      <trkpt lat="48.33643" lon="-3.70595">
        <ele>187.134432</ele>
        <time>2023-05-01T18:27:33.063Z</time>
      </trkpt>
      <trkpt lat="48.33635" lon="-3.70585">
        <ele>187.388575</ele>
        <time>2023-05-01T18:27:36.069Z</time>
      </trkpt>
      <trkpt lat="48.33627" lon="-3.70575">
        <ele>187.632877</ele>
        <time>2023-05-01T18:27:39.057Z</time>
      </trkpt>
      <trkpt lat="48.33619" lon="-3.70566">
        <ele>187.86438</ele>
        <time>2023-05-01T18:27:42.063Z</time>
      </trkpt>
      <trkpt lat="48.33612" lon="-3.70556">
        <ele>188.097231</ele>
        <time>2023-05-01T18:27:45.058Z</time>
      </trkpt>
      <trkpt lat="48.33604" lon="-3.70546">
        <ele>188.325677</ele>
        <time>2023-05-01T18:27:48.076Z</time>
      </trkpt>
      <trkpt lat="48.33598" lon="-3.70536">
        <ele>188.550393</ele>
        <time>2023-05-01T18:27:51.067Z</time>
      </trkpt>
      <trkpt lat="48.3359" lon="-3.70526">
        <ele>188.788589</ele>
        <time>2023-05-01T18:27:54.064Z</time>
      </trkpt>
      <trkpt lat="48.33584" lon="-3.70516">
        <ele>189.001603</ele>
        <time>2023-05-01T18:27:57.062Z</time>
      </trkpt>
      <trkpt lat="48.33576" lon="-3.70504">
        <ele>189.277151</ele>
        <time>2023-05-01T18:28:01.066Z</time>
      </trkpt>
      <trkpt lat="48.33567" lon="-3.70492">
        <ele>189.55786</ele>
        <time>2023-05-01T18:28:05.059Z</time>
      </trkpt>
      <trkpt lat="48.33561" lon="-3.70482">
        <ele>189.772566</ele>
        <time>2023-05-01T18:28:08.065Z</time>
      </trkpt>
      <trkpt lat="48.33553" lon="-3.70471">
        <ele>190.031478</ele>
        <time>2023-05-01T18:28:12.060Z</time>
      </trkpt>
      <trkpt lat="48.33545" lon="-3.70459">
        <ele>190.303034</ele>
        <time>2023-05-01T18:28:16.061Z</time>
      </trkpt>
      <trkpt lat="48.33537" lon="-3.70446">
        <ele>190.583647</ele>
        <time>2023-05-01T18:28:20.062Z</time>
      </trkpt>
      <trkpt lat="48.33528" lon="-3.70434">
        <ele>190.856993</ele>
        <time>2023-05-01T18:28:24.063Z</time>
      </trkpt>
      <trkpt lat="48.3352" lon="-3.70422">
        <ele>191.125854</ele>
        <time>2023-05-01T18:28:28.059Z</time>
      </trkpt>
      <trkpt lat="48.33512" lon="-3.70411">
        <ele>191.374887</ele>
        <time>2023-05-01T18:28:32.059Z</time>
      </trkpt>
      <trkpt lat="48.33504" lon="-3.70399">
        <ele>191.571842</ele>
        <time>2023-05-01T18:28:36.064Z</time>
      </trkpt>
      <trkpt lat="48.33496" lon="-3.70387">
        <ele>191.749874</ele>
        <time>2023-05-01T18:28:40.064Z</time>
      </trkpt>
      <trkpt lat="48.33489" lon="-3.70375">
        <ele>191.921612</ele>
        <time>2023-05-01T18:28:44.059Z</time>
      </trkpt>
      <trkpt lat="48.33482" lon="-3.70365">
        <ele>192.07191</ele>
        <time>2023-05-01T18:28:48.057Z</time>
      </trkpt>
      <trkpt lat="48.33475" lon="-3.70355">
        <ele>192.221453</ele>
        <time>2023-05-01T18:28:52.059Z</time>
      </trkpt>
      <trkpt lat="48.33468" lon="-3.70342">
        <ele>192.393905</ele>
        <time>2023-05-01T18:28:56.065Z</time>
      </trkpt>
      <trkpt lat="48.33461" lon="-3.7033">
        <ele>192.562142</ele>
        <time>2023-05-01T18:29:00.068Z</time>
      </trkpt>
      <trkpt lat="48.33455" lon="-3.70318">
        <ele>192.722249</ele>
        <time>2023-05-01T18:29:04.067Z</time>
      </trkpt>
      <trkpt lat="48.33448" lon="-3.70306">
        <ele>192.888674</ele>
        <time>2023-05-01T18:29:08.066Z</time>
      </trkpt>
      <trkpt lat="48.33441" lon="-3.70294">
        <ele>193.056408</ele>
        <time>2023-05-01T18:29:12.063Z</time>
      </trkpt>
      <trkpt lat="48.33434" lon="-3.70281">
        <ele>193.231287</ele>
        <time>2023-05-01T18:29:16.062Z</time>
      </trkpt>
      <trkpt lat="48.33427" lon="-3.70269">
        <ele>193.404547</ele>
        <time>2023-05-01T18:29:20.066Z</time>
      </trkpt>
      <trkpt lat="48.3342" lon="-3.70256">
        <ele>193.579259</ele>
        <time>2023-05-01T18:29:24.067Z</time>
      </trkpt>
      <trkpt lat="48.33414" lon="-3.70244">
        <ele>193.729861</ele>
        <time>2023-05-01T18:29:27.055Z</time>
      </trkpt>
      <trkpt lat="48.33407" lon="-3.7023">
        <ele>193.912147</ele>
        <time>2023-05-01T18:29:31.067Z</time>
      </trkpt>
      <trkpt lat="48.33401" lon="-3.70216">
        <ele>194.089096</ele>
        <time>2023-05-01T18:29:35.063Z</time>
      </trkpt>
      <trkpt lat="48.33394" lon="-3.70202">
        <ele>194.267551</ele>
        <time>2023-05-01T18:29:39.063Z</time>
      </trkpt>
      <trkpt lat="48.33388" lon="-3.7019">
        <ele>194.393731</ele>
        <time>2023-05-01T18:29:43.063Z</time>
      </trkpt>
      <trkpt lat="48.33382" lon="-3.70179">
        <ele>194.509629</ele>
        <time>2023-05-01T18:29:48.063Z</time>
      </trkpt>
      <trkpt lat="48.33377" lon="-3.70167">
        <ele>194.623506</ele>
        <time>2023-05-01T18:29:52.063Z</time>
      </trkpt>
      <trkpt lat="48.33369" lon="-3.70156">
        <ele>194.757033</ele>
        <time>2023-05-01T18:29:57.066Z</time>
      </trkpt>
      <trkpt lat="48.33363" lon="-3.70145">
        <ele>194.87499</ele>
        <time>2023-05-01T18:30:01.061Z</time>
      </trkpt>
      <trkpt lat="48.33356" lon="-3.70134">
        <ele>194.997839</ele>
        <time>2023-05-01T18:30:05.061Z</time>
      </trkpt>
      <trkpt lat="48.3335" lon="-3.70122">
        <ele>195.123465</ele>
        <time>2023-05-01T18:30:09.064Z</time>
      </trkpt>
      <trkpt lat="48.33344" lon="-3.70111">
        <ele>195.24343</ele>
        <time>2023-05-01T18:30:13.065Z</time>
      </trkpt>
      <trkpt lat="48.33337" lon="-3.70099">
        <ele>195.374702</ele>
        <time>2023-05-01T18:30:17.065Z</time>
      </trkpt>
      <trkpt lat="48.3333" lon="-3.70086">
        <ele>195.506283</ele>
        <time>2023-05-01T18:30:21.063Z</time>
      </trkpt>
      <trkpt lat="48.33323" lon="-3.70074">
        <ele>195.635499</ele>
        <time>2023-05-01T18:30:25.061Z</time>
      </trkpt>
      <trkpt lat="48.33317" lon="-3.70061">
        <ele>195.772827</ele>
        <time>2023-05-01T18:30:29.071Z</time>
      </trkpt>
      <trkpt lat="48.33309" lon="-3.70048">
        <ele>195.913585</ele>
        <time>2023-05-01T18:30:33.065Z</time>
      </trkpt>
      <trkpt lat="48.33302" lon="-3.70035">
        <ele>196.052916</ele>
        <time>2023-05-01T18:30:37.065Z</time>
      </trkpt>
      <trkpt lat="48.33295" lon="-3.70025">
        <ele>196.166965</ele>
        <time>2023-05-01T18:30:40.064Z</time>
      </trkpt>
      <trkpt lat="48.33288" lon="-3.70012">
        <ele>196.307948</ele>
        <time>2023-05-01T18:30:44.064Z</time>
      </trkpt>
      <trkpt lat="48.33283" lon="-3.69998">
        <ele>196.444445</ele>
        <time>2023-05-01T18:30:48.061Z</time>
      </trkpt>
      <trkpt lat="48.33276" lon="-3.69989">
        <ele>196.608978</ele>
        <time>2023-05-01T18:30:51.062Z</time>
      </trkpt>
      <trkpt lat="48.33269" lon="-3.69976">
        <ele>196.840422</ele>
        <time>2023-05-01T18:30:55.065Z</time>
      </trkpt>
      <trkpt lat="48.33261" lon="-3.69963">
        <ele>197.075967</ele>
        <time>2023-05-01T18:30:59.064Z</time>
      </trkpt>
      <trkpt lat="48.33253" lon="-3.6995">
        <ele>197.329611</ele>
        <time>2023-05-01T18:31:03.063Z</time>
      </trkpt>
      <trkpt lat="48.33247" lon="-3.69938">
        <ele>197.54394</ele>
        <time>2023-05-01T18:31:06.061Z</time>
      </trkpt>
      <trkpt lat="48.3324" lon="-3.69927">
        <ele>197.751783</ele>
        <time>2023-05-01T18:31:09.064Z</time>
      </trkpt>
      <trkpt lat="48.33233" lon="-3.69914">
        <ele>197.987022</ele>
        <time>2023-05-01T18:31:13.061Z</time>
      </trkpt>
      <trkpt lat="48.33225" lon="-3.69903">
        <ele>198.21617</ele>
        <time>2023-05-01T18:31:17.057Z</time>
      </trkpt>
      <trkpt lat="48.33219" lon="-3.69892">
        <ele>198.413832</ele>
        <time>2023-05-01T18:31:20.064Z</time>
      </trkpt>
      <trkpt lat="48.33212" lon="-3.69881">
        <ele>198.622754</ele>
        <time>2023-05-01T18:31:23.062Z</time>
      </trkpt>
      <trkpt lat="48.33205" lon="-3.69871">
        <ele>198.828359</ele>
        <time>2023-05-01T18:31:26.059Z</time>
      </trkpt>
      <trkpt lat="48.33198" lon="-3.69861">
        <ele>199.031818</ele>
        <time>2023-05-01T18:31:29.065Z</time>
      </trkpt>
      <trkpt lat="48.3319" lon="-3.69848">
        <ele>199.283678</ele>
        <time>2023-05-01T18:31:33.066Z</time>
      </trkpt>
      <trkpt lat="48.33181" lon="-3.69835">
        <ele>199.531174</ele>
        <time>2023-05-01T18:31:37.064Z</time>
      </trkpt>
      <trkpt lat="48.33173" lon="-3.69823">
        <ele>199.774457</ele>
        <time>2023-05-01T18:31:41.063Z</time>
      </trkpt>
      <trkpt lat="48.33165" lon="-3.69811">
        <ele>200.017419</ele>
        <time>2023-05-01T18:31:45.060Z</time>
      </trkpt>
      <trkpt lat="48.33159" lon="-3.698">
        <ele>200.208285</ele>
        <time>2023-05-01T18:32:00.059Z</time>
      </trkpt>
      <trkpt lat="48.33155" lon="-3.69788">
        <ele>200.420257</ele>
        <time>2023-05-01T18:33:20.073Z</time>
      </trkpt>
      <trkpt lat="48.33147" lon="-3.69778">
        <ele>200.669488</ele>
        <time>2023-05-01T18:33:40.056Z</time>
      </trkpt>
      <trkpt lat="48.33141" lon="-3.69768">
        <ele>200.889522</ele>
        <time>2023-05-01T18:33:44.074Z</time>
      </trkpt>
      <trkpt lat="48.33135" lon="-3.69758">
        <ele>201.108835</ele>
        <time>2023-05-01T18:33:48.069Z</time>
      </trkpt>
      <trkpt lat="48.33128" lon="-3.69748">
        <ele>201.34544</ele>
        <time>2023-05-01T18:33:53.074Z</time>
      </trkpt>
      <trkpt lat="48.33121" lon="-3.69738">
        <ele>201.580091</ele>
        <time>2023-05-01T18:33:57.076Z</time>
      </trkpt>
      <trkpt lat="48.33114" lon="-3.69728">
        <ele>201.822858</ele>
        <time>2023-05-01T18:34:01.077Z</time>
      </trkpt>
      <trkpt lat="48.33106" lon="-3.69716">
        <ele>202.09063</ele>
        <time>2023-05-01T18:34:05.067Z</time>
      </trkpt>
      <trkpt lat="48.33099" lon="-3.69703">
        <ele>202.356107</ele>
        <time>2023-05-01T18:34:09.077Z</time>
      </trkpt>
      <trkpt lat="48.33092" lon="-3.69694">
        <ele>202.576573</ele>
        <time>2023-05-01T18:34:12.075Z</time>
      </trkpt>
      <trkpt lat="48.33086" lon="-3.69683">
        <ele>202.814074</ele>
        <time>2023-05-01T18:34:15.073Z</time>
      </trkpt>
      <trkpt lat="48.33079" lon="-3.69672">
        <ele>203.053933</ele>
        <time>2023-05-01T18:34:18.073Z</time>
      </trkpt>
      <trkpt lat="48.33072" lon="-3.6966">
        <ele>203.308564</ele>
        <time>2023-05-01T18:34:21.075Z</time>
      </trkpt>
      <trkpt lat="48.33065" lon="-3.69648">
        <ele>203.568333</ele>
        <time>2023-05-01T18:34:24.083Z</time>
      </trkpt>
      <trkpt lat="48.33056" lon="-3.69637">
        <ele>203.847436</ele>
        <time>2023-05-01T18:34:27.069Z</time>
      </trkpt>
      <trkpt lat="48.33049" lon="-3.69626">
        <ele>204.105008</ele>
        <time>2023-05-01T18:34:30.078Z</time>
      </trkpt>
      <trkpt lat="48.33041" lon="-3.69614">
        <ele>204.380184</ele>
        <time>2023-05-01T18:34:33.080Z</time>
      </trkpt>
      <trkpt lat="48.33033" lon="-3.69601">
        <ele>204.554494</ele>
        <time>2023-05-01T18:34:36.076Z</time>
      </trkpt>
      <trkpt lat="48.33025" lon="-3.69587">
        <ele>204.080915</ele>
        <time>2023-05-01T18:34:39.077Z</time>
      </trkpt>
      <trkpt lat="48.33017" lon="-3.69573">
        <ele>203.612343</ele>
        <time>2023-05-01T18:34:42.078Z</time>
      </trkpt>
      <trkpt lat="48.3301" lon="-3.69559">
        <ele>203.137818</ele>
        <time>2023-05-01T18:34:45.067Z</time>
      </trkpt>
      <trkpt lat="48.33001" lon="-3.69546">
        <ele>202.665822</ele>
        <time>2023-05-01T18:34:48.066Z</time>
      </trkpt>
      <trkpt lat="48.32993" lon="-3.69533">
        <ele>202.177386</ele>
        <time>2023-05-01T18:34:51.081Z</time>
      </trkpt>
      <trkpt lat="48.32986" lon="-3.69524">
        <ele>201.822563</ele>
        <time>2023-05-01T18:34:53.077Z</time>
      </trkpt>
      <trkpt lat="48.32976" lon="-3.6951">
        <ele>201.31669</ele>
        <time>2023-05-01T18:34:56.077Z</time>
      </trkpt>
      <trkpt lat="48.3297" lon="-3.69501">
        <ele>200.95227</ele>
        <time>2023-05-01T18:34:58.077Z</time>
      </trkpt>
      <trkpt lat="48.32963" lon="-3.69491">
        <ele>200.586067</ele>
        <time>2023-05-01T18:35:00.066Z</time>
      </trkpt>
      <trkpt lat="48.32956" lon="-3.69481">
        <ele>200.2163</ele>
        <time>2023-05-01T18:35:02.076Z</time>
      </trkpt>
      <trkpt lat="48.3295" lon="-3.69471">
        <ele>199.855727</ele>
        <time>2023-05-01T18:35:04.073Z</time>
      </trkpt>
      <trkpt lat="48.32939" lon="-3.69458">
        <ele>199.328652</ele>
        <time>2023-05-01T18:35:07.068Z</time>
      </trkpt>
      <trkpt lat="48.32933" lon="-3.69449">
        <ele>198.975263</ele>
        <time>2023-05-01T18:35:09.071Z</time>
      </trkpt>
      <trkpt lat="48.32926" lon="-3.69439">
        <ele>198.618134</ele>
        <time>2023-05-01T18:35:11.072Z</time>
      </trkpt>
      <trkpt lat="48.32917" lon="-3.69425">
        <ele>198.110998</ele>
        <time>2023-05-01T18:35:14.074Z</time>
      </trkpt>
      <trkpt lat="48.32907" lon="-3.69412">
        <ele>197.587148</ele>
        <time>2023-05-01T18:35:17.079Z</time>
      </trkpt>
      <trkpt lat="48.32901" lon="-3.69402">
        <ele>197.201269</ele>
        <time>2023-05-01T18:35:19.084Z</time>
      </trkpt>
      <trkpt lat="48.32891" lon="-3.69389">
        <ele>196.646126</ele>
        <time>2023-05-01T18:35:22.071Z</time>
      </trkpt>
      <trkpt lat="48.32881" lon="-3.69378">
        <ele>196.108606</ele>
        <time>2023-05-01T18:35:25.067Z</time>
      </trkpt>
      <trkpt lat="48.32871" lon="-3.69364">
        <ele>195.54466</ele>
        <time>2023-05-01T18:35:28.066Z</time>
      </trkpt>
      <trkpt lat="48.32862" lon="-3.6935">
        <ele>195.017776</ele>
        <time>2023-05-01T18:35:31.073Z</time>
      </trkpt>
      <trkpt lat="48.32853" lon="-3.69337">
        <ele>194.469945</ele>
        <time>2023-05-01T18:35:34.082Z</time>
      </trkpt>
      <trkpt lat="48.32845" lon="-3.69328">
        <ele>194.072424</ele>
        <time>2023-05-01T18:35:36.077Z</time>
      </trkpt>
      <trkpt lat="48.32838" lon="-3.69319">
        <ele>193.686075</ele>
        <time>2023-05-01T18:35:38.071Z</time>
      </trkpt>
      <trkpt lat="48.32831" lon="-3.6931">
        <ele>193.298674</ele>
        <time>2023-05-01T18:35:40.074Z</time>
      </trkpt>
      <trkpt lat="48.32825" lon="-3.693">
        <ele>192.903644</ele>
        <time>2023-05-01T18:35:42.067Z</time>
      </trkpt>
      <trkpt lat="48.32817" lon="-3.6929">
        <ele>192.493645</ele>
        <time>2023-05-01T18:35:44.072Z</time>
      </trkpt>
      <trkpt lat="48.3281" lon="-3.69281">
        <ele>192.075916</ele>
        <time>2023-05-01T18:35:46.068Z</time>
      </trkpt>
      <trkpt lat="48.32802" lon="-3.69272">
        <ele>191.668487</ele>
        <time>2023-05-01T18:35:48.071Z</time>
      </trkpt>
      <trkpt lat="48.32795" lon="-3.69262">
        <ele>191.256576</ele>
        <time>2023-05-01T18:35:50.065Z</time>
      </trkpt>
      <trkpt lat="48.32788" lon="-3.69252">
        <ele>190.842829</ele>
        <time>2023-05-01T18:35:52.070Z</time>
      </trkpt>
      <trkpt lat="48.3278" lon="-3.69244">
        <ele>190.449949</ele>
        <time>2023-05-01T18:35:54.083Z</time>
      </trkpt>
      <trkpt lat="48.32772" lon="-3.69237">
        <ele>190.046081</ele>
        <time>2023-05-01T18:35:56.079Z</time>
      </trkpt>
      <trkpt lat="48.32764" lon="-3.69228">
        <ele>189.663092</ele>
        <time>2023-05-01T18:35:58.080Z</time>
      </trkpt>
      <trkpt lat="48.32757" lon="-3.6922">
        <ele>189.298376</ele>
        <time>2023-05-01T18:36:00.068Z</time>
      </trkpt>
      <trkpt lat="48.32749" lon="-3.69211">
        <ele>188.919299</ele>
        <time>2023-05-01T18:36:02.077Z</time>
      </trkpt>
      <trkpt lat="48.32742" lon="-3.69203">
        <ele>188.543396</ele>
        <time>2023-05-01T18:36:04.079Z</time>
      </trkpt>
      <trkpt lat="48.32734" lon="-3.69194">
        <ele>188.167565</ele>
        <time>2023-05-01T18:36:06.069Z</time>
      </trkpt>
      <trkpt lat="48.32726" lon="-3.69185">
        <ele>187.77414</ele>
        <time>2023-05-01T18:36:08.070Z</time>
      </trkpt>
      <trkpt lat="48.32718" lon="-3.69177">
        <ele>187.38999</ele>
        <time>2023-05-01T18:36:10.075Z</time>
      </trkpt>
      <trkpt lat="48.3271" lon="-3.69169">
        <ele>186.990055</ele>
        <time>2023-05-01T18:36:12.078Z</time>
      </trkpt>
      <trkpt lat="48.32702" lon="-3.6916">
        <ele>186.604627</ele>
        <time>2023-05-01T18:36:14.073Z</time>
      </trkpt>
      <trkpt lat="48.32694" lon="-3.69152">
        <ele>186.221555</ele>
        <time>2023-05-01T18:36:16.078Z</time>
      </trkpt>
      <trkpt lat="48.32686" lon="-3.69144">
        <ele>185.83704</ele>
        <time>2023-05-01T18:36:18.083Z</time>
      </trkpt>
      <trkpt lat="48.32678" lon="-3.69136">
        <ele>185.464354</ele>
        <time>2023-05-01T18:36:20.083Z</time>
      </trkpt>
      <trkpt lat="48.3267" lon="-3.69128">
        <ele>185.068417</ele>
        <time>2023-05-01T18:36:22.078Z</time>
      </trkpt>
      <trkpt lat="48.32662" lon="-3.6912">
        <ele>184.694043</ele>
        <time>2023-05-01T18:36:24.081Z</time>
      </trkpt>
      <trkpt lat="48.32653" lon="-3.69111">
        <ele>184.295233</ele>
        <time>2023-05-01T18:36:26.078Z</time>
      </trkpt>
      <trkpt lat="48.32645" lon="-3.69104">
        <ele>183.908273</ele>
        <time>2023-05-01T18:36:28.070Z</time>
      </trkpt>
      <trkpt lat="48.32637" lon="-3.69096">
        <ele>183.528072</ele>
        <time>2023-05-01T18:36:30.076Z</time>
      </trkpt>
      <trkpt lat="48.32626" lon="-3.69085">
        <ele>182.993962</ele>
        <time>2023-05-01T18:36:33.077Z</time>
      </trkpt>
      <trkpt lat="48.32617" lon="-3.69077">
        <ele>182.529986</ele>
        <time>2023-05-01T18:36:35.063Z</time>
      </trkpt>
      <trkpt lat="48.3261" lon="-3.6907">
        <ele>182.070761</ele>
        <time>2023-05-01T18:36:37.078Z</time>
      </trkpt>
      <trkpt lat="48.32601" lon="-3.69062">
        <ele>181.565188</ele>
        <time>2023-05-01T18:36:39.067Z</time>
      </trkpt>
      <trkpt lat="48.32593" lon="-3.69054">
        <ele>181.069075</ele>
        <time>2023-05-01T18:36:41.075Z</time>
      </trkpt>
      <trkpt lat="48.32585" lon="-3.69046">
        <ele>180.569192</ele>
        <time>2023-05-01T18:36:43.076Z</time>
      </trkpt>
      <trkpt lat="48.32577" lon="-3.69038">
        <ele>180.074938</ele>
        <time>2023-05-01T18:36:45.075Z</time>
      </trkpt>
      <trkpt lat="48.32569" lon="-3.69031">
        <ele>179.573875</ele>
        <time>2023-05-01T18:36:47.071Z</time>
      </trkpt>
      <trkpt lat="48.32561" lon="-3.69023">
        <ele>179.087756</ele>
        <time>2023-05-01T18:36:49.076Z</time>
      </trkpt>
      <trkpt lat="48.32552" lon="-3.69016">
        <ele>178.586634</ele>
        <time>2023-05-01T18:36:51.069Z</time>
      </trkpt>
      <trkpt lat="48.32544" lon="-3.69008">
        <ele>178.076857</ele>
        <time>2023-05-01T18:36:53.074Z</time>
      </trkpt>
      <trkpt lat="48.32536" lon="-3.69">
        <ele>177.601565</ele>
        <time>2023-05-01T18:36:55.080Z</time>
      </trkpt>
      <trkpt lat="48.32525" lon="-3.6899">
        <ele>176.943175</ele>
        <time>2023-05-01T18:36:58.069Z</time>
      </trkpt>
      <trkpt lat="48.32515" lon="-3.68981">
        <ele>176.342838</ele>
        <time>2023-05-01T18:37:01.080Z</time>
      </trkpt>
      <trkpt lat="48.32505" lon="-3.68972">
        <ele>175.750219</ele>
        <time>2023-05-01T18:37:04.079Z</time>
      </trkpt>
      <trkpt lat="48.32494" lon="-3.68962">
        <ele>175.112346</ele>
        <time>2023-05-01T18:37:07.068Z</time>
      </trkpt>
      <trkpt lat="48.32483" lon="-3.68952">
        <ele>174.446226</ele>
        <time>2023-05-01T18:37:10.078Z</time>
      </trkpt>
      <trkpt lat="48.32472" lon="-3.68943">
        <ele>173.784547</ele>
        <time>2023-05-01T18:37:13.075Z</time>
      </trkpt>
      <trkpt lat="48.32461" lon="-3.68933">
        <ele>173.151942</ele>
        <time>2023-05-01T18:37:16.078Z</time>
      </trkpt>
      <trkpt lat="48.3245" lon="-3.68924">
        <ele>172.545427</ele>
        <time>2023-05-01T18:37:19.072Z</time>
      </trkpt>
      <trkpt lat="48.32439" lon="-3.68914">
        <ele>171.926805</ele>
        <time>2023-05-01T18:37:22.073Z</time>
      </trkpt>
      <trkpt lat="48.32431" lon="-3.68907">
        <ele>171.478322</ele>
        <time>2023-05-01T18:37:24.082Z</time>
      </trkpt>
      <trkpt lat="48.32423" lon="-3.689">
        <ele>171.037078</ele>
        <time>2023-05-01T18:37:26.074Z</time>
      </trkpt>
      <trkpt lat="48.32415" lon="-3.68892">
        <ele>170.575323</ele>
        <time>2023-05-01T18:37:28.070Z</time>
      </trkpt>
      <trkpt lat="48.32406" lon="-3.68885">
        <ele>170.100438</ele>
        <time>2023-05-01T18:37:30.077Z</time>
      </trkpt>
      <trkpt lat="48.32398" lon="-3.68877">
        <ele>169.621902</ele>
        <time>2023-05-01T18:37:32.075Z</time>
      </trkpt>
      <trkpt lat="48.32389" lon="-3.68868">
        <ele>169.107385</ele>
        <time>2023-05-01T18:37:34.075Z</time>
      </trkpt>
      <trkpt lat="48.3238" lon="-3.6886">
        <ele>168.589487</ele>
        <time>2023-05-01T18:37:36.077Z</time>
      </trkpt>
      <trkpt lat="48.3237" lon="-3.68851">
        <ele>168.045006</ele>
        <time>2023-05-01T18:37:38.074Z</time>
      </trkpt>
      <trkpt lat="48.32361" lon="-3.68842">
        <ele>167.517236</ele>
        <time>2023-05-01T18:37:40.079Z</time>
      </trkpt>
      <trkpt lat="48.32352" lon="-3.68833">
        <ele>166.996828</ele>
        <time>2023-05-01T18:37:42.081Z</time>
      </trkpt>
      <trkpt lat="48.32343" lon="-3.68824">
        <ele>166.482205</ele>
        <time>2023-05-01T18:37:44.076Z</time>
      </trkpt>
      <trkpt lat="48.32334" lon="-3.68814">
        <ele>165.954189</ele>
        <time>2023-05-01T18:37:46.073Z</time>
      </trkpt>
      <trkpt lat="48.32326" lon="-3.68804">
        <ele>165.432177</ele>
        <time>2023-05-01T18:37:48.072Z</time>
      </trkpt>
      <trkpt lat="48.32317" lon="-3.68795">
        <ele>164.934819</ele>
        <time>2023-05-01T18:37:50.077Z</time>
      </trkpt>
      <trkpt lat="48.32308" lon="-3.68784">
        <ele>164.540756</ele>
        <time>2023-05-01T18:37:52.081Z</time>
      </trkpt>
      <trkpt lat="48.323" lon="-3.68773">
        <ele>164.15062</ele>
        <time>2023-05-01T18:37:54.080Z</time>
      </trkpt>
      <trkpt lat="48.32292" lon="-3.68763">
        <ele>163.770638</ele>
        <time>2023-05-01T18:37:56.081Z</time>
      </trkpt>
      <trkpt lat="48.32284" lon="-3.68751">
        <ele>163.386694</ele>
        <time>2023-05-01T18:37:58.083Z</time>
      </trkpt>
      <trkpt lat="48.32277" lon="-3.68739">
        <ele>162.994371</ele>
        <time>2023-05-01T18:38:00.072Z</time>
      </trkpt>
      <trkpt lat="48.32269" lon="-3.68728">
        <ele>162.617178</ele>
        <time>2023-05-01T18:38:02.078Z</time>
      </trkpt>
      <trkpt lat="48.32262" lon="-3.68716">
        <ele>162.236011</ele>
        <time>2023-05-01T18:38:04.073Z</time>
      </trkpt>
      <trkpt lat="48.32255" lon="-3.68704">
        <ele>161.839973</ele>
        <time>2023-05-01T18:38:06.072Z</time>
      </trkpt>
      <trkpt lat="48.32248" lon="-3.68691">
        <ele>161.445738</ele>
        <time>2023-05-01T18:38:08.072Z</time>
      </trkpt>
      <trkpt lat="48.3224" lon="-3.68679">
        <ele>161.052121</ele>
        <time>2023-05-01T18:38:10.070Z</time>
      </trkpt>
      <trkpt lat="48.32233" lon="-3.68666">
        <ele>160.651939</ele>
        <time>2023-05-01T18:38:12.076Z</time>
      </trkpt>
      <trkpt lat="48.32226" lon="-3.68653">
        <ele>160.256567</ele>
        <time>2023-05-01T18:38:14.079Z</time>
      </trkpt>
      <trkpt lat="48.32219" lon="-3.68639">
        <ele>159.851832</ele>
        <time>2023-05-01T18:38:16.060Z</time>
      </trkpt>
      <trkpt lat="48.32212" lon="-3.68627">
        <ele>159.455792</ele>
        <time>2023-05-01T18:38:18.081Z</time>
      </trkpt>
      <trkpt lat="48.32205" lon="-3.68613">
        <ele>159.059837</ele>
        <time>2023-05-01T18:38:20.081Z</time>
      </trkpt>
      <trkpt lat="48.32198" lon="-3.686">
        <ele>158.657657</ele>
        <time>2023-05-01T18:38:22.082Z</time>
      </trkpt>
      <trkpt lat="48.32192" lon="-3.68586">
        <ele>157.890959</ele>
        <time>2023-05-01T18:38:24.076Z</time>
      </trkpt>
      <trkpt lat="48.32186" lon="-3.68572">
        <ele>157.009082</ele>
        <time>2023-05-01T18:38:26.074Z</time>
      </trkpt>
      <trkpt lat="48.3218" lon="-3.68558">
        <ele>156.156743</ele>
        <time>2023-05-01T18:38:28.068Z</time>
      </trkpt>
      <trkpt lat="48.32174" lon="-3.68544">
        <ele>155.287337</ele>
        <time>2023-05-01T18:38:30.082Z</time>
      </trkpt>
      <trkpt lat="48.32169" lon="-3.68529">
        <ele>154.391948</ele>
        <time>2023-05-01T18:38:32.077Z</time>
      </trkpt>
      <trkpt lat="48.32164" lon="-3.68515">
        <ele>153.564446</ele>
        <time>2023-05-01T18:38:34.079Z</time>
      </trkpt>
      <trkpt lat="48.32159" lon="-3.68499">
        <ele>152.650259</ele>
        <time>2023-05-01T18:38:36.079Z</time>
      </trkpt>
      <trkpt lat="48.32155" lon="-3.68484">
        <ele>151.761519</ele>
        <time>2023-05-01T18:38:38.076Z</time>
      </trkpt>
      <trkpt lat="48.3215" lon="-3.68468">
        <ele>150.885522</ele>
        <time>2023-05-01T18:38:40.078Z</time>
      </trkpt>
      <trkpt lat="48.32144" lon="-3.68451">
        <ele>149.89065</ele>
        <time>2023-05-01T18:38:42.074Z</time>
      </trkpt>
      <trkpt lat="48.32138" lon="-3.68435">
        <ele>148.902047</ele>
        <time>2023-05-01T18:38:44.075Z</time>
      </trkpt>
      <trkpt lat="48.32132" lon="-3.68415">
        <ele>147.768728</ele>
        <time>2023-05-01T18:38:46.069Z</time>
      </trkpt>
      <trkpt lat="48.32125" lon="-3.68394">
        <ele>146.55138</ele>
        <time>2023-05-01T18:38:48.070Z</time>
      </trkpt>
      <trkpt lat="48.32117" lon="-3.68372">
        <ele>145.234878</ele>
        <time>2023-05-01T18:38:50.079Z</time>
      </trkpt>
      <trkpt lat="48.32113" lon="-3.6836">
        <ele>144.519254</ele>
        <time>2023-05-01T18:38:51.077Z</time>
      </trkpt>
      <trkpt lat="48.32109" lon="-3.68348">
        <ele>143.950644</ele>
        <time>2023-05-01T18:38:52.077Z</time>
      </trkpt>
      <trkpt lat="48.32105" lon="-3.68335">
        <ele>143.376331</ele>
        <time>2023-05-01T18:38:53.076Z</time>
      </trkpt>
      <trkpt lat="48.321" lon="-3.68322">
        <ele>142.794755</ele>
        <time>2023-05-01T18:38:54.077Z</time>
      </trkpt>
      <trkpt lat="48.32096" lon="-3.68309">
        <ele>142.217704</ele>
        <time>2023-05-01T18:38:55.083Z</time>
      </trkpt>
      <trkpt lat="48.32092" lon="-3.68296">
        <ele>141.620683</ele>
        <time>2023-05-01T18:38:56.060Z</time>
      </trkpt>
      <trkpt lat="48.32087" lon="-3.68283">
        <ele>141.024419</ele>
        <time>2023-05-01T18:38:57.079Z</time>
      </trkpt>
      <trkpt lat="48.32082" lon="-3.68269">
        <ele>140.394547</ele>
        <time>2023-05-01T18:38:58.080Z</time>
      </trkpt>
      <trkpt lat="48.32077" lon="-3.68256">
        <ele>139.778256</ele>
        <time>2023-05-01T18:38:59.080Z</time>
      </trkpt>
      <trkpt lat="48.32072" lon="-3.68243">
        <ele>139.149577</ele>
        <time>2023-05-01T18:39:00.072Z</time>
      </trkpt>
      <trkpt lat="48.32067" lon="-3.68229">
        <ele>138.515407</ele>
        <time>2023-05-01T18:39:01.074Z</time>
      </trkpt>
      <trkpt lat="48.32061" lon="-3.68216">
        <ele>137.878159</ele>
        <time>2023-05-01T18:39:02.077Z</time>
      </trkpt>
      <trkpt lat="48.32055" lon="-3.68203">
        <ele>137.247536</ele>
        <time>2023-05-01T18:39:03.081Z</time>
      </trkpt>
      <trkpt lat="48.32049" lon="-3.68191">
        <ele>136.61973</ele>
        <time>2023-05-01T18:39:04.079Z</time>
      </trkpt>
      <trkpt lat="48.32042" lon="-3.68179">
        <ele>135.993701</ele>
        <time>2023-05-01T18:39:05.072Z</time>
      </trkpt>
      <trkpt lat="48.32036" lon="-3.68166">
        <ele>135.361835</ele>
        <time>2023-05-01T18:39:06.069Z</time>
      </trkpt>
      <trkpt lat="48.3203" lon="-3.68154">
        <ele>134.720274</ele>
        <time>2023-05-01T18:39:07.072Z</time>
      </trkpt>
      <trkpt lat="48.32023" lon="-3.68142">
        <ele>134.103184</ele>
        <time>2023-05-01T18:39:08.079Z</time>
      </trkpt>
      <trkpt lat="48.32017" lon="-3.68131">
        <ele>133.506778</ele>
        <time>2023-05-01T18:39:09.075Z</time>
      </trkpt>
      <trkpt lat="48.3201" lon="-3.68119">
        <ele>133.383375</ele>
        <time>2023-05-01T18:39:10.076Z</time>
      </trkpt>
      <trkpt lat="48.32003" lon="-3.68109">
        <ele>133.26659</ele>
        <time>2023-05-01T18:39:11.075Z</time>
      </trkpt>
      <trkpt lat="48.31997" lon="-3.68099">
        <ele>133.150111</ele>
        <time>2023-05-01T18:39:12.079Z</time>
      </trkpt>
      <trkpt lat="48.3199" lon="-3.68089">
        <ele>133.040228</ele>
        <time>2023-05-01T18:39:13.076Z</time>
      </trkpt>
      <trkpt lat="48.31978" lon="-3.68071">
        <ele>132.826184</ele>
        <time>2023-05-01T18:39:15.071Z</time>
      </trkpt>
      <trkpt lat="48.31965" lon="-3.68053">
        <ele>132.619493</ele>
        <time>2023-05-01T18:39:17.075Z</time>
      </trkpt>
      <trkpt lat="48.31953" lon="-3.68038">
        <ele>132.422464</ele>
        <time>2023-05-01T18:39:19.072Z</time>
      </trkpt>
      <trkpt lat="48.31941" lon="-3.68023">
        <ele>132.237178</ele>
        <time>2023-05-01T18:39:21.094Z</time>
      </trkpt>
      <trkpt lat="48.3193" lon="-3.6801">
        <ele>132.069593</ele>
        <time>2023-05-01T18:39:23.071Z</time>
      </trkpt>
      <trkpt lat="48.3192" lon="-3.67997">
        <ele>131.90251</ele>
        <time>2023-05-01T18:39:25.072Z</time>
      </trkpt>
      <trkpt lat="48.31909" lon="-3.67986">
        <ele>131.747144</ele>
        <time>2023-05-01T18:39:27.076Z</time>
      </trkpt>
      <trkpt lat="48.31899" lon="-3.67975">
        <ele>131.594687</ele>
        <time>2023-05-01T18:39:29.071Z</time>
      </trkpt>
      <trkpt lat="48.3189" lon="-3.67964">
        <ele>131.454901</ele>
        <time>2023-05-01T18:39:31.075Z</time>
      </trkpt>
      <trkpt lat="48.31881" lon="-3.67954">
        <ele>131.321789</ele>
        <time>2023-05-01T18:39:33.083Z</time>
      </trkpt>
      <trkpt lat="48.31873" lon="-3.67945">
        <ele>131.430465</ele>
        <time>2023-05-01T18:39:35.072Z</time>
      </trkpt>
      <trkpt lat="48.31865" lon="-3.67936">
        <ele>131.53074</ele>
        <time>2023-05-01T18:39:37.081Z</time>
      </trkpt>
      <trkpt lat="48.31854" lon="-3.67925">
        <ele>131.667888</ele>
        <time>2023-05-01T18:39:40.079Z</time>
      </trkpt>
      <trkpt lat="48.31845" lon="-3.67913">
        <ele>131.798241</ele>
        <time>2023-05-01T18:39:43.082Z</time>
      </trkpt>
      <trkpt lat="48.31837" lon="-3.67903">
        <ele>131.906604</ele>
        <time>2023-05-01T18:39:46.074Z</time>
      </trkpt>
      <trkpt lat="48.31829" lon="-3.67892">
        <ele>132.015442</ele>
        <time>2023-05-01T18:39:49.078Z</time>
      </trkpt>
      <trkpt lat="48.31822" lon="-3.67883">
        <ele>132.117065</ele>
        <time>2023-05-01T18:39:52.081Z</time>
      </trkpt>
      <trkpt lat="48.31813" lon="-3.67876">
        <ele>132.218641</ele>
        <time>2023-05-01T18:39:55.078Z</time>
      </trkpt>
      <trkpt lat="48.31806" lon="-3.67867">
        <ele>132.321453</ele>
        <time>2023-05-01T18:39:58.075Z</time>
      </trkpt>
      <trkpt lat="48.31798" lon="-3.67857">
        <ele>132.423169</ele>
        <time>2023-05-01T18:40:01.074Z</time>
      </trkpt>
      <trkpt lat="48.3179" lon="-3.67848">
        <ele>132.528053</ele>
        <time>2023-05-01T18:40:04.058Z</time>
      </trkpt>
      <trkpt lat="48.31782" lon="-3.67838">
        <ele>132.639236</ele>
        <time>2023-05-01T18:40:07.069Z</time>
      </trkpt>
      <trkpt lat="48.31774" lon="-3.67828">
        <ele>132.749987</ele>
        <time>2023-05-01T18:40:10.071Z</time>
      </trkpt>
      <trkpt lat="48.31766" lon="-3.67819">
        <ele>132.853197</ele>
        <time>2023-05-01T18:40:13.080Z</time>
      </trkpt>
      <trkpt lat="48.31758" lon="-3.6781">
        <ele>132.953793</ele>
        <time>2023-05-01T18:40:16.073Z</time>
      </trkpt>
      <trkpt lat="48.31751" lon="-3.67801">
        <ele>133.050526</ele>
        <time>2023-05-01T18:40:19.076Z</time>
      </trkpt>
      <trkpt lat="48.31744" lon="-3.67791">
        <ele>133.153759</ele>
        <time>2023-05-01T18:40:22.077Z</time>
      </trkpt>
      <trkpt lat="48.31737" lon="-3.6778">
        <ele>133.199145</ele>
        <time>2023-05-01T18:40:25.066Z</time>
      </trkpt>
      <trkpt lat="48.31729" lon="-3.6777">
        <ele>133.19743</ele>
        <time>2023-05-01T18:40:28.070Z</time>
      </trkpt>
      <trkpt lat="48.31721" lon="-3.67759">
        <ele>133.195692</ele>
        <time>2023-05-01T18:40:31.063Z</time>
      </trkpt>
      <trkpt lat="48.31713" lon="-3.67749">
        <ele>133.19397</ele>
        <time>2023-05-01T18:40:34.067Z</time>
      </trkpt>
      <trkpt lat="48.31706" lon="-3.67737">
        <ele>133.192168</ele>
        <time>2023-05-01T18:40:37.075Z</time>
      </trkpt>
      <trkpt lat="48.31698" lon="-3.67726">
        <ele>133.190346</ele>
        <time>2023-05-01T18:40:40.078Z</time>
      </trkpt>
      <trkpt lat="48.31689" lon="-3.67714">
        <ele>133.188477</ele>
        <time>2023-05-01T18:40:43.070Z</time>
      </trkpt>
      <trkpt lat="48.31681" lon="-3.67703">
        <ele>133.186635</ele>
        <time>2023-05-01T18:40:46.072Z</time>
      </trkpt>
      <trkpt lat="48.31673" lon="-3.6769">
        <ele>133.184747</ele>
        <time>2023-05-01T18:40:49.073Z</time>
      </trkpt>
      <trkpt lat="48.31666" lon="-3.67678">
        <ele>133.182931</ele>
        <time>2023-05-01T18:40:52.061Z</time>
      </trkpt>
      <trkpt lat="48.31658" lon="-3.67666">
        <ele>133.181082</ele>
        <time>2023-05-01T18:40:55.073Z</time>
      </trkpt>
      <trkpt lat="48.3165" lon="-3.67655">
        <ele>133.179257</ele>
        <time>2023-05-01T18:40:58.073Z</time>
      </trkpt>
      <trkpt lat="48.31643" lon="-3.67643">
        <ele>133.177505</ele>
        <time>2023-05-01T18:41:01.074Z</time>
      </trkpt>
      <trkpt lat="48.31635" lon="-3.67632">
        <ele>133.175772</ele>
        <time>2023-05-01T18:41:04.076Z</time>
      </trkpt>
      <trkpt lat="48.31628" lon="-3.67621">
        <ele>133.17404</ele>
        <time>2023-05-01T18:41:07.071Z</time>
      </trkpt>
      <trkpt lat="48.31621" lon="-3.6761">
        <ele>133.172425</ele>
        <time>2023-05-01T18:41:10.079Z</time>
      </trkpt>
      <trkpt lat="48.31614" lon="-3.676">
        <ele>133.170839</ele>
        <time>2023-05-01T18:41:13.068Z</time>
      </trkpt>
      <trkpt lat="48.31607" lon="-3.67589">
        <ele>133.278632</ele>
        <time>2023-05-01T18:41:16.069Z</time>
      </trkpt>
      <trkpt lat="48.316" lon="-3.67579">
        <ele>133.434273</ele>
        <time>2023-05-01T18:41:19.077Z</time>
      </trkpt>
      <trkpt lat="48.31592" lon="-3.67568">
        <ele>133.588144</ele>
        <time>2023-05-01T18:41:22.074Z</time>
      </trkpt>
      <trkpt lat="48.31585" lon="-3.67557">
        <ele>133.739121</ele>
        <time>2023-05-01T18:41:25.073Z</time>
      </trkpt>
      <trkpt lat="48.31578" lon="-3.67547">
        <ele>133.890098</ele>
        <time>2023-05-01T18:41:28.070Z</time>
      </trkpt>
      <trkpt lat="48.31571" lon="-3.67536">
        <ele>134.042833</ele>
        <time>2023-05-01T18:41:31.077Z</time>
      </trkpt>
      <trkpt lat="48.31563" lon="-3.67525">
        <ele>134.195232</ele>
        <time>2023-05-01T18:41:34.073Z</time>
      </trkpt>
      <trkpt lat="48.31556" lon="-3.67514">
        <ele>134.346938</ele>
        <time>2023-05-01T18:41:37.080Z</time>
      </trkpt>
      <trkpt lat="48.31548" lon="-3.67504">
        <ele>134.500344</ele>
        <time>2023-05-01T18:41:40.067Z</time>
      </trkpt>
      <trkpt lat="48.31541" lon="-3.67493">
        <ele>134.657757</ele>
        <time>2023-05-01T18:41:43.074Z</time>
      </trkpt>
      <trkpt lat="48.31533" lon="-3.67483">
        <ele>134.811822</ele>
        <time>2023-05-01T18:41:46.072Z</time>
      </trkpt>
      <trkpt lat="48.31525" lon="-3.67473">
        <ele>134.965702</ele>
        <time>2023-05-01T18:41:49.080Z</time>
      </trkpt>
      <trkpt lat="48.31517" lon="-3.67463">
        <ele>135.116923</ele>
        <time>2023-05-01T18:41:52.078Z</time>
      </trkpt>
      <trkpt lat="48.3151" lon="-3.67454">
        <ele>135.259314</ele>
        <time>2023-05-01T18:41:55.136Z</time>
      </trkpt>
      <trkpt lat="48.31502" lon="-3.67444">
        <ele>135.413688</ele>
        <time>2023-05-01T18:41:59.072Z</time>
      </trkpt>
      <trkpt lat="48.31493" lon="-3.67434">
        <ele>135.577999</ele>
        <time>2023-05-01T18:42:03.075Z</time>
      </trkpt>
      <trkpt lat="48.31485" lon="-3.67424">
        <ele>135.743533</ele>
        <time>2023-05-01T18:42:07.071Z</time>
      </trkpt>
      <trkpt lat="48.31476" lon="-3.67413">
        <ele>135.997623</ele>
        <time>2023-05-01T18:42:11.074Z</time>
      </trkpt>
      <trkpt lat="48.31468" lon="-3.67403">
        <ele>136.448486</ele>
        <time>2023-05-01T18:42:15.081Z</time>
      </trkpt>
      <trkpt lat="48.31459" lon="-3.67394">
        <ele>136.915071</ele>
        <time>2023-05-01T18:42:19.053Z</time>
      </trkpt>
      <trkpt lat="48.31449" lon="-3.67385">
        <ele>137.382666</ele>
        <time>2023-05-01T18:42:23.072Z</time>
      </trkpt>
      <trkpt lat="48.3144" lon="-3.67374">
        <ele>137.860166</ele>
        <time>2023-05-01T18:42:27.072Z</time>
      </trkpt>
      <trkpt lat="48.31431" lon="-3.67364">
        <ele>138.337753</ele>
        <time>2023-05-01T18:42:31.071Z</time>
      </trkpt>
      <trkpt lat="48.31422" lon="-3.67353">
        <ele>138.812613</ele>
        <time>2023-05-01T18:42:35.073Z</time>
      </trkpt>
      <trkpt lat="48.31414" lon="-3.67342">
        <ele>139.287473</ele>
        <time>2023-05-01T18:42:39.071Z</time>
      </trkpt>
      <trkpt lat="48.31405" lon="-3.67331">
        <ele>139.762763</ele>
        <time>2023-05-01T18:42:43.070Z</time>
      </trkpt>
      <trkpt lat="48.31397" lon="-3.67321">
        <ele>140.20882</ele>
        <time>2023-05-01T18:42:47.067Z</time>
      </trkpt>
      <trkpt lat="48.31388" lon="-3.6731">
        <ele>140.670528</ele>
        <time>2023-05-01T18:42:52.055Z</time>
      </trkpt>
      <trkpt lat="48.31381" lon="-3.673">
        <ele>141.064455</ele>
        <time>2023-05-01T18:42:56.074Z</time>
      </trkpt>
      <trkpt lat="48.31373" lon="-3.67291">
        <ele>141.485315</ele>
        <time>2023-05-01T18:43:00.077Z</time>
      </trkpt>
      <trkpt lat="48.31366" lon="-3.67282">
        <ele>141.895431</ele>
        <time>2023-05-01T18:43:04.079Z</time>
      </trkpt>
      <trkpt lat="48.31359" lon="-3.67273">
        <ele>142.278054</ele>
        <time>2023-05-01T18:43:08.065Z</time>
      </trkpt>
      <trkpt lat="48.3135" lon="-3.67263">
        <ele>142.735853</ele>
        <time>2023-05-01T18:43:13.069Z</time>
      </trkpt>
      <trkpt lat="48.31342" lon="-3.67252">
        <ele>143.19541</ele>
        <time>2023-05-01T18:43:18.071Z</time>
      </trkpt>
      <trkpt lat="48.30964" lon="-3.66765">
        <ele>168.96811</ele>
        <time>2023-05-01T18:51:14.073Z</time>
      </trkpt>
      <trkpt lat="48.30958" lon="-3.66752">
        <ele>169.280295</ele>
        <time>2023-05-01T18:51:21.097Z</time>
      </trkpt>
      <trkpt lat="48.30953" lon="-3.6674">
        <ele>169.579167</ele>
        <time>2023-05-01T18:51:26.077Z</time>
      </trkpt>
      <trkpt lat="48.30948" lon="-3.66727">
        <ele>169.877882</ele>
        <time>2023-05-01T18:51:31.084Z</time>
      </trkpt>
      <trkpt lat="48.30943" lon="-3.66715">
        <ele>170.156749</ele>
        <time>2023-05-01T18:51:35.090Z</time>
      </trkpt>
      <trkpt lat="48.30938" lon="-3.66703">
        <ele>170.350576</ele>
        <time>2023-05-01T18:51:39.081Z</time>
      </trkpt>
      <trkpt lat="48.30933" lon="-3.6669">
        <ele>170.243701</ele>
        <time>2023-05-01T18:51:43.082Z</time>
      </trkpt>
      <trkpt lat="48.30928" lon="-3.66676">
        <ele>170.131832</ele>
        <time>2023-05-01T18:51:47.075Z</time>
      </trkpt>
      <trkpt lat="48.30923" lon="-3.66662">
        <ele>170.017315</ele>
        <time>2023-05-01T18:51:51.082Z</time>
      </trkpt>
      <trkpt lat="48.30918" lon="-3.66646">
        <ele>169.899058</ele>
        <time>2023-05-01T18:51:55.079Z</time>
      </trkpt>
      <trkpt lat="48.30912" lon="-3.66632">
        <ele>169.779848</ele>
        <time>2023-05-01T18:51:59.082Z</time>
      </trkpt>
      <trkpt lat="48.30908" lon="-3.66616">
        <ele>169.658872</ele>
        <time>2023-05-01T18:52:03.081Z</time>
      </trkpt>
      <trkpt lat="48.30901" lon="-3.66601">
        <ele>169.532924</ele>
        <time>2023-05-01T18:52:07.079Z</time>
      </trkpt>
      <trkpt lat="48.30896" lon="-3.66584">
        <ele>169.405727</ele>
        <time>2023-05-01T18:52:11.080Z</time>
      </trkpt>
      <trkpt lat="48.30891" lon="-3.66568">
        <ele>169.282771</ele>
        <time>2023-05-01T18:52:15.080Z</time>
      </trkpt>
      <trkpt lat="48.30886" lon="-3.66553">
        <ele>169.164051</ele>
        <time>2023-05-01T18:52:19.086Z</time>
      </trkpt>
      <trkpt lat="48.30881" lon="-3.66538">
        <ele>169.04733</ele>
        <time>2023-05-01T18:52:23.084Z</time>
      </trkpt>
      <trkpt lat="48.30877" lon="-3.66521">
        <ele>168.920135</ele>
        <time>2023-05-01T18:52:27.071Z</time>
      </trkpt>
      <trkpt lat="48.30873" lon="-3.66505">
        <ele>168.795505</ele>
        <time>2023-05-01T18:52:31.084Z</time>
      </trkpt>
      <trkpt lat="48.30868" lon="-3.66487">
        <ele>168.667139</ele>
        <time>2023-05-01T18:52:35.081Z</time>
      </trkpt>
      <trkpt lat="48.30865" lon="-3.66474">
        <ele>168.565816</ele>
        <time>2023-05-01T18:52:38.082Z</time>
      </trkpt>
      <trkpt lat="48.30863" lon="-3.66458">
        <ele>168.522946</ele>
        <time>2023-05-01T18:52:42.062Z</time>
      </trkpt>
      <trkpt lat="48.30855" lon="-3.66434">
        <ele>168.80624</ele>
        <time>2023-05-01T18:54:09.089Z</time>
      </trkpt>
      <trkpt lat="48.30852" lon="-3.66419">
        <ele>168.974431</ele>
        <time>2023-05-01T18:54:13.078Z</time>
      </trkpt>
      <trkpt lat="48.30849" lon="-3.66401">
        <ele>169.168376</ele>
        <time>2023-05-01T18:54:17.081Z</time>
      </trkpt>
      <trkpt lat="48.30846" lon="-3.66388">
        <ele>169.320874</ele>
        <time>2023-05-01T18:54:20.083Z</time>
      </trkpt>
      <trkpt lat="48.30843" lon="-3.66374">
        <ele>169.472924</ele>
        <time>2023-05-01T18:54:23.087Z</time>
      </trkpt>
      <trkpt lat="48.30841" lon="-3.66359">
        <ele>169.635504</ele>
        <time>2023-05-01T18:54:26.081Z</time>
      </trkpt>
      <trkpt lat="48.30838" lon="-3.66345">
        <ele>169.797101</ele>
        <time>2023-05-01T18:54:29.084Z</time>
      </trkpt>
      <trkpt lat="48.30835" lon="-3.6633">
        <ele>169.963979</ele>
        <time>2023-05-01T18:54:32.080Z</time>
      </trkpt>
      <trkpt lat="48.30833" lon="-3.66315">
        <ele>170.125709</ele>
        <time>2023-05-01T18:54:35.082Z</time>
      </trkpt>
      <trkpt lat="48.30831" lon="-3.66301">
        <ele>170.28271</ele>
        <time>2023-05-01T18:54:38.087Z</time>
      </trkpt>
      <trkpt lat="48.30828" lon="-3.66286">
        <ele>170.442478</ele>
        <time>2023-05-01T18:54:41.081Z</time>
      </trkpt>
      <trkpt lat="48.30826" lon="-3.66272">
        <ele>170.598086</ele>
        <time>2023-05-01T18:54:44.080Z</time>
      </trkpt>
      <trkpt lat="48.30824" lon="-3.66258">
        <ele>170.746193</ele>
        <time>2023-05-01T18:54:47.076Z</time>
      </trkpt>
      <trkpt lat="48.30822" lon="-3.66245">
        <ele>170.895571</ele>
        <time>2023-05-01T18:54:50.085Z</time>
      </trkpt>
      <trkpt lat="48.30819" lon="-3.66228">
        <ele>171.080811</ele>
        <time>2023-05-01T18:54:54.097Z</time>
      </trkpt>
      <trkpt lat="48.30816" lon="-3.66212">
        <ele>171.260745</ele>
        <time>2023-05-01T18:54:58.081Z</time>
      </trkpt>
      <trkpt lat="48.30813" lon="-3.66196">
        <ele>171.514435</ele>
        <time>2023-05-01T18:55:02.087Z</time>
      </trkpt>
      <trkpt lat="48.3081" lon="-3.66181">
        <ele>171.851446</ele>
        <time>2023-05-01T18:55:06.069Z</time>
      </trkpt>
      <trkpt lat="48.30808" lon="-3.66167">
        <ele>172.176584</ele>
        <time>2023-05-01T18:55:10.080Z</time>
      </trkpt>
      <trkpt lat="48.30805" lon="-3.66154">
        <ele>172.481168</ele>
        <time>2023-05-01T18:55:14.080Z</time>
      </trkpt>
      <trkpt lat="48.30803" lon="-3.6614">
        <ele>172.788362</ele>
        <time>2023-05-01T18:55:18.082Z</time>
      </trkpt>
      <trkpt lat="48.308" lon="-3.66127">
        <ele>173.089737</ele>
        <time>2023-05-01T18:55:22.089Z</time>
      </trkpt>
      <trkpt lat="48.30796" lon="-3.66115">
        <ele>173.38747</ele>
        <time>2023-05-01T18:55:26.074Z</time>
      </trkpt>
      <trkpt lat="48.30793" lon="-3.661">
        <ele>173.731828</ele>
        <time>2023-05-01T18:55:31.082Z</time>
      </trkpt>
      <trkpt lat="48.30789" lon="-3.66085">
        <ele>174.08146</ele>
        <time>2023-05-01T18:55:36.071Z</time>
      </trkpt>
      <trkpt lat="48.30785" lon="-3.6607">
        <ele>174.442374</ele>
        <time>2023-05-01T18:55:42.080Z</time>
      </trkpt>
      <trkpt lat="48.30781" lon="-3.66055">
        <ele>174.79522</ele>
        <time>2023-05-01T18:55:47.073Z</time>
      </trkpt>
      <trkpt lat="48.30777" lon="-3.6604">
        <ele>175.150135</ele>
        <time>2023-05-01T18:55:52.091Z</time>
      </trkpt>
      <trkpt lat="48.30774" lon="-3.66024">
        <ele>175.523739</ele>
        <time>2023-05-01T18:55:57.069Z</time>
      </trkpt>
      <trkpt lat="48.30769" lon="-3.6601">
        <ele>175.873559</ele>
        <time>2023-05-01T18:56:02.079Z</time>
      </trkpt>
      <trkpt lat="48.30765" lon="-3.65996">
        <ele>176.21833</ele>
        <time>2023-05-01T18:56:07.079Z</time>
      </trkpt>
      <trkpt lat="48.30761" lon="-3.65981">
        <ele>176.560477</ele>
        <time>2023-05-01T18:56:12.081Z</time>
      </trkpt>
      <trkpt lat="48.30756" lon="-3.65966">
        <ele>176.921392</ele>
        <time>2023-05-01T18:56:17.081Z</time>
      </trkpt>
      <trkpt lat="48.30752" lon="-3.65953">
        <ele>177.237305</ele>
        <time>2023-05-01T18:56:22.082Z</time>
      </trkpt>
      <trkpt lat="48.30748" lon="-3.65941">
        <ele>177.703355</ele>
        <time>2023-05-01T18:56:27.075Z</time>
      </trkpt>
      <trkpt lat="48.30744" lon="-3.65928">
        <ele>178.269033</ele>
        <time>2023-05-01T18:56:32.081Z</time>
      </trkpt>
      <trkpt lat="48.30739" lon="-3.65915">
        <ele>178.89579</ele>
        <time>2023-05-01T18:56:37.085Z</time>
      </trkpt>
      <trkpt lat="48.30733" lon="-3.65901">
        <ele>179.539457</ele>
        <time>2023-05-01T18:56:42.082Z</time>
      </trkpt>
      <trkpt lat="48.30728" lon="-3.65889">
        <ele>180.094921</ele>
        <time>2023-05-01T18:56:46.076Z</time>
      </trkpt>
      <trkpt lat="48.30723" lon="-3.65876">
        <ele>180.71226</ele>
        <time>2023-05-01T18:56:51.084Z</time>
      </trkpt>
      <trkpt lat="48.30717" lon="-3.65863">
        <ele>181.332246</ele>
        <time>2023-05-01T18:56:56.078Z</time>
      </trkpt>
      <trkpt lat="48.30711" lon="-3.6585">
        <ele>181.959224</ele>
        <time>2023-05-01T18:57:01.092Z</time>
      </trkpt>
      <trkpt lat="48.30705" lon="-3.65838">
        <ele>182.58052</ele>
        <time>2023-05-01T18:57:06.076Z</time>
      </trkpt>
      <trkpt lat="48.307" lon="-3.65825">
        <ele>183.16083</ele>
        <time>2023-05-01T18:57:11.078Z</time>
      </trkpt>
      <trkpt lat="48.30693" lon="-3.65813">
        <ele>183.809298</ele>
        <time>2023-05-01T18:57:16.080Z</time>
      </trkpt>
      <trkpt lat="48.30686" lon="-3.658">
        <ele>184.443326</ele>
        <time>2023-05-01T18:57:21.089Z</time>
      </trkpt>
      <trkpt lat="48.3068" lon="-3.65789">
        <ele>185.051141</ele>
        <time>2023-05-01T18:57:26.076Z</time>
      </trkpt>
      <trkpt lat="48.30673" lon="-3.65777">
        <ele>185.667348</ele>
        <time>2023-05-01T18:57:31.088Z</time>
      </trkpt>
      <trkpt lat="48.30666" lon="-3.65765">
        <ele>186.330006</ele>
        <time>2023-05-01T18:57:36.082Z</time>
      </trkpt>
      <trkpt lat="48.30659" lon="-3.65752">
        <ele>186.96084</ele>
        <time>2023-05-01T18:57:41.087Z</time>
      </trkpt>
      <trkpt lat="48.30653" lon="-3.65741">
        <ele>187.540317</ele>
        <time>2023-05-01T18:57:46.075Z</time>
      </trkpt>
      <trkpt lat="48.30647" lon="-3.65729">
        <ele>188.126564</ele>
        <time>2023-05-01T18:57:51.087Z</time>
      </trkpt>
      <trkpt lat="48.3064" lon="-3.65718">
        <ele>188.533953</ele>
        <time>2023-05-01T18:57:56.077Z</time>
      </trkpt>
      <trkpt lat="48.30633" lon="-3.65706">
        <ele>188.961085</ele>
        <time>2023-05-01T18:58:01.081Z</time>
      </trkpt>
      <trkpt lat="48.30626" lon="-3.65695">
        <ele>189.384103</ele>
        <time>2023-05-01T18:58:06.063Z</time>
      </trkpt>
      <trkpt lat="48.3062" lon="-3.65682">
        <ele>189.834013</ele>
        <time>2023-05-01T18:58:11.089Z</time>
      </trkpt>
      <trkpt lat="48.30612" lon="-3.65672">
        <ele>190.235439</ele>
        <time>2023-05-01T18:58:16.083Z</time>
      </trkpt>
      <trkpt lat="48.30605" lon="-3.65662">
        <ele>190.630691</ele>
        <time>2023-05-01T18:58:22.073Z</time>
      </trkpt>
      <trkpt lat="48.30597" lon="-3.6565">
        <ele>191.076877</ele>
        <time>2023-05-01T18:58:28.076Z</time>
      </trkpt>
      <trkpt lat="48.30591" lon="-3.65639">
        <ele>191.477479</ele>
        <time>2023-05-01T18:58:33.082Z</time>
      </trkpt>
      <trkpt lat="48.30584" lon="-3.65628">
        <ele>191.893115</ele>
        <time>2023-05-01T18:58:38.092Z</time>
      </trkpt>
      <trkpt lat="48.30577" lon="-3.65616">
        <ele>192.33019</ele>
        <time>2023-05-01T18:58:43.082Z</time>
      </trkpt>
      <trkpt lat="48.30571" lon="-3.65604">
        <ele>192.726419</ele>
        <time>2023-05-01T18:58:48.056Z</time>
      </trkpt>
      <trkpt lat="48.30565" lon="-3.65593">
        <ele>193.140601</ele>
        <time>2023-05-01T18:58:53.075Z</time>
      </trkpt>
      <trkpt lat="48.30558" lon="-3.65582">
        <ele>193.555079</ele>
        <time>2023-05-01T18:58:58.067Z</time>
      </trkpt>
      <trkpt lat="48.30551" lon="-3.65572">
        <ele>193.942833</ele>
        <time>2023-05-01T18:59:03.081Z</time>
      </trkpt>
      <trkpt lat="48.30544" lon="-3.65561">
        <ele>194.359335</ele>
        <time>2023-05-01T18:59:08.079Z</time>
      </trkpt>
      <trkpt lat="48.30537" lon="-3.65551">
        <ele>194.749008</ele>
        <time>2023-05-01T18:59:13.091Z</time>
      </trkpt>
      <trkpt lat="48.30529" lon="-3.65542">
        <ele>195.166515</ele>
        <time>2023-05-01T18:59:18.081Z</time>
      </trkpt>
      <trkpt lat="48.30522" lon="-3.6553">
        <ele>195.499173</ele>
        <time>2023-05-01T18:59:23.096Z</time>
      </trkpt>
      <trkpt lat="48.30515" lon="-3.65519">
        <ele>195.613098</ele>
        <time>2023-05-01T18:59:28.073Z</time>
      </trkpt>
      <trkpt lat="48.30508" lon="-3.65507">
        <ele>195.733272</ele>
        <time>2023-05-01T18:59:33.083Z</time>
      </trkpt>
      <trkpt lat="48.30501" lon="-3.65495">
        <ele>195.856852</ele>
        <time>2023-05-01T18:59:38.089Z</time>
      </trkpt>
      <trkpt lat="48.30494" lon="-3.65484">
        <ele>195.972674</ele>
        <time>2023-05-01T18:59:43.087Z</time>
      </trkpt>
      <trkpt lat="48.30488" lon="-3.65473">
        <ele>196.080686</ele>
        <time>2023-05-01T18:59:47.074Z</time>
      </trkpt>
      <trkpt lat="48.30481" lon="-3.65463">
        <ele>196.184303</ele>
        <time>2023-05-01T18:59:51.088Z</time>
      </trkpt>
      <trkpt lat="48.30474" lon="-3.65451">
        <ele>196.311948</ele>
        <time>2023-05-01T18:59:57.074Z</time>
      </trkpt>
      <trkpt lat="48.30467" lon="-3.65439">
        <ele>196.432838</ele>
        <time>2023-05-01T19:00:02.079Z</time>
      </trkpt>
      <trkpt lat="48.30461" lon="-3.65428">
        <ele>196.546563</ele>
        <time>2023-05-01T19:00:07.077Z</time>
      </trkpt>
      <trkpt lat="48.30453" lon="-3.65419">
        <ele>196.653991</ele>
        <time>2023-05-01T19:00:11.074Z</time>
      </trkpt>
      <trkpt lat="48.30447" lon="-3.65407">
        <ele>196.768063</ele>
        <time>2023-05-01T19:00:15.078Z</time>
      </trkpt>
      <trkpt lat="48.30441" lon="-3.65396">
        <ele>196.879602</ele>
        <time>2023-05-01T19:00:19.089Z</time>
      </trkpt>
      <trkpt lat="48.30435" lon="-3.65385">
        <ele>196.987812</ele>
        <time>2023-05-01T19:00:23.077Z</time>
      </trkpt>
      <trkpt lat="48.30428" lon="-3.65374">
        <ele>197.097946</ele>
        <time>2023-05-01T19:00:27.074Z</time>
      </trkpt>
      <trkpt lat="48.30421" lon="-3.65363">
        <ele>197.215108</ele>
        <time>2023-05-01T19:00:31.081Z</time>
      </trkpt>
      <trkpt lat="48.30415" lon="-3.65351">
        <ele>197.33587</ele>
        <time>2023-05-01T19:00:35.068Z</time>
      </trkpt>
      <trkpt lat="48.30408" lon="-3.65339">
        <ele>197.458535</ele>
        <time>2023-05-01T19:00:39.088Z</time>
      </trkpt>
      <trkpt lat="48.30401" lon="-3.65326">
        <ele>197.528657</ele>
        <time>2023-05-01T19:00:43.078Z</time>
      </trkpt>
      <trkpt lat="48.30395" lon="-3.65313">
        <ele>197.543297</ele>
        <time>2023-05-01T19:00:47.078Z</time>
      </trkpt>
      <trkpt lat="48.30389" lon="-3.65303">
        <ele>197.556345</ele>
        <time>2023-05-01T19:00:51.076Z</time>
      </trkpt>
      <trkpt lat="48.30383" lon="-3.65291">
        <ele>197.570931</ele>
        <time>2023-05-01T19:00:55.081Z</time>
      </trkpt>
      <trkpt lat="48.30376" lon="-3.65277">
        <ele>197.587376</ele>
        <time>2023-05-01T19:00:59.077Z</time>
      </trkpt>
      <trkpt lat="48.30369" lon="-3.65262">
        <ele>197.604291</ele>
        <time>2023-05-01T19:01:03.078Z</time>
      </trkpt>
      <trkpt lat="48.30364" lon="-3.65249">
        <ele>197.618993</ele>
        <time>2023-05-01T19:01:07.072Z</time>
      </trkpt>
      <trkpt lat="48.30359" lon="-3.65237">
        <ele>197.632511</ele>
        <time>2023-05-01T19:01:11.073Z</time>
      </trkpt>
      <trkpt lat="48.30354" lon="-3.65226">
        <ele>197.645395</ele>
        <time>2023-05-01T19:01:15.082Z</time>
      </trkpt>
      <trkpt lat="48.30348" lon="-3.65211">
        <ele>197.661525</ele>
        <time>2023-05-01T19:01:20.090Z</time>
      </trkpt>
      <trkpt lat="48.30342" lon="-3.65197">
        <ele>197.677343</ele>
        <time>2023-05-01T19:01:24.081Z</time>
      </trkpt>
      <trkpt lat="48.30336" lon="-3.65183">
        <ele>197.693405</ele>
        <time>2023-05-01T19:01:28.077Z</time>
      </trkpt>
      <trkpt lat="48.30331" lon="-3.65168">
        <ele>197.709581</ele>
        <time>2023-05-01T19:01:32.080Z</time>
      </trkpt>
      <trkpt lat="48.30325" lon="-3.65153">
        <ele>197.725651</ele>
        <time>2023-05-01T19:01:36.085Z</time>
      </trkpt>
      <trkpt lat="48.30319" lon="-3.65137">
        <ele>197.74263</ele>
        <time>2023-05-01T19:01:40.083Z</time>
      </trkpt>
      <trkpt lat="48.30313" lon="-3.65122">
        <ele>197.759831</ele>
        <time>2023-05-01T19:01:44.082Z</time>
      </trkpt>
      <trkpt lat="48.30309" lon="-3.65108">
        <ele>197.773893</ele>
        <time>2023-05-01T19:01:48.075Z</time>
      </trkpt>
      <trkpt lat="48.30304" lon="-3.65096">
        <ele>197.551619</ele>
        <time>2023-05-01T19:01:52.081Z</time>
      </trkpt>
      <trkpt lat="48.303" lon="-3.65084">
        <ele>197.232627</ele>
        <time>2023-05-01T19:01:56.083Z</time>
      </trkpt>
      <trkpt lat="48.30296" lon="-3.65072">
        <ele>196.907492</ele>
        <time>2023-05-01T19:02:00.078Z</time>
      </trkpt>
      <trkpt lat="48.30291" lon="-3.65059">
        <ele>196.574434</ele>
        <time>2023-05-01T19:02:04.087Z</time>
      </trkpt>
      <trkpt lat="48.30287" lon="-3.65045">
        <ele>196.219262</ele>
        <time>2023-05-01T19:02:08.073Z</time>
      </trkpt>
      <trkpt lat="48.30281" lon="-3.65031">
        <ele>195.847085</ele>
        <time>2023-05-01T19:02:12.083Z</time>
      </trkpt>
      <trkpt lat="48.30275" lon="-3.65017">
        <ele>195.448192</ele>
        <time>2023-05-01T19:02:16.082Z</time>
      </trkpt>
      <trkpt lat="48.3027" lon="-3.65001">
        <ele>195.049271</ele>
        <time>2023-05-01T19:02:20.082Z</time>
      </trkpt>
      <trkpt lat="48.30265" lon="-3.64986">
        <ele>194.668508</ele>
        <time>2023-05-01T19:02:24.077Z</time>
      </trkpt>
      <trkpt lat="48.30259" lon="-3.64973">
        <ele>194.300114</ele>
        <time>2023-05-01T19:02:28.074Z</time>
      </trkpt>
      <trkpt lat="48.30254" lon="-3.64958">
        <ele>193.917795</ele>
        <time>2023-05-01T19:02:32.074Z</time>
      </trkpt>
      <trkpt lat="48.30249" lon="-3.64944">
        <ele>193.53673</ele>
        <time>2023-05-01T19:02:36.075Z</time>
      </trkpt>
      <trkpt lat="48.30244" lon="-3.6493">
        <ele>193.180096</ele>
        <time>2023-05-01T19:02:40.086Z</time>
      </trkpt>
      <trkpt lat="48.30239" lon="-3.64916">
        <ele>192.816137</ele>
        <time>2023-05-01T19:02:44.073Z</time>
      </trkpt>
      <trkpt lat="48.30234" lon="-3.64904">
        <ele>192.486277</ele>
        <time>2023-05-01T19:02:48.076Z</time>
      </trkpt>
      <trkpt lat="48.30229" lon="-3.64891">
        <ele>192.140647</ele>
        <time>2023-05-01T19:02:52.082Z</time>
      </trkpt>
      <trkpt lat="48.30224" lon="-3.64878">
        <ele>191.812425</ele>
        <time>2023-05-01T19:02:56.082Z</time>
      </trkpt>
      <trkpt lat="48.3022" lon="-3.64865">
        <ele>191.436578</ele>
        <time>2023-05-01T19:03:01.081Z</time>
      </trkpt>
      <trkpt lat="48.30215" lon="-3.64851">
        <ele>190.997506</ele>
        <time>2023-05-01T19:03:06.092Z</time>
      </trkpt>
      <trkpt lat="48.3021" lon="-3.64837">
        <ele>190.520607</ele>
        <time>2023-05-01T19:03:11.096Z</time>
      </trkpt>
      <trkpt lat="48.30205" lon="-3.64823">
        <ele>190.065614</ele>
        <time>2023-05-01T19:03:16.095Z</time>
      </trkpt>
      <trkpt lat="48.302" lon="-3.64809">
        <ele>189.611227</ele>
        <time>2023-05-01T19:03:20.079Z</time>
      </trkpt>
      <trkpt lat="48.30193" lon="-3.64795">
        <ele>189.098035</ele>
        <time>2023-05-01T19:03:24.081Z</time>
      </trkpt>
      <trkpt lat="48.30187" lon="-3.64781">
        <ele>188.62466</ele>
        <time>2023-05-01T19:03:28.077Z</time>
      </trkpt>
      <trkpt lat="48.30181" lon="-3.64771">
        <ele>188.230329</ele>
        <time>2023-05-01T19:03:32.076Z</time>
      </trkpt>
      <trkpt lat="48.30175" lon="-3.64758">
        <ele>187.784346</ele>
        <time>2023-05-01T19:03:36.086Z</time>
      </trkpt>
      <trkpt lat="48.30169" lon="-3.64745">
        <ele>187.318338</ele>
        <time>2023-05-01T19:03:40.090Z</time>
      </trkpt>
      <trkpt lat="48.30162" lon="-3.64733">
        <ele>186.861921</ele>
        <time>2023-05-01T19:03:44.079Z</time>
      </trkpt>
      <trkpt lat="48.30156" lon="-3.64721">
        <ele>186.415937</ele>
        <time>2023-05-01T19:03:48.078Z</time>
      </trkpt>
      <trkpt lat="48.30149" lon="-3.6471">
        <ele>185.990128</ele>
        <time>2023-05-01T19:03:52.075Z</time>
      </trkpt>
      <trkpt lat="48.30142" lon="-3.64699">
        <ele>185.554785</ele>
        <time>2023-05-01T19:03:56.081Z</time>
      </trkpt>
      <trkpt lat="48.30135" lon="-3.64689">
        <ele>185.13917</ele>
        <time>2023-05-01T19:04:00.077Z</time>
      </trkpt>
      <trkpt lat="48.30127" lon="-3.64676">
        <ele>184.629049</ele>
        <time>2023-05-01T19:04:04.089Z</time>
      </trkpt>
      <trkpt lat="48.3012" lon="-3.64666">
        <ele>184.19877</ele>
        <time>2023-05-01T19:04:07.080Z</time>
      </trkpt>
      <trkpt lat="48.30112" lon="-3.64656">
        <ele>183.770098</ele>
        <time>2023-05-01T19:04:10.088Z</time>
      </trkpt>
      <trkpt lat="48.30105" lon="-3.64647">
        <ele>183.410495</ele>
        <time>2023-05-01T19:04:13.093Z</time>
      </trkpt>
      <trkpt lat="48.30098" lon="-3.64638">
        <ele>183.058777</ele>
        <time>2023-05-01T19:04:16.085Z</time>
      </trkpt>
      <trkpt lat="48.30089" lon="-3.64627">
        <ele>182.608127</ele>
        <time>2023-05-01T19:04:20.081Z</time>
      </trkpt>
      <trkpt lat="48.30081" lon="-3.64618">
        <ele>182.212983</ele>
        <time>2023-05-01T19:04:24.083Z</time>
      </trkpt>
      <trkpt lat="48.30072" lon="-3.64608">
        <ele>181.795946</ele>
        <time>2023-05-01T19:04:28.078Z</time>
      </trkpt>
      <trkpt lat="48.30064" lon="-3.64599">
        <ele>181.394666</ele>
        <time>2023-05-01T19:04:32.088Z</time>
      </trkpt>
      <trkpt lat="48.30055" lon="-3.64591">
        <ele>180.992726</ele>
        <time>2023-05-01T19:04:36.082Z</time>
      </trkpt>
      <trkpt lat="48.30047" lon="-3.64583">
        <ele>180.644947</ele>
        <time>2023-05-01T19:04:40.073Z</time>
      </trkpt>
      <trkpt lat="48.3004" lon="-3.64575">
        <ele>180.295686</ele>
        <time>2023-05-01T19:04:44.074Z</time>
      </trkpt>
      <trkpt lat="48.3003" lon="-3.64567">
        <ele>179.889099</ele>
        <time>2023-05-01T19:04:48.074Z</time>
      </trkpt>
      <trkpt lat="48.30022" lon="-3.6456">
        <ele>179.517315</ele>
        <time>2023-05-01T19:04:52.079Z</time>
      </trkpt>
      <trkpt lat="48.30014" lon="-3.64552">
        <ele>179.134198</ele>
        <time>2023-05-01T19:04:57.094Z</time>
      </trkpt>
      <trkpt lat="48.30005" lon="-3.64543">
        <ele>178.73201</ele>
        <time>2023-05-01T19:05:02.085Z</time>
      </trkpt>
      <trkpt lat="48.29996" lon="-3.64536">
        <ele>178.362018</ele>
        <time>2023-05-01T19:05:06.076Z</time>
      </trkpt>
      <trkpt lat="48.29987" lon="-3.64529">
        <ele>177.963951</ele>
        <time>2023-05-01T19:05:10.078Z</time>
      </trkpt>
      <trkpt lat="48.29978" lon="-3.6452">
        <ele>177.540865</ele>
        <time>2023-05-01T19:05:14.078Z</time>
      </trkpt>
      <trkpt lat="48.29968" lon="-3.64512">
        <ele>177.103457</ele>
        <time>2023-05-01T19:05:18.083Z</time>
      </trkpt>
      <trkpt lat="48.29958" lon="-3.64502">
        <ele>176.862163</ele>
        <time>2023-05-01T19:05:22.085Z</time>
      </trkpt>
      <trkpt lat="48.29949" lon="-3.64494">
        <ele>176.872036</ele>
        <time>2023-05-01T19:05:26.062Z</time>
      </trkpt>
      <trkpt lat="48.2994" lon="-3.64486">
        <ele>176.881609</ele>
        <time>2023-05-01T19:05:30.069Z</time>
      </trkpt>
      <trkpt lat="48.29931" lon="-3.64477">
        <ele>176.89156</ele>
        <time>2023-05-01T19:05:34.063Z</time>
      </trkpt>
      <trkpt lat="48.29921" lon="-3.6447">
        <ele>176.901278</ele>
        <time>2023-05-01T19:05:38.065Z</time>
      </trkpt>
      <trkpt lat="48.29913" lon="-3.64462">
        <ele>176.91071</ele>
        <time>2023-05-01T19:05:42.061Z</time>
      </trkpt>
      <trkpt lat="48.29904" lon="-3.64454">
        <ele>176.919954</ele>
        <time>2023-05-01T19:05:46.089Z</time>
      </trkpt>
      <trkpt lat="48.29896" lon="-3.64447">
        <ele>176.928518</ele>
        <time>2023-05-01T19:05:50.080Z</time>
      </trkpt>
      <trkpt lat="48.29888" lon="-3.6444">
        <ele>176.9374</ele>
        <time>2023-05-01T19:05:54.075Z</time>
      </trkpt>
      <trkpt lat="48.29878" lon="-3.64431">
        <ele>176.947854</ele>
        <time>2023-05-01T19:05:58.083Z</time>
      </trkpt>
      <trkpt lat="48.2987" lon="-3.64423">
        <ele>176.956383</ele>
        <time>2023-05-01T19:06:01.083Z</time>
      </trkpt>
      <trkpt lat="48.29862" lon="-3.64416">
        <ele>176.964965</ele>
        <time>2023-05-01T19:06:04.088Z</time>
      </trkpt>
      <trkpt lat="48.29854" lon="-3.64409">
        <ele>176.973728</ele>
        <time>2023-05-01T19:06:07.077Z</time>
      </trkpt>
      <trkpt lat="48.29846" lon="-3.64402">
        <ele>176.982104</ele>
        <time>2023-05-01T19:06:10.080Z</time>
      </trkpt>
      <trkpt lat="48.29836" lon="-3.64393">
        <ele>176.992809</ele>
        <time>2023-05-01T19:06:14.076Z</time>
      </trkpt>
      <trkpt lat="48.29827" lon="-3.64384">
        <ele>177.002917</ele>
        <time>2023-05-01T19:06:18.079Z</time>
      </trkpt>
      <trkpt lat="48.29819" lon="-3.64375">
        <ele>177.012061</ele>
        <time>2023-05-01T19:06:22.079Z</time>
      </trkpt>
      <trkpt lat="48.29809" lon="-3.64366">
        <ele>177.02233</ele>
        <time>2023-05-01T19:06:26.074Z</time>
      </trkpt>
      <trkpt lat="48.29799" lon="-3.64357">
        <ele>177.454144</ele>
        <time>2023-05-01T19:06:30.079Z</time>
      </trkpt>
      <trkpt lat="48.29791" lon="-3.6435">
        <ele>177.812024</ele>
        <time>2023-05-01T19:06:34.080Z</time>
      </trkpt>
      <trkpt lat="48.29784" lon="-3.64342">
        <ele>178.159185</ele>
        <time>2023-05-01T19:06:39.080Z</time>
      </trkpt>
      <trkpt lat="48.29775" lon="-3.64335">
        <ele>178.540131</ele>
        <time>2023-05-01T19:06:44.082Z</time>
      </trkpt>
      <trkpt lat="48.29767" lon="-3.64328">
        <ele>178.912581</ele>
        <time>2023-05-01T19:06:49.081Z</time>
      </trkpt>
      <trkpt lat="48.29759" lon="-3.64319">
        <ele>179.285371</ele>
        <time>2023-05-01T19:06:54.092Z</time>
      </trkpt>
      <trkpt lat="48.29751" lon="-3.6431">
        <ele>179.672078</ele>
        <time>2023-05-01T19:06:59.089Z</time>
      </trkpt>
      <trkpt lat="48.29742" lon="-3.64303">
        <ele>180.057854</ele>
        <time>2023-05-01T19:07:04.089Z</time>
      </trkpt>
      <trkpt lat="48.29733" lon="-3.64294">
        <ele>180.470419</ele>
        <time>2023-05-01T19:07:09.081Z</time>
      </trkpt>
      <trkpt lat="48.29724" lon="-3.64288">
        <ele>180.854768</ele>
        <time>2023-05-01T19:07:14.086Z</time>
      </trkpt>
      <trkpt lat="48.29716" lon="-3.6428">
        <ele>181.227176</ele>
        <time>2023-05-01T19:07:19.079Z</time>
      </trkpt>
      <trkpt lat="48.29707" lon="-3.64274">
        <ele>181.585233</ele>
        <time>2023-05-01T19:07:24.088Z</time>
      </trkpt>
      <trkpt lat="48.29699" lon="-3.64266">
        <ele>181.949415</ele>
        <time>2023-05-01T19:07:29.087Z</time>
      </trkpt>
      <trkpt lat="48.29691" lon="-3.64258">
        <ele>182.316799</ele>
        <time>2023-05-01T19:07:34.089Z</time>
      </trkpt>
      <trkpt lat="48.29683" lon="-3.64252">
        <ele>182.677194</ele>
        <time>2023-05-01T19:07:39.081Z</time>
      </trkpt>
      <trkpt lat="48.29675" lon="-3.64244">
        <ele>183.029354</ele>
        <time>2023-05-01T19:07:44.091Z</time>
      </trkpt>
      <trkpt lat="48.29666" lon="-3.64237">
        <ele>183.434429</ele>
        <time>2023-05-01T19:07:50.085Z</time>
      </trkpt>
      <trkpt lat="48.29658" lon="-3.64229">
        <ele>183.823465</ele>
        <time>2023-05-01T19:07:56.071Z</time>
      </trkpt>
      <trkpt lat="48.29649" lon="-3.64221">
        <ele>184.223377</ele>
        <time>2023-05-01T19:08:02.080Z</time>
      </trkpt>
      <trkpt lat="48.29641" lon="-3.64211">
        <ele>184.656594</ele>
        <time>2023-05-01T19:08:08.076Z</time>
      </trkpt>
      <trkpt lat="48.29633" lon="-3.64203">
        <ele>185.037623</ele>
        <time>2023-05-01T19:08:13.087Z</time>
      </trkpt>
      <trkpt lat="48.29624" lon="-3.64195">
        <ele>185.473786</ele>
        <time>2023-05-01T19:08:19.070Z</time>
      </trkpt>
      <trkpt lat="48.29615" lon="-3.64185">
        <ele>185.913518</ele>
        <time>2023-05-01T19:08:25.082Z</time>
      </trkpt>
      <trkpt lat="48.29608" lon="-3.64177">
        <ele>186.292768</ele>
        <time>2023-05-01T19:08:30.073Z</time>
      </trkpt>
      <trkpt lat="48.296" lon="-3.64168">
        <ele>186.697081</ele>
        <time>2023-05-01T19:08:36.071Z</time>
      </trkpt>
      <trkpt lat="48.29591" lon="-3.64159">
        <ele>187.118966</ele>
        <time>2023-05-01T19:08:42.078Z</time>
      </trkpt>
      <trkpt lat="48.29584" lon="-3.6415">
        <ele>187.52125</ele>
        <time>2023-05-01T19:08:47.075Z</time>
      </trkpt>
      <trkpt lat="48.29576" lon="-3.64141">
        <ele>187.926658</ele>
        <time>2023-05-01T19:08:53.079Z</time>
      </trkpt>
      <trkpt lat="48.29568" lon="-3.64131">
        <ele>188.338959</ele>
        <time>2023-05-01T19:08:59.079Z</time>
      </trkpt>
      <trkpt lat="48.29562" lon="-3.64121">
        <ele>188.715665</ele>
        <time>2023-05-01T19:09:04.079Z</time>
      </trkpt>
      <trkpt lat="48.29555" lon="-3.64111">
        <ele>189.108561</ele>
        <time>2023-05-01T19:09:09.077Z</time>
      </trkpt>
      <trkpt lat="48.29548" lon="-3.641">
        <ele>189.51435</ele>
        <time>2023-05-01T19:09:15.080Z</time>
      </trkpt>
      <trkpt lat="48.29542" lon="-3.6409">
        <ele>189.883595</ele>
        <time>2023-05-01T19:09:20.079Z</time>
      </trkpt>
      <trkpt lat="48.29536" lon="-3.6408">
        <ele>190.261146</ele>
        <time>2023-05-01T19:09:25.080Z</time>
      </trkpt>
      <trkpt lat="48.29529" lon="-3.64069">
        <ele>190.655392</ele>
        <time>2023-05-01T19:09:30.077Z</time>
      </trkpt>
      <trkpt lat="48.29522" lon="-3.64057">
        <ele>191.099128</ele>
        <time>2023-05-01T19:09:36.085Z</time>
      </trkpt>
      <trkpt lat="48.29516" lon="-3.64045">
        <ele>191.636893</ele>
        <time>2023-05-01T19:09:42.075Z</time>
      </trkpt>
      <trkpt lat="48.29509" lon="-3.64033">
        <ele>192.326496</ele>
        <time>2023-05-01T19:09:48.077Z</time>
      </trkpt>
      <trkpt lat="48.29489" lon="-3.63993">
        <ele>194.44038</ele>
        <time>2023-05-01T19:10:06.088Z</time>
      </trkpt>
      <trkpt lat="48.29482" lon="-3.63981">
        <ele>195.10227</ele>
        <time>2023-05-01T19:10:11.080Z</time>
      </trkpt>
      <trkpt lat="48.29475" lon="-3.63971">
        <ele>195.742368</ele>
        <time>2023-05-01T19:10:15.078Z</time>
      </trkpt>
      <trkpt lat="48.29468" lon="-3.6396">
        <ele>196.404562</ele>
        <time>2023-05-01T19:10:19.094Z</time>
      </trkpt>
      <trkpt lat="48.29462" lon="-3.63948">
        <ele>197.036492</ele>
        <time>2023-05-01T19:10:23.083Z</time>
      </trkpt>
      <trkpt lat="48.29455" lon="-3.63936">
        <ele>197.713051</ele>
        <time>2023-05-01T19:10:27.076Z</time>
      </trkpt>
      <trkpt lat="48.29449" lon="-3.63922">
        <ele>198.416547</ele>
        <time>2023-05-01T19:10:31.087Z</time>
      </trkpt>
      <trkpt lat="48.29443" lon="-3.63911">
        <ele>199.02372</ele>
        <time>2023-05-01T19:10:35.080Z</time>
      </trkpt>
      <trkpt lat="48.29436" lon="-3.63897">
        <ele>199.773264</ele>
        <time>2023-05-01T19:10:40.090Z</time>
      </trkpt>
      <trkpt lat="48.29431" lon="-3.63885">
        <ele>200.387663</ele>
        <time>2023-05-01T19:10:44.091Z</time>
      </trkpt>
      <trkpt lat="48.29425" lon="-3.63873">
        <ele>201.027207</ele>
        <time>2023-05-01T19:10:49.085Z</time>
      </trkpt>
      <trkpt lat="48.29419" lon="-3.63863">
        <ele>201.607279</ele>
        <time>2023-05-01T19:14:52.073Z</time>
      </trkpt>
      <trkpt lat="48.29411" lon="-3.63855">
        <ele>202.201117</ele>
        <time>2023-05-01T19:15:00.066Z</time>
      </trkpt>
      <trkpt lat="48.29405" lon="-3.63843">
        <ele>202.77734</ele>
        <time>2023-05-01T19:15:07.067Z</time>
      </trkpt>
      <trkpt lat="48.29398" lon="-3.63831">
        <ele>202.472572</ele>
        <time>2023-05-01T19:15:12.079Z</time>
      </trkpt>
      <trkpt lat="48.29392" lon="-3.63818">
        <ele>202.142198</ele>
        <time>2023-05-01T19:15:17.078Z</time>
      </trkpt>
      <trkpt lat="48.29385" lon="-3.63805">
        <ele>201.811823</ele>
        <time>2023-05-01T19:15:22.078Z</time>
      </trkpt>
      <trkpt lat="48.29377" lon="-3.63793">
        <ele>201.484081</ele>
        <time>2023-05-01T19:15:27.074Z</time>
      </trkpt>
      <trkpt lat="48.29371" lon="-3.6378">
        <ele>201.170894</ele>
        <time>2023-05-01T19:15:31.081Z</time>
      </trkpt>
      <trkpt lat="48.29364" lon="-3.63768">
        <ele>200.83485</ele>
        <time>2023-05-01T19:15:35.084Z</time>
      </trkpt>
      <trkpt lat="48.29357" lon="-3.63753">
        <ele>200.473087</ele>
        <time>2023-05-01T19:15:39.080Z</time>
      </trkpt>
      <trkpt lat="48.29351" lon="-3.63742">
        <ele>200.192729</ele>
        <time>2023-05-01T19:15:42.081Z</time>
      </trkpt>
      <trkpt lat="48.29344" lon="-3.63728">
        <ele>199.831783</ele>
        <time>2023-05-01T19:15:46.074Z</time>
      </trkpt>
      <trkpt lat="48.29338" lon="-3.63716">
        <ele>199.535047</ele>
        <time>2023-05-01T19:15:49.086Z</time>
      </trkpt>
      <trkpt lat="48.29332" lon="-3.63704">
        <ele>199.237051</ele>
        <time>2023-05-01T19:15:52.082Z</time>
      </trkpt>
      <trkpt lat="48.29327" lon="-3.6369">
        <ele>198.923941</ele>
        <time>2023-05-01T19:15:55.074Z</time>
      </trkpt>
      <trkpt lat="48.29321" lon="-3.63677">
        <ele>198.617385</ele>
        <time>2023-05-01T19:15:58.088Z</time>
      </trkpt>
      <trkpt lat="48.29316" lon="-3.63663">
        <ele>198.28905</ele>
        <time>2023-05-01T19:16:01.078Z</time>
      </trkpt>
      <trkpt lat="48.2931" lon="-3.63647">
        <ele>197.920558</ele>
        <time>2023-05-01T19:16:04.085Z</time>
      </trkpt>
      <trkpt lat="48.29303" lon="-3.63631">
        <ele>197.547425</ele>
        <time>2023-05-01T19:16:07.076Z</time>
      </trkpt>
      <trkpt lat="48.29297" lon="-3.63615">
        <ele>196.837627</ele>
        <time>2023-05-01T19:16:10.078Z</time>
      </trkpt>
      <trkpt lat="48.29291" lon="-3.63598">
        <ele>195.860711</ele>
        <time>2023-05-01T19:16:13.079Z</time>
      </trkpt>
      <trkpt lat="48.29286" lon="-3.63585">
        <ele>195.143685</ele>
        <time>2023-05-01T19:16:15.078Z</time>
      </trkpt>
      <trkpt lat="48.29282" lon="-3.63571">
        <ele>194.363929</ele>
        <time>2023-05-01T19:16:17.081Z</time>
      </trkpt>
      <trkpt lat="48.29277" lon="-3.63558">
        <ele>193.611968</ele>
        <time>2023-05-01T19:16:19.080Z</time>
      </trkpt>
      <trkpt lat="48.29273" lon="-3.63544">
        <ele>192.855492</ele>
        <time>2023-05-01T19:16:21.086Z</time>
      </trkpt>
      <trkpt lat="48.29269" lon="-3.6353">
        <ele>192.09765</ele>
        <time>2023-05-01T19:16:23.076Z</time>
      </trkpt>
      <trkpt lat="48.29265" lon="-3.63512">
        <ele>191.173598</ele>
        <time>2023-05-01T19:16:25.078Z</time>
      </trkpt>
      <trkpt lat="48.29261" lon="-3.63494">
        <ele>190.211466</ele>
        <time>2023-05-01T19:16:27.066Z</time>
      </trkpt>
      <trkpt lat="48.29256" lon="-3.63475">
        <ele>189.194478</ele>
        <time>2023-05-01T19:16:29.080Z</time>
      </trkpt>
      <trkpt lat="48.29251" lon="-3.63453">
        <ele>188.035748</ele>
        <time>2023-05-01T19:16:31.071Z</time>
      </trkpt>
      <trkpt lat="48.29247" lon="-3.6343">
        <ele>186.8502</ele>
        <time>2023-05-01T19:16:33.084Z</time>
      </trkpt>
      <trkpt lat="48.29241" lon="-3.63407">
        <ele>185.607838</ele>
        <time>2023-05-01T19:16:35.079Z</time>
      </trkpt>
      <trkpt lat="48.29236" lon="-3.63384">
        <ele>184.391992</ele>
        <time>2023-05-01T19:16:37.081Z</time>
      </trkpt>
      <trkpt lat="48.2923" lon="-3.63359">
        <ele>183.156318</ele>
        <time>2023-05-01T19:16:39.081Z</time>
      </trkpt>
      <trkpt lat="48.29227" lon="-3.63346">
        <ele>182.536778</ele>
        <time>2023-05-01T19:16:40.080Z</time>
      </trkpt>
      <trkpt lat="48.29225" lon="-3.63332">
        <ele>181.917045</ele>
        <time>2023-05-01T19:16:41.081Z</time>
      </trkpt>
      <trkpt lat="48.29222" lon="-3.63319">
        <ele>181.284761</ele>
        <time>2023-05-01T19:16:42.079Z</time>
      </trkpt>
      <trkpt lat="48.29219" lon="-3.63305">
        <ele>180.639404</ele>
        <time>2023-05-01T19:16:43.077Z</time>
      </trkpt>
      <trkpt lat="48.29216" lon="-3.63291">
        <ele>179.968868</ele>
        <time>2023-05-01T19:16:44.077Z</time>
      </trkpt>
      <trkpt lat="48.29213" lon="-3.63276">
        <ele>179.277225</ele>
        <time>2023-05-01T19:16:45.068Z</time>
      </trkpt>
      <trkpt lat="48.29209" lon="-3.63261">
        <ele>178.568785</ele>
        <time>2023-05-01T19:16:46.075Z</time>
      </trkpt>
      <trkpt lat="48.29206" lon="-3.63246">
        <ele>177.862532</ele>
        <time>2023-05-01T19:16:47.071Z</time>
      </trkpt>
      <trkpt lat="48.29202" lon="-3.63231">
        <ele>177.141459</ele>
        <time>2023-05-01T19:16:48.074Z</time>
      </trkpt>
      <trkpt lat="48.29199" lon="-3.63215">
        <ele>176.414077</ele>
        <time>2023-05-01T19:16:49.084Z</time>
      </trkpt>
      <trkpt lat="48.29195" lon="-3.632">
        <ele>175.701486</ele>
        <time>2023-05-01T19:16:50.079Z</time>
      </trkpt>
      <trkpt lat="48.29192" lon="-3.63184">
        <ele>174.971977</ele>
        <time>2023-05-01T19:16:51.079Z</time>
      </trkpt>
      <trkpt lat="48.29188" lon="-3.63168">
        <ele>174.219212</ele>
        <time>2023-05-01T19:16:52.074Z</time>
      </trkpt>
      <trkpt lat="48.29185" lon="-3.63152">
        <ele>173.457884</ele>
        <time>2023-05-01T19:16:53.082Z</time>
      </trkpt>
      <trkpt lat="48.29182" lon="-3.63136">
        <ele>172.724074</ele>
        <time>2023-05-01T19:16:54.085Z</time>
      </trkpt>
      <trkpt lat="48.29178" lon="-3.63121">
        <ele>171.986013</ele>
        <time>2023-05-01T19:16:55.081Z</time>
      </trkpt>
      <trkpt lat="48.29175" lon="-3.63105">
        <ele>171.496728</ele>
        <time>2023-05-01T19:16:56.083Z</time>
      </trkpt>
      <trkpt lat="48.29171" lon="-3.63088">
        <ele>171.061086</ele>
        <time>2023-05-01T19:16:57.082Z</time>
      </trkpt>
      <trkpt lat="48.29168" lon="-3.63072">
        <ele>170.62181</ele>
        <time>2023-05-01T19:16:58.081Z</time>
      </trkpt>
      <trkpt lat="48.29164" lon="-3.63055">
        <ele>170.192011</ele>
        <time>2023-05-01T19:16:59.084Z</time>
      </trkpt>
      <trkpt lat="48.29161" lon="-3.63039">
        <ele>169.768197</ele>
        <time>2023-05-01T19:17:00.078Z</time>
      </trkpt>
      <trkpt lat="48.29157" lon="-3.63023">
        <ele>169.33374</ele>
        <time>2023-05-01T19:17:01.078Z</time>
      </trkpt>
      <trkpt lat="48.29153" lon="-3.63007">
        <ele>168.914829</ele>
        <time>2023-05-01T19:17:02.081Z</time>
      </trkpt>
      <trkpt lat="48.2915" lon="-3.62992">
        <ele>168.489908</ele>
        <time>2023-05-01T19:17:03.090Z</time>
      </trkpt>
      <trkpt lat="48.29146" lon="-3.62976">
        <ele>168.06975</ele>
        <time>2023-05-01T19:17:04.086Z</time>
      </trkpt>
      <trkpt lat="48.29143" lon="-3.62961">
        <ele>167.668813</ele>
        <time>2023-05-01T19:17:05.082Z</time>
      </trkpt>
      <trkpt lat="48.29139" lon="-3.62945">
        <ele>167.252285</ele>
        <time>2023-05-01T19:17:06.075Z</time>
      </trkpt>
      <trkpt lat="48.29136" lon="-3.6293">
        <ele>166.853743</ele>
        <time>2023-05-01T19:17:07.073Z</time>
      </trkpt>
      <trkpt lat="48.29133" lon="-3.62915">
        <ele>166.450373</ele>
        <time>2023-05-01T19:17:08.074Z</time>
      </trkpt>
      <trkpt lat="48.29129" lon="-3.629">
        <ele>166.043453</ele>
        <time>2023-05-01T19:17:09.080Z</time>
      </trkpt>
      <trkpt lat="48.29126" lon="-3.62885">
        <ele>165.662861</ele>
        <time>2023-05-01T19:17:10.083Z</time>
      </trkpt>
      <trkpt lat="48.29122" lon="-3.62871">
        <ele>165.286586</ele>
        <time>2023-05-01T19:17:11.080Z</time>
      </trkpt>
      <trkpt lat="48.29119" lon="-3.62858">
        <ele>164.956296</ele>
        <time>2023-05-01T19:17:12.079Z</time>
      </trkpt>
      <trkpt lat="48.29116" lon="-3.62844">
        <ele>164.699752</ele>
        <time>2023-05-01T19:17:13.084Z</time>
      </trkpt>
      <trkpt lat="48.29113" lon="-3.62831">
        <ele>164.44742</ele>
        <time>2023-05-01T19:17:14.078Z</time>
      </trkpt>
      <trkpt lat="48.29111" lon="-3.62817">
        <ele>164.194005</ele>
        <time>2023-05-01T19:17:15.080Z</time>
      </trkpt>
      <trkpt lat="48.29105" lon="-3.62791">
        <ele>163.714509</ele>
        <time>2023-05-01T19:17:17.080Z</time>
      </trkpt>
      <trkpt lat="48.29102" lon="-3.62778">
        <ele>163.475493</ele>
        <time>2023-05-01T19:17:18.084Z</time>
      </trkpt>
      <trkpt lat="48.29096" lon="-3.62754">
        <ele>163.021981</ele>
        <time>2023-05-01T19:17:20.078Z</time>
      </trkpt>
      <trkpt lat="48.29091" lon="-3.62728">
        <ele>162.54398</ele>
        <time>2023-05-01T19:17:22.076Z</time>
      </trkpt>
      <trkpt lat="48.29085" lon="-3.62704">
        <ele>162.095224</ele>
        <time>2023-05-01T19:17:24.077Z</time>
      </trkpt>
      <trkpt lat="48.2908" lon="-3.6268">
        <ele>161.639164</ele>
        <time>2023-05-01T19:17:26.079Z</time>
      </trkpt>
      <trkpt lat="48.29075" lon="-3.62656">
        <ele>161.194043</ele>
        <time>2023-05-01T19:17:28.070Z</time>
      </trkpt>
      <trkpt lat="48.29069" lon="-3.62632">
        <ele>160.751433</ele>
        <time>2023-05-01T19:17:30.081Z</time>
      </trkpt>
      <trkpt lat="48.29064" lon="-3.62608">
        <ele>160.308823</ele>
        <time>2023-05-01T19:17:32.081Z</time>
      </trkpt>
      <trkpt lat="48.29059" lon="-3.62585">
        <ele>159.805898</ele>
        <time>2023-05-01T19:17:34.080Z</time>
      </trkpt>
      <trkpt lat="48.29053" lon="-3.62562">
        <ele>159.291874</ele>
        <time>2023-05-01T19:17:36.085Z</time>
      </trkpt>
      <trkpt lat="48.29048" lon="-3.62539">
        <ele>158.782108</ele>
        <time>2023-05-01T19:17:38.083Z</time>
      </trkpt>
      <trkpt lat="48.29043" lon="-3.62517">
        <ele>158.306077</ele>
        <time>2023-05-01T19:17:40.081Z</time>
      </trkpt>
      <trkpt lat="48.29038" lon="-3.62495">
        <ele>157.808262</ele>
        <time>2023-05-01T19:17:42.084Z</time>
      </trkpt>
      <trkpt lat="48.29034" lon="-3.62473">
        <ele>157.322009</ele>
        <time>2023-05-01T19:17:44.080Z</time>
      </trkpt>
      <trkpt lat="48.2903" lon="-3.62451">
        <ele>156.846689</ele>
        <time>2023-05-01T19:17:46.080Z</time>
      </trkpt>
      <trkpt lat="48.29025" lon="-3.6243">
        <ele>156.386631</ele>
        <time>2023-05-01T19:17:48.078Z</time>
      </trkpt>
      <trkpt lat="48.2902" lon="-3.62409">
        <ele>155.918633</ele>
        <time>2023-05-01T19:17:50.066Z</time>
      </trkpt>
      <trkpt lat="48.29015" lon="-3.62388">
        <ele>155.456871</ele>
        <time>2023-05-01T19:17:52.078Z</time>
      </trkpt>
      <trkpt lat="48.2901" lon="-3.62368">
        <ele>155.002888</ele>
        <time>2023-05-01T19:17:54.079Z</time>
      </trkpt>
      <trkpt lat="48.29005" lon="-3.62347">
        <ele>154.575707</ele>
        <time>2023-05-01T19:17:56.089Z</time>
      </trkpt>
      <trkpt lat="48.29" lon="-3.62328">
        <ele>154.436138</ele>
        <time>2023-05-01T19:17:58.078Z</time>
      </trkpt>
      <trkpt lat="48.28996" lon="-3.62307">
        <ele>154.290818</ele>
        <time>2023-05-01T19:18:00.073Z</time>
      </trkpt>
      <trkpt lat="48.28991" lon="-3.62288">
        <ele>154.151161</ele>
        <time>2023-05-01T19:18:02.088Z</time>
      </trkpt>
      <trkpt lat="48.28987" lon="-3.62267">
        <ele>154.007866</ele>
        <time>2023-05-01T19:18:04.080Z</time>
      </trkpt>
      <trkpt lat="48.28983" lon="-3.62248">
        <ele>153.874542</ele>
        <time>2023-05-01T19:18:06.075Z</time>
      </trkpt>
      <trkpt lat="48.28979" lon="-3.62228">
        <ele>153.73425</ele>
        <time>2023-05-01T19:18:08.077Z</time>
      </trkpt>
      <trkpt lat="48.28975" lon="-3.62209">
        <ele>153.600958</ele>
        <time>2023-05-01T19:18:10.084Z</time>
      </trkpt>
      <trkpt lat="48.28972" lon="-3.62188">
        <ele>153.460763</ele>
        <time>2023-05-01T19:18:12.080Z</time>
      </trkpt>
      <trkpt lat="48.28967" lon="-3.6217">
        <ele>153.331543</ele>
        <time>2023-05-01T19:18:14.077Z</time>
      </trkpt>
      <trkpt lat="48.28962" lon="-3.62151">
        <ele>153.197524</ele>
        <time>2023-05-01T19:18:16.069Z</time>
      </trkpt>
      <trkpt lat="48.28959" lon="-3.62133">
        <ele>153.071458</ele>
        <time>2023-05-01T19:18:18.080Z</time>
      </trkpt>
      <trkpt lat="48.28955" lon="-3.62116">
        <ele>152.948907</ele>
        <time>2023-05-01T19:18:20.079Z</time>
      </trkpt>
      <trkpt lat="48.28952" lon="-3.62099">
        <ele>152.832566</ele>
        <time>2023-05-01T19:18:22.082Z</time>
      </trkpt>
      <trkpt lat="48.28948" lon="-3.62084">
        <ele>152.854655</ele>
        <time>2023-05-01T19:18:24.077Z</time>
      </trkpt>
      <trkpt lat="48.28944" lon="-3.62069">
        <ele>152.982423</ele>
        <time>2023-05-01T19:18:26.074Z</time>
      </trkpt>
      <trkpt lat="48.28941" lon="-3.62053">
        <ele>153.110152</ele>
        <time>2023-05-01T19:18:28.074Z</time>
      </trkpt>
      <trkpt lat="48.28937" lon="-3.62039">
        <ele>153.229001</ele>
        <time>2023-05-01T19:18:30.092Z</time>
      </trkpt>
      <trkpt lat="48.28935" lon="-3.62024">
        <ele>153.34725</ele>
        <time>2023-05-01T19:18:32.087Z</time>
      </trkpt>
      <trkpt lat="48.28932" lon="-3.62011">
        <ele>153.457578</ele>
        <time>2023-05-01T19:18:34.078Z</time>
      </trkpt>
      <trkpt lat="48.28929" lon="-3.61997">
        <ele>153.569761</ele>
        <time>2023-05-01T19:18:36.089Z</time>
      </trkpt>
      <trkpt lat="48.28926" lon="-3.61984">
        <ele>153.677875</ele>
        <time>2023-05-01T19:18:38.083Z</time>
      </trkpt>
      <trkpt lat="48.28922" lon="-3.61965">
        <ele>153.83141</ele>
        <time>2023-05-01T19:18:41.088Z</time>
      </trkpt>
      <trkpt lat="48.28919" lon="-3.6195">
        <ele>153.949882</ele>
        <time>2023-05-01T19:18:43.082Z</time>
      </trkpt>
      <trkpt lat="48.28917" lon="-3.61937">
        <ele>154.058392</ele>
        <time>2023-05-01T19:18:45.083Z</time>
      </trkpt>
      <trkpt lat="48.28914" lon="-3.61924">
        <ele>154.166566</ele>
        <time>2023-05-01T19:18:47.072Z</time>
      </trkpt>
      <trkpt lat="48.28909" lon="-3.61906">
        <ele>154.317763</ele>
        <time>2023-05-01T19:18:50.080Z</time>
      </trkpt>
      <trkpt lat="48.28907" lon="-3.61892">
        <ele>154.426273</ele>
        <time>2023-05-01T19:18:52.080Z</time>
      </trkpt>
      <trkpt lat="48.28903" lon="-3.61874">
        <ele>154.574363</ele>
        <time>2023-05-01T19:18:55.088Z</time>
      </trkpt>
      <trkpt lat="48.28898" lon="-3.61856">
        <ele>154.726289</ele>
        <time>2023-05-01T19:18:58.078Z</time>
      </trkpt>
      <trkpt lat="48.28894" lon="-3.61839">
        <ele>154.869361</ele>
        <time>2023-05-01T19:19:01.077Z</time>
      </trkpt>
      <trkpt lat="48.28889" lon="-3.61822">
        <ele>155.103609</ele>
        <time>2023-05-01T19:19:04.081Z</time>
      </trkpt>
      <trkpt lat="48.28885" lon="-3.61806">
        <ele>155.337167</ele>
        <time>2023-05-01T19:19:07.069Z</time>
      </trkpt>
      <trkpt lat="48.28881" lon="-3.61789">
        <ele>155.57379</ele>
        <time>2023-05-01T19:19:10.075Z</time>
      </trkpt>
      <trkpt lat="48.28877" lon="-3.61772">
        <ele>155.814897</ele>
        <time>2023-05-01T19:19:13.079Z</time>
      </trkpt>
      <trkpt lat="48.28872" lon="-3.61755">
        <ele>156.057352</ele>
        <time>2023-05-01T19:19:16.086Z</time>
      </trkpt>
      <trkpt lat="48.28868" lon="-3.61738">
        <ele>156.304289</ele>
        <time>2023-05-01T19:19:19.078Z</time>
      </trkpt>
      <trkpt lat="48.28864" lon="-3.61722">
        <ele>156.524618</ele>
        <time>2023-05-01T19:19:22.076Z</time>
      </trkpt>
      <trkpt lat="48.2886" lon="-3.61708">
        <ele>156.732124</ele>
        <time>2023-05-01T19:19:25.084Z</time>
      </trkpt>
      <trkpt lat="48.28857" lon="-3.61695">
        <ele>156.918638</ele>
        <time>2023-05-01T19:19:28.075Z</time>
      </trkpt>
      <trkpt lat="48.28853" lon="-3.61681">
        <ele>157.112213</ele>
        <time>2023-05-01T19:19:31.077Z</time>
      </trkpt>
      <trkpt lat="48.2885" lon="-3.61667">
        <ele>157.313442</ele>
        <time>2023-05-01T19:19:34.089Z</time>
      </trkpt>
      <trkpt lat="48.28847" lon="-3.61653">
        <ele>157.51709</ele>
        <time>2023-05-01T19:19:37.087Z</time>
      </trkpt>
      <trkpt lat="48.28843" lon="-3.61638">
        <ele>157.727243</ele>
        <time>2023-05-01T19:19:40.080Z</time>
      </trkpt>
      <trkpt lat="48.28839" lon="-3.61624">
        <ele>157.930433</ele>
        <time>2023-05-01T19:19:43.088Z</time>
      </trkpt>
      <trkpt lat="48.28835" lon="-3.6161">
        <ele>158.136187</ele>
        <time>2023-05-01T19:19:46.077Z</time>
      </trkpt>
      <trkpt lat="48.28831" lon="-3.61596">
        <ele>158.34564</ele>
        <time>2023-05-01T19:19:49.081Z</time>
      </trkpt>
      <trkpt lat="48.28827" lon="-3.61581">
        <ele>158.539369</ele>
        <time>2023-05-01T19:19:52.083Z</time>
      </trkpt>
      <trkpt lat="48.28823" lon="-3.61567">
        <ele>158.687129</ele>
        <time>2023-05-01T19:19:55.077Z</time>
      </trkpt>
      <trkpt lat="48.28818" lon="-3.61553">
        <ele>158.829812</ele>
        <time>2023-05-01T19:19:58.084Z</time>
      </trkpt>
      <trkpt lat="48.28814" lon="-3.6154">
        <ele>158.971564</ele>
        <time>2023-05-01T19:20:01.076Z</time>
      </trkpt>
      <trkpt lat="48.28809" lon="-3.61528">
        <ele>159.099189</ele>
        <time>2023-05-01T19:20:04.082Z</time>
      </trkpt>
      <trkpt lat="48.28804" lon="-3.61516">
        <ele>159.229741</ele>
        <time>2023-05-01T19:20:07.071Z</time>
      </trkpt>
      <trkpt lat="48.28799" lon="-3.61503">
        <ele>159.363503</ele>
        <time>2023-05-01T19:20:10.082Z</time>
      </trkpt>
      <trkpt lat="48.28794" lon="-3.61491">
        <ele>159.49627</ele>
        <time>2023-05-01T19:20:13.081Z</time>
      </trkpt>
      <trkpt lat="48.28788" lon="-3.61481">
        <ele>159.62949</ele>
        <time>2023-05-01T19:20:16.078Z</time>
      </trkpt>
      <trkpt lat="48.28778" lon="-3.61476">
        <ele>159.772891</ele>
        <time>2023-05-01T19:20:20.081Z</time>
      </trkpt>
      <trkpt lat="48.2877" lon="-3.61469">
        <ele>159.904478</ele>
        <time>2023-05-01T19:20:25.089Z</time>
      </trkpt>
      <trkpt lat="48.28769" lon="-3.61452">
        <ele>160.068253</ele>
        <time>2023-05-01T19:21:29.075Z</time>
      </trkpt>
      <trkpt lat="48.28743" lon="-3.61253">
        <ele>160.18989</ele>
        <time>2023-05-01T19:24:46.070Z</time>
      </trkpt>
      <trkpt lat="48.28739" lon="-3.61238">
        <ele>160.058749</ele>
        <time>2023-05-01T19:24:49.069Z</time>
      </trkpt>
      <trkpt lat="48.28735" lon="-3.61225">
        <ele>159.937034</ele>
        <time>2023-05-01T19:24:52.079Z</time>
      </trkpt>
      <trkpt lat="48.28731" lon="-3.61208">
        <ele>159.785088</ele>
        <time>2023-05-01T19:24:56.078Z</time>
      </trkpt>
      <trkpt lat="48.28727" lon="-3.61195">
        <ele>159.664934</ele>
        <time>2023-05-01T19:24:59.076Z</time>
      </trkpt>
      <trkpt lat="48.28723" lon="-3.61181">
        <ele>159.539921</ele>
        <time>2023-05-01T19:25:02.076Z</time>
      </trkpt>
      <trkpt lat="48.28719" lon="-3.61167">
        <ele>159.405064</ele>
        <time>2023-05-01T19:25:05.082Z</time>
      </trkpt>
      <trkpt lat="48.28715" lon="-3.61152">
        <ele>159.270586</ele>
        <time>2023-05-01T19:25:08.075Z</time>
      </trkpt>
      <trkpt lat="48.28711" lon="-3.61137">
        <ele>159.132682</ele>
        <time>2023-05-01T19:25:11.084Z</time>
      </trkpt>
      <trkpt lat="48.28707" lon="-3.6112">
        <ele>158.984773</ele>
        <time>2023-05-01T19:25:14.084Z</time>
      </trkpt>
      <trkpt lat="48.28702" lon="-3.61103">
        <ele>158.828732</ele>
        <time>2023-05-01T19:25:17.081Z</time>
      </trkpt>
      <trkpt lat="48.28698" lon="-3.61085">
        <ele>158.588736</ele>
        <time>2023-05-01T19:25:20.077Z</time>
      </trkpt>
      <trkpt lat="48.28693" lon="-3.61067">
        <ele>158.259557</ele>
        <time>2023-05-01T19:25:23.083Z</time>
      </trkpt>
      <trkpt lat="48.28689" lon="-3.61054">
        <ele>158.023937</ele>
        <time>2023-05-01T19:25:25.082Z</time>
      </trkpt>
      <trkpt lat="48.28685" lon="-3.61039">
        <ele>157.772338</ele>
        <time>2023-05-01T19:25:27.073Z</time>
      </trkpt>
      <trkpt lat="48.28682" lon="-3.61026">
        <ele>157.529591</ele>
        <time>2023-05-01T19:25:29.078Z</time>
      </trkpt>
      <trkpt lat="48.28679" lon="-3.61011">
        <ele>157.276417</ele>
        <time>2023-05-01T19:25:31.073Z</time>
      </trkpt>
      <trkpt lat="48.28675" lon="-3.60997">
        <ele>157.026934</ele>
        <time>2023-05-01T19:25:33.085Z</time>
      </trkpt>
      <trkpt lat="48.28671" lon="-3.60981">
        <ele>156.752649</ele>
        <time>2023-05-01T19:25:35.077Z</time>
      </trkpt>
      <trkpt lat="48.28667" lon="-3.60965">
        <ele>156.475972</ele>
        <time>2023-05-01T19:25:37.081Z</time>
      </trkpt>
      <trkpt lat="48.28663" lon="-3.60948">
        <ele>156.181477</ele>
        <time>2023-05-01T19:25:39.071Z</time>
      </trkpt>
      <trkpt lat="48.28659" lon="-3.60929">
        <ele>155.849529</ele>
        <time>2023-05-01T19:25:41.077Z</time>
      </trkpt>
      <trkpt lat="48.28654" lon="-3.6091">
        <ele>155.517395</ele>
        <time>2023-05-01T19:25:43.075Z</time>
      </trkpt>
      <trkpt lat="48.28649" lon="-3.6089">
        <ele>155.170705</ele>
        <time>2023-05-01T19:25:45.076Z</time>
      </trkpt>
      <trkpt lat="48.28645" lon="-3.60871">
        <ele>154.836496</ele>
        <time>2023-05-01T19:25:47.071Z</time>
      </trkpt>
      <trkpt lat="48.2864" lon="-3.60851">
        <ele>154.486584</ele>
        <time>2023-05-01T19:25:49.078Z</time>
      </trkpt>
      <trkpt lat="48.28635" lon="-3.60832">
        <ele>154.103084</ele>
        <time>2023-05-01T19:25:51.076Z</time>
      </trkpt>
      <trkpt lat="48.2863" lon="-3.60812">
        <ele>153.659781</ele>
        <time>2023-05-01T19:25:53.074Z</time>
      </trkpt>
      <trkpt lat="48.28625" lon="-3.60792">
        <ele>153.23248</ele>
        <time>2023-05-01T19:25:55.081Z</time>
      </trkpt>
      <trkpt lat="48.28619" lon="-3.60771">
        <ele>152.765835</ele>
        <time>2023-05-01T19:25:57.080Z</time>
      </trkpt>
      <trkpt lat="48.28615" lon="-3.6075">
        <ele>152.301777</ele>
        <time>2023-05-01T19:25:59.079Z</time>
      </trkpt>
      <trkpt lat="48.2861" lon="-3.60728">
        <ele>151.827945</ele>
        <time>2023-05-01T19:26:01.077Z</time>
      </trkpt>
      <trkpt lat="48.28604" lon="-3.60708">
        <ele>151.374246</ele>
        <time>2023-05-01T19:26:03.086Z</time>
      </trkpt>
      <trkpt lat="48.286" lon="-3.60686">
        <ele>150.907255</ele>
        <time>2023-05-01T19:26:05.082Z</time>
      </trkpt>
      <trkpt lat="48.28595" lon="-3.60665">
        <ele>150.458822</ele>
        <time>2023-05-01T19:26:07.076Z</time>
      </trkpt>
      <trkpt lat="48.28592" lon="-3.60644">
        <ele>150.010268</ele>
        <time>2023-05-01T19:26:09.076Z</time>
      </trkpt>
      <trkpt lat="48.28588" lon="-3.60624">
        <ele>149.57445</ele>
        <time>2023-05-01T19:26:11.076Z</time>
      </trkpt>
      <trkpt lat="48.28585" lon="-3.60603">
        <ele>149.140845</ele>
        <time>2023-05-01T19:26:13.087Z</time>
      </trkpt>
      <trkpt lat="48.28581" lon="-3.60583">
        <ele>148.712515</ele>
        <time>2023-05-01T19:26:15.078Z</time>
      </trkpt>
      <trkpt lat="48.28579" lon="-3.60564">
        <ele>148.27992</ele>
        <time>2023-05-01T19:26:17.073Z</time>
      </trkpt>
      <trkpt lat="48.28576" lon="-3.60544">
        <ele>147.851557</ele>
        <time>2023-05-01T19:26:19.081Z</time>
      </trkpt>
      <trkpt lat="48.28573" lon="-3.60526">
        <ele>147.447613</ele>
        <time>2023-05-01T19:26:21.085Z</time>
      </trkpt>
      <trkpt lat="48.28569" lon="-3.60507">
        <ele>147.021118</ele>
        <time>2023-05-01T19:26:23.083Z</time>
      </trkpt>
      <trkpt lat="48.28567" lon="-3.60488">
        <ele>146.607552</ele>
        <time>2023-05-01T19:26:25.083Z</time>
      </trkpt>
      <trkpt lat="48.28565" lon="-3.6047">
        <ele>146.19925</ele>
        <time>2023-05-01T19:26:27.079Z</time>
      </trkpt>
      <trkpt lat="48.28563" lon="-3.60451">
        <ele>145.798947</ele>
        <time>2023-05-01T19:26:29.082Z</time>
      </trkpt>
      <trkpt lat="48.28561" lon="-3.60434">
        <ele>145.425264</ele>
        <time>2023-05-01T19:26:31.089Z</time>
      </trkpt>
      <trkpt lat="48.2856" lon="-3.60418">
        <ele>145.070823</ele>
        <time>2023-05-01T19:26:33.079Z</time>
      </trkpt>
      <trkpt lat="48.28558" lon="-3.60402">
        <ele>144.715179</ele>
        <time>2023-05-01T19:26:35.078Z</time>
      </trkpt>
      <trkpt lat="48.28557" lon="-3.60386">
        <ele>144.374035</ele>
        <time>2023-05-01T19:26:37.077Z</time>
      </trkpt>
      <trkpt lat="48.28556" lon="-3.60371">
        <ele>144.041432</ele>
        <time>2023-05-01T19:26:39.080Z</time>
      </trkpt>
      <trkpt lat="48.28553" lon="-3.60356">
        <ele>143.705895</ele>
        <time>2023-05-01T19:26:41.083Z</time>
      </trkpt>
      <trkpt lat="48.28551" lon="-3.60341">
        <ele>143.374901</ele>
        <time>2023-05-01T19:26:43.066Z</time>
      </trkpt>
      <trkpt lat="48.2855" lon="-3.60326">
        <ele>143.063069</ele>
        <time>2023-05-01T19:26:45.079Z</time>
      </trkpt>
      <trkpt lat="48.28549" lon="-3.60311">
        <ele>142.643935</ele>
        <time>2023-05-01T19:26:47.080Z</time>
      </trkpt>
      <trkpt lat="48.28547" lon="-3.60296">
        <ele>142.176709</ele>
        <time>2023-05-01T19:26:49.081Z</time>
      </trkpt>
      <trkpt lat="48.28545" lon="-3.6028">
        <ele>141.704324</ele>
        <time>2023-05-01T19:26:51.060Z</time>
      </trkpt>
      <trkpt lat="48.28541" lon="-3.60263">
        <ele>141.157066</ele>
        <time>2023-05-01T19:26:53.068Z</time>
      </trkpt>
      <trkpt lat="48.28535" lon="-3.60249">
        <ele>140.641224</ele>
        <time>2023-05-01T19:26:55.075Z</time>
      </trkpt>
      <trkpt lat="48.28531" lon="-3.60231">
        <ele>140.072874</ele>
        <time>2023-05-01T19:26:57.073Z</time>
      </trkpt>
      <trkpt lat="48.28527" lon="-3.60213">
        <ele>139.5103</ele>
        <time>2023-05-01T19:26:59.083Z</time>
      </trkpt>
      <trkpt lat="48.28522" lon="-3.60195">
        <ele>138.909074</ele>
        <time>2023-05-01T19:27:01.078Z</time>
      </trkpt>
      <trkpt lat="48.28516" lon="-3.60178">
        <ele>138.33421</ele>
        <time>2023-05-01T19:27:03.081Z</time>
      </trkpt>
      <trkpt lat="48.2851" lon="-3.60162">
        <ele>137.762533</ele>
        <time>2023-05-01T19:27:05.079Z</time>
      </trkpt>
      <trkpt lat="48.28505" lon="-3.60145">
        <ele>137.18919</ele>
        <time>2023-05-01T19:27:07.073Z</time>
      </trkpt>
      <trkpt lat="48.28498" lon="-3.60129">
        <ele>136.623632</ele>
        <time>2023-05-01T19:27:09.079Z</time>
      </trkpt>
      <trkpt lat="48.28492" lon="-3.60113">
        <ele>136.057282</ele>
        <time>2023-05-01T19:27:11.087Z</time>
      </trkpt>
      <trkpt lat="48.28486" lon="-3.60097">
        <ele>135.514371</ele>
        <time>2023-05-01T19:27:13.077Z</time>
      </trkpt>
      <trkpt lat="48.2848" lon="-3.60082">
        <ele>134.962572</ele>
        <time>2023-05-01T19:27:15.081Z</time>
      </trkpt>
      <trkpt lat="48.28474" lon="-3.60069">
        <ele>134.641504</ele>
        <time>2023-05-01T19:27:17.086Z</time>
      </trkpt>
      <trkpt lat="48.28467" lon="-3.60056">
        <ele>134.532453</ele>
        <time>2023-05-01T19:27:19.086Z</time>
      </trkpt>
      <trkpt lat="48.2846" lon="-3.60044">
        <ele>134.428204</ele>
        <time>2023-05-01T19:27:21.086Z</time>
      </trkpt>
      <trkpt lat="48.28451" lon="-3.6003">
        <ele>134.297874</ele>
        <time>2023-05-01T19:27:24.077Z</time>
      </trkpt>
      <trkpt lat="48.28443" lon="-3.60021">
        <ele>134.202774</ele>
        <time>2023-05-01T19:27:26.077Z</time>
      </trkpt>
      <trkpt lat="48.28435" lon="-3.6001">
        <ele>134.096273</ele>
        <time>2023-05-01T19:27:29.083Z</time>
      </trkpt>
      <trkpt lat="48.28031" lon="-3.60435">
        <ele>132.434109</ele>
        <time>2023-05-01T19:32:04.078Z</time>
      </trkpt>
      <trkpt lat="48.28021" lon="-3.60435">
        <ele>132.832966</ele>
        <time>2023-05-01T19:32:07.071Z</time>
      </trkpt>
      <trkpt lat="48.28011" lon="-3.60433">
        <ele>133.229283</ele>
        <time>2023-05-01T19:32:10.075Z</time>
      </trkpt>
      <trkpt lat="48.28002" lon="-3.60431">
        <ele>133.62811</ele>
        <time>2023-05-01T19:32:13.077Z</time>
      </trkpt>
      <trkpt lat="48.27991" lon="-3.60429">
        <ele>134.055907</ele>
        <time>2023-05-01T19:32:16.078Z</time>
      </trkpt>
      <trkpt lat="48.27981" lon="-3.60425">
        <ele>134.481671</ele>
        <time>2023-05-01T19:32:19.073Z</time>
      </trkpt>
      <trkpt lat="48.27972" lon="-3.60421">
        <ele>134.869252</ele>
        <time>2023-05-01T19:32:22.077Z</time>
      </trkpt>
      <trkpt lat="48.27963" lon="-3.60418">
        <ele>135.264701</ele>
        <time>2023-05-01T19:32:25.072Z</time>
      </trkpt>
      <trkpt lat="48.27953" lon="-3.60414">
        <ele>135.649623</ele>
        <time>2023-05-01T19:32:28.071Z</time>
      </trkpt>
      <trkpt lat="48.27942" lon="-3.6041">
        <ele>136.133368</ele>
        <time>2023-05-01T19:32:32.077Z</time>
      </trkpt>
      <trkpt lat="48.27933" lon="-3.60408">
        <ele>136.511386</ele>
        <time>2023-05-01T19:32:35.073Z</time>
      </trkpt>
      <trkpt lat="48.27922" lon="-3.60406">
        <ele>136.932266</ele>
        <time>2023-05-01T19:32:39.069Z</time>
      </trkpt>
      <trkpt lat="48.27911" lon="-3.60404">
        <ele>137.395634</ele>
        <time>2023-05-01T19:32:43.077Z</time>
      </trkpt>
      <trkpt lat="48.27902" lon="-3.60401">
        <ele>137.778751</ele>
        <time>2023-05-01T19:32:47.074Z</time>
      </trkpt>
      <trkpt lat="48.27893" lon="-3.60398">
        <ele>138.163718</ele>
        <time>2023-05-01T19:32:51.083Z</time>
      </trkpt>
      <trkpt lat="48.27882" lon="-3.60398">
        <ele>138.579038</ele>
        <time>2023-05-01T19:32:55.078Z</time>
      </trkpt>
      <trkpt lat="48.27871" lon="-3.60394">
        <ele>139.036976</ele>
        <time>2023-05-01T19:32:59.071Z</time>
      </trkpt>
      <trkpt lat="48.2786" lon="-3.60391">
        <ele>139.218189</ele>
        <time>2023-05-01T19:33:03.079Z</time>
      </trkpt>
      <trkpt lat="48.2785" lon="-3.60387">
        <ele>139.218189</ele>
        <time>2023-05-01T19:33:07.073Z</time>
      </trkpt>
      <trkpt lat="48.27841" lon="-3.60384">
        <ele>139.218189</ele>
        <time>2023-05-01T19:33:12.080Z</time>
      </trkpt>
      <trkpt lat="48.27831" lon="-3.60381">
        <ele>139.218189</ele>
        <time>2023-05-01T19:33:16.073Z</time>
      </trkpt>
      <trkpt lat="48.27821" lon="-3.60378">
        <ele>139.218189</ele>
        <time>2023-05-01T19:33:19.076Z</time>
      </trkpt>
      <trkpt lat="48.27811" lon="-3.60374">
        <ele>139.218189</ele>
        <time>2023-05-01T19:33:22.074Z</time>
      </trkpt>
      <trkpt lat="48.27801" lon="-3.6037">
        <ele>139.218189</ele>
        <time>2023-05-01T19:33:25.078Z</time>
      </trkpt>
      <trkpt lat="48.27792" lon="-3.60369">
        <ele>139.218189</ele>
        <time>2023-05-01T19:33:28.077Z</time>
      </trkpt>
      <trkpt lat="48.27782" lon="-3.60371">
        <ele>139.218189</ele>
        <time>2023-05-01T19:33:32.078Z</time>
      </trkpt>
      <trkpt lat="48.27773" lon="-3.60371">
        <ele>139.218189</ele>
        <time>2023-05-01T19:33:37.076Z</time>
      </trkpt>
      <trkpt lat="48.27774" lon="-3.60356">
        <ele>139.218189</ele>
        <time>2023-05-01T19:34:10.072Z</time>
      </trkpt>
      <trkpt lat="48.2777" lon="-3.60342">
        <ele>139.218189</ele>
        <time>2023-05-01T19:34:13.063Z</time>
      </trkpt>
      <trkpt lat="48.27765" lon="-3.60332">
        <ele>139.218189</ele>
        <time>2023-05-01T19:34:15.063Z</time>
      </trkpt>
      <trkpt lat="48.27758" lon="-3.6032">
        <ele>139.218189</ele>
        <time>2023-05-01T19:34:18.077Z</time>
      </trkpt>
      <trkpt lat="48.27756" lon="-3.60307">
        <ele>139.218189</ele>
        <time>2023-05-01T19:34:21.083Z</time>
      </trkpt>
      <trkpt lat="48.27752" lon="-3.6029">
        <ele>139.218189</ele>
        <time>2023-05-01T19:34:25.073Z</time>
      </trkpt>
      <trkpt lat="48.27753" lon="-3.60276">
        <ele>139.218189</ele>
        <time>2023-05-01T19:34:29.078Z</time>
      </trkpt>
      <trkpt lat="48.27755" lon="-3.60262">
        <ele>139.218189</ele>
        <time>2023-05-01T19:34:33.077Z</time>
      </trkpt>
      <trkpt lat="48.27757" lon="-3.60249">
        <ele>139.218189</ele>
        <time>2023-05-01T19:34:36.073Z</time>
      </trkpt>
      <trkpt lat="48.27761" lon="-3.60235">
        <ele>139.218189</ele>
        <time>2023-05-01T19:34:40.073Z</time>
      </trkpt>
      <trkpt lat="48.27768" lon="-3.60221">
        <ele>139.218189</ele>
        <time>2023-05-01T19:34:44.080Z</time>
      </trkpt>
      <trkpt lat="48.27775" lon="-3.60208">
        <ele>139.218189</ele>
        <time>2023-05-01T19:34:48.071Z</time>
      </trkpt>
      <trkpt lat="48.27779" lon="-3.60195">
        <ele>139.218189</ele>
        <time>2023-05-01T19:34:53.080Z</time>
      </trkpt>
      <trkpt lat="48.27774" lon="-3.60183">
        <ele>139.218189</ele>
        <time>2023-05-01T19:34:59.084Z</time>
      </trkpt>
      <trkpt lat="48.27765" lon="-3.6018">
        <ele>139.218189</ele>
        <time>2023-05-01T19:35:10.077Z</time>
      </trkpt>
      <trkpt lat="48.27763" lon="-3.60181">
        <ele>139.218189</ele>
        <time>2023-05-01T19:35:30.042Z</time>
      </trkpt>
    </trkseg>
  </trk>
</gpx>